<?xml version='1.0' encoding='UTF-8'?><gpx version="1.1" creator="JPX - https://github.com/jenetics/jpx" xmlns="http://www.topografix.com/GPX/1/1"><trk><trkseg><trkpt lat="40.7527652" lon="-3.7840861"><ele>921.0</ele><time>2026-04-05T13:19:59.153Z</time></trkpt><trkpt lat="40.7527297" lon="-3.7840005"><ele>921.0</ele><time>2026-04-05T13:20:01.153Z</time></trkpt><trkpt lat="40.7527081" lon="-3.783888"><ele>921.0</ele><time>2026-04-05T13:20:03.153Z</time></trkpt><trkpt lat="40.7526871" lon="-3.7837709"><ele>921.0</ele><time>2026-04-05T13:20:05.153Z</time></trkpt><trkpt lat="40.7526667" lon="-3.783664"><ele>921.0</ele><time>2026-04-05T13:20:07.153Z</time></trkpt><trkpt lat="40.7526423" lon="-3.7835338"><ele>921.0</ele><time>2026-04-05T13:20:09.153Z</time></trkpt><trkpt lat="40.7526214" lon="-3.783394"><ele>920.8</ele><time>2026-04-05T13:20:11.153Z</time></trkpt><trkpt lat="40.7526024" lon="-3.7832836"><ele>920.5999999999999</ele><time>2026-04-05T13:20:13.153Z</time></trkpt><trkpt lat="40.7525958" lon="-3.7831525"><ele>920.4</ele><time>2026-04-05T13:20:15.153Z</time></trkpt><trkpt lat="40.7526489" lon="-3.7830388"><ele>920.2</ele><time>2026-04-05T13:20:17.153Z</time></trkpt><trkpt lat="40.7527714" lon="-3.782997"><ele>920.0</ele><time>2026-04-05T13:20:19.153Z</time></trkpt><trkpt lat="40.7528773" lon="-3.7829685"><ele>920.0000000000001</ele><time>2026-04-05T13:20:21.153Z</time></trkpt><trkpt lat="40.7529606" lon="-3.782928"><ele>920.0</ele><time>2026-04-05T13:20:23.154Z</time></trkpt><trkpt lat="40.753023" lon="-3.7829017"><ele>920.0</ele><time>2026-04-05T13:20:26.153Z</time></trkpt><trkpt lat="40.7530907" lon="-3.7829729"><ele>920.0</ele><time>2026-04-05T13:20:29.154Z</time></trkpt><trkpt lat="40.7531012" lon="-3.7830947"><ele>920.0000000000001</ele><time>2026-04-05T13:20:31.154Z</time></trkpt><trkpt lat="40.7531016" lon="-3.7832034"><ele>920.0</ele><time>2026-04-05T13:20:33.153Z</time></trkpt><trkpt lat="40.7531108" lon="-3.7833293"><ele>920.0</ele><time>2026-04-05T13:20:35.153Z</time></trkpt><trkpt lat="40.7531272" lon="-3.7834591"><ele>920.0</ele><time>2026-04-05T13:20:37.153Z</time></trkpt><trkpt lat="40.7531544" lon="-3.7836099"><ele>920.0</ele><time>2026-04-05T13:20:39.153Z</time></trkpt><trkpt lat="40.7531783" lon="-3.7837299"><ele>920.0</ele><time>2026-04-05T13:20:41.153Z</time></trkpt><trkpt lat="40.7532055" lon="-3.7838407"><ele>920.0</ele><time>2026-04-05T13:20:43.153Z</time></trkpt><trkpt lat="40.753239" lon="-3.7839472"><ele>920.2</ele><time>2026-04-05T13:20:45.153Z</time></trkpt><trkpt lat="40.7532731" lon="-3.7840582"><ele>920.4</ele><time>2026-04-05T13:20:47.154Z</time></trkpt><trkpt lat="40.753314" lon="-3.7841694"><ele>920.5999999999999</ele><time>2026-04-05T13:20:49.153Z</time></trkpt><trkpt lat="40.7533669" lon="-3.7843046"><ele>920.8</ele><time>2026-04-05T13:20:51.153Z</time></trkpt><trkpt lat="40.7534075" lon="-3.7844235"><ele>921.0</ele><time>2026-04-05T13:20:53.153Z</time></trkpt><trkpt lat="40.7534395" lon="-3.7845028"><ele>921.0</ele><time>2026-04-05T13:20:55.153Z</time></trkpt><trkpt lat="40.7534839" lon="-3.7845709"><ele>920.9999999999999</ele><time>2026-04-05T13:20:59.153Z</time></trkpt><trkpt lat="40.7535127" lon="-3.7847021"><ele>920.9999999999999</ele><time>2026-04-05T13:21:03.153Z</time></trkpt><trkpt lat="40.7535498" lon="-3.7848124"><ele>921.0</ele><time>2026-04-05T13:21:05.153Z</time></trkpt><trkpt lat="40.7536015" lon="-3.7849242"><ele>921.0</ele><time>2026-04-05T13:21:07.153Z</time></trkpt><trkpt lat="40.7536486" lon="-3.7850324"><ele>921.0</ele><time>2026-04-05T13:21:09.153Z</time></trkpt><trkpt lat="40.7537188" lon="-3.7851447"><ele>920.9999999999999</ele><time>2026-04-05T13:21:11.153Z</time></trkpt><trkpt lat="40.7537942" lon="-3.7852668"><ele>920.9999999999999</ele><time>2026-04-05T13:21:13.153Z</time></trkpt><trkpt lat="40.7538586" lon="-3.7853721"><ele>921.0</ele><time>2026-04-05T13:21:15.153Z</time></trkpt><trkpt lat="40.7538633" lon="-3.7854979"><ele>921.0</ele><time>2026-04-05T13:21:17.153Z</time></trkpt><trkpt lat="40.7538488" lon="-3.7856183"><ele>921.0</ele><time>2026-04-05T13:21:19.154Z</time></trkpt><trkpt lat="40.753883" lon="-3.7856932"><ele>921.0</ele><time>2026-04-05T13:21:20.153Z</time></trkpt><trkpt lat="40.7539777" lon="-3.785797"><ele>921.0</ele><time>2026-04-05T13:21:22.154Z</time></trkpt><trkpt lat="40.7540359" lon="-3.7858529"><ele>921.0</ele><time>2026-04-05T13:21:23.154Z</time></trkpt><trkpt lat="40.7540952" lon="-3.7859039"><ele>921.0</ele><time>2026-04-05T13:21:24.153Z</time></trkpt><trkpt lat="40.7541477" lon="-3.7859558"><ele>921.0</ele><time>2026-04-05T13:21:25.154Z</time></trkpt><trkpt lat="40.7541933" lon="-3.7860204"><ele>921.4</ele><time>2026-04-05T13:21:26.153Z</time></trkpt><trkpt lat="40.7542433" lon="-3.7861707"><ele>921.8</ele><time>2026-04-05T13:21:28.154Z</time></trkpt><trkpt lat="40.7542694" lon="-3.7862596"><ele>922.1999999999999</ele><time>2026-04-05T13:21:29.153Z</time></trkpt><trkpt lat="40.7543023" lon="-3.7863601"><ele>922.5999999999999</ele><time>2026-04-05T13:21:30.153Z</time></trkpt><trkpt lat="40.7543301" lon="-3.7864702"><ele>923.0</ele><time>2026-04-05T13:21:31.153Z</time></trkpt><trkpt lat="40.7543433" lon="-3.7865783"><ele>923.0000000000001</ele><time>2026-04-05T13:21:32.153Z</time></trkpt><trkpt lat="40.754346" lon="-3.7866739"><ele>923.0</ele><time>2026-04-05T13:21:33.154Z</time></trkpt><trkpt lat="40.7543458" lon="-3.786759"><ele>923.0</ele><time>2026-04-05T13:21:34.153Z</time></trkpt><trkpt lat="40.7543533" lon="-3.7868437"><ele>923.0</ele><time>2026-04-05T13:21:35.154Z</time></trkpt><trkpt lat="40.7543882" lon="-3.7869169"><ele>923.0000000000001</ele><time>2026-04-05T13:21:36.153Z</time></trkpt><trkpt lat="40.7545015" lon="-3.7869761"><ele>923.0</ele><time>2026-04-05T13:21:38.153Z</time></trkpt><trkpt lat="40.7545728" lon="-3.7869932"><ele>922.8333333333334</ele><time>2026-04-05T13:21:39.153Z</time></trkpt><trkpt lat="40.7546503" lon="-3.7870217"><ele>922.6666666666667</ele><time>2026-04-05T13:21:40.153Z</time></trkpt><trkpt lat="40.754724" lon="-3.7870388"><ele>922.5</ele><time>2026-04-05T13:21:41.153Z</time></trkpt><trkpt lat="40.7547981" lon="-3.7870572"><ele>922.3333333333333</ele><time>2026-04-05T13:21:42.153Z</time></trkpt><trkpt lat="40.7548773" lon="-3.7870719"><ele>922.1666666666666</ele><time>2026-04-05T13:21:43.153Z</time></trkpt><trkpt lat="40.7549516" lon="-3.7870784"><ele>922.0</ele><time>2026-04-05T13:21:44.153Z</time></trkpt><trkpt lat="40.7550276" lon="-3.7870762"><ele>922.0</ele><time>2026-04-05T13:21:45.153Z</time></trkpt><trkpt lat="40.7551026" lon="-3.7870769"><ele>922.0000000000001</ele><time>2026-04-05T13:21:46.153Z</time></trkpt><trkpt lat="40.7551708" lon="-3.7870675"><ele>922.0</ele><time>2026-04-05T13:21:47.153Z</time></trkpt><trkpt lat="40.7552372" lon="-3.787054"><ele>922.0</ele><time>2026-04-05T13:21:48.153Z</time></trkpt><trkpt lat="40.7553063" lon="-3.7870445"><ele>922.0000000000001</ele><time>2026-04-05T13:21:49.153Z</time></trkpt><trkpt lat="40.7553751" lon="-3.7870259"><ele>922.0</ele><time>2026-04-05T13:21:50.153Z</time></trkpt><trkpt lat="40.7554458" lon="-3.7870008"><ele>922.0</ele><time>2026-04-05T13:21:51.153Z</time></trkpt><trkpt lat="40.7555272" lon="-3.786981"><ele>922.4000000000001</ele><time>2026-04-05T13:21:52.153Z</time></trkpt><trkpt lat="40.7556138" lon="-3.7869792"><ele>922.8000000000001</ele><time>2026-04-05T13:21:53.153Z</time></trkpt><trkpt lat="40.7557077" lon="-3.7869773"><ele>923.2</ele><time>2026-04-05T13:21:54.153Z</time></trkpt><trkpt lat="40.7558021" lon="-3.7869485"><ele>923.6</ele><time>2026-04-05T13:21:55.154Z</time></trkpt><trkpt lat="40.7558876" lon="-3.7869128"><ele>924.0</ele><time>2026-04-05T13:21:56.153Z</time></trkpt><trkpt lat="40.7559672" lon="-3.7868801"><ele>924.3333333333334</ele><time>2026-04-05T13:21:57.154Z</time></trkpt><trkpt lat="40.7560426" lon="-3.786845"><ele>924.6666666666667</ele><time>2026-04-05T13:21:58.153Z</time></trkpt><trkpt lat="40.7561194" lon="-3.7868105"><ele>925.0</ele><time>2026-04-05T13:21:59.154Z</time></trkpt><trkpt lat="40.7561932" lon="-3.7867851"><ele>925.3333333333334</ele><time>2026-04-05T13:22:00.154Z</time></trkpt><trkpt lat="40.7562654" lon="-3.7867735"><ele>925.6666666666667</ele><time>2026-04-05T13:22:01.153Z</time></trkpt><trkpt lat="40.7563355" lon="-3.7867755"><ele>926.0</ele><time>2026-04-05T13:22:02.153Z</time></trkpt><trkpt lat="40.7564161" lon="-3.7867763"><ele>926.1428571428571</ele><time>2026-04-05T13:22:03.153Z</time></trkpt><trkpt lat="40.7564978" lon="-3.7867806"><ele>926.2857142857142</ele><time>2026-04-05T13:22:04.153Z</time></trkpt><trkpt lat="40.7565773" lon="-3.7867806"><ele>926.4285714285713</ele><time>2026-04-05T13:22:05.153Z</time></trkpt><trkpt lat="40.7566516" lon="-3.7867829"><ele>926.5714285714284</ele><time>2026-04-05T13:22:06.153Z</time></trkpt><trkpt lat="40.7567171" lon="-3.7867869"><ele>926.7142857142857</ele><time>2026-04-05T13:22:07.153Z</time></trkpt><trkpt lat="40.7567835" lon="-3.7867938"><ele>926.8571428571427</ele><time>2026-04-05T13:22:08.153Z</time></trkpt><trkpt lat="40.756851" lon="-3.7867987"><ele>926.9999999999999</ele><time>2026-04-05T13:22:09.154Z</time></trkpt><trkpt lat="40.756919" lon="-3.7867968"><ele>927.0</ele><time>2026-04-05T13:22:10.153Z</time></trkpt><trkpt lat="40.7569907" lon="-3.7868"><ele>927.0</ele><time>2026-04-05T13:22:11.153Z</time></trkpt><trkpt lat="40.7570654" lon="-3.7868064"><ele>927.0</ele><time>2026-04-05T13:22:12.154Z</time></trkpt><trkpt lat="40.757143" lon="-3.7868118"><ele>927.0</ele><time>2026-04-05T13:22:13.153Z</time></trkpt><trkpt lat="40.7572243" lon="-3.7868118"><ele>927.0</ele><time>2026-04-05T13:22:14.154Z</time></trkpt><trkpt lat="40.7573032" lon="-3.7868143"><ele>927.0</ele><time>2026-04-05T13:22:15.153Z</time></trkpt><trkpt lat="40.7573741" lon="-3.7868126"><ele>926.9999999999999</ele><time>2026-04-05T13:22:16.153Z</time></trkpt><trkpt lat="40.7574367" lon="-3.7867908"><ele>927.0</ele><time>2026-04-05T13:22:17.153Z</time></trkpt><trkpt lat="40.7574942" lon="-3.7867393"><ele>926.9999999999999</ele><time>2026-04-05T13:22:18.154Z</time></trkpt><trkpt lat="40.7575526" lon="-3.7866932"><ele>926.9999999999999</ele><time>2026-04-05T13:22:19.154Z</time></trkpt><trkpt lat="40.7576189" lon="-3.7866553"><ele>927.0</ele><time>2026-04-05T13:22:20.153Z</time></trkpt><trkpt lat="40.7576963" lon="-3.7866468"><ele>926.9999999999999</ele><time>2026-04-05T13:22:21.153Z</time></trkpt><trkpt lat="40.7577777" lon="-3.7866677"><ele>926.9999999999999</ele><time>2026-04-05T13:22:22.153Z</time></trkpt><trkpt lat="40.757856" lon="-3.7867087"><ele>927.3333333333334</ele><time>2026-04-05T13:22:23.153Z</time></trkpt><trkpt lat="40.7579166" lon="-3.7867927"><ele>927.6666666666667</ele><time>2026-04-05T13:22:24.153Z</time></trkpt><trkpt lat="40.7579548" lon="-3.7868811"><ele>928.0</ele><time>2026-04-05T13:22:25.153Z</time></trkpt><trkpt lat="40.7579709" lon="-3.7869901"><ele>928.3333333333334</ele><time>2026-04-05T13:22:26.153Z</time></trkpt><trkpt lat="40.7579543" lon="-3.7870827"><ele>928.6666666666667</ele><time>2026-04-05T13:22:27.154Z</time></trkpt><trkpt lat="40.7579146" lon="-3.7871661"><ele>929.0</ele><time>2026-04-05T13:22:28.153Z</time></trkpt><trkpt lat="40.7578579" lon="-3.7872402"><ele>929.0000000000001</ele><time>2026-04-05T13:22:29.153Z</time></trkpt><trkpt lat="40.7577951" lon="-3.7873018"><ele>929.0</ele><time>2026-04-05T13:22:30.153Z</time></trkpt><trkpt lat="40.7577371" lon="-3.7873692"><ele>929.0</ele><time>2026-04-05T13:22:31.153Z</time></trkpt><trkpt lat="40.7577018" lon="-3.7874478"><ele>929.0</ele><time>2026-04-05T13:22:32.153Z</time></trkpt><trkpt lat="40.7577292" lon="-3.7876014"><ele>929.0000000000001</ele><time>2026-04-05T13:22:34.153Z</time></trkpt><trkpt lat="40.7577554" lon="-3.7876813"><ele>929.0</ele><time>2026-04-05T13:22:35.153Z</time></trkpt><trkpt lat="40.7577932" lon="-3.787765"><ele>929.0</ele><time>2026-04-05T13:22:36.154Z</time></trkpt><trkpt lat="40.7578415" lon="-3.7878488"><ele>929.0000000000001</ele><time>2026-04-05T13:22:37.153Z</time></trkpt><trkpt lat="40.757889" lon="-3.787937"><ele>929.0000000000001</ele><time>2026-04-05T13:22:38.153Z</time></trkpt><trkpt lat="40.7579245" lon="-3.7880463"><ele>929.0</ele><time>2026-04-05T13:22:39.153Z</time></trkpt><trkpt lat="40.7579536" lon="-3.7881679"><ele>929.0</ele><time>2026-04-05T13:22:40.153Z</time></trkpt><trkpt lat="40.7579844" lon="-3.7882998"><ele>929.0</ele><time>2026-04-05T13:22:41.154Z</time></trkpt><trkpt lat="40.7580072" lon="-3.788437"><ele>929.0</ele><time>2026-04-05T13:22:42.153Z</time></trkpt><trkpt lat="40.7580255" lon="-3.7885899"><ele>929.0</ele><time>2026-04-05T13:22:43.153Z</time></trkpt><trkpt lat="40.7580423" lon="-3.7887405"><ele>929.0</ele><time>2026-04-05T13:22:44.154Z</time></trkpt><trkpt lat="40.7580609" lon="-3.788893"><ele>928.75</ele><time>2026-04-05T13:22:45.153Z</time></trkpt><trkpt lat="40.7580812" lon="-3.7890401"><ele>928.5</ele><time>2026-04-05T13:22:46.153Z</time></trkpt><trkpt lat="40.7581056" lon="-3.789191"><ele>928.25</ele><time>2026-04-05T13:22:47.154Z</time></trkpt><trkpt lat="40.758131" lon="-3.7893397"><ele>928.0</ele><time>2026-04-05T13:22:48.153Z</time></trkpt><trkpt lat="40.7581681" lon="-3.789474"><ele>927.5999999999999</ele><time>2026-04-05T13:22:49.153Z</time></trkpt><trkpt lat="40.7582167" lon="-3.7896013"><ele>927.1999999999999</ele><time>2026-04-05T13:22:50.153Z</time></trkpt><trkpt lat="40.7582605" lon="-3.7897221"><ele>926.8</ele><time>2026-04-05T13:22:51.153Z</time></trkpt><trkpt lat="40.7583048" lon="-3.7898423"><ele>926.4</ele><time>2026-04-05T13:22:52.153Z</time></trkpt><trkpt lat="40.7583475" lon="-3.7899512"><ele>926.0</ele><time>2026-04-05T13:22:53.153Z</time></trkpt><trkpt lat="40.7583813" lon="-3.7900541"><ele>926.0</ele><time>2026-04-05T13:22:54.153Z</time></trkpt><trkpt lat="40.7584087" lon="-3.7901535"><ele>925.9999999999999</ele><time>2026-04-05T13:22:55.153Z</time></trkpt><trkpt lat="40.7584299" lon="-3.7902436"><ele>926.0</ele><time>2026-04-05T13:22:56.153Z</time></trkpt><trkpt lat="40.7584544" lon="-3.7903313"><ele>926.0</ele><time>2026-04-05T13:22:57.153Z</time></trkpt><trkpt lat="40.7584764" lon="-3.790414"><ele>925.9999999999999</ele><time>2026-04-05T13:22:58.154Z</time></trkpt><trkpt lat="40.7584982" lon="-3.7904942"><ele>926.0</ele><time>2026-04-05T13:22:59.153Z</time></trkpt><trkpt lat="40.7585237" lon="-3.7905751"><ele>926.0</ele><time>2026-04-05T13:23:00.153Z</time></trkpt><trkpt lat="40.7586205" lon="-3.7906791"><ele>926.3333333333334</ele><time>2026-04-05T13:23:02.154Z</time></trkpt><trkpt lat="40.7586808" lon="-3.7907162"><ele>926.6666666666667</ele><time>2026-04-05T13:23:03.153Z</time></trkpt><trkpt lat="40.7587508" lon="-3.7907397"><ele>927.0</ele><time>2026-04-05T13:23:04.153Z</time></trkpt><trkpt lat="40.7588349" lon="-3.7907601"><ele>927.3333333333333</ele><time>2026-04-05T13:23:05.153Z</time></trkpt><trkpt lat="40.7589355" lon="-3.7907596"><ele>927.6666666666666</ele><time>2026-04-05T13:23:06.153Z</time></trkpt><trkpt lat="40.7590369" lon="-3.7907659"><ele>928.0</ele><time>2026-04-05T13:23:07.153Z</time></trkpt><trkpt lat="40.759139" lon="-3.7907766"><ele>928.0</ele><time>2026-04-05T13:23:08.153Z</time></trkpt><trkpt lat="40.7592507" lon="-3.7907853"><ele>928.0</ele><time>2026-04-05T13:23:09.153Z</time></trkpt><trkpt lat="40.7593654" lon="-3.7907798"><ele>928.0</ele><time>2026-04-05T13:23:10.153Z</time></trkpt><trkpt lat="40.7594819" lon="-3.7907571"><ele>928.0</ele><time>2026-04-05T13:23:11.153Z</time></trkpt><trkpt lat="40.759591" lon="-3.7907295"><ele>928.5</ele><time>2026-04-05T13:23:12.153Z</time></trkpt><trkpt lat="40.7597009" lon="-3.7907012"><ele>929.0</ele><time>2026-04-05T13:23:13.153Z</time></trkpt><trkpt lat="40.7598195" lon="-3.7906757"><ele>929.5</ele><time>2026-04-05T13:23:14.153Z</time></trkpt><trkpt lat="40.7599383" lon="-3.7906458"><ele>930.0</ele><time>2026-04-05T13:23:15.153Z</time></trkpt><trkpt lat="40.7600548" lon="-3.7906186"><ele>930.0</ele><time>2026-04-05T13:23:16.153Z</time></trkpt><trkpt lat="40.7601748" lon="-3.7905879"><ele>930.0</ele><time>2026-04-05T13:23:17.153Z</time></trkpt><trkpt lat="40.7602806" lon="-3.7905735"><ele>930.0</ele><time>2026-04-05T13:23:18.154Z</time></trkpt><trkpt lat="40.7603729" lon="-3.7905606"><ele>930.0</ele><time>2026-04-05T13:23:19.153Z</time></trkpt><trkpt lat="40.7604577" lon="-3.7905544"><ele>930.0</ele><time>2026-04-05T13:23:20.154Z</time></trkpt><trkpt lat="40.7605478" lon="-3.7905476"><ele>930.4</ele><time>2026-04-05T13:23:21.153Z</time></trkpt><trkpt lat="40.7606416" lon="-3.7905311"><ele>930.8</ele><time>2026-04-05T13:23:22.153Z</time></trkpt><trkpt lat="40.7607341" lon="-3.790513"><ele>931.2</ele><time>2026-04-05T13:23:23.154Z</time></trkpt><trkpt lat="40.7608178" lon="-3.7904788"><ele>931.6</ele><time>2026-04-05T13:23:24.153Z</time></trkpt><trkpt lat="40.7608859" lon="-3.790439"><ele>932.0</ele><time>2026-04-05T13:23:25.153Z</time></trkpt><trkpt lat="40.7609687" lon="-3.7903597"><ele>932.6</ele><time>2026-04-05T13:23:27.154Z</time></trkpt><trkpt lat="40.7610365" lon="-3.7902837"><ele>933.2</ele><time>2026-04-05T13:23:30.153Z</time></trkpt><trkpt lat="40.7611468" lon="-3.7902428"><ele>933.8</ele><time>2026-04-05T13:23:32.153Z</time></trkpt><trkpt lat="40.7612191" lon="-3.7902035"><ele>934.4</ele><time>2026-04-05T13:23:33.154Z</time></trkpt><trkpt lat="40.7612989" lon="-3.7901606"><ele>935.0</ele><time>2026-04-05T13:23:34.154Z</time></trkpt><trkpt lat="40.7613821" lon="-3.7901128"><ele>935.0000000000001</ele><time>2026-04-05T13:23:35.153Z</time></trkpt><trkpt lat="40.7614672" lon="-3.7900762"><ele>935.0</ele><time>2026-04-05T13:23:36.153Z</time></trkpt><trkpt lat="40.761542" lon="-3.7900396"><ele>935.0</ele><time>2026-04-05T13:23:37.154Z</time></trkpt><trkpt lat="40.7616164" lon="-3.7899984"><ele>935.0</ele><time>2026-04-05T13:23:38.153Z</time></trkpt><trkpt lat="40.7616987" lon="-3.7899572"><ele>935.0000000000001</ele><time>2026-04-05T13:23:39.153Z</time></trkpt><trkpt lat="40.7617899" lon="-3.7899098"><ele>935.0</ele><time>2026-04-05T13:23:40.153Z</time></trkpt><trkpt lat="40.76188" lon="-3.7898427"><ele>935.0</ele><time>2026-04-05T13:23:41.153Z</time></trkpt><trkpt lat="40.7619852" lon="-3.7897762"><ele>935.0</ele><time>2026-04-05T13:23:42.153Z</time></trkpt><trkpt lat="40.762102" lon="-3.789709"><ele>935.0</ele><time>2026-04-05T13:23:43.154Z</time></trkpt><trkpt lat="40.7622151" lon="-3.7896303"><ele>935.0</ele><time>2026-04-05T13:23:44.153Z</time></trkpt><trkpt lat="40.7623287" lon="-3.7895572"><ele>935.0</ele><time>2026-04-05T13:23:45.153Z</time></trkpt><trkpt lat="40.762453" lon="-3.7894909"><ele>935.0</ele><time>2026-04-05T13:23:46.153Z</time></trkpt><trkpt lat="40.7625953" lon="-3.7894365"><ele>935.0</ele><time>2026-04-05T13:23:47.153Z</time></trkpt><trkpt lat="40.7627421" lon="-3.7893776"><ele>935.0</ele><time>2026-04-05T13:23:48.154Z</time></trkpt><trkpt lat="40.7628852" lon="-3.7892983"><ele>936.0</ele><time>2026-04-05T13:23:49.153Z</time></trkpt><trkpt lat="40.7630269" lon="-3.7892074"><ele>937.0</ele><time>2026-04-05T13:23:50.153Z</time></trkpt><trkpt lat="40.7631628" lon="-3.78912"><ele>938.0</ele><time>2026-04-05T13:23:51.153Z</time></trkpt><trkpt lat="40.7633083" lon="-3.7890386"><ele>938.0</ele><time>2026-04-05T13:23:52.153Z</time></trkpt><trkpt lat="40.7634511" lon="-3.7889551"><ele>938.0</ele><time>2026-04-05T13:23:53.153Z</time></trkpt><trkpt lat="40.7635985" lon="-3.7888661"><ele>938.0</ele><time>2026-04-05T13:23:54.153Z</time></trkpt><trkpt lat="40.7637464" lon="-3.788775"><ele>939.6666666666667</ele><time>2026-04-05T13:23:55.154Z</time></trkpt><trkpt lat="40.7638914" lon="-3.7886804"><ele>941.3333333333333</ele><time>2026-04-05T13:23:56.154Z</time></trkpt><trkpt lat="40.7640351" lon="-3.7885794"><ele>943.0</ele><time>2026-04-05T13:23:57.153Z</time></trkpt><trkpt lat="40.7641698" lon="-3.7884794"><ele>943.0</ele><time>2026-04-05T13:23:58.153Z</time></trkpt><trkpt lat="40.7642991" lon="-3.7883727"><ele>943.0</ele><time>2026-04-05T13:23:59.154Z</time></trkpt><trkpt lat="40.7644173" lon="-3.7882412"><ele>943.0</ele><time>2026-04-05T13:24:00.153Z</time></trkpt><trkpt lat="40.7645361" lon="-3.7881234"><ele>944.0</ele><time>2026-04-05T13:24:01.153Z</time></trkpt><trkpt lat="40.764667" lon="-3.7880229"><ele>945.0</ele><time>2026-04-05T13:24:02.153Z</time></trkpt><trkpt lat="40.7648128" lon="-3.7879366"><ele>946.0</ele><time>2026-04-05T13:24:03.153Z</time></trkpt><trkpt lat="40.7649631" lon="-3.7878553"><ele>946.0</ele><time>2026-04-05T13:24:04.153Z</time></trkpt><trkpt lat="40.7651257" lon="-3.7877846"><ele>946.0</ele><time>2026-04-05T13:24:05.154Z</time></trkpt><trkpt lat="40.7652942" lon="-3.7877199"><ele>946.0</ele><time>2026-04-05T13:24:06.153Z</time></trkpt><trkpt lat="40.7654568" lon="-3.7876639"><ele>946.3333333333333</ele><time>2026-04-05T13:24:07.153Z</time></trkpt><trkpt lat="40.7656124" lon="-3.7876161"><ele>946.6666666666667</ele><time>2026-04-05T13:24:08.153Z</time></trkpt><trkpt lat="40.76577" lon="-3.7875739"><ele>947.0</ele><time>2026-04-05T13:24:09.153Z</time></trkpt><trkpt lat="40.7659235" lon="-3.7875328"><ele>948.0</ele><time>2026-04-05T13:24:10.153Z</time></trkpt><trkpt lat="40.7660723" lon="-3.7874887"><ele>949.0</ele><time>2026-04-05T13:24:11.153Z</time></trkpt><trkpt lat="40.7662202" lon="-3.7874562"><ele>950.0</ele><time>2026-04-05T13:24:12.153Z</time></trkpt><trkpt lat="40.7663626" lon="-3.7874397"><ele>951.0</ele><time>2026-04-05T13:24:13.153Z</time></trkpt><trkpt lat="40.7664965" lon="-3.787421"><ele>951.0</ele><time>2026-04-05T13:24:14.153Z</time></trkpt><trkpt lat="40.7666255" lon="-3.7874073"><ele>951.0</ele><time>2026-04-05T13:24:15.154Z</time></trkpt><trkpt lat="40.7667437" lon="-3.7873998"><ele>951.0</ele><time>2026-04-05T13:24:16.153Z</time></trkpt><trkpt lat="40.7668504" lon="-3.7873903"><ele>951.0</ele><time>2026-04-05T13:24:17.153Z</time></trkpt><trkpt lat="40.7669664" lon="-3.7873748"><ele>951.5</ele><time>2026-04-05T13:24:18.153Z</time></trkpt><trkpt lat="40.7670868" lon="-3.7873498"><ele>952.0</ele><time>2026-04-05T13:24:19.154Z</time></trkpt><trkpt lat="40.7672067" lon="-3.7873132"><ele>952.5</ele><time>2026-04-05T13:24:20.153Z</time></trkpt><trkpt lat="40.7673262" lon="-3.7872729"><ele>953.0</ele><time>2026-04-05T13:24:21.153Z</time></trkpt><trkpt lat="40.76745" lon="-3.7872301"><ele>953.0</ele><time>2026-04-05T13:24:22.154Z</time></trkpt><trkpt lat="40.7675784" lon="-3.7871844"><ele>953.0</ele><time>2026-04-05T13:24:23.153Z</time></trkpt><trkpt lat="40.7677087" lon="-3.7871214"><ele>953.0</ele><time>2026-04-05T13:24:24.153Z</time></trkpt><trkpt lat="40.7678401" lon="-3.7870532"><ele>953.0</ele><time>2026-04-05T13:24:25.153Z</time></trkpt><trkpt lat="40.7679673" lon="-3.7869852"><ele>953.25</ele><time>2026-04-05T13:24:26.154Z</time></trkpt><trkpt lat="40.7680966" lon="-3.7869214"><ele>953.5</ele><time>2026-04-05T13:24:27.153Z</time></trkpt><trkpt lat="40.7682267" lon="-3.7868592"><ele>953.75</ele><time>2026-04-05T13:24:28.153Z</time></trkpt><trkpt lat="40.7683547" lon="-3.7868059"><ele>954.0</ele><time>2026-04-05T13:24:29.153Z</time></trkpt><trkpt lat="40.7684812" lon="-3.7867634"><ele>955.6</ele><time>2026-04-05T13:24:30.153Z</time></trkpt><trkpt lat="40.7685999" lon="-3.7867405"><ele>957.2</ele><time>2026-04-05T13:24:31.153Z</time></trkpt><trkpt lat="40.7687155" lon="-3.7867261"><ele>958.8000000000001</ele><time>2026-04-05T13:24:32.153Z</time></trkpt><trkpt lat="40.7688216" lon="-3.7867144"><ele>960.4000000000001</ele><time>2026-04-05T13:24:33.154Z</time></trkpt><trkpt lat="40.7689196" lon="-3.7866837"><ele>962.0</ele><time>2026-04-05T13:24:34.154Z</time></trkpt><trkpt lat="40.7690123" lon="-3.7866455"><ele>962.0</ele><time>2026-04-05T13:24:35.154Z</time></trkpt><trkpt lat="40.7691033" lon="-3.7865774"><ele>962.0</ele><time>2026-04-05T13:24:36.154Z</time></trkpt><trkpt lat="40.7691914" lon="-3.7864975"><ele>962.0</ele><time>2026-04-05T13:24:37.153Z</time></trkpt><trkpt lat="40.7692643" lon="-3.7864272"><ele>962.0</ele><time>2026-04-05T13:24:38.154Z</time></trkpt><trkpt lat="40.7693026" lon="-3.7863354"><ele>962.0</ele><time>2026-04-05T13:24:39.154Z</time></trkpt><trkpt lat="40.7693314" lon="-3.7862251"><ele>962.0</ele><time>2026-04-05T13:24:40.153Z</time></trkpt><trkpt lat="40.7693527" lon="-3.7861021"><ele>962.0</ele><time>2026-04-05T13:24:41.153Z</time></trkpt><trkpt lat="40.7693654" lon="-3.7859621"><ele>962.0</ele><time>2026-04-05T13:24:42.153Z</time></trkpt><trkpt lat="40.7693866" lon="-3.7857969"><ele>962.0</ele><time>2026-04-05T13:24:43.153Z</time></trkpt><trkpt lat="40.7694055" lon="-3.7856297"><ele>963.5</ele><time>2026-04-05T13:24:44.153Z</time></trkpt><trkpt lat="40.7694103" lon="-3.7854658"><ele>965.0</ele><time>2026-04-05T13:24:45.153Z</time></trkpt><trkpt lat="40.7694088" lon="-3.7852979"><ele>966.5</ele><time>2026-04-05T13:24:46.153Z</time></trkpt><trkpt lat="40.7694172" lon="-3.7851318"><ele>968.0</ele><time>2026-04-05T13:24:47.153Z</time></trkpt><trkpt lat="40.7694408" lon="-3.7849572"><ele>968.25</ele><time>2026-04-05T13:24:48.153Z</time></trkpt><trkpt lat="40.7694748" lon="-3.7847938"><ele>968.5</ele><time>2026-04-05T13:24:49.154Z</time></trkpt><trkpt lat="40.7695065" lon="-3.784637"><ele>968.75</ele><time>2026-04-05T13:24:50.153Z</time></trkpt><trkpt lat="40.7695235" lon="-3.7844781"><ele>969.0</ele><time>2026-04-05T13:24:51.153Z</time></trkpt><trkpt lat="40.7695381" lon="-3.7843101"><ele>969.0</ele><time>2026-04-05T13:24:52.153Z</time></trkpt><trkpt lat="40.7695471" lon="-3.784144"><ele>969.0000000000001</ele><time>2026-04-05T13:24:53.153Z</time></trkpt><trkpt lat="40.7695477" lon="-3.783981"><ele>969.0000000000001</ele><time>2026-04-05T13:24:54.153Z</time></trkpt><trkpt lat="40.7695438" lon="-3.7838472"><ele>969.0</ele><time>2026-04-05T13:24:55.153Z</time></trkpt><trkpt lat="40.7695409" lon="-3.7837507"><ele>969.0</ele><time>2026-04-05T13:24:56.154Z</time></trkpt><trkpt lat="40.7695326" lon="-3.7836637"><ele>969.0</ele><time>2026-04-05T13:24:57.153Z</time></trkpt><trkpt lat="40.7695076" lon="-3.7835348"><ele>969.0</ele><time>2026-04-05T13:24:59.153Z</time></trkpt><trkpt lat="40.7694707" lon="-3.7834119"><ele>969.0</ele><time>2026-04-05T13:25:01.153Z</time></trkpt><trkpt lat="40.7694344" lon="-3.7832848"><ele>969.0</ele><time>2026-04-05T13:25:03.153Z</time></trkpt><trkpt lat="40.7694063" lon="-3.7832094"><ele>969.0</ele><time>2026-04-05T13:25:04.153Z</time></trkpt><trkpt lat="40.7693738" lon="-3.7831268"><ele>969.0</ele><time>2026-04-05T13:25:05.153Z</time></trkpt><trkpt lat="40.7693385" lon="-3.783029"><ele>966.8000000000001</ele><time>2026-04-05T13:25:06.153Z</time></trkpt><trkpt lat="40.7693033" lon="-3.7829196"><ele>964.6000000000001</ele><time>2026-04-05T13:25:07.154Z</time></trkpt><trkpt lat="40.7692697" lon="-3.7828067"><ele>962.4</ele><time>2026-04-05T13:25:08.153Z</time></trkpt><trkpt lat="40.7692481" lon="-3.7826807"><ele>960.2</ele><time>2026-04-05T13:25:09.153Z</time></trkpt><trkpt lat="40.7692342" lon="-3.782548"><ele>958.0</ele><time>2026-04-05T13:25:10.153Z</time></trkpt><trkpt lat="40.769219" lon="-3.782405"><ele>957.75</ele><time>2026-04-05T13:25:11.153Z</time></trkpt><trkpt lat="40.7691905" lon="-3.7822564"><ele>957.5</ele><time>2026-04-05T13:25:12.153Z</time></trkpt><trkpt lat="40.7691499" lon="-3.7821163"><ele>957.25</ele><time>2026-04-05T13:25:13.154Z</time></trkpt><trkpt lat="40.7690988" lon="-3.7819688"><ele>957.0</ele><time>2026-04-05T13:25:14.153Z</time></trkpt><trkpt lat="40.7690474" lon="-3.7818172"><ele>956.4000000000001</ele><time>2026-04-05T13:25:15.154Z</time></trkpt><trkpt lat="40.7689986" lon="-3.7816685"><ele>955.8000000000001</ele><time>2026-04-05T13:25:16.153Z</time></trkpt><trkpt lat="40.7689621" lon="-3.7815238"><ele>955.2</ele><time>2026-04-05T13:25:17.153Z</time></trkpt><trkpt lat="40.7689315" lon="-3.7813867"><ele>954.6</ele><time>2026-04-05T13:25:18.153Z</time></trkpt><trkpt lat="40.7689079" lon="-3.781261"><ele>954.0</ele><time>2026-04-05T13:25:19.154Z</time></trkpt><trkpt lat="40.7688925" lon="-3.7811459"><ele>954.0</ele><time>2026-04-05T13:25:20.153Z</time></trkpt><trkpt lat="40.768877" lon="-3.7810502"><ele>954.0</ele><time>2026-04-05T13:25:21.153Z</time></trkpt><trkpt lat="40.7688649" lon="-3.7809132"><ele>954.0</ele><time>2026-04-05T13:25:23.154Z</time></trkpt><trkpt lat="40.7689486" lon="-3.7808173"><ele>954.0</ele><time>2026-04-05T13:25:26.153Z</time></trkpt><trkpt lat="40.7690084" lon="-3.7807725"><ele>954.0</ele><time>2026-04-05T13:25:27.153Z</time></trkpt><trkpt lat="40.7690768" lon="-3.7807281"><ele>954.0</ele><time>2026-04-05T13:25:28.153Z</time></trkpt><trkpt lat="40.769143" lon="-3.7806787"><ele>953.8333333333334</ele><time>2026-04-05T13:25:29.153Z</time></trkpt><trkpt lat="40.7692161" lon="-3.7806315"><ele>953.6666666666667</ele><time>2026-04-05T13:25:30.154Z</time></trkpt><trkpt lat="40.7692891" lon="-3.7805829"><ele>953.5</ele><time>2026-04-05T13:25:31.153Z</time></trkpt><trkpt lat="40.7693708" lon="-3.780541"><ele>953.3333333333334</ele><time>2026-04-05T13:25:32.153Z</time></trkpt><trkpt lat="40.7694465" lon="-3.7805072"><ele>953.1666666666667</ele><time>2026-04-05T13:25:33.153Z</time></trkpt><trkpt lat="40.7695167" lon="-3.7804765"><ele>953.0</ele><time>2026-04-05T13:25:34.154Z</time></trkpt><trkpt lat="40.7695862" lon="-3.7804765"><ele>954.8</ele><time>2026-04-05T13:25:35.153Z</time></trkpt><trkpt lat="40.7696706" lon="-3.7804931"><ele>956.5999999999999</ele><time>2026-04-05T13:25:36.154Z</time></trkpt><trkpt lat="40.7697599" lon="-3.7805162"><ele>958.4000000000001</ele><time>2026-04-05T13:25:37.153Z</time></trkpt><trkpt lat="40.7698509" lon="-3.7805407"><ele>960.2</ele><time>2026-04-05T13:25:38.153Z</time></trkpt><trkpt lat="40.7699477" lon="-3.7805663"><ele>962.0</ele><time>2026-04-05T13:25:39.153Z</time></trkpt><trkpt lat="40.7700374" lon="-3.7805938"><ele>962.0000000000001</ele><time>2026-04-05T13:25:40.153Z</time></trkpt><trkpt lat="40.7701058" lon="-3.7805729"><ele>962.0</ele><time>2026-04-05T13:25:41.153Z</time></trkpt><trkpt lat="40.7701616" lon="-3.7805278"><ele>962.0</ele><time>2026-04-05T13:25:42.154Z</time></trkpt><trkpt lat="40.770218" lon="-3.7804874"><ele>962.0</ele><time>2026-04-05T13:25:43.153Z</time></trkpt><trkpt lat="40.7703001" lon="-3.780345"><ele>962.0000000000001</ele><time>2026-04-05T13:25:45.154Z</time></trkpt><trkpt lat="40.7703413" lon="-3.7802409"><ele>962.0</ele><time>2026-04-05T13:25:46.153Z</time></trkpt><trkpt lat="40.7703916" lon="-3.7801663"><ele>962.6666666666667</ele><time>2026-04-05T13:25:47.153Z</time></trkpt><trkpt lat="40.7704535" lon="-3.7801162"><ele>963.3333333333334</ele><time>2026-04-05T13:25:48.153Z</time></trkpt><trkpt lat="40.7705233" lon="-3.7800906"><ele>964.0</ele><time>2026-04-05T13:25:49.154Z</time></trkpt><trkpt lat="40.7706046" lon="-3.7800703"><ele>964.6666666666667</ele><time>2026-04-05T13:25:50.153Z</time></trkpt><trkpt lat="40.7706922" lon="-3.780064"><ele>965.3333333333334</ele><time>2026-04-05T13:25:51.153Z</time></trkpt><trkpt lat="40.7707811" lon="-3.7800595"><ele>966.0</ele><time>2026-04-05T13:25:52.153Z</time></trkpt><trkpt lat="40.7708688" lon="-3.7800573"><ele>966.0</ele><time>2026-04-05T13:25:53.153Z</time></trkpt><trkpt lat="40.7709551" lon="-3.7800518"><ele>966.0</ele><time>2026-04-05T13:25:54.154Z</time></trkpt><trkpt lat="40.7710336" lon="-3.7800468"><ele>966.0</ele><time>2026-04-05T13:25:55.154Z</time></trkpt><trkpt lat="40.7711118" lon="-3.7800385"><ele>966.0</ele><time>2026-04-05T13:25:56.154Z</time></trkpt><trkpt lat="40.7711871" lon="-3.7800243"><ele>966.0</ele><time>2026-04-05T13:25:57.154Z</time></trkpt><trkpt lat="40.7712646" lon="-3.7800096"><ele>966.0</ele><time>2026-04-05T13:25:58.153Z</time></trkpt><trkpt lat="40.77134" lon="-3.7799976"><ele>967.8333333333334</ele><time>2026-04-05T13:25:59.154Z</time></trkpt><trkpt lat="40.7714182" lon="-3.7799938"><ele>969.6666666666667</ele><time>2026-04-05T13:26:00.153Z</time></trkpt><trkpt lat="40.7714941" lon="-3.7799937"><ele>971.5</ele><time>2026-04-05T13:26:01.154Z</time></trkpt><trkpt lat="40.7715635" lon="-3.7799914"><ele>973.3333333333334</ele><time>2026-04-05T13:26:02.153Z</time></trkpt><trkpt lat="40.7716444" lon="-3.7799945"><ele>975.1666666666667</ele><time>2026-04-05T13:26:04.153Z</time></trkpt><trkpt lat="40.7717132" lon="-3.7800531"><ele>977.0</ele><time>2026-04-05T13:26:07.153Z</time></trkpt><trkpt lat="40.7718253" lon="-3.7800524"><ele>979.0</ele><time>2026-04-05T13:26:09.153Z</time></trkpt><trkpt lat="40.771927" lon="-3.7800157"><ele>981.0</ele><time>2026-04-05T13:26:11.154Z</time></trkpt><trkpt lat="40.7720212" lon="-3.7800351"><ele>983.0</ele><time>2026-04-05T13:26:13.153Z</time></trkpt><trkpt lat="40.772118" lon="-3.7801172"><ele>985.0</ele><time>2026-04-05T13:26:15.154Z</time></trkpt><trkpt lat="40.7722139" lon="-3.7802086"><ele>987.0</ele><time>2026-04-05T13:26:17.153Z</time></trkpt><trkpt lat="40.7722729" lon="-3.7802407"><ele>987.6666666666666</ele><time>2026-04-05T13:26:18.154Z</time></trkpt><trkpt lat="40.7723543" lon="-3.7802812"><ele>988.3333333333333</ele><time>2026-04-05T13:26:20.153Z</time></trkpt><trkpt lat="40.7724288" lon="-3.7803052"><ele>989.0</ele><time>2026-04-05T13:26:22.153Z</time></trkpt><trkpt lat="40.7724947" lon="-3.7803475"><ele>989.6666666666666</ele><time>2026-04-05T13:26:24.153Z</time></trkpt><trkpt lat="40.7725829" lon="-3.7804217"><ele>990.3333333333333</ele><time>2026-04-05T13:26:26.153Z</time></trkpt><trkpt lat="40.772665" lon="-3.7805118"><ele>991.0</ele><time>2026-04-05T13:26:28.153Z</time></trkpt><trkpt lat="40.7727446" lon="-3.7806312"><ele>992.6666666666666</ele><time>2026-04-05T13:26:30.153Z</time></trkpt><trkpt lat="40.7727621" lon="-3.7807759"><ele>994.3333333333333</ele><time>2026-04-05T13:26:32.153Z</time></trkpt><trkpt lat="40.7727425" lon="-3.7808795"><ele>996.0</ele><time>2026-04-05T13:26:33.153Z</time></trkpt><trkpt lat="40.7727347" lon="-3.7809792"><ele>997.6666666666667</ele><time>2026-04-05T13:26:34.154Z</time></trkpt><trkpt lat="40.7727366" lon="-3.7810784"><ele>999.3333333333334</ele><time>2026-04-05T13:26:35.153Z</time></trkpt><trkpt lat="40.7727528" lon="-3.7811812"><ele>1001.0</ele><time>2026-04-05T13:26:36.153Z</time></trkpt><trkpt lat="40.77276" lon="-3.781285"><ele>1001.4</ele><time>2026-04-05T13:26:37.153Z</time></trkpt><trkpt lat="40.7727642" lon="-3.7813897"><ele>1001.8</ele><time>2026-04-05T13:26:38.153Z</time></trkpt><trkpt lat="40.7727692" lon="-3.781479"><ele>1002.1999999999999</ele><time>2026-04-05T13:26:39.153Z</time></trkpt><trkpt lat="40.772787" lon="-3.7816289"><ele>1002.5999999999999</ele><time>2026-04-05T13:26:41.153Z</time></trkpt><trkpt lat="40.7728346" lon="-3.7817711"><ele>1003.0</ele><time>2026-04-05T13:26:43.153Z</time></trkpt><trkpt lat="40.7728772" lon="-3.7818528"><ele>1002.9999999999999</ele><time>2026-04-05T13:26:44.153Z</time></trkpt><trkpt lat="40.7729266" lon="-3.7819424"><ele>1003.0</ele><time>2026-04-05T13:26:45.154Z</time></trkpt><trkpt lat="40.7729746" lon="-3.7820321"><ele>1003.0</ele><time>2026-04-05T13:26:46.153Z</time></trkpt><trkpt lat="40.7730245" lon="-3.782117"><ele>1003.0</ele><time>2026-04-05T13:26:47.153Z</time></trkpt><trkpt lat="40.7730748" lon="-3.7822022"><ele>1002.9999999999999</ele><time>2026-04-05T13:26:48.153Z</time></trkpt><trkpt lat="40.7731166" lon="-3.7822921"><ele>1003.0</ele><time>2026-04-05T13:26:49.154Z</time></trkpt><trkpt lat="40.7731543" lon="-3.7823755"><ele>1002.9999999999999</ele><time>2026-04-05T13:26:50.154Z</time></trkpt><trkpt lat="40.7731961" lon="-3.7824382"><ele>1003.0</ele><time>2026-04-05T13:26:51.153Z</time></trkpt><trkpt lat="40.7732833" lon="-3.7825202"><ele>1003.0</ele><time>2026-04-05T13:26:53.153Z</time></trkpt><trkpt lat="40.7732789" lon="-3.7826486"><ele>1003.0</ele><time>2026-04-05T13:26:55.153Z</time></trkpt><trkpt lat="40.7732936" lon="-3.7827791"><ele>1002.9999999999999</ele><time>2026-04-05T13:26:57.153Z</time></trkpt><trkpt lat="40.7733215" lon="-3.7828596"><ele>1003.0</ele><time>2026-04-05T13:26:58.153Z</time></trkpt><trkpt lat="40.7733628" lon="-3.7829476"><ele>1002.4999999999999</ele><time>2026-04-05T13:26:59.153Z</time></trkpt><trkpt lat="40.7734034" lon="-3.7830502"><ele>1002.0</ele><time>2026-04-05T13:27:00.153Z</time></trkpt><trkpt lat="40.7734398" lon="-3.7831419"><ele>1001.5</ele><time>2026-04-05T13:27:01.153Z</time></trkpt><trkpt lat="40.7734716" lon="-3.7832292"><ele>1001.0</ele><time>2026-04-05T13:27:02.153Z</time></trkpt><trkpt lat="40.7735213" lon="-3.783367"><ele>1000.4999999999999</ele><time>2026-04-05T13:27:04.153Z</time></trkpt><trkpt lat="40.7735404" lon="-3.7834494"><ele>1000.0</ele><time>2026-04-05T13:27:05.153Z</time></trkpt><trkpt lat="40.7735765" lon="-3.7835264"><ele>999.9999999999999</ele><time>2026-04-05T13:27:06.153Z</time></trkpt><trkpt lat="40.7736799" lon="-3.7835953"><ele>1000.0</ele><time>2026-04-05T13:27:08.154Z</time></trkpt><trkpt lat="40.7737235" lon="-3.7836592"><ele>1000.0</ele><time>2026-04-05T13:27:09.153Z</time></trkpt><trkpt lat="40.7737785" lon="-3.7837307"><ele>1000.0</ele><time>2026-04-05T13:27:10.153Z</time></trkpt><trkpt lat="40.7738479" lon="-3.7838049"><ele>999.9999999999999</ele><time>2026-04-05T13:27:11.153Z</time></trkpt><trkpt lat="40.7739173" lon="-3.7838694"><ele>1000.0</ele><time>2026-04-05T13:27:12.153Z</time></trkpt><trkpt lat="40.7739833" lon="-3.7839247"><ele>999.9999999999999</ele><time>2026-04-05T13:27:13.153Z</time></trkpt><trkpt lat="40.7740478" lon="-3.7839802"><ele>1000.0</ele><time>2026-04-05T13:27:14.153Z</time></trkpt><trkpt lat="40.7741076" lon="-3.7840355"><ele>1000.0</ele><time>2026-04-05T13:27:15.153Z</time></trkpt><trkpt lat="40.7741716" lon="-3.7840914"><ele>1000.0</ele><time>2026-04-05T13:27:16.153Z</time></trkpt><trkpt lat="40.7742407" lon="-3.7841627"><ele>999.9999999999999</ele><time>2026-04-05T13:27:17.153Z</time></trkpt><trkpt lat="40.7743138" lon="-3.7842177"><ele>1000.0</ele><time>2026-04-05T13:27:18.153Z</time></trkpt><trkpt lat="40.7743807" lon="-3.7842547"><ele>1000.1666666666666</ele><time>2026-04-05T13:27:19.153Z</time></trkpt><trkpt lat="40.7744496" lon="-3.7842726"><ele>1000.3333333333333</ele><time>2026-04-05T13:27:20.154Z</time></trkpt><trkpt lat="40.7745207" lon="-3.7843113"><ele>1000.5</ele><time>2026-04-05T13:27:21.153Z</time></trkpt><trkpt lat="40.7745909" lon="-3.7843634"><ele>1000.6666666666667</ele><time>2026-04-05T13:27:22.153Z</time></trkpt><trkpt lat="40.7746631" lon="-3.7844326"><ele>1000.8333333333334</ele><time>2026-04-05T13:27:23.153Z</time></trkpt><trkpt lat="40.7747489" lon="-3.7845048"><ele>1001.0</ele><time>2026-04-05T13:27:24.153Z</time></trkpt><trkpt lat="40.7748443" lon="-3.7845745"><ele>1000.5999999999999</ele><time>2026-04-05T13:27:25.153Z</time></trkpt><trkpt lat="40.7749365" lon="-3.784648"><ele>1000.1999999999999</ele><time>2026-04-05T13:27:26.153Z</time></trkpt><trkpt lat="40.775031" lon="-3.7847109"><ele>999.8000000000001</ele><time>2026-04-05T13:27:27.153Z</time></trkpt><trkpt lat="40.7751149" lon="-3.7847716"><ele>999.4000000000001</ele><time>2026-04-05T13:27:28.153Z</time></trkpt><trkpt lat="40.7751983" lon="-3.7848241"><ele>999.0</ele><time>2026-04-05T13:27:29.153Z</time></trkpt><trkpt lat="40.775275" lon="-3.7848654"><ele>999.0</ele><time>2026-04-05T13:27:30.154Z</time></trkpt><trkpt lat="40.7753396" lon="-3.7849014"><ele>999.0000000000001</ele><time>2026-04-05T13:27:31.154Z</time></trkpt><trkpt lat="40.7753932" lon="-3.7849514"><ele>999.0</ele><time>2026-04-05T13:27:33.153Z</time></trkpt><trkpt lat="40.7754571" lon="-3.7850034"><ele>999.0</ele><time>2026-04-05T13:27:36.153Z</time></trkpt><trkpt lat="40.7755105" lon="-3.7850616"><ele>999.0000000000001</ele><time>2026-04-05T13:27:39.153Z</time></trkpt><trkpt lat="40.7755788" lon="-3.7851096"><ele>999.0</ele><time>2026-04-05T13:27:42.153Z</time></trkpt><trkpt lat="40.7756594" lon="-3.785142"><ele>999.0</ele><time>2026-04-05T13:27:45.154Z</time></trkpt><trkpt lat="40.7757492" lon="-3.7851922"><ele>998.8333333333334</ele><time>2026-04-05T13:27:47.153Z</time></trkpt><trkpt lat="40.7758507" lon="-3.7852858"><ele>998.6666666666667</ele><time>2026-04-05T13:27:49.153Z</time></trkpt><trkpt lat="40.7759068" lon="-3.785343"><ele>998.5</ele><time>2026-04-05T13:27:50.153Z</time></trkpt><trkpt lat="40.7759645" lon="-3.785404"><ele>998.3333333333334</ele><time>2026-04-05T13:27:51.154Z</time></trkpt><trkpt lat="40.7760231" lon="-3.7854752"><ele>998.1666666666667</ele><time>2026-04-05T13:27:52.153Z</time></trkpt><trkpt lat="40.7760765" lon="-3.7855478"><ele>998.0</ele><time>2026-04-05T13:27:53.153Z</time></trkpt><trkpt lat="40.7761242" lon="-3.7856231"><ele>998.7142857142858</ele><time>2026-04-05T13:27:54.154Z</time></trkpt><trkpt lat="40.7761673" lon="-3.7857034"><ele>999.4285714285714</ele><time>2026-04-05T13:27:55.154Z</time></trkpt><trkpt lat="40.7762021" lon="-3.7857924"><ele>1000.1428571428571</ele><time>2026-04-05T13:27:56.153Z</time></trkpt><trkpt lat="40.7762372" lon="-3.7858741"><ele>1000.8571428571429</ele><time>2026-04-05T13:27:57.154Z</time></trkpt><trkpt lat="40.7762751" lon="-3.785956"><ele>1001.5714285714284</ele><time>2026-04-05T13:27:58.154Z</time></trkpt><trkpt lat="40.7763183" lon="-3.7860287"><ele>1002.2857142857142</ele><time>2026-04-05T13:27:59.154Z</time></trkpt><trkpt lat="40.776369" lon="-3.786086"><ele>1003.0</ele><time>2026-04-05T13:28:00.153Z</time></trkpt><trkpt lat="40.7764597" lon="-3.7861462"><ele>1003.0</ele><time>2026-04-05T13:28:02.153Z</time></trkpt><trkpt lat="40.7765198" lon="-3.7861853"><ele>1002.9999999999999</ele><time>2026-04-05T13:28:05.153Z</time></trkpt><trkpt lat="40.7765931" lon="-3.7862074"><ele>1003.0</ele><time>2026-04-05T13:28:09.153Z</time></trkpt><trkpt lat="40.7766489" lon="-3.7862972"><ele>1003.0</ele><time>2026-04-05T13:28:12.153Z</time></trkpt><trkpt lat="40.7766806" lon="-3.786388"><ele>1002.9999999999999</ele><time>2026-04-05T13:28:14.153Z</time></trkpt><trkpt lat="40.7766988" lon="-3.7864756"><ele>1003.0</ele><time>2026-04-05T13:28:16.153Z</time></trkpt><trkpt lat="40.7767183" lon="-3.7865605"><ele>1003.0</ele><time>2026-04-05T13:28:18.153Z</time></trkpt><trkpt lat="40.7767396" lon="-3.7866714"><ele>1003.0</ele><time>2026-04-05T13:28:21.153Z</time></trkpt><trkpt lat="40.7767699" lon="-3.7867464"><ele>1003.0</ele><time>2026-04-05T13:28:23.153Z</time></trkpt><trkpt lat="40.7768137" lon="-3.7868487"><ele>1003.0</ele><time>2026-04-05T13:28:25.154Z</time></trkpt><trkpt lat="40.7768522" lon="-3.7869656"><ele>1003.0</ele><time>2026-04-05T13:28:27.153Z</time></trkpt><trkpt lat="40.7769008" lon="-3.7871205"><ele>1003.0</ele><time>2026-04-05T13:28:29.153Z</time></trkpt><trkpt lat="40.7769271" lon="-3.7872513"><ele>1004.0</ele><time>2026-04-05T13:28:31.153Z</time></trkpt><trkpt lat="40.7769689" lon="-3.7873583"><ele>1005.0</ele><time>2026-04-05T13:28:33.153Z</time></trkpt><trkpt lat="40.7770396" lon="-3.7874696"><ele>1006.0</ele><time>2026-04-05T13:28:35.153Z</time></trkpt><trkpt lat="40.7771085" lon="-3.7875776"><ele>1007.0</ele><time>2026-04-05T13:28:37.153Z</time></trkpt><trkpt lat="40.7771861" lon="-3.787659"><ele>1008.0</ele><time>2026-04-05T13:28:39.153Z</time></trkpt><trkpt lat="40.7772611" lon="-3.7877203"><ele>1008.0</ele><time>2026-04-05T13:28:41.154Z</time></trkpt><trkpt lat="40.7773075" lon="-3.7878062"><ele>1008.0</ele><time>2026-04-05T13:28:43.154Z</time></trkpt><trkpt lat="40.7774057" lon="-3.7877311"><ele>1008.0</ele><time>2026-04-05T13:28:46.153Z</time></trkpt><trkpt lat="40.7774457" lon="-3.7876601"><ele>1008.0</ele><time>2026-04-05T13:28:47.154Z</time></trkpt><trkpt lat="40.7774979" lon="-3.7875797"><ele>1008.0</ele><time>2026-04-05T13:28:48.153Z</time></trkpt><trkpt lat="40.7775543" lon="-3.7874921"><ele>1008.0</ele><time>2026-04-05T13:28:49.154Z</time></trkpt><trkpt lat="40.777613" lon="-3.7874124"><ele>1008.0</ele><time>2026-04-05T13:28:50.154Z</time></trkpt><trkpt lat="40.7776734" lon="-3.7873191"><ele>1008.0</ele><time>2026-04-05T13:28:51.153Z</time></trkpt><trkpt lat="40.7777196" lon="-3.7872226"><ele>1008.0</ele><time>2026-04-05T13:28:52.153Z</time></trkpt><trkpt lat="40.7777545" lon="-3.7871212"><ele>1008.0</ele><time>2026-04-05T13:28:53.153Z</time></trkpt><trkpt lat="40.777786" lon="-3.7870369"><ele>1008.0</ele><time>2026-04-05T13:28:54.154Z</time></trkpt><trkpt lat="40.7778667" lon="-3.7869808"><ele>1008.0</ele><time>2026-04-05T13:28:56.154Z</time></trkpt><trkpt lat="40.7779853" lon="-3.7870024"><ele>1008.8333333333334</ele><time>2026-04-05T13:28:58.153Z</time></trkpt><trkpt lat="40.7780517" lon="-3.7869698"><ele>1009.6666666666667</ele><time>2026-04-05T13:28:59.153Z</time></trkpt><trkpt lat="40.7780989" lon="-3.7869137"><ele>1010.5</ele><time>2026-04-05T13:29:00.153Z</time></trkpt><trkpt lat="40.7781182" lon="-3.7868219"><ele>1011.3333333333334</ele><time>2026-04-05T13:29:01.153Z</time></trkpt><trkpt lat="40.7781195" lon="-3.7867254"><ele>1012.1666666666667</ele><time>2026-04-05T13:29:02.153Z</time></trkpt><trkpt lat="40.7781717" lon="-3.7865824"><ele>1013.0</ele><time>2026-04-05T13:29:04.153Z</time></trkpt><trkpt lat="40.7782488" lon="-3.7865424"><ele>1013.0000000000001</ele><time>2026-04-05T13:29:05.153Z</time></trkpt><trkpt lat="40.7783423" lon="-3.786501"><ele>1013.0</ele><time>2026-04-05T13:29:06.153Z</time></trkpt><trkpt lat="40.778432" lon="-3.7864654"><ele>1013.0</ele><time>2026-04-05T13:29:07.154Z</time></trkpt><trkpt lat="40.7785149" lon="-3.7864279"><ele>1013.0</ele><time>2026-04-05T13:29:08.153Z</time></trkpt><trkpt lat="40.7786028" lon="-3.7864265"><ele>1013.0000000000001</ele><time>2026-04-05T13:29:09.154Z</time></trkpt><trkpt lat="40.7786835" lon="-3.7864296"><ele>1013.0</ele><time>2026-04-05T13:29:10.153Z</time></trkpt><trkpt lat="40.7787641" lon="-3.7864172"><ele>1013.6666666666667</ele><time>2026-04-05T13:29:11.153Z</time></trkpt><trkpt lat="40.7788374" lon="-3.7863643"><ele>1014.3333333333334</ele><time>2026-04-05T13:29:12.153Z</time></trkpt><trkpt lat="40.7789112" lon="-3.7863025"><ele>1015.0</ele><time>2026-04-05T13:29:13.153Z</time></trkpt><trkpt lat="40.778983" lon="-3.7862342"><ele>1015.6666666666667</ele><time>2026-04-05T13:29:14.154Z</time></trkpt><trkpt lat="40.7790544" lon="-3.7861967"><ele>1016.3333333333334</ele><time>2026-04-05T13:29:15.153Z</time></trkpt><trkpt lat="40.7791229" lon="-3.7861655"><ele>1017.0</ele><time>2026-04-05T13:29:16.153Z</time></trkpt><trkpt lat="40.7791913" lon="-3.7861642"><ele>1017.0</ele><time>2026-04-05T13:29:17.153Z</time></trkpt><trkpt lat="40.7792582" lon="-3.7861948"><ele>1017.0</ele><time>2026-04-05T13:29:18.153Z</time></trkpt><trkpt lat="40.7793366" lon="-3.7862177"><ele>1017.0</ele><time>2026-04-05T13:29:19.153Z</time></trkpt><trkpt lat="40.7794181" lon="-3.7862342"><ele>1017.0</ele><time>2026-04-05T13:29:20.153Z</time></trkpt><trkpt lat="40.7794815" lon="-3.7862376"><ele>1017.0</ele><time>2026-04-05T13:29:21.153Z</time></trkpt><trkpt lat="40.7796029" lon="-3.7862626"><ele>1017.0</ele><time>2026-04-05T13:29:23.153Z</time></trkpt><trkpt lat="40.7796651" lon="-3.7862804"><ele>1017.1428571428571</ele><time>2026-04-05T13:29:24.153Z</time></trkpt><trkpt lat="40.7797331" lon="-3.7862728"><ele>1017.2857142857142</ele><time>2026-04-05T13:29:25.153Z</time></trkpt><trkpt lat="40.7798012" lon="-3.7862625"><ele>1017.4285714285713</ele><time>2026-04-05T13:29:26.153Z</time></trkpt><trkpt lat="40.7798778" lon="-3.7862616"><ele>1017.5714285714284</ele><time>2026-04-05T13:29:27.153Z</time></trkpt><trkpt lat="40.7799529" lon="-3.7862575"><ele>1017.7142857142857</ele><time>2026-04-05T13:29:28.153Z</time></trkpt><trkpt lat="40.7800261" lon="-3.7862528"><ele>1017.8571428571427</ele><time>2026-04-05T13:29:29.153Z</time></trkpt><trkpt lat="40.7801018" lon="-3.7862514"><ele>1017.9999999999999</ele><time>2026-04-05T13:29:30.154Z</time></trkpt><trkpt lat="40.7801762" lon="-3.7862437"><ele>1019.142857142857</ele><time>2026-04-05T13:29:31.153Z</time></trkpt><trkpt lat="40.7802439" lon="-3.7862421"><ele>1020.2857142857142</ele><time>2026-04-05T13:29:32.153Z</time></trkpt><trkpt lat="40.7803153" lon="-3.7862517"><ele>1021.4285714285714</ele><time>2026-04-05T13:29:33.153Z</time></trkpt><trkpt lat="40.780382" lon="-3.7862575"><ele>1022.5714285714286</ele><time>2026-04-05T13:29:34.153Z</time></trkpt><trkpt lat="40.7804499" lon="-3.7862579"><ele>1023.7142857142858</ele><time>2026-04-05T13:29:35.154Z</time></trkpt><trkpt lat="40.7805225" lon="-3.7862609"><ele>1024.857142857143</ele><time>2026-04-05T13:29:36.154Z</time></trkpt><trkpt lat="40.7805867" lon="-3.7862556"><ele>1026.0</ele><time>2026-04-05T13:29:37.153Z</time></trkpt><trkpt lat="40.7806901" lon="-3.7862524"><ele>1026.0</ele><time>2026-04-05T13:29:39.154Z</time></trkpt><trkpt lat="40.7807694" lon="-3.7862485"><ele>1026.0</ele><time>2026-04-05T13:29:41.153Z</time></trkpt><trkpt lat="40.7808164" lon="-3.786189"><ele>1026.0</ele><time>2026-04-05T13:29:43.154Z</time></trkpt><trkpt lat="40.7808668" lon="-3.7860083"><ele>1026.0</ele><time>2026-04-05T13:29:45.153Z</time></trkpt><trkpt lat="40.7808954" lon="-3.7858894"><ele>1026.0</ele><time>2026-04-05T13:29:46.153Z</time></trkpt><trkpt lat="40.7809186" lon="-3.7857599"><ele>1025.8</ele><time>2026-04-05T13:29:47.153Z</time></trkpt><trkpt lat="40.7809378" lon="-3.7856363"><ele>1025.6</ele><time>2026-04-05T13:29:48.153Z</time></trkpt><trkpt lat="40.7809485" lon="-3.7855026"><ele>1025.4</ele><time>2026-04-05T13:29:49.153Z</time></trkpt><trkpt lat="40.7809521" lon="-3.7853665"><ele>1025.2</ele><time>2026-04-05T13:29:50.154Z</time></trkpt><trkpt lat="40.7809506" lon="-3.7852319"><ele>1025.0</ele><time>2026-04-05T13:29:51.154Z</time></trkpt><trkpt lat="40.780951" lon="-3.7850899"><ele>1024.6</ele><time>2026-04-05T13:29:52.153Z</time></trkpt><trkpt lat="40.7809469" lon="-3.7849448"><ele>1024.2</ele><time>2026-04-05T13:29:53.154Z</time></trkpt><trkpt lat="40.7809417" lon="-3.7848071"><ele>1023.8</ele><time>2026-04-05T13:29:54.153Z</time></trkpt><trkpt lat="40.7809374" lon="-3.7846666"><ele>1023.4</ele><time>2026-04-05T13:29:55.154Z</time></trkpt><trkpt lat="40.7809436" lon="-3.7845162"><ele>1023.0</ele><time>2026-04-05T13:29:56.154Z</time></trkpt><trkpt lat="40.7809561" lon="-3.7843662"><ele>1022.5</ele><time>2026-04-05T13:29:57.153Z</time></trkpt><trkpt lat="40.7809648" lon="-3.7842098"><ele>1022.0</ele><time>2026-04-05T13:29:58.153Z</time></trkpt><trkpt lat="40.7809562" lon="-3.784047"><ele>1021.5</ele><time>2026-04-05T13:29:59.153Z</time></trkpt><trkpt lat="40.7809393" lon="-3.7838863"><ele>1021.0</ele><time>2026-04-05T13:30:00.153Z</time></trkpt><trkpt lat="40.7809202" lon="-3.7837221"><ele>1021.0</ele><time>2026-04-05T13:30:01.154Z</time></trkpt><trkpt lat="40.7809002" lon="-3.7835473"><ele>1021.0</ele><time>2026-04-05T13:30:02.153Z</time></trkpt><trkpt lat="40.7808846" lon="-3.7833674"><ele>1021.0</ele><time>2026-04-05T13:30:03.153Z</time></trkpt><trkpt lat="40.7808778" lon="-3.7831871"><ele>1021.0</ele><time>2026-04-05T13:30:04.153Z</time></trkpt><trkpt lat="40.7808839" lon="-3.7830087"><ele>1021.0</ele><time>2026-04-05T13:30:05.154Z</time></trkpt><trkpt lat="40.7808984" lon="-3.7828265"><ele>1021.0</ele><time>2026-04-05T13:30:06.153Z</time></trkpt><trkpt lat="40.7809212" lon="-3.7826416"><ele>1021.0</ele><time>2026-04-05T13:30:07.153Z</time></trkpt><trkpt lat="40.7809494" lon="-3.7824728"><ele>1021.0</ele><time>2026-04-05T13:30:08.154Z</time></trkpt><trkpt lat="40.7809809" lon="-3.7823224"><ele>1021.1999999999999</ele><time>2026-04-05T13:30:09.153Z</time></trkpt><trkpt lat="40.7810109" lon="-3.7821786"><ele>1021.3999999999999</ele><time>2026-04-05T13:30:10.153Z</time></trkpt><trkpt lat="40.781041" lon="-3.7820397"><ele>1021.6</ele><time>2026-04-05T13:30:11.153Z</time></trkpt><trkpt lat="40.7810769" lon="-3.7819107"><ele>1021.8</ele><time>2026-04-05T13:30:12.154Z</time></trkpt><trkpt lat="40.7811246" lon="-3.7817918"><ele>1022.0</ele><time>2026-04-05T13:30:13.153Z</time></trkpt><trkpt lat="40.7811789" lon="-3.7816732"><ele>1023.6</ele><time>2026-04-05T13:30:14.153Z</time></trkpt><trkpt lat="40.781242" lon="-3.7815617"><ele>1025.2</ele><time>2026-04-05T13:30:15.153Z</time></trkpt><trkpt lat="40.7813094" lon="-3.7814446"><ele>1026.8</ele><time>2026-04-05T13:30:16.154Z</time></trkpt><trkpt lat="40.781372" lon="-3.7813217"><ele>1028.4</ele><time>2026-04-05T13:30:17.153Z</time></trkpt><trkpt lat="40.7814273" lon="-3.7811982"><ele>1030.0</ele><time>2026-04-05T13:30:18.154Z</time></trkpt><trkpt lat="40.781481" lon="-3.7810777"><ele>1030.6</ele><time>2026-04-05T13:30:19.153Z</time></trkpt><trkpt lat="40.781533" lon="-3.7809552"><ele>1031.2</ele><time>2026-04-05T13:30:20.154Z</time></trkpt><trkpt lat="40.7815803" lon="-3.7808349"><ele>1031.8</ele><time>2026-04-05T13:30:21.153Z</time></trkpt><trkpt lat="40.7816238" lon="-3.7807255"><ele>1032.4</ele><time>2026-04-05T13:30:22.153Z</time></trkpt><trkpt lat="40.7816728" lon="-3.7806169"><ele>1033.0</ele><time>2026-04-05T13:30:23.154Z</time></trkpt><trkpt lat="40.7817275" lon="-3.7805056"><ele>1033.0</ele><time>2026-04-05T13:30:24.154Z</time></trkpt><trkpt lat="40.7817779" lon="-3.7803956"><ele>1033.0</ele><time>2026-04-05T13:30:25.153Z</time></trkpt><trkpt lat="40.7818138" lon="-3.780287"><ele>1033.0</ele><time>2026-04-05T13:30:26.153Z</time></trkpt><trkpt lat="40.7818363" lon="-3.7801823"><ele>1033.0</ele><time>2026-04-05T13:30:27.154Z</time></trkpt><trkpt lat="40.7818463" lon="-3.7800652"><ele>1033.0</ele><time>2026-04-05T13:30:28.153Z</time></trkpt><trkpt lat="40.7818548" lon="-3.7799326"><ele>1033.2</ele><time>2026-04-05T13:30:29.153Z</time></trkpt><trkpt lat="40.7818399" lon="-3.7798049"><ele>1033.4</ele><time>2026-04-05T13:30:30.153Z</time></trkpt><trkpt lat="40.7818021" lon="-3.7796839"><ele>1033.6000000000001</ele><time>2026-04-05T13:30:31.153Z</time></trkpt><trkpt lat="40.7817503" lon="-3.7795735"><ele>1033.8</ele><time>2026-04-05T13:30:32.153Z</time></trkpt><trkpt lat="40.7816856" lon="-3.7794768"><ele>1034.0</ele><time>2026-04-05T13:30:33.154Z</time></trkpt><trkpt lat="40.7816174" lon="-3.7793894"><ele>1035.4</ele><time>2026-04-05T13:30:34.154Z</time></trkpt><trkpt lat="40.7815461" lon="-3.7792979"><ele>1036.8000000000002</ele><time>2026-04-05T13:30:35.153Z</time></trkpt><trkpt lat="40.7814755" lon="-3.7792034"><ele>1038.1999999999998</ele><time>2026-04-05T13:30:36.153Z</time></trkpt><trkpt lat="40.781407" lon="-3.7791073"><ele>1039.6</ele><time>2026-04-05T13:30:37.153Z</time></trkpt><trkpt lat="40.7813397" lon="-3.7790099"><ele>1041.0</ele><time>2026-04-05T13:30:38.154Z</time></trkpt><trkpt lat="40.7812772" lon="-3.7789056"><ele>1041.0</ele><time>2026-04-05T13:30:39.153Z</time></trkpt><trkpt lat="40.781229" lon="-3.7788027"><ele>1041.0</ele><time>2026-04-05T13:30:40.153Z</time></trkpt><trkpt lat="40.7811975" lon="-3.778682"><ele>1041.0</ele><time>2026-04-05T13:30:41.153Z</time></trkpt><trkpt lat="40.7811791" lon="-3.7785559"><ele>1041.0</ele><time>2026-04-05T13:30:42.154Z</time></trkpt><trkpt lat="40.7811668" lon="-3.7784195"><ele>1041.0</ele><time>2026-04-05T13:30:43.153Z</time></trkpt><trkpt lat="40.7811713" lon="-3.778268"><ele>1041.75</ele><time>2026-04-05T13:30:44.153Z</time></trkpt><trkpt lat="40.7811877" lon="-3.7781107"><ele>1042.5</ele><time>2026-04-05T13:30:45.154Z</time></trkpt><trkpt lat="40.7812024" lon="-3.7779541"><ele>1043.25</ele><time>2026-04-05T13:30:46.154Z</time></trkpt><trkpt lat="40.7812118" lon="-3.7778016"><ele>1044.0</ele><time>2026-04-05T13:30:47.153Z</time></trkpt><trkpt lat="40.7812241" lon="-3.7776564"><ele>1044.0</ele><time>2026-04-05T13:30:48.153Z</time></trkpt><trkpt lat="40.78122" lon="-3.7775279"><ele>1044.0</ele><time>2026-04-05T13:30:49.153Z</time></trkpt><trkpt lat="40.7812063" lon="-3.7774039"><ele>1044.0</ele><time>2026-04-05T13:30:50.154Z</time></trkpt><trkpt lat="40.7811884" lon="-3.7772806"><ele>1044.0</ele><time>2026-04-05T13:30:51.153Z</time></trkpt><trkpt lat="40.7811732" lon="-3.7771533"><ele>1044.0</ele><time>2026-04-05T13:30:52.153Z</time></trkpt><trkpt lat="40.7811666" lon="-3.7770099"><ele>1044.0</ele><time>2026-04-05T13:30:53.153Z</time></trkpt><trkpt lat="40.7811749" lon="-3.7768583"><ele>1044.0</ele><time>2026-04-05T13:30:54.153Z</time></trkpt><trkpt lat="40.7811966" lon="-3.7767044"><ele>1044.0</ele><time>2026-04-05T13:30:55.153Z</time></trkpt><trkpt lat="40.7812275" lon="-3.776525"><ele>1044.0</ele><time>2026-04-05T13:30:56.153Z</time></trkpt><trkpt lat="40.7812708" lon="-3.776314"><ele>1043.0</ele><time>2026-04-05T13:30:57.154Z</time></trkpt><trkpt lat="40.7813163" lon="-3.7760827"><ele>1042.0</ele><time>2026-04-05T13:30:58.153Z</time></trkpt><trkpt lat="40.781366" lon="-3.7758646"><ele>1041.0</ele><time>2026-04-05T13:30:59.153Z</time></trkpt><trkpt lat="40.781411" lon="-3.7756631"><ele>1039.5</ele><time>2026-04-05T13:31:00.153Z</time></trkpt><trkpt lat="40.7814621" lon="-3.7754822"><ele>1038.0</ele><time>2026-04-05T13:31:01.153Z</time></trkpt><trkpt lat="40.781503" lon="-3.7753212"><ele>1036.5</ele><time>2026-04-05T13:31:02.153Z</time></trkpt><trkpt lat="40.7815349" lon="-3.7751801"><ele>1035.0</ele><time>2026-04-05T13:31:03.153Z</time></trkpt><trkpt lat="40.78155" lon="-3.7750527"><ele>1034.5</ele><time>2026-04-05T13:31:04.153Z</time></trkpt><trkpt lat="40.7815506" lon="-3.774939"><ele>1034.0</ele><time>2026-04-05T13:31:05.154Z</time></trkpt><trkpt lat="40.7815228" lon="-3.7748324"><ele>1033.5</ele><time>2026-04-05T13:31:06.153Z</time></trkpt><trkpt lat="40.7814948" lon="-3.7747334"><ele>1033.0</ele><time>2026-04-05T13:31:07.153Z</time></trkpt><trkpt lat="40.7814706" lon="-3.7746389"><ele>1032.5</ele><time>2026-04-05T13:31:08.153Z</time></trkpt><trkpt lat="40.7814464" lon="-3.7745524"><ele>1032.0</ele><time>2026-04-05T13:31:09.153Z</time></trkpt><trkpt lat="40.7813914" lon="-3.7744391"><ele>1032.0</ele><time>2026-04-05T13:31:11.153Z</time></trkpt><trkpt lat="40.7813204" lon="-3.7744109"><ele>1032.0</ele><time>2026-04-05T13:31:13.153Z</time></trkpt><trkpt lat="40.7811812" lon="-3.7744404"><ele>1032.0</ele><time>2026-04-05T13:31:15.153Z</time></trkpt><trkpt lat="40.7811004" lon="-3.7744702"><ele>1032.0</ele><time>2026-04-05T13:31:16.153Z</time></trkpt><trkpt lat="40.7810171" lon="-3.7744974"><ele>1032.0</ele><time>2026-04-05T13:31:17.153Z</time></trkpt><trkpt lat="40.7809305" lon="-3.7745225"><ele>1031.0</ele><time>2026-04-05T13:31:18.153Z</time></trkpt><trkpt lat="40.7808373" lon="-3.7745456"><ele>1030.0</ele><time>2026-04-05T13:31:19.153Z</time></trkpt><trkpt lat="40.7807568" lon="-3.7745762"><ele>1029.0</ele><time>2026-04-05T13:31:20.154Z</time></trkpt><trkpt lat="40.7806872" lon="-3.7746019"><ele>1028.0</ele><time>2026-04-05T13:31:21.153Z</time></trkpt><trkpt lat="40.7806222" lon="-3.7746111"><ele>1027.0</ele><time>2026-04-05T13:31:22.153Z</time></trkpt><trkpt lat="40.7805346" lon="-3.774537"><ele>1026.0</ele><time>2026-04-05T13:31:24.153Z</time></trkpt><trkpt lat="40.7805323" lon="-3.7744263"><ele>1026.0</ele><time>2026-04-05T13:31:26.153Z</time></trkpt><trkpt lat="40.7805913" lon="-3.7743567"><ele>1026.0</ele><time>2026-04-05T13:31:29.153Z</time></trkpt><trkpt lat="40.7806745" lon="-3.7743119"><ele>1026.0</ele><time>2026-04-05T13:32:36.154Z</time></trkpt><trkpt lat="40.7807473" lon="-3.7742679"><ele>1026.0</ele><time>2026-04-05T13:33:00.153Z</time></trkpt><trkpt lat="40.7806821" lon="-3.7742492"><ele>1026.0</ele><time>2026-04-05T13:33:22.154Z</time></trkpt><trkpt lat="40.7806962" lon="-3.774164"><ele>1026.0</ele><time>2026-04-05T13:33:41.153Z</time></trkpt><trkpt lat="40.7806289" lon="-3.7741743"><ele>1026.0</ele><time>2026-04-05T13:33:50.153Z</time></trkpt><trkpt lat="40.7806546" lon="-3.7742557"><ele>1026.0</ele><time>2026-04-05T13:34:26.154Z</time></trkpt><trkpt lat="40.7807168" lon="-3.7742993"><ele>1026.0</ele><time>2026-04-05T13:34:31.153Z</time></trkpt><trkpt lat="40.7807923" lon="-3.7743293"><ele>1026.0</ele><time>2026-04-05T13:35:39.154Z</time></trkpt><trkpt lat="40.7808591" lon="-3.7743885"><ele>1026.0</ele><time>2026-04-05T13:35:41.154Z</time></trkpt><trkpt lat="40.780918" lon="-3.7744509"><ele>1026.0</ele><time>2026-04-05T13:35:44.154Z</time></trkpt><trkpt lat="40.7810191" lon="-3.7744666"><ele>1027.2</ele><time>2026-04-05T13:35:52.153Z</time></trkpt><trkpt lat="40.7810833" lon="-3.7744344"><ele>1028.3999999999999</ele><time>2026-04-05T13:35:53.153Z</time></trkpt><trkpt lat="40.7811503" lon="-3.7744185"><ele>1029.6</ele><time>2026-04-05T13:35:54.153Z</time></trkpt><trkpt lat="40.7812624" lon="-3.7743903"><ele>1030.8</ele><time>2026-04-05T13:35:56.153Z</time></trkpt><trkpt lat="40.7813824" lon="-3.7744473"><ele>1032.0</ele><time>2026-04-05T13:35:58.154Z</time></trkpt><trkpt lat="40.7814578" lon="-3.7745882"><ele>1032.0</ele><time>2026-04-05T13:36:00.153Z</time></trkpt><trkpt lat="40.7815081" lon="-3.7747409"><ele>1032.0</ele><time>2026-04-05T13:36:02.154Z</time></trkpt><trkpt lat="40.7815308" lon="-3.7748215"><ele>1032.0</ele><time>2026-04-05T13:36:03.154Z</time></trkpt><trkpt lat="40.781547" lon="-3.7749098"><ele>1032.0</ele><time>2026-04-05T13:36:04.153Z</time></trkpt><trkpt lat="40.7815567" lon="-3.774997"><ele>1032.0</ele><time>2026-04-05T13:36:05.153Z</time></trkpt><trkpt lat="40.7815451" lon="-3.775105"><ele>1032.0</ele><time>2026-04-05T13:36:06.153Z</time></trkpt><trkpt lat="40.7815181" lon="-3.7752388"><ele>1032.75</ele><time>2026-04-05T13:36:07.153Z</time></trkpt><trkpt lat="40.7814795" lon="-3.7753933"><ele>1033.5</ele><time>2026-04-05T13:36:08.154Z</time></trkpt><trkpt lat="40.7814388" lon="-3.7755421"><ele>1034.25</ele><time>2026-04-05T13:36:09.153Z</time></trkpt><trkpt lat="40.7814042" lon="-3.7756875"><ele>1035.0</ele><time>2026-04-05T13:36:10.153Z</time></trkpt><trkpt lat="40.7813694" lon="-3.7758258"><ele>1035.0</ele><time>2026-04-05T13:36:11.153Z</time></trkpt><trkpt lat="40.7813375" lon="-3.7759514"><ele>1035.0</ele><time>2026-04-05T13:36:12.153Z</time></trkpt><trkpt lat="40.7813069" lon="-3.7760732"><ele>1035.0</ele><time>2026-04-05T13:36:13.154Z</time></trkpt><trkpt lat="40.7812833" lon="-3.7761941"><ele>1035.0</ele><time>2026-04-05T13:36:14.153Z</time></trkpt><trkpt lat="40.7812635" lon="-3.7763126"><ele>1035.0</ele><time>2026-04-05T13:36:15.153Z</time></trkpt><trkpt lat="40.7812449" lon="-3.7764324"><ele>1036.2</ele><time>2026-04-05T13:36:16.153Z</time></trkpt><trkpt lat="40.7812248" lon="-3.7765538"><ele>1037.4</ele><time>2026-04-05T13:36:17.153Z</time></trkpt><trkpt lat="40.7812002" lon="-3.776673"><ele>1038.6</ele><time>2026-04-05T13:36:18.153Z</time></trkpt><trkpt lat="40.7811844" lon="-3.7767923"><ele>1039.8</ele><time>2026-04-05T13:36:19.153Z</time></trkpt><trkpt lat="40.7811682" lon="-3.7769089"><ele>1041.0</ele><time>2026-04-05T13:36:20.153Z</time></trkpt><trkpt lat="40.7811667" lon="-3.7770373"><ele>1041.6</ele><time>2026-04-05T13:36:21.153Z</time></trkpt><trkpt lat="40.7811699" lon="-3.7771742"><ele>1042.1999999999998</ele><time>2026-04-05T13:36:22.153Z</time></trkpt><trkpt lat="40.7811868" lon="-3.7773073"><ele>1042.8000000000002</ele><time>2026-04-05T13:36:23.153Z</time></trkpt><trkpt lat="40.7812101" lon="-3.7774328"><ele>1043.4</ele><time>2026-04-05T13:36:24.154Z</time></trkpt><trkpt lat="40.7812255" lon="-3.7775547"><ele>1044.0</ele><time>2026-04-05T13:36:25.153Z</time></trkpt><trkpt lat="40.781227" lon="-3.7776823"><ele>1044.0</ele><time>2026-04-05T13:36:26.153Z</time></trkpt><trkpt lat="40.7812168" lon="-3.7778114"><ele>1044.0</ele><time>2026-04-05T13:36:27.153Z</time></trkpt><trkpt lat="40.7812007" lon="-3.7779579"><ele>1044.0</ele><time>2026-04-05T13:36:28.153Z</time></trkpt><trkpt lat="40.7811824" lon="-3.7781087"><ele>1044.0</ele><time>2026-04-05T13:36:29.154Z</time></trkpt><trkpt lat="40.7811694" lon="-3.7782539"><ele>1044.0</ele><time>2026-04-05T13:36:30.153Z</time></trkpt><trkpt lat="40.781165" lon="-3.7783889"><ele>1043.4</ele><time>2026-04-05T13:36:31.153Z</time></trkpt><trkpt lat="40.7811718" lon="-3.7785219"><ele>1042.8000000000002</ele><time>2026-04-05T13:36:32.153Z</time></trkpt><trkpt lat="40.7811845" lon="-3.7786516"><ele>1042.1999999999998</ele><time>2026-04-05T13:36:33.153Z</time></trkpt><trkpt lat="40.7812105" lon="-3.7787736"><ele>1041.6</ele><time>2026-04-05T13:36:34.154Z</time></trkpt><trkpt lat="40.7812558" lon="-3.7788924"><ele>1041.0</ele><time>2026-04-05T13:36:35.153Z</time></trkpt><trkpt lat="40.7813162" lon="-3.7790099"><ele>1041.0</ele><time>2026-04-05T13:36:36.154Z</time></trkpt><trkpt lat="40.7813923" lon="-3.7791201"><ele>1041.0</ele><time>2026-04-05T13:36:37.154Z</time></trkpt><trkpt lat="40.7814728" lon="-3.7792232"><ele>1041.0</ele><time>2026-04-05T13:36:38.154Z</time></trkpt><trkpt lat="40.7815485" lon="-3.7793161"><ele>1041.0</ele><time>2026-04-05T13:36:39.153Z</time></trkpt><trkpt lat="40.7816226" lon="-3.7794008"><ele>1041.0</ele><time>2026-04-05T13:36:40.154Z</time></trkpt><trkpt lat="40.7816921" lon="-3.7794928"><ele>1042.2</ele><time>2026-04-05T13:36:41.153Z</time></trkpt><trkpt lat="40.7817554" lon="-3.7795938"><ele>1043.3999999999999</ele><time>2026-04-05T13:36:42.153Z</time></trkpt><trkpt lat="40.7818066" lon="-3.7797106"><ele>1044.6</ele><time>2026-04-05T13:36:43.153Z</time></trkpt><trkpt lat="40.7818405" lon="-3.7798295"><ele>1045.8</ele><time>2026-04-05T13:36:44.154Z</time></trkpt><trkpt lat="40.7818583" lon="-3.7799431"><ele>1047.0</ele><time>2026-04-05T13:36:45.153Z</time></trkpt><trkpt lat="40.7818483" lon="-3.780053"><ele>1044.4</ele><time>2026-04-05T13:36:46.153Z</time></trkpt><trkpt lat="40.7818316" lon="-3.7801665"><ele>1041.8000000000002</ele><time>2026-04-05T13:36:47.153Z</time></trkpt><trkpt lat="40.7818111" lon="-3.78029"><ele>1039.2</ele><time>2026-04-05T13:36:48.153Z</time></trkpt><trkpt lat="40.7817775" lon="-3.7804206"><ele>1036.6000000000001</ele><time>2026-04-05T13:36:49.153Z</time></trkpt><trkpt lat="40.7817238" lon="-3.7805537"><ele>1034.0</ele><time>2026-04-05T13:36:50.153Z</time></trkpt><trkpt lat="40.781656" lon="-3.7806868"><ele>1033.75</ele><time>2026-04-05T13:36:51.153Z</time></trkpt><trkpt lat="40.7815896" lon="-3.7808352"><ele>1033.5</ele><time>2026-04-05T13:36:52.153Z</time></trkpt><trkpt lat="40.7815274" lon="-3.7809895"><ele>1033.25</ele><time>2026-04-05T13:36:53.153Z</time></trkpt><trkpt lat="40.7814579" lon="-3.7811468"><ele>1033.0</ele><time>2026-04-05T13:36:54.153Z</time></trkpt><trkpt lat="40.7813806" lon="-3.7812984"><ele>1032.25</ele><time>2026-04-05T13:36:55.154Z</time></trkpt><trkpt lat="40.781305" lon="-3.7814377"><ele>1031.5</ele><time>2026-04-05T13:36:56.154Z</time></trkpt><trkpt lat="40.7812347" lon="-3.781563"><ele>1030.75</ele><time>2026-04-05T13:36:57.153Z</time></trkpt><trkpt lat="40.7811698" lon="-3.7816845"><ele>1030.0</ele><time>2026-04-05T13:36:58.153Z</time></trkpt><trkpt lat="40.7811114" lon="-3.7818129"><ele>1029.0</ele><time>2026-04-05T13:36:59.154Z</time></trkpt><trkpt lat="40.7810643" lon="-3.78196"><ele>1028.0</ele><time>2026-04-05T13:37:00.154Z</time></trkpt><trkpt lat="40.7810228" lon="-3.7821183"><ele>1027.0</ele><time>2026-04-05T13:37:01.153Z</time></trkpt><trkpt lat="40.7809881" lon="-3.7822839"><ele>1026.0</ele><time>2026-04-05T13:37:02.153Z</time></trkpt><trkpt lat="40.7809574" lon="-3.7824471"><ele>1025.0</ele><time>2026-04-05T13:37:03.153Z</time></trkpt><trkpt lat="40.7809324" lon="-3.7826095"><ele>1024.0</ele><time>2026-04-05T13:37:04.153Z</time></trkpt><trkpt lat="40.7809013" lon="-3.7827651"><ele>1023.0</ele><time>2026-04-05T13:37:05.153Z</time></trkpt><trkpt lat="40.7808789" lon="-3.7829153"><ele>1022.0</ele><time>2026-04-05T13:37:06.153Z</time></trkpt><trkpt lat="40.780868" lon="-3.7830643"><ele>1021.75</ele><time>2026-04-05T13:37:07.153Z</time></trkpt><trkpt lat="40.7808718" lon="-3.7832142"><ele>1021.5</ele><time>2026-04-05T13:37:08.153Z</time></trkpt><trkpt lat="40.7808809" lon="-3.7833635"><ele>1021.25</ele><time>2026-04-05T13:37:09.154Z</time></trkpt><trkpt lat="40.7808913" lon="-3.783517"><ele>1021.0</ele><time>2026-04-05T13:37:10.153Z</time></trkpt><trkpt lat="40.7809092" lon="-3.7836658"><ele>1021.0</ele><time>2026-04-05T13:37:11.154Z</time></trkpt><trkpt lat="40.7809324" lon="-3.7838203"><ele>1021.0</ele><time>2026-04-05T13:37:12.153Z</time></trkpt><trkpt lat="40.7809504" lon="-3.7839691"><ele>1021.0</ele><time>2026-04-05T13:37:13.153Z</time></trkpt><trkpt lat="40.7809599" lon="-3.7841192"><ele>1021.0</ele><time>2026-04-05T13:37:14.153Z</time></trkpt><trkpt lat="40.7809578" lon="-3.7842743"><ele>1021.5</ele><time>2026-04-05T13:37:15.154Z</time></trkpt><trkpt lat="40.7809444" lon="-3.7844358"><ele>1022.0</ele><time>2026-04-05T13:37:16.153Z</time></trkpt><trkpt lat="40.7809288" lon="-3.7846013"><ele>1022.5</ele><time>2026-04-05T13:37:17.153Z</time></trkpt><trkpt lat="40.7809244" lon="-3.7847637"><ele>1023.0</ele><time>2026-04-05T13:37:18.153Z</time></trkpt><trkpt lat="40.7809364" lon="-3.7849245"><ele>1023.0</ele><time>2026-04-05T13:37:19.153Z</time></trkpt><trkpt lat="40.7809437" lon="-3.7850712"><ele>1023.0</ele><time>2026-04-05T13:37:20.154Z</time></trkpt><trkpt lat="40.7809502" lon="-3.7852197"><ele>1023.0</ele><time>2026-04-05T13:37:21.153Z</time></trkpt><trkpt lat="40.7809508" lon="-3.7853678"><ele>1023.0</ele><time>2026-04-05T13:37:22.154Z</time></trkpt><trkpt lat="40.780938" lon="-3.7855131"><ele>1023.0</ele><time>2026-04-05T13:37:23.153Z</time></trkpt><trkpt lat="40.7809249" lon="-3.7856592"><ele>1023.4</ele><time>2026-04-05T13:37:24.154Z</time></trkpt><trkpt lat="40.7809031" lon="-3.7858074"><ele>1023.8</ele><time>2026-04-05T13:37:25.153Z</time></trkpt><trkpt lat="40.7808772" lon="-3.7859508"><ele>1024.2</ele><time>2026-04-05T13:37:26.154Z</time></trkpt><trkpt lat="40.7808495" lon="-3.7860809"><ele>1024.6</ele><time>2026-04-05T13:37:27.153Z</time></trkpt><trkpt lat="40.7808216" lon="-3.786215"><ele>1025.0</ele><time>2026-04-05T13:37:28.153Z</time></trkpt><trkpt lat="40.780797" lon="-3.7863471"><ele>1025.2</ele><time>2026-04-05T13:37:29.153Z</time></trkpt><trkpt lat="40.7807879" lon="-3.7864859"><ele>1025.4</ele><time>2026-04-05T13:37:30.153Z</time></trkpt><trkpt lat="40.7808059" lon="-3.7866256"><ele>1025.6</ele><time>2026-04-05T13:37:31.153Z</time></trkpt><trkpt lat="40.7808361" lon="-3.7867581"><ele>1025.8</ele><time>2026-04-05T13:37:32.154Z</time></trkpt><trkpt lat="40.7808675" lon="-3.7868955"><ele>1026.0</ele><time>2026-04-05T13:37:33.153Z</time></trkpt><trkpt lat="40.7808875" lon="-3.7870285"><ele>1026.0</ele><time>2026-04-05T13:37:34.154Z</time></trkpt><trkpt lat="40.7809019" lon="-3.7871681"><ele>1026.0</ele><time>2026-04-05T13:37:35.153Z</time></trkpt><trkpt lat="40.7809176" lon="-3.7873052"><ele>1026.0</ele><time>2026-04-05T13:37:36.153Z</time></trkpt><trkpt lat="40.7809526" lon="-3.7874389"><ele>1026.0</ele><time>2026-04-05T13:37:37.153Z</time></trkpt><trkpt lat="40.7809902" lon="-3.7875663"><ele>1026.0</ele><time>2026-04-05T13:37:38.153Z</time></trkpt><trkpt lat="40.7810323" lon="-3.7876933"><ele>1027.8</ele><time>2026-04-05T13:37:39.153Z</time></trkpt><trkpt lat="40.7810708" lon="-3.787811"><ele>1029.6</ele><time>2026-04-05T13:37:40.153Z</time></trkpt><trkpt lat="40.7810947" lon="-3.7879241"><ele>1031.4</ele><time>2026-04-05T13:37:41.154Z</time></trkpt><trkpt lat="40.781099" lon="-3.7880378"><ele>1033.2</ele><time>2026-04-05T13:37:42.153Z</time></trkpt><trkpt lat="40.7810835" lon="-3.7881558"><ele>1035.0</ele><time>2026-04-05T13:37:43.153Z</time></trkpt><trkpt lat="40.7810555" lon="-3.7882829"><ele>1034.75</ele><time>2026-04-05T13:37:44.153Z</time></trkpt><trkpt lat="40.7810157" lon="-3.7884161"><ele>1034.5</ele><time>2026-04-05T13:37:45.153Z</time></trkpt><trkpt lat="40.7809833" lon="-3.7885581"><ele>1034.25</ele><time>2026-04-05T13:37:46.153Z</time></trkpt><trkpt lat="40.780962" lon="-3.7887073"><ele>1034.0</ele><time>2026-04-05T13:37:47.153Z</time></trkpt><trkpt lat="40.7809389" lon="-3.7888679"><ele>1034.0</ele><time>2026-04-05T13:37:48.154Z</time></trkpt><trkpt lat="40.7809165" lon="-3.7890312"><ele>1034.0</ele><time>2026-04-05T13:37:49.154Z</time></trkpt><trkpt lat="40.7808919" lon="-3.7891878"><ele>1034.0</ele><time>2026-04-05T13:37:50.153Z</time></trkpt><trkpt lat="40.7808607" lon="-3.7893382"><ele>1034.0</ele><time>2026-04-05T13:37:51.153Z</time></trkpt><trkpt lat="40.7808321" lon="-3.7894983"><ele>1034.25</ele><time>2026-04-05T13:37:52.153Z</time></trkpt><trkpt lat="40.7808089" lon="-3.7896613"><ele>1034.5</ele><time>2026-04-05T13:37:53.154Z</time></trkpt><trkpt lat="40.7807832" lon="-3.7898249"><ele>1034.75</ele><time>2026-04-05T13:37:54.153Z</time></trkpt><trkpt lat="40.7807591" lon="-3.7899862"><ele>1035.0</ele><time>2026-04-05T13:37:55.153Z</time></trkpt><trkpt lat="40.7807419" lon="-3.7901442"><ele>1035.6</ele><time>2026-04-05T13:37:56.153Z</time></trkpt><trkpt lat="40.7807328" lon="-3.7902874"><ele>1036.2</ele><time>2026-04-05T13:37:57.153Z</time></trkpt><trkpt lat="40.7807345" lon="-3.7904203"><ele>1036.8</ele><time>2026-04-05T13:37:58.154Z</time></trkpt><trkpt lat="40.7807421" lon="-3.7905481"><ele>1037.4</ele><time>2026-04-05T13:37:59.153Z</time></trkpt><trkpt lat="40.7807543" lon="-3.7906632"><ele>1038.0</ele><time>2026-04-05T13:38:00.154Z</time></trkpt><trkpt lat="40.7807617" lon="-3.7907849"><ele>1038.0</ele><time>2026-04-05T13:38:01.154Z</time></trkpt><trkpt lat="40.7807617" lon="-3.7909129"><ele>1038.0</ele><time>2026-04-05T13:38:02.153Z</time></trkpt><trkpt lat="40.7807625" lon="-3.7910483"><ele>1038.0</ele><time>2026-04-05T13:38:03.154Z</time></trkpt><trkpt lat="40.780761" lon="-3.7911788"><ele>1038.0</ele><time>2026-04-05T13:38:04.153Z</time></trkpt><trkpt lat="40.7807634" lon="-3.791299"><ele>1038.0</ele><time>2026-04-05T13:38:05.153Z</time></trkpt><trkpt lat="40.7807526" lon="-3.7914052"><ele>1037.8333333333333</ele><time>2026-04-05T13:38:06.153Z</time></trkpt><trkpt lat="40.780734" lon="-3.7914941"><ele>1037.6666666666667</ele><time>2026-04-05T13:38:07.153Z</time></trkpt><trkpt lat="40.7806955" lon="-3.7915744"><ele>1037.5</ele><time>2026-04-05T13:38:08.153Z</time></trkpt><trkpt lat="40.7806455" lon="-3.7916448"><ele>1037.3333333333335</ele><time>2026-04-05T13:38:09.153Z</time></trkpt><trkpt lat="40.7805889" lon="-3.7917178"><ele>1037.1666666666667</ele><time>2026-04-05T13:38:10.153Z</time></trkpt><trkpt lat="40.7805341" lon="-3.7918045"><ele>1037.0</ele><time>2026-04-05T13:38:11.154Z</time></trkpt><trkpt lat="40.7804769" lon="-3.7918827"><ele>1037.8</ele><time>2026-04-05T13:38:12.154Z</time></trkpt><trkpt lat="40.7804279" lon="-3.7919697"><ele>1038.6</ele><time>2026-04-05T13:38:13.153Z</time></trkpt><trkpt lat="40.780401" lon="-3.7920728"><ele>1039.3999999999999</ele><time>2026-04-05T13:38:14.153Z</time></trkpt><trkpt lat="40.7803772" lon="-3.792193"><ele>1040.2</ele><time>2026-04-05T13:38:15.153Z</time></trkpt><trkpt lat="40.7803365" lon="-3.792308"><ele>1041.0</ele><time>2026-04-05T13:38:16.153Z</time></trkpt><trkpt lat="40.7802774" lon="-3.7924178"><ele>1041.0</ele><time>2026-04-05T13:38:17.153Z</time></trkpt><trkpt lat="40.7802187" lon="-3.7925326"><ele>1041.0</ele><time>2026-04-05T13:38:18.154Z</time></trkpt><trkpt lat="40.7801603" lon="-3.7926513"><ele>1041.0</ele><time>2026-04-05T13:38:19.153Z</time></trkpt><trkpt lat="40.7801022" lon="-3.7927676"><ele>1041.0</ele><time>2026-04-05T13:38:20.153Z</time></trkpt><trkpt lat="40.7800555" lon="-3.7928712"><ele>1041.0</ele><time>2026-04-05T13:38:21.153Z</time></trkpt><trkpt lat="40.7800303" lon="-3.7929807"><ele>1040.5</ele><time>2026-04-05T13:38:22.153Z</time></trkpt><trkpt lat="40.7800174" lon="-3.7930968"><ele>1040.0</ele><time>2026-04-05T13:38:23.154Z</time></trkpt><trkpt lat="40.7800006" lon="-3.7932092"><ele>1039.5</ele><time>2026-04-05T13:38:24.153Z</time></trkpt><trkpt lat="40.7799884" lon="-3.7933081"><ele>1039.0</ele><time>2026-04-05T13:38:25.153Z</time></trkpt><trkpt lat="40.7799757" lon="-3.7934138"><ele>1038.5</ele><time>2026-04-05T13:38:26.153Z</time></trkpt><trkpt lat="40.7799542" lon="-3.793523"><ele>1038.0</ele><time>2026-04-05T13:38:27.153Z</time></trkpt><trkpt lat="40.7799433" lon="-3.7936445"><ele>1038.0</ele><time>2026-04-05T13:38:28.153Z</time></trkpt><trkpt lat="40.779941" lon="-3.7937752"><ele>1038.0</ele><time>2026-04-05T13:38:29.153Z</time></trkpt><trkpt lat="40.779933" lon="-3.7939153"><ele>1038.0</ele><time>2026-04-05T13:38:30.153Z</time></trkpt><trkpt lat="40.7799107" lon="-3.794053"><ele>1038.0</ele><time>2026-04-05T13:38:31.153Z</time></trkpt><trkpt lat="40.779879" lon="-3.7941768"><ele>1038.0</ele><time>2026-04-05T13:38:32.153Z</time></trkpt><trkpt lat="40.7798528" lon="-3.7942889"><ele>1038.3333333333333</ele><time>2026-04-05T13:38:33.153Z</time></trkpt><trkpt lat="40.7798327" lon="-3.7944065"><ele>1038.6666666666667</ele><time>2026-04-05T13:38:34.154Z</time></trkpt><trkpt lat="40.7798196" lon="-3.7945281"><ele>1039.0</ele><time>2026-04-05T13:38:35.153Z</time></trkpt><trkpt lat="40.7798164" lon="-3.7946487"><ele>1039.3333333333335</ele><time>2026-04-05T13:38:36.153Z</time></trkpt><trkpt lat="40.77983" lon="-3.7947649"><ele>1039.6666666666667</ele><time>2026-04-05T13:38:37.153Z</time></trkpt><trkpt lat="40.7798377" lon="-3.7948705"><ele>1040.0</ele><time>2026-04-05T13:38:38.154Z</time></trkpt><trkpt lat="40.7798169" lon="-3.7949766"><ele>1040.0</ele><time>2026-04-05T13:38:39.153Z</time></trkpt><trkpt lat="40.7797719" lon="-3.7950774"><ele>1040.0</ele><time>2026-04-05T13:38:40.153Z</time></trkpt><trkpt lat="40.779717" lon="-3.7951697"><ele>1040.0</ele><time>2026-04-05T13:38:41.153Z</time></trkpt><trkpt lat="40.7796662" lon="-3.7952745"><ele>1040.0</ele><time>2026-04-05T13:38:42.153Z</time></trkpt><trkpt lat="40.7796323" lon="-3.7953861"><ele>1040.0</ele><time>2026-04-05T13:38:43.154Z</time></trkpt><trkpt lat="40.7796047" lon="-3.7954972"><ele>1039.8333333333335</ele><time>2026-04-05T13:38:44.153Z</time></trkpt><trkpt lat="40.7795791" lon="-3.7955972"><ele>1039.6666666666667</ele><time>2026-04-05T13:38:45.153Z</time></trkpt><trkpt lat="40.7795631" lon="-3.7956993"><ele>1039.5</ele><time>2026-04-05T13:38:46.153Z</time></trkpt><trkpt lat="40.7795585" lon="-3.7958195"><ele>1039.3333333333333</ele><time>2026-04-05T13:38:47.154Z</time></trkpt><trkpt lat="40.779567" lon="-3.7959466"><ele>1039.1666666666665</ele><time>2026-04-05T13:38:48.153Z</time></trkpt><trkpt lat="40.7795823" lon="-3.7960754"><ele>1039.0</ele><time>2026-04-05T13:38:49.153Z</time></trkpt><trkpt lat="40.7796019" lon="-3.7962118"><ele>1039.0</ele><time>2026-04-05T13:38:50.153Z</time></trkpt><trkpt lat="40.7796224" lon="-3.796347"><ele>1039.0</ele><time>2026-04-05T13:38:51.154Z</time></trkpt><trkpt lat="40.7796522" lon="-3.7964706"><ele>1039.0</ele><time>2026-04-05T13:38:52.153Z</time></trkpt><trkpt lat="40.7796926" lon="-3.7965622"><ele>1039.0</ele><time>2026-04-05T13:38:53.154Z</time></trkpt><trkpt lat="40.7797408" lon="-3.7966378"><ele>1039.0</ele><time>2026-04-05T13:38:54.153Z</time></trkpt><trkpt lat="40.7798356" lon="-3.7967013"><ele>1039.0</ele><time>2026-04-05T13:38:56.153Z</time></trkpt><trkpt lat="40.7798982" lon="-3.7968267"><ele>1039.0</ele><time>2026-04-05T13:38:58.153Z</time></trkpt><trkpt lat="40.7799346" lon="-3.7969451"><ele>1039.0</ele><time>2026-04-05T13:39:00.154Z</time></trkpt><trkpt lat="40.7799099" lon="-3.7970364"><ele>1039.0</ele><time>2026-04-05T13:39:03.153Z</time></trkpt><trkpt lat="40.7799148" lon="-3.7971482"><ele>1039.0</ele><time>2026-04-05T13:39:10.153Z</time></trkpt><trkpt lat="40.7799501" lon="-3.7972365"><ele>1039.0</ele><time>2026-04-05T13:39:13.153Z</time></trkpt><trkpt lat="40.7799616" lon="-3.7973273"><ele>1039.2</ele><time>2026-04-05T13:39:15.153Z</time></trkpt><trkpt lat="40.7799205" lon="-3.7974881"><ele>1039.4</ele><time>2026-04-05T13:39:17.153Z</time></trkpt><trkpt lat="40.7799254" lon="-3.7975917"><ele>1039.6</ele><time>2026-04-05T13:39:18.154Z</time></trkpt><trkpt lat="40.7799348" lon="-3.7977084"><ele>1039.8</ele><time>2026-04-05T13:39:19.153Z</time></trkpt><trkpt lat="40.7799478" lon="-3.7978246"><ele>1040.0</ele><time>2026-04-05T13:39:20.153Z</time></trkpt><trkpt lat="40.7799582" lon="-3.7979351"><ele>1040.8</ele><time>2026-04-05T13:39:21.153Z</time></trkpt><trkpt lat="40.7799648" lon="-3.7980461"><ele>1041.6</ele><time>2026-04-05T13:39:22.153Z</time></trkpt><trkpt lat="40.77997" lon="-3.7981617"><ele>1042.4</ele><time>2026-04-05T13:39:23.153Z</time></trkpt><trkpt lat="40.7799741" lon="-3.7982877"><ele>1043.2</ele><time>2026-04-05T13:39:24.153Z</time></trkpt><trkpt lat="40.7799828" lon="-3.798418"><ele>1044.0</ele><time>2026-04-05T13:39:25.153Z</time></trkpt><trkpt lat="40.7799942" lon="-3.7985366"><ele>1044.1666666666667</ele><time>2026-04-05T13:39:26.154Z</time></trkpt><trkpt lat="40.7800021" lon="-3.7986541"><ele>1044.3333333333333</ele><time>2026-04-05T13:39:27.153Z</time></trkpt><trkpt lat="40.7800151" lon="-3.7987661"><ele>1044.5</ele><time>2026-04-05T13:39:28.153Z</time></trkpt><trkpt lat="40.7800323" lon="-3.7988713"><ele>1044.6666666666665</ele><time>2026-04-05T13:39:29.153Z</time></trkpt><trkpt lat="40.7800429" lon="-3.7989633"><ele>1044.8333333333333</ele><time>2026-04-05T13:39:30.154Z</time></trkpt><trkpt lat="40.7800529" lon="-3.7990479"><ele>1045.0</ele><time>2026-04-05T13:39:31.153Z</time></trkpt><trkpt lat="40.7800605" lon="-3.7991962"><ele>1045.0</ele><time>2026-04-05T13:39:33.153Z</time></trkpt><trkpt lat="40.7800439" lon="-3.799327"><ele>1045.0</ele><time>2026-04-05T13:39:35.153Z</time></trkpt><trkpt lat="40.7800392" lon="-3.7994383"><ele>1045.0</ele><time>2026-04-05T13:39:37.154Z</time></trkpt><trkpt lat="40.7800454" lon="-3.7995579"><ele>1045.0</ele><time>2026-04-05T13:39:40.154Z</time></trkpt><trkpt lat="40.7800407" lon="-3.7996411"><ele>1045.0</ele><time>2026-04-05T13:39:41.153Z</time></trkpt><trkpt lat="40.7800366" lon="-3.799728"><ele>1045.0</ele><time>2026-04-05T13:39:42.153Z</time></trkpt><trkpt lat="40.7800289" lon="-3.7998319"><ele>1045.8</ele><time>2026-04-05T13:39:43.153Z</time></trkpt><trkpt lat="40.7800143" lon="-3.7999486"><ele>1046.6</ele><time>2026-04-05T13:39:44.154Z</time></trkpt><trkpt lat="40.7800016" lon="-3.8000727"><ele>1047.4</ele><time>2026-04-05T13:39:45.153Z</time></trkpt><trkpt lat="40.7799749" lon="-3.8001815"><ele>1048.2</ele><time>2026-04-05T13:39:46.153Z</time></trkpt><trkpt lat="40.7799388" lon="-3.8002859"><ele>1049.0</ele><time>2026-04-05T13:39:47.153Z</time></trkpt><trkpt lat="40.779891" lon="-3.8003911"><ele>1050.2</ele><time>2026-04-05T13:39:48.153Z</time></trkpt><trkpt lat="40.779831" lon="-3.8004889"><ele>1051.4</ele><time>2026-04-05T13:39:49.153Z</time></trkpt><trkpt lat="40.7797662" lon="-3.8005738"><ele>1052.6</ele><time>2026-04-05T13:39:50.153Z</time></trkpt><trkpt lat="40.7796849" lon="-3.8006385"><ele>1053.8</ele><time>2026-04-05T13:39:51.153Z</time></trkpt><trkpt lat="40.7795935" lon="-3.8006898"><ele>1055.0</ele><time>2026-04-05T13:39:52.153Z</time></trkpt><trkpt lat="40.7795046" lon="-3.800742"><ele>1055.0</ele><time>2026-04-05T13:39:53.153Z</time></trkpt><trkpt lat="40.7794117" lon="-3.8007987"><ele>1055.0</ele><time>2026-04-05T13:39:54.153Z</time></trkpt><trkpt lat="40.77931" lon="-3.8008657"><ele>1055.0</ele><time>2026-04-05T13:39:55.154Z</time></trkpt><trkpt lat="40.7792075" lon="-3.8009388"><ele>1055.0</ele><time>2026-04-05T13:39:56.154Z</time></trkpt><trkpt lat="40.7791124" lon="-3.8010059"><ele>1055.0</ele><time>2026-04-05T13:39:57.153Z</time></trkpt><trkpt lat="40.7790397" lon="-3.8010617"><ele>1053.8333333333335</ele><time>2026-04-05T13:39:58.154Z</time></trkpt><trkpt lat="40.7789736" lon="-3.801171"><ele>1052.6666666666667</ele><time>2026-04-05T13:40:00.153Z</time></trkpt><trkpt lat="40.7789684" lon="-3.8013341"><ele>1051.5</ele><time>2026-04-05T13:40:02.154Z</time></trkpt><trkpt lat="40.7789854" lon="-3.8014295"><ele>1050.3333333333333</ele><time>2026-04-05T13:40:03.153Z</time></trkpt><trkpt lat="40.7789998" lon="-3.8015207"><ele>1049.1666666666665</ele><time>2026-04-05T13:40:04.153Z</time></trkpt><trkpt lat="40.7790061" lon="-3.8016053"><ele>1048.0</ele><time>2026-04-05T13:40:05.153Z</time></trkpt><trkpt lat="40.7789804" lon="-3.8016947"><ele>1048.0</ele><time>2026-04-05T13:40:06.153Z</time></trkpt><trkpt lat="40.7789463" lon="-3.8017812"><ele>1048.0</ele><time>2026-04-05T13:40:07.153Z</time></trkpt><trkpt lat="40.7788952" lon="-3.8018669"><ele>1048.0</ele><time>2026-04-05T13:40:08.154Z</time></trkpt><trkpt lat="40.7788515" lon="-3.801959"><ele>1048.0</ele><time>2026-04-05T13:40:09.154Z</time></trkpt><trkpt lat="40.7788203" lon="-3.802047"><ele>1048.0</ele><time>2026-04-05T13:40:10.153Z</time></trkpt><trkpt lat="40.7787739" lon="-3.8021979"><ele>1048.0</ele><time>2026-04-05T13:40:12.153Z</time></trkpt><trkpt lat="40.7787554" lon="-3.8022816"><ele>1048.4285714285716</ele><time>2026-04-05T13:40:13.153Z</time></trkpt><trkpt lat="40.7787441" lon="-3.8023693"><ele>1048.857142857143</ele><time>2026-04-05T13:40:14.153Z</time></trkpt><trkpt lat="40.7787345" lon="-3.80246"><ele>1049.2857142857142</ele><time>2026-04-05T13:40:15.154Z</time></trkpt><trkpt lat="40.7787288" lon="-3.8025484"><ele>1049.7142857142858</ele><time>2026-04-05T13:40:16.154Z</time></trkpt><trkpt lat="40.7787162" lon="-3.8026451"><ele>1050.142857142857</ele><time>2026-04-05T13:40:17.153Z</time></trkpt><trkpt lat="40.7787113" lon="-3.8027478"><ele>1050.5714285714287</ele><time>2026-04-05T13:40:18.154Z</time></trkpt><trkpt lat="40.7787001" lon="-3.8028565"><ele>1051.0</ele><time>2026-04-05T13:40:19.154Z</time></trkpt><trkpt lat="40.7786892" lon="-3.8029686"><ele>1051.6</ele><time>2026-04-05T13:40:20.153Z</time></trkpt><trkpt lat="40.7786757" lon="-3.8030826"><ele>1052.1999999999998</ele><time>2026-04-05T13:40:21.153Z</time></trkpt><trkpt lat="40.778654" lon="-3.8032076"><ele>1052.8000000000002</ele><time>2026-04-05T13:40:22.153Z</time></trkpt><trkpt lat="40.7786218" lon="-3.8033319"><ele>1053.4</ele><time>2026-04-05T13:40:23.154Z</time></trkpt><trkpt lat="40.7785869" lon="-3.8034554"><ele>1054.0</ele><time>2026-04-05T13:40:24.153Z</time></trkpt><trkpt lat="40.7785543" lon="-3.8035809"><ele>1053.0</ele><time>2026-04-05T13:40:25.153Z</time></trkpt><trkpt lat="40.7785155" lon="-3.8037041"><ele>1052.0</ele><time>2026-04-05T13:40:26.153Z</time></trkpt><trkpt lat="40.7784795" lon="-3.8038329"><ele>1051.0</ele><time>2026-04-05T13:40:27.154Z</time></trkpt><trkpt lat="40.7784324" lon="-3.8039472"><ele>1050.0</ele><time>2026-04-05T13:40:28.153Z</time></trkpt><trkpt lat="40.7783781" lon="-3.804066"><ele>1049.0</ele><time>2026-04-05T13:40:29.153Z</time></trkpt><trkpt lat="40.7783141" lon="-3.8041833"><ele>1049.0</ele><time>2026-04-05T13:40:30.153Z</time></trkpt><trkpt lat="40.7782574" lon="-3.8043033"><ele>1049.0</ele><time>2026-04-05T13:40:31.153Z</time></trkpt><trkpt lat="40.7782042" lon="-3.8044269"><ele>1049.0</ele><time>2026-04-05T13:40:32.153Z</time></trkpt><trkpt lat="40.7781556" lon="-3.804557"><ele>1049.0</ele><time>2026-04-05T13:40:33.153Z</time></trkpt><trkpt lat="40.7781043" lon="-3.8046976"><ele>1049.0</ele><time>2026-04-05T13:40:34.154Z</time></trkpt><trkpt lat="40.7780477" lon="-3.804831"><ele>1049.5</ele><time>2026-04-05T13:40:35.153Z</time></trkpt><trkpt lat="40.7779916" lon="-3.8049687"><ele>1050.0</ele><time>2026-04-05T13:40:36.153Z</time></trkpt><trkpt lat="40.7779424" lon="-3.8050986"><ele>1050.5</ele><time>2026-04-05T13:40:37.153Z</time></trkpt><trkpt lat="40.7778912" lon="-3.8052295"><ele>1051.0</ele><time>2026-04-05T13:40:38.154Z</time></trkpt><trkpt lat="40.777844" lon="-3.805361"><ele>1050.25</ele><time>2026-04-05T13:40:39.153Z</time></trkpt><trkpt lat="40.7777968" lon="-3.8054991"><ele>1049.5</ele><time>2026-04-05T13:40:40.153Z</time></trkpt><trkpt lat="40.7777443" lon="-3.8056347"><ele>1048.75</ele><time>2026-04-05T13:40:41.153Z</time></trkpt><trkpt lat="40.7776903" lon="-3.8057744"><ele>1048.0</ele><time>2026-04-05T13:40:42.153Z</time></trkpt><trkpt lat="40.7776405" lon="-3.805916"><ele>1049.0</ele><time>2026-04-05T13:40:43.153Z</time></trkpt><trkpt lat="40.7775803" lon="-3.8060555"><ele>1050.0</ele><time>2026-04-05T13:40:44.154Z</time></trkpt><trkpt lat="40.7775187" lon="-3.8062048"><ele>1051.0</ele><time>2026-04-05T13:40:45.154Z</time></trkpt><trkpt lat="40.7774539" lon="-3.806363"><ele>1052.0</ele><time>2026-04-05T13:40:46.153Z</time></trkpt><trkpt lat="40.7773943" lon="-3.8065152"><ele>1052.0</ele><time>2026-04-05T13:40:47.153Z</time></trkpt><trkpt lat="40.7773375" lon="-3.8066639"><ele>1052.0</ele><time>2026-04-05T13:40:48.153Z</time></trkpt><trkpt lat="40.7772805" lon="-3.8068096"><ele>1052.0</ele><time>2026-04-05T13:40:49.153Z</time></trkpt><trkpt lat="40.7772224" lon="-3.806961"><ele>1052.0</ele><time>2026-04-05T13:40:50.153Z</time></trkpt><trkpt lat="40.7771685" lon="-3.8071183"><ele>1053.0</ele><time>2026-04-05T13:40:51.154Z</time></trkpt><trkpt lat="40.777119" lon="-3.8072744"><ele>1054.0</ele><time>2026-04-05T13:40:52.153Z</time></trkpt><trkpt lat="40.777069" lon="-3.8074278"><ele>1055.0</ele><time>2026-04-05T13:40:53.153Z</time></trkpt><trkpt lat="40.7770237" lon="-3.807586"><ele>1056.0</ele><time>2026-04-05T13:40:54.153Z</time></trkpt><trkpt lat="40.7769754" lon="-3.8077442"><ele>1057.0</ele><time>2026-04-05T13:40:55.153Z</time></trkpt><trkpt lat="40.7769286" lon="-3.8078973"><ele>1058.0</ele><time>2026-04-05T13:40:56.153Z</time></trkpt><trkpt lat="40.7768953" lon="-3.80805"><ele>1059.0</ele><time>2026-04-05T13:40:57.153Z</time></trkpt><trkpt lat="40.7768763" lon="-3.8082049"><ele>1060.0</ele><time>2026-04-05T13:40:58.154Z</time></trkpt><trkpt lat="40.7768575" lon="-3.8083619"><ele>1059.25</ele><time>2026-04-05T13:40:59.154Z</time></trkpt><trkpt lat="40.7768324" lon="-3.808511"><ele>1058.5</ele><time>2026-04-05T13:41:00.154Z</time></trkpt><trkpt lat="40.776785" lon="-3.8086647"><ele>1057.75</ele><time>2026-04-05T13:41:01.154Z</time></trkpt><trkpt lat="40.7767226" lon="-3.808815"><ele>1057.0</ele><time>2026-04-05T13:41:02.153Z</time></trkpt><trkpt lat="40.7766516" lon="-3.8089621"><ele>1057.0</ele><time>2026-04-05T13:41:03.154Z</time></trkpt><trkpt lat="40.77658" lon="-3.8091038"><ele>1057.0</ele><time>2026-04-05T13:41:04.153Z</time></trkpt><trkpt lat="40.7765123" lon="-3.8092337"><ele>1057.0</ele><time>2026-04-05T13:41:05.153Z</time></trkpt><trkpt lat="40.7764364" lon="-3.8093577"><ele>1057.0</ele><time>2026-04-05T13:41:06.153Z</time></trkpt><trkpt lat="40.7763472" lon="-3.8094715"><ele>1057.5</ele><time>2026-04-05T13:41:07.154Z</time></trkpt><trkpt lat="40.7762547" lon="-3.809584"><ele>1058.0</ele><time>2026-04-05T13:41:08.154Z</time></trkpt><trkpt lat="40.7761703" lon="-3.8097059"><ele>1058.5</ele><time>2026-04-05T13:41:09.153Z</time></trkpt><trkpt lat="40.7760901" lon="-3.8098431"><ele>1059.0</ele><time>2026-04-05T13:41:10.154Z</time></trkpt><trkpt lat="40.7760206" lon="-3.8099938"><ele>1059.25</ele><time>2026-04-05T13:41:11.153Z</time></trkpt><trkpt lat="40.7759443" lon="-3.8101518"><ele>1059.5</ele><time>2026-04-05T13:41:12.153Z</time></trkpt><trkpt lat="40.7758671" lon="-3.8103015"><ele>1059.75</ele><time>2026-04-05T13:41:13.153Z</time></trkpt><trkpt lat="40.7757955" lon="-3.8104387"><ele>1060.0</ele><time>2026-04-05T13:41:14.154Z</time></trkpt><trkpt lat="40.7757224" lon="-3.8105719"><ele>1060.0</ele><time>2026-04-05T13:41:15.153Z</time></trkpt><trkpt lat="40.7756476" lon="-3.8106929"><ele>1060.0</ele><time>2026-04-05T13:41:16.153Z</time></trkpt><trkpt lat="40.7755604" lon="-3.8107923"><ele>1060.0</ele><time>2026-04-05T13:41:17.153Z</time></trkpt><trkpt lat="40.7754665" lon="-3.8108774"><ele>1060.0</ele><time>2026-04-05T13:41:18.153Z</time></trkpt><trkpt lat="40.7753583" lon="-3.8109583"><ele>1060.5</ele><time>2026-04-05T13:41:19.153Z</time></trkpt><trkpt lat="40.7752395" lon="-3.8110395"><ele>1061.0</ele><time>2026-04-05T13:41:20.154Z</time></trkpt><trkpt lat="40.7751165" lon="-3.8111202"><ele>1061.5</ele><time>2026-04-05T13:41:21.153Z</time></trkpt><trkpt lat="40.7749974" lon="-3.8112033"><ele>1062.0</ele><time>2026-04-05T13:41:22.154Z</time></trkpt><trkpt lat="40.7748816" lon="-3.8112867"><ele>1062.0</ele><time>2026-04-05T13:41:23.153Z</time></trkpt><trkpt lat="40.7747697" lon="-3.8113677"><ele>1062.0</ele><time>2026-04-05T13:41:24.154Z</time></trkpt><trkpt lat="40.7746589" lon="-3.8114493"><ele>1062.0</ele><time>2026-04-05T13:41:25.153Z</time></trkpt><trkpt lat="40.774546" lon="-3.811528"><ele>1062.0</ele><time>2026-04-05T13:41:26.153Z</time></trkpt><trkpt lat="40.7744427" lon="-3.8116087"><ele>1060.8333333333333</ele><time>2026-04-05T13:41:27.153Z</time></trkpt><trkpt lat="40.7743503" lon="-3.8116713"><ele>1059.6666666666667</ele><time>2026-04-05T13:41:28.154Z</time></trkpt><trkpt lat="40.7742714" lon="-3.8117203"><ele>1058.5</ele><time>2026-04-05T13:41:29.153Z</time></trkpt><trkpt lat="40.7742115" lon="-3.8117619"><ele>1057.3333333333335</ele><time>2026-04-05T13:41:30.153Z</time></trkpt><trkpt lat="40.7741516" lon="-3.811804"><ele>1056.1666666666667</ele><time>2026-04-05T13:41:31.153Z</time></trkpt><trkpt lat="40.7740843" lon="-3.8118416"><ele>1055.0</ele><time>2026-04-05T13:41:32.154Z</time></trkpt><trkpt lat="40.7740082" lon="-3.8118822"><ele>1055.0</ele><time>2026-04-05T13:41:33.154Z</time></trkpt><trkpt lat="40.7739196" lon="-3.811924"><ele>1055.0</ele><time>2026-04-05T13:41:34.153Z</time></trkpt><trkpt lat="40.7738187" lon="-3.8119593"><ele>1055.0</ele><time>2026-04-05T13:41:35.154Z</time></trkpt><trkpt lat="40.7737083" lon="-3.8119871"><ele>1055.0</ele><time>2026-04-05T13:41:36.153Z</time></trkpt><trkpt lat="40.7735926" lon="-3.8120177"><ele>1055.0</ele><time>2026-04-05T13:41:37.153Z</time></trkpt><trkpt lat="40.7734705" lon="-3.8120437"><ele>1053.75</ele><time>2026-04-05T13:41:38.153Z</time></trkpt><trkpt lat="40.7733431" lon="-3.8120679"><ele>1052.5</ele><time>2026-04-05T13:41:39.153Z</time></trkpt><trkpt lat="40.7732119" lon="-3.8120794"><ele>1051.25</ele><time>2026-04-05T13:41:40.153Z</time></trkpt><trkpt lat="40.7730805" lon="-3.8120783"><ele>1050.0</ele><time>2026-04-05T13:41:41.153Z</time></trkpt><trkpt lat="40.7729471" lon="-3.812058"><ele>1050.0</ele><time>2026-04-05T13:41:42.153Z</time></trkpt><trkpt lat="40.7728078" lon="-3.8120185"><ele>1050.0</ele><time>2026-04-05T13:41:43.153Z</time></trkpt><trkpt lat="40.7726642" lon="-3.8119767"><ele>1050.0</ele><time>2026-04-05T13:41:44.154Z</time></trkpt><trkpt lat="40.772514" lon="-3.8119317"><ele>1050.0</ele><time>2026-04-05T13:41:45.153Z</time></trkpt><trkpt lat="40.7723699" lon="-3.8118881"><ele>1049.5</ele><time>2026-04-05T13:41:46.153Z</time></trkpt><trkpt lat="40.7722351" lon="-3.8118477"><ele>1049.0</ele><time>2026-04-05T13:41:47.153Z</time></trkpt><trkpt lat="40.7721045" lon="-3.8118164"><ele>1048.5</ele><time>2026-04-05T13:41:48.153Z</time></trkpt><trkpt lat="40.771975" lon="-3.8118009"><ele>1048.0</ele><time>2026-04-05T13:41:49.153Z</time></trkpt><trkpt lat="40.77186" lon="-3.811803"><ele>1047.6666666666665</ele><time>2026-04-05T13:41:50.153Z</time></trkpt><trkpt lat="40.7717555" lon="-3.8118123"><ele>1047.3333333333333</ele><time>2026-04-05T13:41:51.153Z</time></trkpt><trkpt lat="40.7716672" lon="-3.8118322"><ele>1047.0</ele><time>2026-04-05T13:41:52.153Z</time></trkpt><trkpt lat="40.7715899" lon="-3.8118516"><ele>1046.6666666666667</ele><time>2026-04-05T13:41:53.153Z</time></trkpt><trkpt lat="40.771527" lon="-3.8118674"><ele>1046.3333333333335</ele><time>2026-04-05T13:41:54.154Z</time></trkpt><trkpt lat="40.7714279" lon="-3.8119114"><ele>1046.0</ele><time>2026-04-05T13:41:56.154Z</time></trkpt><trkpt lat="40.7713063" lon="-3.8119664"><ele>1046.0</ele><time>2026-04-05T13:41:58.154Z</time></trkpt><trkpt lat="40.7712353" lon="-3.8119797"><ele>1046.0</ele><time>2026-04-05T13:41:59.153Z</time></trkpt><trkpt lat="40.7711607" lon="-3.8119731"><ele>1046.0</ele><time>2026-04-05T13:42:00.153Z</time></trkpt><trkpt lat="40.7710986" lon="-3.8119396"><ele>1046.0</ele><time>2026-04-05T13:42:01.153Z</time></trkpt><trkpt lat="40.7710412" lon="-3.8118769"><ele>1046.0</ele><time>2026-04-05T13:42:02.153Z</time></trkpt><trkpt lat="40.770992" lon="-3.8117847"><ele>1046.0</ele><time>2026-04-05T13:42:03.153Z</time></trkpt><trkpt lat="40.7709433" lon="-3.8116936"><ele>1044.0</ele><time>2026-04-05T13:42:04.154Z</time></trkpt><trkpt lat="40.7708831" lon="-3.8116096"><ele>1042.0</ele><time>2026-04-05T13:42:05.154Z</time></trkpt><trkpt lat="40.7708139" lon="-3.8115323"><ele>1040.0</ele><time>2026-04-05T13:42:06.153Z</time></trkpt><trkpt lat="40.77073" lon="-3.8114547"><ele>1038.0</ele><time>2026-04-05T13:42:07.153Z</time></trkpt><trkpt lat="40.7706397" lon="-3.8113893"><ele>1036.0</ele><time>2026-04-05T13:42:08.154Z</time></trkpt><trkpt lat="40.7705432" lon="-3.8113203"><ele>1036.0</ele><time>2026-04-05T13:42:09.153Z</time></trkpt><trkpt lat="40.7704543" lon="-3.8112515"><ele>1036.0</ele><time>2026-04-05T13:42:10.153Z</time></trkpt><trkpt lat="40.7703706" lon="-3.811187"><ele>1036.0</ele><time>2026-04-05T13:42:11.153Z</time></trkpt><trkpt lat="40.7702923" lon="-3.8111268"><ele>1036.0</ele><time>2026-04-05T13:42:12.154Z</time></trkpt><trkpt lat="40.7702223" lon="-3.8110916"><ele>1036.0</ele><time>2026-04-05T13:42:13.153Z</time></trkpt><trkpt lat="40.7701596" lon="-3.8110629"><ele>1036.0</ele><time>2026-04-05T13:42:14.154Z</time></trkpt><trkpt lat="40.7700424" lon="-3.8110557"><ele>1034.3999999999999</ele><time>2026-04-05T13:42:16.153Z</time></trkpt><trkpt lat="40.7699448" lon="-3.8111122"><ele>1032.8</ele><time>2026-04-05T13:42:18.153Z</time></trkpt><trkpt lat="40.7698772" lon="-3.8112052"><ele>1031.1999999999998</ele><time>2026-04-05T13:42:20.154Z</time></trkpt><trkpt lat="40.7698128" lon="-3.8113105"><ele>1029.6</ele><time>2026-04-05T13:42:22.153Z</time></trkpt><trkpt lat="40.7697481" lon="-3.8114493"><ele>1028.0</ele><time>2026-04-05T13:42:24.154Z</time></trkpt><trkpt lat="40.7696882" lon="-3.8115833"><ele>1028.0</ele><time>2026-04-05T13:42:26.153Z</time></trkpt><trkpt lat="40.769655" lon="-3.8116861"><ele>1028.0</ele><time>2026-04-05T13:42:28.153Z</time></trkpt><trkpt lat="40.769656" lon="-3.8117829"><ele>1028.0</ele><time>2026-04-05T13:42:30.153Z</time></trkpt><trkpt lat="40.7696426" lon="-3.8118876"><ele>1028.0</ele><time>2026-04-05T13:42:32.153Z</time></trkpt><trkpt lat="40.7696142" lon="-3.8119797"><ele>1028.0</ele><time>2026-04-05T13:42:34.153Z</time></trkpt><trkpt lat="40.7695799" lon="-3.8120502"><ele>1028.0</ele><time>2026-04-05T13:42:36.153Z</time></trkpt><trkpt lat="40.7695506" lon="-3.8121434"><ele>1028.5</ele><time>2026-04-05T13:42:39.154Z</time></trkpt><trkpt lat="40.7695214" lon="-3.8122296"><ele>1029.0</ele><time>2026-04-05T13:42:41.153Z</time></trkpt><trkpt lat="40.7694929" lon="-3.8123513"><ele>1029.5</ele><time>2026-04-05T13:42:43.154Z</time></trkpt><trkpt lat="40.7694488" lon="-3.8124561"><ele>1030.0</ele><time>2026-04-05T13:42:45.154Z</time></trkpt><trkpt lat="40.7693834" lon="-3.8125847"><ele>1030.5</ele><time>2026-04-05T13:42:47.153Z</time></trkpt><trkpt lat="40.7693389" lon="-3.8126567"><ele>1031.0</ele><time>2026-04-05T13:42:48.153Z</time></trkpt><trkpt lat="40.7692819" lon="-3.8127267"><ele>1029.0</ele><time>2026-04-05T13:42:49.153Z</time></trkpt><trkpt lat="40.7692189" lon="-3.812804"><ele>1027.0</ele><time>2026-04-05T13:42:50.154Z</time></trkpt><trkpt lat="40.7691495" lon="-3.8128826"><ele>1025.0</ele><time>2026-04-05T13:42:51.153Z</time></trkpt><trkpt lat="40.7690895" lon="-3.8129473"><ele>1023.0</ele><time>2026-04-05T13:42:52.153Z</time></trkpt><trkpt lat="40.7690189" lon="-3.8130117"><ele>1021.0000000000001</ele><time>2026-04-05T13:42:53.154Z</time></trkpt><trkpt lat="40.7689404" lon="-3.8130731"><ele>1019.0</ele><time>2026-04-05T13:42:54.153Z</time></trkpt><trkpt lat="40.7688603" lon="-3.8131381"><ele>1019.0</ele><time>2026-04-05T13:42:55.153Z</time></trkpt><trkpt lat="40.7687774" lon="-3.8132054"><ele>1019.0000000000001</ele><time>2026-04-05T13:42:56.153Z</time></trkpt><trkpt lat="40.7686897" lon="-3.8132597"><ele>1019.0000000000001</ele><time>2026-04-05T13:42:57.154Z</time></trkpt><trkpt lat="40.7686045" lon="-3.8133153"><ele>1019.0</ele><time>2026-04-05T13:42:58.154Z</time></trkpt><trkpt lat="40.7685178" lon="-3.8133764"><ele>1019.0</ele><time>2026-04-05T13:42:59.153Z</time></trkpt><trkpt lat="40.768431" lon="-3.8134473"><ele>1018.5000000000001</ele><time>2026-04-05T13:43:00.153Z</time></trkpt><trkpt lat="40.7683658" lon="-3.813526"><ele>1018.0</ele><time>2026-04-05T13:43:01.153Z</time></trkpt><trkpt lat="40.7683367" lon="-3.8136141"><ele>1017.5</ele><time>2026-04-05T13:43:02.154Z</time></trkpt><trkpt lat="40.768338" lon="-3.8137191"><ele>1017.0</ele><time>2026-04-05T13:43:03.153Z</time></trkpt><trkpt lat="40.7683528" lon="-3.8138311"><ele>1016.5000000000001</ele><time>2026-04-05T13:43:04.154Z</time></trkpt><trkpt lat="40.7683645" lon="-3.8139472"><ele>1016.0</ele><time>2026-04-05T13:43:05.153Z</time></trkpt><trkpt lat="40.7683707" lon="-3.8140722"><ele>1016.0000000000001</ele><time>2026-04-05T13:43:06.153Z</time></trkpt><trkpt lat="40.7683677" lon="-3.8141912"><ele>1016.0</ele><time>2026-04-05T13:43:07.153Z</time></trkpt><trkpt lat="40.7683593" lon="-3.814308"><ele>1016.0</ele><time>2026-04-05T13:43:08.153Z</time></trkpt><trkpt lat="40.7683431" lon="-3.8144197"><ele>1016.0</ele><time>2026-04-05T13:43:09.153Z</time></trkpt><trkpt lat="40.7683351" lon="-3.8145191"><ele>1016.0000000000001</ele><time>2026-04-05T13:43:10.153Z</time></trkpt><trkpt lat="40.7683394" lon="-3.8146196"><ele>1016.0</ele><time>2026-04-05T13:43:11.153Z</time></trkpt><trkpt lat="40.7683598" lon="-3.8147209"><ele>1016.5999999999999</ele><time>2026-04-05T13:43:12.154Z</time></trkpt><trkpt lat="40.7684072" lon="-3.8148247"><ele>1017.1999999999999</ele><time>2026-04-05T13:43:13.153Z</time></trkpt><trkpt lat="40.7684778" lon="-3.8149044"><ele>1017.8000000000001</ele><time>2026-04-05T13:43:14.153Z</time></trkpt><trkpt lat="40.7685541" lon="-3.8149822"><ele>1018.4000000000001</ele><time>2026-04-05T13:43:15.153Z</time></trkpt><trkpt lat="40.7686344" lon="-3.815042"><ele>1019.0</ele><time>2026-04-05T13:43:16.153Z</time></trkpt><trkpt lat="40.7687212" lon="-3.8150958"><ele>1020.3333333333334</ele><time>2026-04-05T13:43:17.153Z</time></trkpt><trkpt lat="40.7688134" lon="-3.8151373"><ele>1021.6666666666667</ele><time>2026-04-05T13:43:18.154Z</time></trkpt><trkpt lat="40.7689018" lon="-3.8151679"><ele>1023.0</ele><time>2026-04-05T13:43:19.154Z</time></trkpt><trkpt lat="40.7689834" lon="-3.8151915"><ele>1024.3333333333333</ele><time>2026-04-05T13:43:20.153Z</time></trkpt><trkpt lat="40.7690486" lon="-3.8152179"><ele>1025.6666666666665</ele><time>2026-04-05T13:43:21.154Z</time></trkpt><trkpt lat="40.769111" lon="-3.8152456"><ele>1027.0</ele><time>2026-04-05T13:43:22.153Z</time></trkpt><trkpt lat="40.7692146" lon="-3.8152976"><ele>1027.0</ele><time>2026-04-05T13:43:24.153Z</time></trkpt><trkpt lat="40.7693051" lon="-3.8153559"><ele>1027.0</ele><time>2026-04-05T13:43:26.154Z</time></trkpt><trkpt lat="40.7693816" lon="-3.8154494"><ele>1027.0</ele><time>2026-04-05T13:43:28.153Z</time></trkpt><trkpt lat="40.7693857" lon="-3.8155621"><ele>1027.0</ele><time>2026-04-05T13:43:30.153Z</time></trkpt><trkpt lat="40.7693345" lon="-3.8156984"><ele>1027.0</ele><time>2026-04-05T13:43:32.153Z</time></trkpt><trkpt lat="40.7693017" lon="-3.8157747"><ele>1027.0</ele><time>2026-04-05T13:43:33.153Z</time></trkpt><trkpt lat="40.7692594" lon="-3.8158594"><ele>1027.0</ele><time>2026-04-05T13:43:34.153Z</time></trkpt><trkpt lat="40.7692184" lon="-3.8159571"><ele>1027.0</ele><time>2026-04-05T13:43:35.154Z</time></trkpt><trkpt lat="40.7691826" lon="-3.816055"><ele>1027.0</ele><time>2026-04-05T13:43:36.153Z</time></trkpt><trkpt lat="40.7691604" lon="-3.8161581"><ele>1027.0</ele><time>2026-04-05T13:43:37.153Z</time></trkpt><trkpt lat="40.7691582" lon="-3.8162612"><ele>1027.0</ele><time>2026-04-05T13:43:38.153Z</time></trkpt><trkpt lat="40.7691744" lon="-3.8163711"><ele>1027.6</ele><time>2026-04-05T13:43:39.153Z</time></trkpt><trkpt lat="40.7692004" lon="-3.8164852"><ele>1028.2</ele><time>2026-04-05T13:43:40.153Z</time></trkpt><trkpt lat="40.769221" lon="-3.8166006"><ele>1028.8</ele><time>2026-04-05T13:43:41.153Z</time></trkpt><trkpt lat="40.769236" lon="-3.8167192"><ele>1029.4</ele><time>2026-04-05T13:43:42.153Z</time></trkpt><trkpt lat="40.7692421" lon="-3.8168413"><ele>1030.0</ele><time>2026-04-05T13:43:43.153Z</time></trkpt><trkpt lat="40.7692257" lon="-3.8169559"><ele>1030.8</ele><time>2026-04-05T13:43:44.153Z</time></trkpt><trkpt lat="40.7691804" lon="-3.8170567"><ele>1031.6</ele><time>2026-04-05T13:43:45.153Z</time></trkpt><trkpt lat="40.769121" lon="-3.8171421"><ele>1032.4</ele><time>2026-04-05T13:43:46.153Z</time></trkpt><trkpt lat="40.7690555" lon="-3.8172236"><ele>1033.2</ele><time>2026-04-05T13:43:47.154Z</time></trkpt><trkpt lat="40.768985" lon="-3.8173043"><ele>1034.0</ele><time>2026-04-05T13:43:48.154Z</time></trkpt><trkpt lat="40.7688996" lon="-3.8173977"><ele>1034.0</ele><time>2026-04-05T13:43:49.153Z</time></trkpt><trkpt lat="40.7688228" lon="-3.8175013"><ele>1034.0</ele><time>2026-04-05T13:43:50.153Z</time></trkpt><trkpt lat="40.7687515" lon="-3.8176012"><ele>1034.0</ele><time>2026-04-05T13:43:51.153Z</time></trkpt><trkpt lat="40.7686714" lon="-3.8176988"><ele>1034.0</ele><time>2026-04-05T13:43:52.153Z</time></trkpt><trkpt lat="40.7685882" lon="-3.8177893"><ele>1034.0</ele><time>2026-04-05T13:43:53.154Z</time></trkpt><trkpt lat="40.768499" lon="-3.8178904"><ele>1033.8</ele><time>2026-04-05T13:43:54.154Z</time></trkpt><trkpt lat="40.7684189" lon="-3.8179937"><ele>1033.6000000000001</ele><time>2026-04-05T13:43:55.153Z</time></trkpt><trkpt lat="40.7683469" lon="-3.8180987"><ele>1033.4</ele><time>2026-04-05T13:43:56.153Z</time></trkpt><trkpt lat="40.7682786" lon="-3.8181997"><ele>1033.2</ele><time>2026-04-05T13:43:57.153Z</time></trkpt><trkpt lat="40.7682174" lon="-3.8182935"><ele>1033.0</ele><time>2026-04-05T13:43:58.153Z</time></trkpt><trkpt lat="40.768173" lon="-3.8183861"><ele>1033.0</ele><time>2026-04-05T13:43:59.153Z</time></trkpt><trkpt lat="40.7681303" lon="-3.8184728"><ele>1033.0</ele><time>2026-04-05T13:44:00.153Z</time></trkpt><trkpt lat="40.7680727" lon="-3.8185483"><ele>1033.0</ele><time>2026-04-05T13:44:01.153Z</time></trkpt><trkpt lat="40.7680095" lon="-3.8186153"><ele>1033.0</ele><time>2026-04-05T13:44:02.154Z</time></trkpt><trkpt lat="40.7679337" lon="-3.8186691"><ele>1033.0</ele><time>2026-04-05T13:44:03.153Z</time></trkpt><trkpt lat="40.7678469" lon="-3.8187012"><ele>1033.0</ele><time>2026-04-05T13:44:04.153Z</time></trkpt><trkpt lat="40.767746" lon="-3.8187119"><ele>1031.8333333333333</ele><time>2026-04-05T13:44:05.153Z</time></trkpt><trkpt lat="40.7676522" lon="-3.8187135"><ele>1030.6666666666665</ele><time>2026-04-05T13:44:06.153Z</time></trkpt><trkpt lat="40.7675675" lon="-3.8187127"><ele>1029.5</ele><time>2026-04-05T13:44:07.153Z</time></trkpt><trkpt lat="40.7674798" lon="-3.8187138"><ele>1028.3333333333333</ele><time>2026-04-05T13:44:08.153Z</time></trkpt><trkpt lat="40.7673933" lon="-3.8187223"><ele>1027.1666666666667</ele><time>2026-04-05T13:44:09.153Z</time></trkpt><trkpt lat="40.7673169" lon="-3.8187476"><ele>1026.0</ele><time>2026-04-05T13:44:10.153Z</time></trkpt><trkpt lat="40.7672515" lon="-3.8187806"><ele>1026.0</ele><time>2026-04-05T13:44:11.154Z</time></trkpt><trkpt lat="40.7671491" lon="-3.818844"><ele>1026.0</ele><time>2026-04-05T13:44:13.153Z</time></trkpt><trkpt lat="40.7671254" lon="-3.8189438"><ele>1026.0</ele><time>2026-04-05T13:44:15.153Z</time></trkpt><trkpt lat="40.7671376" lon="-3.8190351"><ele>1026.0</ele><time>2026-04-05T13:44:17.153Z</time></trkpt><trkpt lat="40.7671712" lon="-3.8191467"><ele>1026.0</ele><time>2026-04-05T13:44:20.153Z</time></trkpt><trkpt lat="40.7671891" lon="-3.8192325"><ele>1026.0</ele><time>2026-04-05T13:44:22.153Z</time></trkpt><trkpt lat="40.7671589" lon="-3.8193174"><ele>1026.0</ele><time>2026-04-05T13:44:25.153Z</time></trkpt><trkpt lat="40.7670882" lon="-3.8193564"><ele>1026.0</ele><time>2026-04-05T13:44:29.153Z</time></trkpt><trkpt lat="40.7670332" lon="-3.8193987"><ele>1026.0</ele><time>2026-04-05T13:44:33.153Z</time></trkpt><trkpt lat="40.7669403" lon="-3.8194532"><ele>1026.0</ele><time>2026-04-05T13:44:35.153Z</time></trkpt><trkpt lat="40.7668262" lon="-3.8194938"><ele>1026.0</ele><time>2026-04-05T13:44:37.153Z</time></trkpt><trkpt lat="40.7667518" lon="-3.8195147"><ele>1026.0</ele><time>2026-04-05T13:44:38.153Z</time></trkpt><trkpt lat="40.7666617" lon="-3.8195445"><ele>1026.0</ele><time>2026-04-05T13:44:39.153Z</time></trkpt><trkpt lat="40.7665761" lon="-3.8195812"><ele>1026.0</ele><time>2026-04-05T13:44:40.153Z</time></trkpt><trkpt lat="40.7664839" lon="-3.8196346"><ele>1026.0</ele><time>2026-04-05T13:44:41.153Z</time></trkpt><trkpt lat="40.7663909" lon="-3.8196909"><ele>1026.0</ele><time>2026-04-05T13:44:42.154Z</time></trkpt><trkpt lat="40.7662876" lon="-3.8197668"><ele>1026.0</ele><time>2026-04-05T13:44:43.153Z</time></trkpt><trkpt lat="40.7661812" lon="-3.8198562"><ele>1026.0</ele><time>2026-04-05T13:44:44.153Z</time></trkpt><trkpt lat="40.7660796" lon="-3.8199561"><ele>1026.0</ele><time>2026-04-05T13:44:45.153Z</time></trkpt><trkpt lat="40.765978" lon="-3.820047"><ele>1026.0</ele><time>2026-04-05T13:44:46.153Z</time></trkpt><trkpt lat="40.7658654" lon="-3.8201317"><ele>1026.0</ele><time>2026-04-05T13:44:47.153Z</time></trkpt><trkpt lat="40.7657438" lon="-3.8201944"><ele>1025.25</ele><time>2026-04-05T13:44:48.154Z</time></trkpt><trkpt lat="40.765624" lon="-3.8202472"><ele>1024.5</ele><time>2026-04-05T13:44:49.154Z</time></trkpt><trkpt lat="40.7655046" lon="-3.820304"><ele>1023.75</ele><time>2026-04-05T13:44:50.154Z</time></trkpt><trkpt lat="40.7653893" lon="-3.8203679"><ele>1023.0</ele><time>2026-04-05T13:44:51.153Z</time></trkpt><trkpt lat="40.7652738" lon="-3.8204195"><ele>1021.0</ele><time>2026-04-05T13:44:52.153Z</time></trkpt><trkpt lat="40.765163" lon="-3.8204586"><ele>1019.0</ele><time>2026-04-05T13:44:53.154Z</time></trkpt><trkpt lat="40.7650548" lon="-3.8205094"><ele>1017.0</ele><time>2026-04-05T13:44:54.153Z</time></trkpt><trkpt lat="40.7649439" lon="-3.8205617"><ele>1015.0</ele><time>2026-04-05T13:44:55.153Z</time></trkpt><trkpt lat="40.7648364" lon="-3.8206123"><ele>1015.0</ele><time>2026-04-05T13:44:56.154Z</time></trkpt><trkpt lat="40.7647278" lon="-3.8206611"><ele>1015.0</ele><time>2026-04-05T13:44:57.153Z</time></trkpt><trkpt lat="40.764626" lon="-3.8207172"><ele>1015.0</ele><time>2026-04-05T13:44:58.154Z</time></trkpt><trkpt lat="40.7645295" lon="-3.8207733"><ele>1015.0</ele><time>2026-04-05T13:44:59.153Z</time></trkpt><trkpt lat="40.7644298" lon="-3.8208089"><ele>1015.0</ele><time>2026-04-05T13:45:00.153Z</time></trkpt><trkpt lat="40.7643255" lon="-3.8208369"><ele>1013.75</ele><time>2026-04-05T13:45:01.153Z</time></trkpt><trkpt lat="40.7642106" lon="-3.8208601"><ele>1012.5</ele><time>2026-04-05T13:45:02.153Z</time></trkpt><trkpt lat="40.7640948" lon="-3.8208859"><ele>1011.25</ele><time>2026-04-05T13:45:03.154Z</time></trkpt><trkpt lat="40.7639833" lon="-3.8209206"><ele>1010.0</ele><time>2026-04-05T13:45:04.154Z</time></trkpt><trkpt lat="40.7638765" lon="-3.8209624"><ele>1009.8</ele><time>2026-04-05T13:45:05.153Z</time></trkpt><trkpt lat="40.7637702" lon="-3.8210122"><ele>1009.6</ele><time>2026-04-05T13:45:06.153Z</time></trkpt><trkpt lat="40.763671" lon="-3.8210754"><ele>1009.4000000000001</ele><time>2026-04-05T13:45:07.153Z</time></trkpt><trkpt lat="40.7635799" lon="-3.8211584"><ele>1009.2</ele><time>2026-04-05T13:45:08.153Z</time></trkpt><trkpt lat="40.7634911" lon="-3.8212414"><ele>1009.0</ele><time>2026-04-05T13:45:09.153Z</time></trkpt><trkpt lat="40.763404" lon="-3.8213066"><ele>1007.8000000000001</ele><time>2026-04-05T13:45:10.153Z</time></trkpt><trkpt lat="40.7633152" lon="-3.8213655"><ele>1006.6000000000001</ele><time>2026-04-05T13:45:11.153Z</time></trkpt><trkpt lat="40.7632328" lon="-3.82143"><ele>1005.4</ele><time>2026-04-05T13:45:12.153Z</time></trkpt><trkpt lat="40.763162" lon="-3.8215058"><ele>1004.2</ele><time>2026-04-05T13:45:13.153Z</time></trkpt><trkpt lat="40.763095" lon="-3.821589"><ele>1003.0</ele><time>2026-04-05T13:45:14.153Z</time></trkpt><trkpt lat="40.7630379" lon="-3.8216723"><ele>1002.9999999999999</ele><time>2026-04-05T13:45:15.154Z</time></trkpt><trkpt lat="40.762987" lon="-3.8217575"><ele>1003.0</ele><time>2026-04-05T13:45:16.153Z</time></trkpt><trkpt lat="40.7629334" lon="-3.8218387"><ele>1003.0</ele><time>2026-04-05T13:45:17.154Z</time></trkpt><trkpt lat="40.7628792" lon="-3.8219265"><ele>1003.0</ele><time>2026-04-05T13:45:18.153Z</time></trkpt><trkpt lat="40.7628272" lon="-3.8220152"><ele>1002.9999999999999</ele><time>2026-04-05T13:45:19.153Z</time></trkpt><trkpt lat="40.7627802" lon="-3.8221027"><ele>1003.0</ele><time>2026-04-05T13:45:20.153Z</time></trkpt><trkpt lat="40.7627344" lon="-3.8221789"><ele>1002.4999999999999</ele><time>2026-04-05T13:45:21.153Z</time></trkpt><trkpt lat="40.7626776" lon="-3.8222396"><ele>1002.0</ele><time>2026-04-05T13:45:22.153Z</time></trkpt><trkpt lat="40.7626108" lon="-3.8222836"><ele>1001.5</ele><time>2026-04-05T13:45:23.154Z</time></trkpt><trkpt lat="40.7625329" lon="-3.8223347"><ele>1001.0</ele><time>2026-04-05T13:45:24.153Z</time></trkpt><trkpt lat="40.7624497" lon="-3.8223746"><ele>1000.4999999999999</ele><time>2026-04-05T13:45:25.153Z</time></trkpt><trkpt lat="40.7623639" lon="-3.8224142"><ele>1000.0</ele><time>2026-04-05T13:45:26.153Z</time></trkpt><trkpt lat="40.7622791" lon="-3.8224625"><ele>1000.0</ele><time>2026-04-05T13:45:27.153Z</time></trkpt><trkpt lat="40.7621976" lon="-3.8225303"><ele>1000.0</ele><time>2026-04-05T13:45:28.154Z</time></trkpt><trkpt lat="40.7621168" lon="-3.8226104"><ele>1000.0</ele><time>2026-04-05T13:45:29.153Z</time></trkpt><trkpt lat="40.7620428" lon="-3.8226922"><ele>1000.0</ele><time>2026-04-05T13:45:30.154Z</time></trkpt><trkpt lat="40.76197" lon="-3.8227874"><ele>1000.0</ele><time>2026-04-05T13:45:31.153Z</time></trkpt><trkpt lat="40.7618977" lon="-3.8228851"><ele>999.4</ele><time>2026-04-05T13:45:32.154Z</time></trkpt><trkpt lat="40.7618297" lon="-3.8229783"><ele>998.8</ele><time>2026-04-05T13:45:33.154Z</time></trkpt><trkpt lat="40.7617654" lon="-3.8230764"><ele>998.2</ele><time>2026-04-05T13:45:34.153Z</time></trkpt><trkpt lat="40.7617013" lon="-3.8231693"><ele>997.6</ele><time>2026-04-05T13:45:35.154Z</time></trkpt><trkpt lat="40.7616349" lon="-3.8232622"><ele>997.0</ele><time>2026-04-05T13:45:36.153Z</time></trkpt><trkpt lat="40.7615717" lon="-3.8233551"><ele>997.0</ele><time>2026-04-05T13:45:37.153Z</time></trkpt><trkpt lat="40.7615084" lon="-3.8234532"><ele>997.0</ele><time>2026-04-05T13:45:38.153Z</time></trkpt><trkpt lat="40.7614418" lon="-3.8235584"><ele>997.0</ele><time>2026-04-05T13:45:39.153Z</time></trkpt><trkpt lat="40.7613737" lon="-3.8236622"><ele>997.0</ele><time>2026-04-05T13:45:40.153Z</time></trkpt><trkpt lat="40.7613075" lon="-3.8237595"><ele>997.0</ele><time>2026-04-05T13:45:41.153Z</time></trkpt><trkpt lat="40.7612351" lon="-3.8238403"><ele>996.6666666666666</ele><time>2026-04-05T13:45:42.153Z</time></trkpt><trkpt lat="40.7611579" lon="-3.8239003"><ele>996.3333333333333</ele><time>2026-04-05T13:45:43.153Z</time></trkpt><trkpt lat="40.7610843" lon="-3.8239518"><ele>996.0</ele><time>2026-04-05T13:45:44.153Z</time></trkpt><trkpt lat="40.7610111" lon="-3.8239956"><ele>995.6666666666667</ele><time>2026-04-05T13:45:45.153Z</time></trkpt><trkpt lat="40.7609431" lon="-3.8240407"><ele>995.3333333333334</ele><time>2026-04-05T13:45:46.154Z</time></trkpt><trkpt lat="40.7608746" lon="-3.8240826"><ele>995.0</ele><time>2026-04-05T13:45:47.154Z</time></trkpt><trkpt lat="40.7607702" lon="-3.8241441"><ele>995.0000000000001</ele><time>2026-04-05T13:45:49.153Z</time></trkpt><trkpt lat="40.7606762" lon="-3.824194"><ele>995.0</ele><time>2026-04-05T13:45:51.154Z</time></trkpt><trkpt lat="40.7605832" lon="-3.8241957"><ele>995.0</ele><time>2026-04-05T13:45:53.154Z</time></trkpt><trkpt lat="40.7604848" lon="-3.824175"><ele>995.0</ele><time>2026-04-05T13:45:55.154Z</time></trkpt><trkpt lat="40.7604225" lon="-3.8241603"><ele>995.0000000000001</ele><time>2026-04-05T13:45:56.153Z</time></trkpt><trkpt lat="40.7603449" lon="-3.824156"><ele>995.0</ele><time>2026-04-05T13:45:57.153Z</time></trkpt><trkpt lat="40.7602592" lon="-3.8241393"><ele>994.2</ele><time>2026-04-05T13:45:58.153Z</time></trkpt><trkpt lat="40.7601745" lon="-3.8241201"><ele>993.4</ele><time>2026-04-05T13:45:59.153Z</time></trkpt><trkpt lat="40.7600777" lon="-3.8240917"><ele>992.5999999999999</ele><time>2026-04-05T13:46:00.153Z</time></trkpt><trkpt lat="40.7599728" lon="-3.8240576"><ele>991.8</ele><time>2026-04-05T13:46:01.153Z</time></trkpt><trkpt lat="40.7598607" lon="-3.8240135"><ele>991.0</ele><time>2026-04-05T13:46:02.153Z</time></trkpt><trkpt lat="40.7597509" lon="-3.8239712"><ele>991.0</ele><time>2026-04-05T13:46:03.153Z</time></trkpt><trkpt lat="40.7596379" lon="-3.8239322"><ele>991.0</ele><time>2026-04-05T13:46:04.153Z</time></trkpt><trkpt lat="40.7595273" lon="-3.8238862"><ele>991.0</ele><time>2026-04-05T13:46:05.153Z</time></trkpt><trkpt lat="40.7594184" lon="-3.8238409"><ele>991.0</ele><time>2026-04-05T13:46:06.153Z</time></trkpt><trkpt lat="40.7593117" lon="-3.8237981"><ele>990.5999999999999</ele><time>2026-04-05T13:46:07.153Z</time></trkpt><trkpt lat="40.7592106" lon="-3.8237604"><ele>990.1999999999999</ele><time>2026-04-05T13:46:08.153Z</time></trkpt><trkpt lat="40.7591161" lon="-3.8237351"><ele>989.8000000000001</ele><time>2026-04-05T13:46:09.154Z</time></trkpt><trkpt lat="40.7590211" lon="-3.8237145"><ele>989.4000000000001</ele><time>2026-04-05T13:46:10.153Z</time></trkpt><trkpt lat="40.7589249" lon="-3.8236888"><ele>989.0</ele><time>2026-04-05T13:46:11.153Z</time></trkpt><trkpt lat="40.7588214" lon="-3.823662"><ele>989.0000000000001</ele><time>2026-04-05T13:46:12.153Z</time></trkpt><trkpt lat="40.7587201" lon="-3.8236401"><ele>989.0</ele><time>2026-04-05T13:46:13.153Z</time></trkpt><trkpt lat="40.7586231" lon="-3.8236189"><ele>989.0</ele><time>2026-04-05T13:46:14.153Z</time></trkpt><trkpt lat="40.7585306" lon="-3.8236032"><ele>989.0</ele><time>2026-04-05T13:46:15.153Z</time></trkpt><trkpt lat="40.7584497" lon="-3.8235943"><ele>989.0000000000001</ele><time>2026-04-05T13:46:16.153Z</time></trkpt><trkpt lat="40.758381" lon="-3.8235883"><ele>989.0</ele><time>2026-04-05T13:46:17.153Z</time></trkpt><trkpt lat="40.75829" lon="-3.823592"><ele>988.1666666666667</ele><time>2026-04-05T13:46:19.153Z</time></trkpt><trkpt lat="40.7582024" lon="-3.8235897"><ele>987.3333333333334</ele><time>2026-04-05T13:46:22.153Z</time></trkpt><trkpt lat="40.7581163" lon="-3.8236099"><ele>986.5</ele><time>2026-04-05T13:46:25.153Z</time></trkpt><trkpt lat="40.7580408" lon="-3.8236129"><ele>985.6666666666667</ele><time>2026-04-05T13:46:28.153Z</time></trkpt><trkpt lat="40.7579703" lon="-3.8235698"><ele>984.8333333333334</ele><time>2026-04-05T13:46:33.154Z</time></trkpt><trkpt lat="40.7579778" lon="-3.8236677"><ele>984.0</ele><time>2026-04-05T13:46:37.153Z</time></trkpt><trkpt lat="40.7580591" lon="-3.823714"><ele>984.0</ele><time>2026-04-05T13:46:39.153Z</time></trkpt><trkpt lat="40.7581299" lon="-3.8237198"><ele>984.0</ele><time>2026-04-05T13:46:40.153Z</time></trkpt><trkpt lat="40.7581984" lon="-3.8237235"><ele>984.0</ele><time>2026-04-05T13:46:41.154Z</time></trkpt><trkpt lat="40.7582677" lon="-3.8237343"><ele>984.0</ele><time>2026-04-05T13:46:42.153Z</time></trkpt><trkpt lat="40.758381" lon="-3.8237796"><ele>984.0</ele><time>2026-04-05T13:46:44.153Z</time></trkpt><trkpt lat="40.7584424" lon="-3.823849"><ele>984.0</ele><time>2026-04-05T13:46:46.153Z</time></trkpt><trkpt lat="40.758475" lon="-3.8240087"><ele>984.0000000000001</ele><time>2026-04-05T13:46:48.153Z</time></trkpt><trkpt lat="40.7584792" lon="-3.8241148"><ele>984.0</ele><time>2026-04-05T13:46:49.153Z</time></trkpt><trkpt lat="40.758477" lon="-3.824221"><ele>984.0000000000001</ele><time>2026-04-05T13:46:50.153Z</time></trkpt><trkpt lat="40.7584675" lon="-3.8243212"><ele>984.0000000000001</ele><time>2026-04-05T13:46:51.153Z</time></trkpt><trkpt lat="40.7584537" lon="-3.8244104"><ele>984.0</ele><time>2026-04-05T13:46:52.153Z</time></trkpt><trkpt lat="40.758444" lon="-3.8244945"><ele>984.0000000000001</ele><time>2026-04-05T13:46:53.153Z</time></trkpt><trkpt lat="40.758423" lon="-3.8245825"><ele>984.0000000000001</ele><time>2026-04-05T13:46:54.153Z</time></trkpt><trkpt lat="40.7583873" lon="-3.824668"><ele>984.0</ele><time>2026-04-05T13:46:55.153Z</time></trkpt><trkpt lat="40.7583533" lon="-3.8247425"><ele>984.0000000000001</ele><time>2026-04-05T13:46:56.153Z</time></trkpt><trkpt lat="40.7583428" lon="-3.8248851"><ele>984.0000000000001</ele><time>2026-04-05T13:46:58.153Z</time></trkpt><trkpt lat="40.7584029" lon="-3.8250179"><ele>984.0</ele><time>2026-04-05T13:47:00.153Z</time></trkpt><trkpt lat="40.7584495" lon="-3.8250839"><ele>984.0</ele><time>2026-04-05T13:47:01.153Z</time></trkpt><trkpt lat="40.7585018" lon="-3.8252062"><ele>983.8000000000001</ele><time>2026-04-05T13:47:03.153Z</time></trkpt><trkpt lat="40.7584726" lon="-3.82536"><ele>983.6000000000001</ele><time>2026-04-05T13:47:05.154Z</time></trkpt><trkpt lat="40.7584576" lon="-3.8254683"><ele>983.4</ele><time>2026-04-05T13:47:06.153Z</time></trkpt><trkpt lat="40.7584589" lon="-3.8255826"><ele>983.2</ele><time>2026-04-05T13:47:07.153Z</time></trkpt><trkpt lat="40.7584656" lon="-3.8256953"><ele>983.0</ele><time>2026-04-05T13:47:08.153Z</time></trkpt><trkpt lat="40.758482" lon="-3.8258049"><ele>983.0000000000001</ele><time>2026-04-05T13:47:09.153Z</time></trkpt><trkpt lat="40.7585114" lon="-3.8259166"><ele>983.0</ele><time>2026-04-05T13:47:10.153Z</time></trkpt><trkpt lat="40.758538" lon="-3.8260251"><ele>983.0</ele><time>2026-04-05T13:47:11.153Z</time></trkpt><trkpt lat="40.7585618" lon="-3.8261268"><ele>983.0</ele><time>2026-04-05T13:47:12.154Z</time></trkpt><trkpt lat="40.7585824" lon="-3.8262139"><ele>983.0000000000001</ele><time>2026-04-05T13:47:13.153Z</time></trkpt><trkpt lat="40.7586029" lon="-3.8262966"><ele>983.0</ele><time>2026-04-05T13:47:14.153Z</time></trkpt><trkpt lat="40.7586221" lon="-3.8263811"><ele>982.8333333333334</ele><time>2026-04-05T13:47:15.153Z</time></trkpt><trkpt lat="40.7586373" lon="-3.8264648"><ele>982.6666666666667</ele><time>2026-04-05T13:47:16.153Z</time></trkpt><trkpt lat="40.7586532" lon="-3.8265478"><ele>982.5</ele><time>2026-04-05T13:47:17.153Z</time></trkpt><trkpt lat="40.7586826" lon="-3.8266849"><ele>982.3333333333333</ele><time>2026-04-05T13:47:19.153Z</time></trkpt><trkpt lat="40.7587012" lon="-3.8268022"><ele>982.1666666666666</ele><time>2026-04-05T13:47:21.153Z</time></trkpt><trkpt lat="40.7587162" lon="-3.8268946"><ele>982.0</ele><time>2026-04-05T13:47:23.153Z</time></trkpt><trkpt lat="40.7587339" lon="-3.8269992"><ele>981.1666666666666</ele><time>2026-04-05T13:47:25.153Z</time></trkpt><trkpt lat="40.7587449" lon="-3.8270912"><ele>980.3333333333333</ele><time>2026-04-05T13:47:27.153Z</time></trkpt><trkpt lat="40.7587155" lon="-3.8271775"><ele>979.5</ele><time>2026-04-05T13:47:29.153Z</time></trkpt><trkpt lat="40.7586377" lon="-3.8272497"><ele>978.6666666666667</ele><time>2026-04-05T13:47:32.153Z</time></trkpt><trkpt lat="40.7585726" lon="-3.8272666"><ele>977.8333333333334</ele><time>2026-04-05T13:47:34.153Z</time></trkpt><trkpt lat="40.7584682" lon="-3.8272823"><ele>977.0</ele><time>2026-04-05T13:47:36.153Z</time></trkpt><trkpt lat="40.7583978" lon="-3.8272892"><ele>976.857142857143</ele><time>2026-04-05T13:47:38.154Z</time></trkpt><trkpt lat="40.7583365" lon="-3.8273183"><ele>976.7142857142858</ele><time>2026-04-05T13:47:41.153Z</time></trkpt><trkpt lat="40.758273" lon="-3.8273372"><ele>976.5714285714286</ele><time>2026-04-05T13:47:45.153Z</time></trkpt><trkpt lat="40.7582058" lon="-3.8273924"><ele>976.4285714285714</ele><time>2026-04-05T13:47:49.153Z</time></trkpt><trkpt lat="40.7581451" lon="-3.8274594"><ele>976.2857142857142</ele><time>2026-04-05T13:47:53.153Z</time></trkpt><trkpt lat="40.7580827" lon="-3.8275187"><ele>976.142857142857</ele><time>2026-04-05T13:47:56.153Z</time></trkpt><trkpt lat="40.7580377" lon="-3.8275846"><ele>975.9999999999999</ele><time>2026-04-05T13:47:58.153Z</time></trkpt><trkpt lat="40.7579869" lon="-3.8276578"><ele>976.0</ele><time>2026-04-05T13:48:01.153Z</time></trkpt><trkpt lat="40.7579356" lon="-3.8277436"><ele>975.9999999999999</ele><time>2026-04-05T13:48:05.153Z</time></trkpt><trkpt lat="40.7579081" lon="-3.8278314"><ele>975.9999999999999</ele><time>2026-04-05T13:48:08.153Z</time></trkpt><trkpt lat="40.7578941" lon="-3.8279717"><ele>976.0</ele><time>2026-04-05T13:48:11.153Z</time></trkpt><trkpt lat="40.7578639" lon="-3.8281002"><ele>976.0</ele><time>2026-04-05T13:48:13.154Z</time></trkpt><trkpt lat="40.7578064" lon="-3.8281883"><ele>975.9999999999999</ele><time>2026-04-05T13:48:15.153Z</time></trkpt><trkpt lat="40.7577299" lon="-3.8282189"><ele>976.0</ele><time>2026-04-05T13:48:17.153Z</time></trkpt><trkpt lat="40.7576612" lon="-3.828222"><ele>976.0</ele><time>2026-04-05T13:48:20.153Z</time></trkpt><trkpt lat="40.7575884" lon="-3.828243"><ele>976.0</ele><time>2026-04-05T13:48:23.154Z</time></trkpt><trkpt lat="40.7575067" lon="-3.8282855"><ele>975.9999999999999</ele><time>2026-04-05T13:48:26.154Z</time></trkpt><trkpt lat="40.7574462" lon="-3.8283396"><ele>976.0</ele><time>2026-04-05T13:48:29.153Z</time></trkpt><trkpt lat="40.7573607" lon="-3.828383"><ele>975.4999999999999</ele><time>2026-04-05T13:48:32.154Z</time></trkpt><trkpt lat="40.7572798" lon="-3.8283961"><ele>975.0</ele><time>2026-04-05T13:48:34.154Z</time></trkpt><trkpt lat="40.7571827" lon="-3.8284203"><ele>974.5</ele><time>2026-04-05T13:48:36.153Z</time></trkpt><trkpt lat="40.7571087" lon="-3.8284507"><ele>974.0</ele><time>2026-04-05T13:48:38.154Z</time></trkpt><trkpt lat="40.7570255" lon="-3.8284916"><ele>973.4999999999999</ele><time>2026-04-05T13:48:40.154Z</time></trkpt><trkpt lat="40.756953" lon="-3.8285472"><ele>973.0</ele><time>2026-04-05T13:48:42.153Z</time></trkpt><trkpt lat="40.7568634" lon="-3.828597"><ele>974.2</ele><time>2026-04-05T13:48:44.154Z</time></trkpt><trkpt lat="40.7567759" lon="-3.8286239"><ele>975.4</ele><time>2026-04-05T13:48:46.153Z</time></trkpt><trkpt lat="40.7566747" lon="-3.8286519"><ele>976.6000000000001</ele><time>2026-04-05T13:48:48.153Z</time></trkpt><trkpt lat="40.7565686" lon="-3.828723"><ele>977.8000000000001</ele><time>2026-04-05T13:48:50.153Z</time></trkpt><trkpt lat="40.7564793" lon="-3.8288392"><ele>979.0</ele><time>2026-04-05T13:48:52.153Z</time></trkpt><trkpt lat="40.7564205" lon="-3.8289475"><ele>978.9999999999999</ele><time>2026-04-05T13:48:54.153Z</time></trkpt><trkpt lat="40.7563547" lon="-3.8290276"><ele>979.0</ele><time>2026-04-05T13:48:56.153Z</time></trkpt><trkpt lat="40.7562999" lon="-3.8291008"><ele>979.0</ele><time>2026-04-05T13:48:58.153Z</time></trkpt><trkpt lat="40.756233" lon="-3.8291592"><ele>979.0</ele><time>2026-04-05T13:49:00.153Z</time></trkpt><trkpt lat="40.7561563" lon="-3.8291867"><ele>978.9999999999999</ele><time>2026-04-05T13:49:02.153Z</time></trkpt><trkpt lat="40.7560783" lon="-3.8291912"><ele>979.0</ele><time>2026-04-05T13:49:04.153Z</time></trkpt><trkpt lat="40.7559923" lon="-3.8291891"><ele>977.3333333333333</ele><time>2026-04-05T13:49:07.153Z</time></trkpt><trkpt lat="40.7559219" lon="-3.8291679"><ele>975.6666666666666</ele><time>2026-04-05T13:49:09.153Z</time></trkpt><trkpt lat="40.75585" lon="-3.8292076"><ele>974.0</ele><time>2026-04-05T13:49:12.153Z</time></trkpt><trkpt lat="40.7557851" lon="-3.8292453"><ele>972.3333333333333</ele><time>2026-04-05T13:49:15.153Z</time></trkpt><trkpt lat="40.7556945" lon="-3.8292539"><ele>970.6666666666666</ele><time>2026-04-05T13:49:18.153Z</time></trkpt><trkpt lat="40.7556305" lon="-3.8292476"><ele>969.0</ele><time>2026-04-05T13:49:20.153Z</time></trkpt><trkpt lat="40.7555264" lon="-3.8292867"><ele>970.2</ele><time>2026-04-05T13:49:23.153Z</time></trkpt><trkpt lat="40.7554458" lon="-3.8293727"><ele>971.4000000000001</ele><time>2026-04-05T13:49:25.153Z</time></trkpt><trkpt lat="40.7554037" lon="-3.8295047"><ele>972.6</ele><time>2026-04-05T13:49:27.154Z</time></trkpt><trkpt lat="40.7553718" lon="-3.8296277"><ele>973.8</ele><time>2026-04-05T13:49:29.154Z</time></trkpt><trkpt lat="40.7553651" lon="-3.8297654"><ele>975.0</ele><time>2026-04-05T13:49:31.153Z</time></trkpt><trkpt lat="40.7553521" lon="-3.8298892"><ele>975.0</ele><time>2026-04-05T13:49:33.153Z</time></trkpt><trkpt lat="40.755351" lon="-3.8300015"><ele>975.0</ele><time>2026-04-05T13:49:35.153Z</time></trkpt><trkpt lat="40.755345" lon="-3.8301104"><ele>975.0</ele><time>2026-04-05T13:49:37.153Z</time></trkpt><trkpt lat="40.7553521" lon="-3.8302212"><ele>975.0</ele><time>2026-04-05T13:49:39.153Z</time></trkpt><trkpt lat="40.7553308" lon="-3.8303372"><ele>975.0</ele><time>2026-04-05T13:49:41.153Z</time></trkpt><trkpt lat="40.7553277" lon="-3.8304513"><ele>975.0</ele><time>2026-04-05T13:49:43.154Z</time></trkpt><trkpt lat="40.7553187" lon="-3.8305488"><ele>975.6</ele><time>2026-04-05T13:49:45.153Z</time></trkpt><trkpt lat="40.7552723" lon="-3.830652"><ele>976.2</ele><time>2026-04-05T13:49:47.153Z</time></trkpt><trkpt lat="40.7551855" lon="-3.8307642"><ele>976.8</ele><time>2026-04-05T13:49:49.153Z</time></trkpt><trkpt lat="40.7551311" lon="-3.8308679"><ele>977.4</ele><time>2026-04-05T13:49:51.153Z</time></trkpt><trkpt lat="40.7551081" lon="-3.8309977"><ele>978.0</ele><time>2026-04-05T13:49:53.153Z</time></trkpt><trkpt lat="40.7550897" lon="-3.8311237"><ele>979.0</ele><time>2026-04-05T13:49:55.153Z</time></trkpt><trkpt lat="40.7550527" lon="-3.831227"><ele>980.0</ele><time>2026-04-05T13:49:57.154Z</time></trkpt><trkpt lat="40.755011" lon="-3.8313459"><ele>981.0</ele><time>2026-04-05T13:49:59.153Z</time></trkpt><trkpt lat="40.7549924" lon="-3.8314514"><ele>982.0</ele><time>2026-04-05T13:50:02.153Z</time></trkpt><trkpt lat="40.7549729" lon="-3.8315409"><ele>983.0</ele><time>2026-04-05T13:50:06.153Z</time></trkpt><trkpt lat="40.7549724" lon="-3.831629"><ele>984.0</ele><time>2026-04-05T13:50:10.154Z</time></trkpt><trkpt lat="40.7549739" lon="-3.8317202"><ele>983.1666666666666</ele><time>2026-04-05T13:50:14.153Z</time></trkpt><trkpt lat="40.7549902" lon="-3.8318204"><ele>982.3333333333333</ele><time>2026-04-05T13:50:18.154Z</time></trkpt><trkpt lat="40.7549983" lon="-3.8319243"><ele>981.5</ele><time>2026-04-05T13:50:21.153Z</time></trkpt><trkpt lat="40.7549962" lon="-3.8320141"><ele>980.6666666666666</ele><time>2026-04-05T13:50:23.154Z</time></trkpt><trkpt lat="40.7549872" lon="-3.8321102"><ele>979.8333333333333</ele><time>2026-04-05T13:50:25.153Z</time></trkpt><trkpt lat="40.7549752" lon="-3.8322207"><ele>979.0</ele><time>2026-04-05T13:50:27.153Z</time></trkpt><trkpt lat="40.754954" lon="-3.8323299"><ele>978.9999999999999</ele><time>2026-04-05T13:50:29.153Z</time></trkpt><trkpt lat="40.7549254" lon="-3.8324374"><ele>979.0</ele><time>2026-04-05T13:50:31.153Z</time></trkpt><trkpt lat="40.7548877" lon="-3.8325446"><ele>979.0</ele><time>2026-04-05T13:50:33.153Z</time></trkpt><trkpt lat="40.7548553" lon="-3.8326255"><ele>979.0</ele><time>2026-04-05T13:50:35.154Z</time></trkpt><trkpt lat="40.7548423" lon="-3.8327454"><ele>978.9999999999999</ele><time>2026-04-05T13:50:38.153Z</time></trkpt><trkpt lat="40.7548988" lon="-3.8328684"><ele>979.0</ele><time>2026-04-05T13:50:40.154Z</time></trkpt><trkpt lat="40.7549662" lon="-3.832995"><ele>977.6666666666666</ele><time>2026-04-05T13:50:42.153Z</time></trkpt><trkpt lat="40.7550007" lon="-3.8330934"><ele>976.3333333333333</ele><time>2026-04-05T13:50:44.153Z</time></trkpt><trkpt lat="40.7549988" lon="-3.8332165"><ele>975.0</ele><time>2026-04-05T13:50:46.153Z</time></trkpt><trkpt lat="40.7549849" lon="-3.8332999"><ele>973.6666666666667</ele><time>2026-04-05T13:50:47.153Z</time></trkpt><trkpt lat="40.7549708" lon="-3.8333854"><ele>972.3333333333334</ele><time>2026-04-05T13:50:48.154Z</time></trkpt><trkpt lat="40.7549524" lon="-3.8334658"><ele>971.0</ele><time>2026-04-05T13:50:49.153Z</time></trkpt><trkpt lat="40.754931" lon="-3.8335927"><ele>971.0000000000001</ele><time>2026-04-05T13:50:51.153Z</time></trkpt><trkpt lat="40.7549279" lon="-3.8337417"><ele>971.0</ele><time>2026-04-05T13:50:53.154Z</time></trkpt><trkpt lat="40.7549509" lon="-3.8338637"><ele>971.0</ele><time>2026-04-05T13:50:55.153Z</time></trkpt><trkpt lat="40.7549518" lon="-3.8339588"><ele>971.0</ele><time>2026-04-05T13:50:57.153Z</time></trkpt><trkpt lat="40.7549332" lon="-3.8340585"><ele>971.0000000000001</ele><time>2026-04-05T13:51:00.154Z</time></trkpt><trkpt lat="40.7549158" lon="-3.8341402"><ele>971.0</ele><time>2026-04-05T13:51:02.153Z</time></trkpt><trkpt lat="40.7549148" lon="-3.8342314"><ele>970.4285714285714</ele><time>2026-04-05T13:51:04.153Z</time></trkpt><trkpt lat="40.754896" lon="-3.8343116"><ele>969.8571428571429</ele><time>2026-04-05T13:51:06.153Z</time></trkpt><trkpt lat="40.7548721" lon="-3.834389"><ele>969.2857142857143</ele><time>2026-04-05T13:51:08.153Z</time></trkpt><trkpt lat="40.7548557" lon="-3.8344953"><ele>968.7142857142858</ele><time>2026-04-05T13:51:11.154Z</time></trkpt><trkpt lat="40.7548712" lon="-3.8346039"><ele>968.1428571428571</ele><time>2026-04-05T13:51:14.153Z</time></trkpt><trkpt lat="40.7548452" lon="-3.8347013"><ele>967.5714285714287</ele><time>2026-04-05T13:51:17.153Z</time></trkpt><trkpt lat="40.7548257" lon="-3.8347912"><ele>967.0</ele><time>2026-04-05T13:51:20.153Z</time></trkpt><trkpt lat="40.7548271" lon="-3.8349018"><ele>966.9999999999999</ele><time>2026-04-05T13:51:23.153Z</time></trkpt><trkpt lat="40.7548152" lon="-3.8349856"><ele>967.0</ele><time>2026-04-05T13:51:25.153Z</time></trkpt><trkpt lat="40.7548031" lon="-3.8350757"><ele>967.0</ele><time>2026-04-05T13:51:27.153Z</time></trkpt><trkpt lat="40.7547817" lon="-3.8351792"><ele>967.0</ele><time>2026-04-05T13:51:29.153Z</time></trkpt><trkpt lat="40.7547463" lon="-3.8352687"><ele>966.9999999999999</ele><time>2026-04-05T13:51:32.153Z</time></trkpt><trkpt lat="40.7547162" lon="-3.8353666"><ele>967.0</ele><time>2026-04-05T13:51:36.153Z</time></trkpt><trkpt lat="40.7547007" lon="-3.8354847"><ele>973.0</ele><time>2026-04-05T13:51:39.154Z</time></trkpt><trkpt lat="40.7547071" lon="-3.8355874"><ele>973.0</ele><time>2026-04-05T13:51:41.154Z</time></trkpt><trkpt lat="40.7546912" lon="-3.8356921"><ele>973.0</ele><time>2026-04-05T13:51:43.153Z</time></trkpt><trkpt lat="40.7546962" lon="-3.8357815"><ele>973.0</ele><time>2026-04-05T13:51:46.153Z</time></trkpt><trkpt lat="40.7546685" lon="-3.8358694"><ele>973.0</ele><time>2026-04-05T13:52:48.153Z</time></trkpt></trkseg><trkseg><trkpt lat="40.7144434" lon="-3.8934389"><ele>904.6666666666667</ele><time>2026-04-05T14:35:28.15Z</time></trkpt><trkpt lat="40.7145028" lon="-3.8933636"><ele>904.3333333333334</ele><time>2026-04-05T14:35:30.15Z</time></trkpt><trkpt lat="40.7145637" lon="-3.8933105"><ele>904.0</ele><time>2026-04-05T14:35:32.15Z</time></trkpt><trkpt lat="40.7146293" lon="-3.8932769"><ele>903.6666666666667</ele><time>2026-04-05T14:35:34.15Z</time></trkpt><trkpt lat="40.714718" lon="-3.8932721"><ele>903.3333333333334</ele><time>2026-04-05T14:35:36.151Z</time></trkpt><trkpt lat="40.7148222" lon="-3.8932566"><ele>903.0</ele><time>2026-04-05T14:35:38.15Z</time></trkpt><trkpt lat="40.7149382" lon="-3.8933033"><ele>903.0</ele><time>2026-04-05T14:35:40.15Z</time></trkpt><trkpt lat="40.7149918" lon="-3.8933508"><ele>903.0</ele><time>2026-04-05T14:35:41.15Z</time></trkpt><trkpt lat="40.7150428" lon="-3.8934017"><ele>903.0</ele><time>2026-04-05T14:35:42.15Z</time></trkpt><trkpt lat="40.7150916" lon="-3.893469"><ele>903.0</ele><time>2026-04-05T14:35:43.15Z</time></trkpt><trkpt lat="40.7151381" lon="-3.8935361"><ele>903.0</ele><time>2026-04-05T14:35:44.15Z</time></trkpt><trkpt lat="40.7151727" lon="-3.8936151"><ele>903.0</ele><time>2026-04-05T14:35:45.151Z</time></trkpt><trkpt lat="40.715218" lon="-3.8937579"><ele>903.6666666666666</ele><time>2026-04-05T14:35:47.15Z</time></trkpt><trkpt lat="40.7152514" lon="-3.8938435"><ele>904.3333333333333</ele><time>2026-04-05T14:35:49.15Z</time></trkpt><trkpt lat="40.7153242" lon="-3.8938898"><ele>905.0</ele><time>2026-04-05T14:35:52.15Z</time></trkpt><trkpt lat="40.7154029" lon="-3.8939051"><ele>905.6666666666666</ele><time>2026-04-05T14:36:01.151Z</time></trkpt><trkpt lat="40.7155141" lon="-3.893966"><ele>906.3333333333333</ele><time>2026-04-05T14:36:03.151Z</time></trkpt><trkpt lat="40.7155804" lon="-3.8940249"><ele>907.0</ele><time>2026-04-05T14:36:04.15Z</time></trkpt><trkpt lat="40.7156534" lon="-3.8940993"><ele>907.0</ele><time>2026-04-05T14:36:05.15Z</time></trkpt><trkpt lat="40.7157291" lon="-3.8941802"><ele>907.0</ele><time>2026-04-05T14:36:06.15Z</time></trkpt><trkpt lat="40.7158009" lon="-3.8942602"><ele>907.0</ele><time>2026-04-05T14:36:07.15Z</time></trkpt><trkpt lat="40.7158776" lon="-3.8943431"><ele>907.0</ele><time>2026-04-05T14:36:08.15Z</time></trkpt><trkpt lat="40.7159525" lon="-3.8944379"><ele>907.0</ele><time>2026-04-05T14:36:09.15Z</time></trkpt><trkpt lat="40.7160236" lon="-3.8945359"><ele>908.8</ele><time>2026-04-05T14:36:10.15Z</time></trkpt><trkpt lat="40.716099" lon="-3.8946331"><ele>910.6</ele><time>2026-04-05T14:36:11.15Z</time></trkpt><trkpt lat="40.7161861" lon="-3.8947252"><ele>912.3999999999999</ele><time>2026-04-05T14:36:12.15Z</time></trkpt><trkpt lat="40.7162824" lon="-3.8948051"><ele>914.1999999999999</ele><time>2026-04-05T14:36:13.151Z</time></trkpt><trkpt lat="40.7163773" lon="-3.8948912"><ele>916.0</ele><time>2026-04-05T14:36:14.15Z</time></trkpt><trkpt lat="40.7164599" lon="-3.8949935"><ele>915.75</ele><time>2026-04-05T14:36:15.15Z</time></trkpt><trkpt lat="40.716539" lon="-3.8951045"><ele>915.5</ele><time>2026-04-05T14:36:16.15Z</time></trkpt><trkpt lat="40.7166292" lon="-3.8952132"><ele>915.25</ele><time>2026-04-05T14:36:17.15Z</time></trkpt><trkpt lat="40.7167238" lon="-3.8953171"><ele>915.0</ele><time>2026-04-05T14:36:18.15Z</time></trkpt><trkpt lat="40.716826" lon="-3.8954045"><ele>915.4</ele><time>2026-04-05T14:36:19.151Z</time></trkpt><trkpt lat="40.7169204" lon="-3.8954847"><ele>915.8</ele><time>2026-04-05T14:36:20.15Z</time></trkpt><trkpt lat="40.7170087" lon="-3.8955734"><ele>916.2</ele><time>2026-04-05T14:36:21.15Z</time></trkpt><trkpt lat="40.7170956" lon="-3.8956473"><ele>916.6</ele><time>2026-04-05T14:36:22.15Z</time></trkpt><trkpt lat="40.717185" lon="-3.8956897"><ele>917.0</ele><time>2026-04-05T14:36:23.151Z</time></trkpt><trkpt lat="40.7172861" lon="-3.8957124"><ele>917.0</ele><time>2026-04-05T14:36:24.151Z</time></trkpt><trkpt lat="40.7173909" lon="-3.8957317"><ele>917.0</ele><time>2026-04-05T14:36:25.15Z</time></trkpt><trkpt lat="40.7174962" lon="-3.8957667"><ele>917.0</ele><time>2026-04-05T14:36:26.15Z</time></trkpt><trkpt lat="40.717599" lon="-3.895826"><ele>917.0</ele><time>2026-04-05T14:36:27.15Z</time></trkpt><trkpt lat="40.7176945" lon="-3.8959012"><ele>917.0</ele><time>2026-04-05T14:36:28.15Z</time></trkpt><trkpt lat="40.7177756" lon="-3.896003"><ele>918.0</ele><time>2026-04-05T14:36:29.15Z</time></trkpt><trkpt lat="40.717838" lon="-3.8961218"><ele>919.0</ele><time>2026-04-05T14:36:30.15Z</time></trkpt><trkpt lat="40.7178932" lon="-3.8962429"><ele>920.0</ele><time>2026-04-05T14:36:31.15Z</time></trkpt><trkpt lat="40.7179387" lon="-3.8963816"><ele>921.0</ele><time>2026-04-05T14:36:32.15Z</time></trkpt><trkpt lat="40.7179782" lon="-3.896511"><ele>922.0</ele><time>2026-04-05T14:36:33.15Z</time></trkpt><trkpt lat="40.7180237" lon="-3.8966361"><ele>922.0</ele><time>2026-04-05T14:36:34.15Z</time></trkpt><trkpt lat="40.7180861" lon="-3.8967516"><ele>922.0</ele><time>2026-04-05T14:36:35.15Z</time></trkpt><trkpt lat="40.7181492" lon="-3.8968564"><ele>922.0</ele><time>2026-04-05T14:36:36.15Z</time></trkpt><trkpt lat="40.7181961" lon="-3.8969718"><ele>922.0</ele><time>2026-04-05T14:36:37.151Z</time></trkpt><trkpt lat="40.7182308" lon="-3.8970929"><ele>922.0</ele><time>2026-04-05T14:36:38.15Z</time></trkpt><trkpt lat="40.7182536" lon="-3.8972198"><ele>921.9999999999999</ele><time>2026-04-05T14:36:39.15Z</time></trkpt><trkpt lat="40.7182672" lon="-3.8973242"><ele>922.0</ele><time>2026-04-05T14:36:40.15Z</time></trkpt><trkpt lat="40.7182922" lon="-3.8974206"><ele>922.0</ele><time>2026-04-05T14:36:41.15Z</time></trkpt><trkpt lat="40.7183344" lon="-3.8975019"><ele>922.0</ele><time>2026-04-05T14:36:42.15Z</time></trkpt><trkpt lat="40.7183956" lon="-3.8975569"><ele>921.9999999999999</ele><time>2026-04-05T14:36:43.151Z</time></trkpt><trkpt lat="40.7184784" lon="-3.8975866"><ele>922.0</ele><time>2026-04-05T14:36:44.15Z</time></trkpt><trkpt lat="40.7185729" lon="-3.8975978"><ele>922.2857142857143</ele><time>2026-04-05T14:36:45.15Z</time></trkpt><trkpt lat="40.7186571" lon="-3.8976"><ele>922.5714285714287</ele><time>2026-04-05T14:36:46.151Z</time></trkpt><trkpt lat="40.7187149" lon="-3.8975561"><ele>922.8571428571429</ele><time>2026-04-05T14:36:47.15Z</time></trkpt><trkpt lat="40.7187806" lon="-3.8975227"><ele>923.1428571428571</ele><time>2026-04-05T14:36:48.151Z</time></trkpt><trkpt lat="40.7188498" lon="-3.8975108"><ele>923.4285714285714</ele><time>2026-04-05T14:36:49.15Z</time></trkpt><trkpt lat="40.7189173" lon="-3.8975105"><ele>923.7142857142858</ele><time>2026-04-05T14:36:50.15Z</time></trkpt><trkpt lat="40.7189988" lon="-3.8974996"><ele>924.0</ele><time>2026-04-05T14:36:51.15Z</time></trkpt><trkpt lat="40.7190745" lon="-3.8975129"><ele>924.0</ele><time>2026-04-05T14:36:52.15Z</time></trkpt><trkpt lat="40.7191523" lon="-3.8975377"><ele>924.0</ele><time>2026-04-05T14:36:53.15Z</time></trkpt><trkpt lat="40.719233" lon="-3.8975446"><ele>924.0</ele><time>2026-04-05T14:36:54.15Z</time></trkpt><trkpt lat="40.7193272" lon="-3.8975499"><ele>924.0</ele><time>2026-04-05T14:36:55.15Z</time></trkpt><trkpt lat="40.7194225" lon="-3.8975611"><ele>924.0</ele><time>2026-04-05T14:36:56.151Z</time></trkpt><trkpt lat="40.7195079" lon="-3.8975777"><ele>924.0</ele><time>2026-04-05T14:36:57.15Z</time></trkpt><trkpt lat="40.7195966" lon="-3.897599"><ele>924.4000000000001</ele><time>2026-04-05T14:36:58.15Z</time></trkpt><trkpt lat="40.7196815" lon="-3.8976242"><ele>924.8000000000001</ele><time>2026-04-05T14:36:59.151Z</time></trkpt><trkpt lat="40.7197697" lon="-3.8976467"><ele>925.1999999999999</ele><time>2026-04-05T14:37:00.15Z</time></trkpt><trkpt lat="40.7198614" lon="-3.8976757"><ele>925.5999999999999</ele><time>2026-04-05T14:37:01.151Z</time></trkpt><trkpt lat="40.7199536" lon="-3.8977187"><ele>926.0</ele><time>2026-04-05T14:37:02.15Z</time></trkpt><trkpt lat="40.7200449" lon="-3.8977571"><ele>926.0000000000001</ele><time>2026-04-05T14:37:03.15Z</time></trkpt><trkpt lat="40.7201315" lon="-3.8977825"><ele>926.0</ele><time>2026-04-05T14:37:04.15Z</time></trkpt><trkpt lat="40.7202183" lon="-3.8977899"><ele>926.0</ele><time>2026-04-05T14:37:05.151Z</time></trkpt><trkpt lat="40.7202962" lon="-3.8977801"><ele>926.0</ele><time>2026-04-05T14:37:06.15Z</time></trkpt><trkpt lat="40.7203789" lon="-3.8977603"><ele>926.0000000000001</ele><time>2026-04-05T14:37:07.15Z</time></trkpt><trkpt lat="40.7204746" lon="-3.8977726"><ele>926.0</ele><time>2026-04-05T14:37:08.15Z</time></trkpt><trkpt lat="40.7205716" lon="-3.8978118"><ele>926.8</ele><time>2026-04-05T14:37:09.15Z</time></trkpt><trkpt lat="40.7206674" lon="-3.8978575"><ele>927.5999999999999</ele><time>2026-04-05T14:37:10.15Z</time></trkpt><trkpt lat="40.7207604" lon="-3.897908"><ele>928.4</ele><time>2026-04-05T14:37:11.15Z</time></trkpt><trkpt lat="40.720857" lon="-3.8979539"><ele>929.2</ele><time>2026-04-05T14:37:12.15Z</time></trkpt><trkpt lat="40.7209568" lon="-3.8979902"><ele>930.0</ele><time>2026-04-05T14:37:13.151Z</time></trkpt><trkpt lat="40.7210635" lon="-3.8980162"><ele>930.6</ele><time>2026-04-05T14:37:14.15Z</time></trkpt><trkpt lat="40.721166" lon="-3.8980394"><ele>931.2</ele><time>2026-04-05T14:37:15.151Z</time></trkpt><trkpt lat="40.7212699" lon="-3.8980578"><ele>931.8</ele><time>2026-04-05T14:37:16.151Z</time></trkpt><trkpt lat="40.7213708" lon="-3.8980848"><ele>932.4</ele><time>2026-04-05T14:37:17.15Z</time></trkpt><trkpt lat="40.7214796" lon="-3.8981085"><ele>933.0</ele><time>2026-04-05T14:37:18.15Z</time></trkpt><trkpt lat="40.7215891" lon="-3.8981368"><ele>933.0</ele><time>2026-04-05T14:37:19.15Z</time></trkpt><trkpt lat="40.7217047" lon="-3.8981607"><ele>933.0</ele><time>2026-04-05T14:37:20.15Z</time></trkpt><trkpt lat="40.7218201" lon="-3.8981706"><ele>933.0</ele><time>2026-04-05T14:37:21.151Z</time></trkpt><trkpt lat="40.721935" lon="-3.8981764"><ele>933.0</ele><time>2026-04-05T14:37:22.15Z</time></trkpt><trkpt lat="40.7220451" lon="-3.8981741"><ele>934.0</ele><time>2026-04-05T14:37:23.15Z</time></trkpt><trkpt lat="40.7221435" lon="-3.8981797"><ele>935.0</ele><time>2026-04-05T14:37:24.15Z</time></trkpt><trkpt lat="40.7222272" lon="-3.8981962"><ele>936.0</ele><time>2026-04-05T14:37:25.15Z</time></trkpt><trkpt lat="40.7223019" lon="-3.8982342"><ele>937.0</ele><time>2026-04-05T14:37:26.15Z</time></trkpt><trkpt lat="40.7223764" lon="-3.8982772"><ele>938.0</ele><time>2026-04-05T14:37:27.15Z</time></trkpt><trkpt lat="40.7224438" lon="-3.8983187"><ele>939.0</ele><time>2026-04-05T14:37:28.15Z</time></trkpt><trkpt lat="40.7225458" lon="-3.8983957"><ele>939.0</ele><time>2026-04-05T14:37:30.15Z</time></trkpt><trkpt lat="40.7226345" lon="-3.8984841"><ele>939.0</ele><time>2026-04-05T14:37:32.15Z</time></trkpt><trkpt lat="40.7226953" lon="-3.8985222"><ele>939.0</ele><time>2026-04-05T14:37:33.15Z</time></trkpt><trkpt lat="40.7227724" lon="-3.8985413"><ele>939.0</ele><time>2026-04-05T14:37:34.15Z</time></trkpt><trkpt lat="40.7228489" lon="-3.8985517"><ele>939.0</ele><time>2026-04-05T14:37:35.15Z</time></trkpt><trkpt lat="40.7229253" lon="-3.8985557"><ele>939.0</ele><time>2026-04-05T14:37:36.151Z</time></trkpt><trkpt lat="40.7229981" lon="-3.8985715"><ele>939.0</ele><time>2026-04-05T14:37:37.15Z</time></trkpt><trkpt lat="40.7230714" lon="-3.8985934"><ele>939.0000000000001</ele><time>2026-04-05T14:37:38.15Z</time></trkpt><trkpt lat="40.7231434" lon="-3.898617"><ele>939.0000000000001</ele><time>2026-04-05T14:37:39.15Z</time></trkpt><trkpt lat="40.7232558" lon="-3.8986692"><ele>939.0</ele><time>2026-04-05T14:37:41.151Z</time></trkpt><trkpt lat="40.7233556" lon="-3.8986507"><ele>939.0</ele><time>2026-04-05T14:37:43.15Z</time></trkpt><trkpt lat="40.7234271" lon="-3.8985582"><ele>939.0</ele><time>2026-04-05T14:37:45.15Z</time></trkpt><trkpt lat="40.7234631" lon="-3.8984207"><ele>939.0000000000001</ele><time>2026-04-05T14:37:47.15Z</time></trkpt><trkpt lat="40.7235062" lon="-3.8982725"><ele>939.0000000000001</ele><time>2026-04-05T14:37:49.15Z</time></trkpt><trkpt lat="40.7235353" lon="-3.8981292"><ele>939.0</ele><time>2026-04-05T14:37:51.15Z</time></trkpt><trkpt lat="40.7235481" lon="-3.8980437"><ele>939.0</ele><time>2026-04-05T14:37:53.15Z</time></trkpt><trkpt lat="40.7235783" lon="-3.8979704"><ele>940.6</ele><time>2026-04-05T14:37:56.15Z</time></trkpt><trkpt lat="40.7237119" lon="-3.8979506"><ele>942.2</ele><time>2026-04-05T14:38:09.15Z</time></trkpt><trkpt lat="40.7238108" lon="-3.8979697"><ele>943.8000000000001</ele><time>2026-04-05T14:38:11.151Z</time></trkpt><trkpt lat="40.723924" lon="-3.8980015"><ele>945.4000000000001</ele><time>2026-04-05T14:38:13.151Z</time></trkpt><trkpt lat="40.7239872" lon="-3.898015"><ele>947.0</ele><time>2026-04-05T14:38:14.15Z</time></trkpt><trkpt lat="40.7240547" lon="-3.8980287"><ele>947.0</ele><time>2026-04-05T14:38:15.15Z</time></trkpt><trkpt lat="40.7241262" lon="-3.8980553"><ele>946.9999999999999</ele><time>2026-04-05T14:38:16.15Z</time></trkpt><trkpt lat="40.7241928" lon="-3.8980839"><ele>947.0</ele><time>2026-04-05T14:38:17.15Z</time></trkpt><trkpt lat="40.7242529" lon="-3.8981194"><ele>947.0</ele><time>2026-04-05T14:38:18.151Z</time></trkpt><trkpt lat="40.7243143" lon="-3.8981556"><ele>946.9999999999999</ele><time>2026-04-05T14:38:19.15Z</time></trkpt><trkpt lat="40.7243782" lon="-3.8981917"><ele>947.0</ele><time>2026-04-05T14:38:20.15Z</time></trkpt><trkpt lat="40.7244528" lon="-3.8982261"><ele>947.0</ele><time>2026-04-05T14:38:21.15Z</time></trkpt><trkpt lat="40.7245284" lon="-3.898252"><ele>948.0000000000001</ele><time>2026-04-05T14:38:22.15Z</time></trkpt><trkpt lat="40.724598" lon="-3.898258"><ele>949.0</ele><time>2026-04-05T14:38:23.15Z</time></trkpt><trkpt lat="40.7246994" lon="-3.8982354"><ele>950.0</ele><time>2026-04-05T14:38:25.15Z</time></trkpt><trkpt lat="40.7248201" lon="-3.8982602"><ele>951.0</ele><time>2026-04-05T14:38:27.15Z</time></trkpt><trkpt lat="40.7248853" lon="-3.8982713"><ele>952.0000000000001</ele><time>2026-04-05T14:38:28.151Z</time></trkpt><trkpt lat="40.7249635" lon="-3.8982736"><ele>953.0</ele><time>2026-04-05T14:38:29.15Z</time></trkpt><trkpt lat="40.725056" lon="-3.8982891"><ele>953.0000000000001</ele><time>2026-04-05T14:38:30.15Z</time></trkpt><trkpt lat="40.7251457" lon="-3.8983068"><ele>953.0</ele><time>2026-04-05T14:38:31.15Z</time></trkpt><trkpt lat="40.7252255" lon="-3.8983337"><ele>953.0</ele><time>2026-04-05T14:38:32.151Z</time></trkpt><trkpt lat="40.7252972" lon="-3.8983588"><ele>953.0</ele><time>2026-04-05T14:38:33.151Z</time></trkpt><trkpt lat="40.7253641" lon="-3.8983753"><ele>953.0000000000001</ele><time>2026-04-05T14:38:34.15Z</time></trkpt><trkpt lat="40.7254379" lon="-3.8983823"><ele>953.0</ele><time>2026-04-05T14:38:35.15Z</time></trkpt><trkpt lat="40.7255215" lon="-3.8983719"><ele>954.1666666666667</ele><time>2026-04-05T14:38:36.15Z</time></trkpt><trkpt lat="40.7256031" lon="-3.8983582"><ele>955.3333333333334</ele><time>2026-04-05T14:38:37.15Z</time></trkpt><trkpt lat="40.7256858" lon="-3.8983469"><ele>956.5</ele><time>2026-04-05T14:38:38.15Z</time></trkpt><trkpt lat="40.7257701" lon="-3.8983493"><ele>957.6666666666667</ele><time>2026-04-05T14:38:39.151Z</time></trkpt><trkpt lat="40.7258552" lon="-3.8983611"><ele>958.8333333333334</ele><time>2026-04-05T14:38:40.15Z</time></trkpt><trkpt lat="40.7259364" lon="-3.8983813"><ele>960.0</ele><time>2026-04-05T14:38:41.151Z</time></trkpt><trkpt lat="40.7260057" lon="-3.8983922"><ele>959.8333333333334</ele><time>2026-04-05T14:38:42.15Z</time></trkpt><trkpt lat="40.7260798" lon="-3.8984015"><ele>959.6666666666667</ele><time>2026-04-05T14:38:43.151Z</time></trkpt><trkpt lat="40.7261576" lon="-3.8984147"><ele>959.5</ele><time>2026-04-05T14:38:44.15Z</time></trkpt><trkpt lat="40.7262362" lon="-3.8984418"><ele>959.3333333333334</ele><time>2026-04-05T14:38:45.15Z</time></trkpt><trkpt lat="40.7263119" lon="-3.8984834"><ele>959.1666666666667</ele><time>2026-04-05T14:38:46.15Z</time></trkpt><trkpt lat="40.7263914" lon="-3.8985237"><ele>959.0</ele><time>2026-04-05T14:38:47.15Z</time></trkpt><trkpt lat="40.7264663" lon="-3.8985719"><ele>959.0</ele><time>2026-04-05T14:38:48.15Z</time></trkpt><trkpt lat="40.7265418" lon="-3.8986281"><ele>959.0000000000001</ele><time>2026-04-05T14:38:49.15Z</time></trkpt><trkpt lat="40.7266275" lon="-3.8986588"><ele>959.0000000000001</ele><time>2026-04-05T14:38:50.15Z</time></trkpt><trkpt lat="40.7267206" lon="-3.8986855"><ele>959.0</ele><time>2026-04-05T14:38:51.15Z</time></trkpt><trkpt lat="40.7268121" lon="-3.8987106"><ele>959.0</ele><time>2026-04-05T14:38:52.15Z</time></trkpt><trkpt lat="40.7268979" lon="-3.8987633"><ele>960.0000000000001</ele><time>2026-04-05T14:38:53.15Z</time></trkpt><trkpt lat="40.7269724" lon="-3.8988133"><ele>961.0</ele><time>2026-04-05T14:38:54.151Z</time></trkpt><trkpt lat="40.7270497" lon="-3.8988672"><ele>962.0</ele><time>2026-04-05T14:38:55.15Z</time></trkpt><trkpt lat="40.7271243" lon="-3.8989176"><ele>963.0</ele><time>2026-04-05T14:38:56.15Z</time></trkpt><trkpt lat="40.7272033" lon="-3.8989699"><ele>964.0000000000001</ele><time>2026-04-05T14:38:57.151Z</time></trkpt><trkpt lat="40.727283" lon="-3.8990076"><ele>965.0</ele><time>2026-04-05T14:38:58.15Z</time></trkpt><trkpt lat="40.7273533" lon="-3.8990451"><ele>965.0000000000001</ele><time>2026-04-05T14:38:59.15Z</time></trkpt><trkpt lat="40.7274705" lon="-3.8990728"><ele>965.0</ele><time>2026-04-05T14:39:01.15Z</time></trkpt><trkpt lat="40.7275438" lon="-3.8990846"><ele>965.0</ele><time>2026-04-05T14:39:02.15Z</time></trkpt><trkpt lat="40.7276184" lon="-3.8991112"><ele>965.0</ele><time>2026-04-05T14:39:03.15Z</time></trkpt><trkpt lat="40.7276949" lon="-3.8991505"><ele>965.0000000000001</ele><time>2026-04-05T14:39:04.15Z</time></trkpt><trkpt lat="40.7277747" lon="-3.8991844"><ele>965.0</ele><time>2026-04-05T14:39:05.151Z</time></trkpt><trkpt lat="40.7278538" lon="-3.8992319"><ele>964.0</ele><time>2026-04-05T14:39:06.15Z</time></trkpt><trkpt lat="40.727931" lon="-3.8992767"><ele>963.0</ele><time>2026-04-05T14:39:07.15Z</time></trkpt><trkpt lat="40.7280158" lon="-3.8993144"><ele>962.0</ele><time>2026-04-05T14:39:08.15Z</time></trkpt><trkpt lat="40.7281085" lon="-3.8993511"><ele>961.0</ele><time>2026-04-05T14:39:09.15Z</time></trkpt><trkpt lat="40.7282011" lon="-3.8993786"><ele>960.0</ele><time>2026-04-05T14:39:10.15Z</time></trkpt><trkpt lat="40.728289" lon="-3.8994095"><ele>960.0</ele><time>2026-04-05T14:39:11.15Z</time></trkpt><trkpt lat="40.7283714" lon="-3.8994503"><ele>960.0</ele><time>2026-04-05T14:39:12.15Z</time></trkpt><trkpt lat="40.7284533" lon="-3.8994827"><ele>960.0</ele><time>2026-04-05T14:39:13.15Z</time></trkpt><trkpt lat="40.7285386" lon="-3.8995152"><ele>960.0</ele><time>2026-04-05T14:39:14.15Z</time></trkpt><trkpt lat="40.7286307" lon="-3.8995494"><ele>960.0</ele><time>2026-04-05T14:39:15.15Z</time></trkpt><trkpt lat="40.7287264" lon="-3.8995798"><ele>961.6</ele><time>2026-04-05T14:39:16.15Z</time></trkpt><trkpt lat="40.7288126" lon="-3.8996198"><ele>963.2</ele><time>2026-04-05T14:39:17.151Z</time></trkpt><trkpt lat="40.7288966" lon="-3.8996749"><ele>964.8</ele><time>2026-04-05T14:39:18.15Z</time></trkpt><trkpt lat="40.7289856" lon="-3.8997305"><ele>966.4</ele><time>2026-04-05T14:39:19.15Z</time></trkpt><trkpt lat="40.7290685" lon="-3.8997829"><ele>968.0</ele><time>2026-04-05T14:39:20.15Z</time></trkpt><trkpt lat="40.7291506" lon="-3.8998224"><ele>968.0000000000001</ele><time>2026-04-05T14:39:21.15Z</time></trkpt><trkpt lat="40.7292389" lon="-3.8998586"><ele>968.0</ele><time>2026-04-05T14:39:22.151Z</time></trkpt><trkpt lat="40.7293226" lon="-3.8998847"><ele>968.0</ele><time>2026-04-05T14:39:23.15Z</time></trkpt><trkpt lat="40.729404" lon="-3.8998987"><ele>968.0</ele><time>2026-04-05T14:39:24.15Z</time></trkpt><trkpt lat="40.7294851" lon="-3.8998949"><ele>968.0000000000001</ele><time>2026-04-05T14:39:25.15Z</time></trkpt><trkpt lat="40.7295641" lon="-3.8998703"><ele>968.0</ele><time>2026-04-05T14:39:26.15Z</time></trkpt><trkpt lat="40.7296415" lon="-3.8998336"><ele>968.5714285714286</ele><time>2026-04-05T14:39:27.15Z</time></trkpt><trkpt lat="40.7297074" lon="-3.8997979"><ele>969.1428571428571</ele><time>2026-04-05T14:39:28.15Z</time></trkpt><trkpt lat="40.7297739" lon="-3.8997624"><ele>969.7142857142857</ele><time>2026-04-05T14:39:29.15Z</time></trkpt><trkpt lat="40.7298427" lon="-3.8997385"><ele>970.2857142857142</ele><time>2026-04-05T14:39:30.15Z</time></trkpt><trkpt lat="40.7299173" lon="-3.8997085"><ele>970.8571428571429</ele><time>2026-04-05T14:39:31.15Z</time></trkpt><trkpt lat="40.729994" lon="-3.8996805"><ele>971.4285714285713</ele><time>2026-04-05T14:39:32.15Z</time></trkpt><trkpt lat="40.7300671" lon="-3.8996457"><ele>972.0</ele><time>2026-04-05T14:39:33.15Z</time></trkpt><trkpt lat="40.730133" lon="-3.8995913"><ele>972.0</ele><time>2026-04-05T14:39:34.15Z</time></trkpt><trkpt lat="40.7301942" lon="-3.8995513"><ele>972.0</ele><time>2026-04-05T14:39:35.15Z</time></trkpt><trkpt lat="40.7302971" lon="-3.8994897"><ele>972.0</ele><time>2026-04-05T14:39:37.15Z</time></trkpt><trkpt lat="40.7304165" lon="-3.8994381"><ele>972.0</ele><time>2026-04-05T14:39:39.15Z</time></trkpt><trkpt lat="40.730497" lon="-3.8994206"><ele>972.0</ele><time>2026-04-05T14:39:40.151Z</time></trkpt><trkpt lat="40.7305728" lon="-3.8994071"><ele>973.1666666666666</ele><time>2026-04-05T14:39:41.15Z</time></trkpt><trkpt lat="40.7306418" lon="-3.8993707"><ele>974.3333333333333</ele><time>2026-04-05T14:39:42.15Z</time></trkpt><trkpt lat="40.7307074" lon="-3.899323"><ele>975.5</ele><time>2026-04-05T14:39:43.15Z</time></trkpt><trkpt lat="40.7307782" lon="-3.8992843"><ele>976.6666666666666</ele><time>2026-04-05T14:39:44.149Z</time></trkpt><trkpt lat="40.7308531" lon="-3.8992612"><ele>977.8333333333333</ele><time>2026-04-05T14:39:45.149Z</time></trkpt><trkpt lat="40.7309339" lon="-3.89924"><ele>979.0</ele><time>2026-04-05T14:39:46.15Z</time></trkpt><trkpt lat="40.7310178" lon="-3.8992229"><ele>980.6666666666666</ele><time>2026-04-05T14:39:47.149Z</time></trkpt><trkpt lat="40.7310951" lon="-3.8991896"><ele>982.3333333333333</ele><time>2026-04-05T14:39:48.149Z</time></trkpt><trkpt lat="40.7311607" lon="-3.899136"><ele>984.0</ele><time>2026-04-05T14:39:49.149Z</time></trkpt><trkpt lat="40.7312326" lon="-3.8990777"><ele>985.6666666666667</ele><time>2026-04-05T14:39:50.149Z</time></trkpt><trkpt lat="40.7313022" lon="-3.8990307"><ele>987.3333333333334</ele><time>2026-04-05T14:39:51.149Z</time></trkpt><trkpt lat="40.7313593" lon="-3.8989729"><ele>989.0</ele><time>2026-04-05T14:39:52.149Z</time></trkpt><trkpt lat="40.7314097" lon="-3.8989067"><ele>989.0000000000001</ele><time>2026-04-05T14:39:53.149Z</time></trkpt><trkpt lat="40.7314521" lon="-3.8988332"><ele>989.0</ele><time>2026-04-05T14:39:54.15Z</time></trkpt><trkpt lat="40.7314848" lon="-3.8987582"><ele>989.0</ele><time>2026-04-05T14:39:55.149Z</time></trkpt><trkpt lat="40.7315304" lon="-3.8986172"><ele>989.0</ele><time>2026-04-05T14:39:57.149Z</time></trkpt><trkpt lat="40.7315494" lon="-3.8985351"><ele>989.0000000000001</ele><time>2026-04-05T14:39:58.149Z</time></trkpt><trkpt lat="40.7315513" lon="-3.8984486"><ele>989.0</ele><time>2026-04-05T14:39:59.15Z</time></trkpt><trkpt lat="40.7315449" lon="-3.8983602"><ele>990.5000000000001</ele><time>2026-04-05T14:40:00.149Z</time></trkpt><trkpt lat="40.7315247" lon="-3.8981948"><ele>992.0</ele><time>2026-04-05T14:40:02.15Z</time></trkpt><trkpt lat="40.7315014" lon="-3.8981091"><ele>993.5</ele><time>2026-04-05T14:40:03.149Z</time></trkpt><trkpt lat="40.7314769" lon="-3.898026"><ele>995.0</ele><time>2026-04-05T14:40:04.149Z</time></trkpt><trkpt lat="40.7314499" lon="-3.8979346"><ele>996.5000000000001</ele><time>2026-04-05T14:40:05.15Z</time></trkpt><trkpt lat="40.7314249" lon="-3.897842"><ele>998.0</ele><time>2026-04-05T14:40:06.149Z</time></trkpt><trkpt lat="40.7314038" lon="-3.8977154"><ele>998.0</ele><time>2026-04-05T14:40:08.149Z</time></trkpt><trkpt lat="40.7314302" lon="-3.89762"><ele>998.0</ele><time>2026-04-05T14:40:11.149Z</time></trkpt><trkpt lat="40.7314777" lon="-3.8974919"><ele>998.0</ele><time>2026-04-05T14:40:19.149Z</time></trkpt><trkpt lat="40.7315392" lon="-3.8973557"><ele>998.0</ele><time>2026-04-05T14:40:21.149Z</time></trkpt><trkpt lat="40.7315814" lon="-3.897199"><ele>998.0</ele><time>2026-04-05T14:40:23.149Z</time></trkpt><trkpt lat="40.7316029" lon="-3.8971109"><ele>999.75</ele><time>2026-04-05T14:40:24.149Z</time></trkpt><trkpt lat="40.7316243" lon="-3.8970086"><ele>1001.5</ele><time>2026-04-05T14:40:25.149Z</time></trkpt><trkpt lat="40.7316438" lon="-3.8969039"><ele>1003.25</ele><time>2026-04-05T14:40:26.149Z</time></trkpt><trkpt lat="40.7316595" lon="-3.8968157"><ele>1005.0</ele><time>2026-04-05T14:40:27.149Z</time></trkpt><trkpt lat="40.7325849" lon="-3.8980018"><ele>1005.0</ele><time>2026-04-05T14:40:46.149Z</time></trkpt><trkpt lat="40.7326676" lon="-3.8979777"><ele>1005.0</ele><time>2026-04-05T14:40:47.149Z</time></trkpt><trkpt lat="40.7327611" lon="-3.8979594"><ele>1005.0</ele><time>2026-04-05T14:40:48.149Z</time></trkpt><trkpt lat="40.7328496" lon="-3.8979394"><ele>1005.0</ele><time>2026-04-05T14:40:49.149Z</time></trkpt><trkpt lat="40.7329373" lon="-3.8979142"><ele>1005.0</ele><time>2026-04-05T14:40:50.149Z</time></trkpt><trkpt lat="40.733016" lon="-3.8978761"><ele>1005.0</ele><time>2026-04-05T14:40:51.149Z</time></trkpt><trkpt lat="40.7330925" lon="-3.8978213"><ele>1005.8333333333334</ele><time>2026-04-05T14:40:52.15Z</time></trkpt><trkpt lat="40.7331673" lon="-3.8977674"><ele>1006.6666666666667</ele><time>2026-04-05T14:40:53.15Z</time></trkpt><trkpt lat="40.7332367" lon="-3.8977027"><ele>1007.5</ele><time>2026-04-05T14:40:54.15Z</time></trkpt><trkpt lat="40.7333035" lon="-3.8976313"><ele>1008.3333333333334</ele><time>2026-04-05T14:40:55.15Z</time></trkpt><trkpt lat="40.7333747" lon="-3.8975613"><ele>1009.1666666666667</ele><time>2026-04-05T14:40:56.149Z</time></trkpt><trkpt lat="40.7334507" lon="-3.8974959"><ele>1010.0</ele><time>2026-04-05T14:40:57.149Z</time></trkpt><trkpt lat="40.7335201" lon="-3.8974186"><ele>1014.5</ele><time>2026-04-05T14:40:58.15Z</time></trkpt><trkpt lat="40.7335856" lon="-3.8973493"><ele>1019.0</ele><time>2026-04-05T14:40:59.15Z</time></trkpt><trkpt lat="40.7336369" lon="-3.8972881"><ele>1023.5</ele><time>2026-04-05T14:41:00.15Z</time></trkpt><trkpt lat="40.7337252" lon="-3.897188"><ele>1028.0</ele><time>2026-04-05T14:41:02.149Z</time></trkpt><trkpt lat="40.7338969" lon="-3.8969998"><ele>1028.0</ele><time>2026-04-05T14:41:06.149Z</time></trkpt><trkpt lat="40.7339596" lon="-3.8969527"><ele>1028.0</ele><time>2026-04-05T14:41:07.149Z</time></trkpt><trkpt lat="40.7340257" lon="-3.8969026"><ele>1028.0</ele><time>2026-04-05T14:41:08.149Z</time></trkpt><trkpt lat="40.7341024" lon="-3.8968568"><ele>1028.0</ele><time>2026-04-05T14:41:09.15Z</time></trkpt><trkpt lat="40.7341818" lon="-3.8968159"><ele>1028.0</ele><time>2026-04-05T14:41:10.149Z</time></trkpt><trkpt lat="40.7342662" lon="-3.8967893"><ele>1028.0</ele><time>2026-04-05T14:41:11.149Z</time></trkpt><trkpt lat="40.7343552" lon="-3.8967739"><ele>1032.3333333333335</ele><time>2026-04-05T14:41:12.149Z</time></trkpt><trkpt lat="40.7344411" lon="-3.8967499"><ele>1036.6666666666667</ele><time>2026-04-05T14:41:13.149Z</time></trkpt><trkpt lat="40.7345182" lon="-3.8967305"><ele>1041.0</ele><time>2026-04-05T14:41:14.15Z</time></trkpt><trkpt lat="40.7346048" lon="-3.8967273"><ele>1045.3333333333333</ele><time>2026-04-05T14:41:15.149Z</time></trkpt><trkpt lat="40.734704" lon="-3.8967176"><ele>1049.6666666666665</ele><time>2026-04-05T14:41:16.149Z</time></trkpt><trkpt lat="40.7347855" lon="-3.8967037"><ele>1054.0</ele><time>2026-04-05T14:41:17.149Z</time></trkpt><trkpt lat="40.7348764" lon="-3.8966964"><ele>1054.0</ele><time>2026-04-05T14:41:18.149Z</time></trkpt><trkpt lat="40.7349829" lon="-3.896705"><ele>1054.0</ele><time>2026-04-05T14:41:19.149Z</time></trkpt><trkpt lat="40.7350902" lon="-3.8967097"><ele>1054.0</ele><time>2026-04-05T14:41:20.149Z</time></trkpt><trkpt lat="40.7351881" lon="-3.8967243"><ele>1054.0</ele><time>2026-04-05T14:41:21.149Z</time></trkpt><trkpt lat="40.7352822" lon="-3.8967454"><ele>1054.0</ele><time>2026-04-05T14:41:22.149Z</time></trkpt><trkpt lat="40.7353677" lon="-3.896791"><ele>1051.5</ele><time>2026-04-05T14:41:23.15Z</time></trkpt><trkpt lat="40.735526" lon="-3.8969006"><ele>1049.0</ele><time>2026-04-05T14:41:25.15Z</time></trkpt><trkpt lat="40.7356102" lon="-3.8969532"><ele>1046.5</ele><time>2026-04-05T14:41:26.149Z</time></trkpt><trkpt lat="40.7357029" lon="-3.8970023"><ele>1044.0</ele><time>2026-04-05T14:41:27.15Z</time></trkpt><trkpt lat="40.7358065" lon="-3.8970492"><ele>1044.0</ele><time>2026-04-05T14:41:28.15Z</time></trkpt><trkpt lat="40.7359038" lon="-3.8970875"><ele>1044.0</ele><time>2026-04-05T14:41:29.149Z</time></trkpt><trkpt lat="40.7360062" lon="-3.8971244"><ele>1044.0</ele><time>2026-04-05T14:41:30.149Z</time></trkpt><trkpt lat="40.7361078" lon="-3.8971495"><ele>1044.0</ele><time>2026-04-05T14:41:31.149Z</time></trkpt><trkpt lat="40.7362067" lon="-3.8971691"><ele>1044.0</ele><time>2026-04-05T14:41:32.149Z</time></trkpt><trkpt lat="40.7363059" lon="-3.8971944"><ele>1047.3333333333333</ele><time>2026-04-05T14:41:33.149Z</time></trkpt><trkpt lat="40.7363962" lon="-3.8972091"><ele>1050.6666666666667</ele><time>2026-04-05T14:41:34.149Z</time></trkpt><trkpt lat="40.7364784" lon="-3.8972313"><ele>1054.0</ele><time>2026-04-05T14:41:35.149Z</time></trkpt><trkpt lat="40.736552" lon="-3.8972524"><ele>1057.3333333333335</ele><time>2026-04-05T14:41:36.15Z</time></trkpt><trkpt lat="40.7366211" lon="-3.8972827"><ele>1060.6666666666667</ele><time>2026-04-05T14:41:37.15Z</time></trkpt><trkpt lat="40.7366883" lon="-3.8973241"><ele>1064.0</ele><time>2026-04-05T14:41:38.15Z</time></trkpt><trkpt lat="40.7367793" lon="-3.8974301"><ele>1064.0</ele><time>2026-04-05T14:41:40.149Z</time></trkpt><trkpt lat="40.7368144" lon="-3.8975007"><ele>1064.0</ele><time>2026-04-05T14:41:41.15Z</time></trkpt><trkpt lat="40.7368508" lon="-3.8975787"><ele>1064.0</ele><time>2026-04-05T14:41:42.149Z</time></trkpt><trkpt lat="40.7368821" lon="-3.8976722"><ele>1064.0</ele><time>2026-04-05T14:41:43.149Z</time></trkpt><trkpt lat="40.7369043" lon="-3.8977732"><ele>1064.0</ele><time>2026-04-05T14:41:44.15Z</time></trkpt><trkpt lat="40.7368997" lon="-3.8979874"><ele>1064.1666666666667</ele><time>2026-04-05T14:41:46.149Z</time></trkpt><trkpt lat="40.7368665" lon="-3.8980708"><ele>1064.3333333333335</ele><time>2026-04-05T14:41:47.149Z</time></trkpt><trkpt lat="40.7368161" lon="-3.898139"><ele>1064.5</ele><time>2026-04-05T14:41:48.149Z</time></trkpt><trkpt lat="40.7367769" lon="-3.8982185"><ele>1064.6666666666667</ele><time>2026-04-05T14:41:49.149Z</time></trkpt><trkpt lat="40.7367777" lon="-3.8983021"><ele>1064.8333333333333</ele><time>2026-04-05T14:41:50.149Z</time></trkpt><trkpt lat="40.7368644" lon="-3.8983503"><ele>1065.0</ele><time>2026-04-05T14:41:52.149Z</time></trkpt><trkpt lat="40.7369617" lon="-3.8982647"><ele>1068.142857142857</ele><time>2026-04-05T14:41:54.15Z</time></trkpt><trkpt lat="40.7370083" lon="-3.8982031"><ele>1071.2857142857142</ele><time>2026-04-05T14:41:55.149Z</time></trkpt><trkpt lat="40.7370635" lon="-3.8981549"><ele>1074.4285714285713</ele><time>2026-04-05T14:41:56.15Z</time></trkpt><trkpt lat="40.7371151" lon="-3.8980944"><ele>1077.5714285714284</ele><time>2026-04-05T14:41:57.149Z</time></trkpt><trkpt lat="40.7371669" lon="-3.8980425"><ele>1080.7142857142856</ele><time>2026-04-05T14:41:58.149Z</time></trkpt><trkpt lat="40.7372243" lon="-3.8979925"><ele>1083.857142857143</ele><time>2026-04-05T14:41:59.149Z</time></trkpt><trkpt lat="40.7372804" lon="-3.8979434"><ele>1087.0</ele><time>2026-04-05T14:42:00.15Z</time></trkpt><trkpt lat="40.7373347" lon="-3.8978902"><ele>1087.0</ele><time>2026-04-05T14:42:01.149Z</time></trkpt><trkpt lat="40.7373932" lon="-3.8978308"><ele>1087.0</ele><time>2026-04-05T14:42:02.149Z</time></trkpt><trkpt lat="40.7374527" lon="-3.8977757"><ele>1087.0</ele><time>2026-04-05T14:42:03.15Z</time></trkpt><trkpt lat="40.7375108" lon="-3.8977244"><ele>1087.0</ele><time>2026-04-05T14:42:04.149Z</time></trkpt><trkpt lat="40.7375693" lon="-3.8976804"><ele>1087.0</ele><time>2026-04-05T14:42:05.149Z</time></trkpt><trkpt lat="40.7376848" lon="-3.8975789"><ele>1087.0</ele><time>2026-04-05T14:42:07.149Z</time></trkpt><trkpt lat="40.7377413" lon="-3.8975254"><ele>1087.5714285714284</ele><time>2026-04-05T14:42:08.149Z</time></trkpt><trkpt lat="40.7377959" lon="-3.8974732"><ele>1088.142857142857</ele><time>2026-04-05T14:42:09.15Z</time></trkpt><trkpt lat="40.7378582" lon="-3.8974154"><ele>1088.7142857142858</ele><time>2026-04-05T14:42:10.149Z</time></trkpt><trkpt lat="40.7379226" lon="-3.8973586"><ele>1089.2857142857142</ele><time>2026-04-05T14:42:11.149Z</time></trkpt><trkpt lat="40.737983" lon="-3.897304"><ele>1089.857142857143</ele><time>2026-04-05T14:42:12.149Z</time></trkpt><trkpt lat="40.7380441" lon="-3.8972427"><ele>1090.4285714285713</ele><time>2026-04-05T14:42:13.149Z</time></trkpt><trkpt lat="40.7381047" lon="-3.8971823"><ele>1091.0</ele><time>2026-04-05T14:42:14.149Z</time></trkpt><trkpt lat="40.7381647" lon="-3.8971213"><ele>1091.0</ele><time>2026-04-05T14:42:15.149Z</time></trkpt><trkpt lat="40.7382164" lon="-3.8970622"><ele>1091.0</ele><time>2026-04-05T14:42:16.149Z</time></trkpt><trkpt lat="40.7382683" lon="-3.897013"><ele>1091.0</ele><time>2026-04-05T14:42:17.149Z</time></trkpt><trkpt lat="40.7383517" lon="-3.8969268"><ele>1091.0</ele><time>2026-04-05T14:42:19.149Z</time></trkpt><trkpt lat="40.7384494" lon="-3.8968081"><ele>1091.0</ele><time>2026-04-05T14:42:21.149Z</time></trkpt><trkpt lat="40.7385152" lon="-3.8967428"><ele>1087.8</ele><time>2026-04-05T14:42:22.149Z</time></trkpt><trkpt lat="40.7385836" lon="-3.8966757"><ele>1084.6</ele><time>2026-04-05T14:42:23.149Z</time></trkpt><trkpt lat="40.7386597" lon="-3.8966045"><ele>1081.4</ele><time>2026-04-05T14:42:24.15Z</time></trkpt><trkpt lat="40.7387346" lon="-3.8965242"><ele>1078.2</ele><time>2026-04-05T14:42:25.15Z</time></trkpt><trkpt lat="40.7388085" lon="-3.8964362"><ele>1075.0</ele><time>2026-04-05T14:42:26.149Z</time></trkpt><trkpt lat="40.7389536" lon="-3.8962659"><ele>1075.0</ele><time>2026-04-05T14:42:28.149Z</time></trkpt><trkpt lat="40.7390278" lon="-3.896171"><ele>1075.0</ele><time>2026-04-05T14:42:29.149Z</time></trkpt><trkpt lat="40.7390954" lon="-3.8960808"><ele>1075.0</ele><time>2026-04-05T14:42:30.149Z</time></trkpt><trkpt lat="40.7391645" lon="-3.8959979"><ele>1075.0</ele><time>2026-04-05T14:42:31.149Z</time></trkpt><trkpt lat="40.7392404" lon="-3.8959196"><ele>1075.0</ele><time>2026-04-05T14:42:32.149Z</time></trkpt><trkpt lat="40.7393166" lon="-3.895847"><ele>1073.3333333333333</ele><time>2026-04-05T14:42:33.15Z</time></trkpt><trkpt lat="40.7393905" lon="-3.8957871"><ele>1071.6666666666665</ele><time>2026-04-05T14:42:34.15Z</time></trkpt><trkpt lat="40.7394635" lon="-3.8957286"><ele>1070.0</ele><time>2026-04-05T14:42:35.15Z</time></trkpt><trkpt lat="40.7395408" lon="-3.8956841"><ele>1068.3333333333333</ele><time>2026-04-05T14:42:36.149Z</time></trkpt><trkpt lat="40.7396234" lon="-3.8956373"><ele>1066.6666666666667</ele><time>2026-04-05T14:42:37.149Z</time></trkpt><trkpt lat="40.7397105" lon="-3.8955914"><ele>1065.0</ele><time>2026-04-05T14:42:38.15Z</time></trkpt><trkpt lat="40.7398013" lon="-3.8955394"><ele>1065.0</ele><time>2026-04-05T14:42:39.15Z</time></trkpt><trkpt lat="40.7398781" lon="-3.8954808"><ele>1065.0</ele><time>2026-04-05T14:42:40.149Z</time></trkpt><trkpt lat="40.739954" lon="-3.895411"><ele>1065.0</ele><time>2026-04-05T14:42:41.15Z</time></trkpt><trkpt lat="40.7400208" lon="-3.8953281"><ele>1065.0</ele><time>2026-04-05T14:42:42.149Z</time></trkpt><trkpt lat="40.7400704" lon="-3.8952644"><ele>1065.0</ele><time>2026-04-05T14:42:43.149Z</time></trkpt><trkpt lat="40.7401728" lon="-3.895224"><ele>1065.0</ele><time>2026-04-05T14:42:45.149Z</time></trkpt><trkpt lat="40.7402278" lon="-3.895319"><ele>1065.0</ele><time>2026-04-05T14:42:47.149Z</time></trkpt><trkpt lat="40.7401077" lon="-3.8955207"><ele>1065.0</ele><time>2026-04-05T14:42:50.149Z</time></trkpt><trkpt lat="40.7400269" lon="-3.8956146"><ele>1065.0</ele><time>2026-04-05T14:42:51.15Z</time></trkpt><trkpt lat="40.7399417" lon="-3.8957141"><ele>1065.0</ele><time>2026-04-05T14:42:52.149Z</time></trkpt><trkpt lat="40.7398725" lon="-3.8957973"><ele>1065.0</ele><time>2026-04-05T14:42:53.149Z</time></trkpt><trkpt lat="40.7398152" lon="-3.895871"><ele>1065.0</ele><time>2026-04-05T14:42:54.15Z</time></trkpt><trkpt lat="40.7397627" lon="-3.8959425"><ele>1065.0</ele><time>2026-04-05T14:42:55.149Z</time></trkpt><trkpt lat="40.7397087" lon="-3.8960219"><ele>1065.0</ele><time>2026-04-05T14:42:56.149Z</time></trkpt><trkpt lat="40.7396874" lon="-3.8961066"><ele>1065.0</ele><time>2026-04-05T14:42:57.149Z</time></trkpt><trkpt lat="40.7397279" lon="-3.8962781"><ele>1065.0</ele><time>2026-04-05T14:42:59.15Z</time></trkpt><trkpt lat="40.7397848" lon="-3.8963351"><ele>1065.0</ele><time>2026-04-05T14:43:00.15Z</time></trkpt><trkpt lat="40.7398557" lon="-3.8963919"><ele>1065.0</ele><time>2026-04-05T14:43:01.15Z</time></trkpt><trkpt lat="40.739937" lon="-3.8964409"><ele>1065.0</ele><time>2026-04-05T14:43:02.149Z</time></trkpt><trkpt lat="40.7400115" lon="-3.8964898"><ele>1065.0</ele><time>2026-04-05T14:43:03.15Z</time></trkpt><trkpt lat="40.740091" lon="-3.896529"><ele>1065.0</ele><time>2026-04-05T14:43:04.149Z</time></trkpt><trkpt lat="40.740172" lon="-3.8965572"><ele>1065.0</ele><time>2026-04-05T14:43:05.149Z</time></trkpt><trkpt lat="40.740244" lon="-3.8965697"><ele>1065.2</ele><time>2026-04-05T14:43:06.149Z</time></trkpt><trkpt lat="40.7403185" lon="-3.8965816"><ele>1065.4</ele><time>2026-04-05T14:43:07.149Z</time></trkpt><trkpt lat="40.7404005" lon="-3.8966005"><ele>1065.6</ele><time>2026-04-05T14:43:08.149Z</time></trkpt><trkpt lat="40.7405497" lon="-3.8966971"><ele>1065.8</ele><time>2026-04-05T14:43:10.149Z</time></trkpt><trkpt lat="40.7406139" lon="-3.8967489"><ele>1066.0</ele><time>2026-04-05T14:43:11.149Z</time></trkpt><trkpt lat="40.7406751" lon="-3.8968059"><ele>1066.0</ele><time>2026-04-05T14:43:12.149Z</time></trkpt><trkpt lat="40.7407395" lon="-3.8968716"><ele>1066.0</ele><time>2026-04-05T14:43:13.149Z</time></trkpt><trkpt lat="40.7407978" lon="-3.8969536"><ele>1066.0</ele><time>2026-04-05T14:43:14.149Z</time></trkpt><trkpt lat="40.7408494" lon="-3.8970474"><ele>1066.0</ele><time>2026-04-05T14:43:15.149Z</time></trkpt><trkpt lat="40.7408989" lon="-3.8971363"><ele>1066.0</ele><time>2026-04-05T14:43:16.149Z</time></trkpt><trkpt lat="40.7409522" lon="-3.8972069"><ele>1066.0</ele><time>2026-04-05T14:43:17.149Z</time></trkpt><trkpt lat="40.7410222" lon="-3.8971213"><ele>1066.0</ele><time>2026-04-05T14:43:19.149Z</time></trkpt><trkpt lat="40.7410198" lon="-3.8970316"><ele>1066.0</ele><time>2026-04-05T14:43:20.149Z</time></trkpt><trkpt lat="40.7409889" lon="-3.8969137"><ele>1066.0</ele><time>2026-04-05T14:43:21.149Z</time></trkpt><trkpt lat="40.7409573" lon="-3.8967832"><ele>1066.0</ele><time>2026-04-05T14:43:22.149Z</time></trkpt><trkpt lat="40.740922" lon="-3.8966462"><ele>1066.0</ele><time>2026-04-05T14:43:23.15Z</time></trkpt><trkpt lat="40.7408934" lon="-3.8965078"><ele>1063.0</ele><time>2026-04-05T14:43:24.149Z</time></trkpt><trkpt lat="40.7408541" lon="-3.8963787"><ele>1060.0</ele><time>2026-04-05T14:43:25.15Z</time></trkpt><trkpt lat="40.7408002" lon="-3.8962679"><ele>1057.0</ele><time>2026-04-05T14:43:26.149Z</time></trkpt><trkpt lat="40.7407651" lon="-3.8961726"><ele>1054.0</ele><time>2026-04-05T14:43:27.149Z</time></trkpt><trkpt lat="40.7407667" lon="-3.8960533"><ele>1051.0</ele><time>2026-04-05T14:43:28.15Z</time></trkpt><trkpt lat="40.7408028" lon="-3.8959349"><ele>1051.25</ele><time>2026-04-05T14:43:29.149Z</time></trkpt><trkpt lat="40.7409331" lon="-3.895704"><ele>1051.5</ele><time>2026-04-05T14:43:31.149Z</time></trkpt><trkpt lat="40.7410213" lon="-3.8956115"><ele>1051.75</ele><time>2026-04-05T14:43:32.15Z</time></trkpt><trkpt lat="40.7411237" lon="-3.8955469"><ele>1052.0</ele><time>2026-04-05T14:43:33.15Z</time></trkpt><trkpt lat="40.741227" lon="-3.895497"><ele>1048.8</ele><time>2026-04-05T14:43:34.15Z</time></trkpt><trkpt lat="40.7413259" lon="-3.8954477"><ele>1045.6</ele><time>2026-04-05T14:43:35.149Z</time></trkpt><trkpt lat="40.7414198" lon="-3.8953999"><ele>1042.3999999999999</ele><time>2026-04-05T14:43:36.15Z</time></trkpt><trkpt lat="40.7415101" lon="-3.8953549"><ele>1039.2</ele><time>2026-04-05T14:43:37.15Z</time></trkpt><trkpt lat="40.7415988" lon="-3.8952987"><ele>1036.0</ele><time>2026-04-05T14:43:38.149Z</time></trkpt><trkpt lat="40.7416828" lon="-3.8952326"><ele>1036.0</ele><time>2026-04-05T14:43:39.149Z</time></trkpt><trkpt lat="40.7417486" lon="-3.8951872"><ele>1036.0</ele><time>2026-04-05T14:43:40.149Z</time></trkpt><trkpt lat="40.741857" lon="-3.8952142"><ele>1036.0</ele><time>2026-04-05T14:43:42.149Z</time></trkpt><trkpt lat="40.7418412" lon="-3.8953674"><ele>1036.0</ele><time>2026-04-05T14:43:44.149Z</time></trkpt><trkpt lat="40.7417853" lon="-3.8954292"><ele>1036.0</ele><time>2026-04-05T14:43:45.149Z</time></trkpt><trkpt lat="40.7417235" lon="-3.8954825"><ele>1036.0</ele><time>2026-04-05T14:43:46.149Z</time></trkpt><trkpt lat="40.7416536" lon="-3.8955406"><ele>1036.0</ele><time>2026-04-05T14:43:47.15Z</time></trkpt><trkpt lat="40.7415952" lon="-3.8956272"><ele>1036.0</ele><time>2026-04-05T14:43:48.15Z</time></trkpt><trkpt lat="40.7415488" lon="-3.8957116"><ele>1036.0</ele><time>2026-04-05T14:43:49.149Z</time></trkpt><trkpt lat="40.7414769" lon="-3.8958821"><ele>1036.0</ele><time>2026-04-05T14:43:51.149Z</time></trkpt><trkpt lat="40.7414628" lon="-3.8959694"><ele>1036.0</ele><time>2026-04-05T14:43:52.149Z</time></trkpt><trkpt lat="40.741492" lon="-3.8960532"><ele>1036.0</ele><time>2026-04-05T14:43:53.149Z</time></trkpt><trkpt lat="40.7415542" lon="-3.8961129"><ele>1036.0</ele><time>2026-04-05T14:43:54.149Z</time></trkpt><trkpt lat="40.7416327" lon="-3.8961362"><ele>1036.0</ele><time>2026-04-05T14:43:55.149Z</time></trkpt><trkpt lat="40.7417095" lon="-3.8961131"><ele>1036.0</ele><time>2026-04-05T14:43:56.149Z</time></trkpt><trkpt lat="40.7417779" lon="-3.8961086"><ele>1036.0</ele><time>2026-04-05T14:43:57.149Z</time></trkpt><trkpt lat="40.7418502" lon="-3.8961098"><ele>1036.0</ele><time>2026-04-05T14:43:58.149Z</time></trkpt><trkpt lat="40.7419615" lon="-3.8961205"><ele>1036.0</ele><time>2026-04-05T14:44:00.149Z</time></trkpt><trkpt lat="40.7420381" lon="-3.8961241"><ele>1036.0</ele><time>2026-04-05T14:44:02.149Z</time></trkpt><trkpt lat="40.7420991" lon="-3.8960989"><ele>1036.0</ele><time>2026-04-05T14:44:04.149Z</time></trkpt><trkpt lat="40.7421766" lon="-3.8960313"><ele>1036.0</ele><time>2026-04-05T14:44:07.149Z</time></trkpt><trkpt lat="40.7422696" lon="-3.8960155"><ele>1036.0</ele><time>2026-04-05T14:44:09.149Z</time></trkpt><trkpt lat="40.7423721" lon="-3.8959793"><ele>1036.0</ele><time>2026-04-05T14:44:11.15Z</time></trkpt><trkpt lat="40.7425675" lon="-3.8958865"><ele>1034.3333333333333</ele><time>2026-04-05T14:44:15.15Z</time></trkpt><trkpt lat="40.7426657" lon="-3.895852"><ele>1032.6666666666665</ele><time>2026-04-05T14:44:17.149Z</time></trkpt><trkpt lat="40.7427526" lon="-3.8958566"><ele>1031.0</ele><time>2026-04-05T14:44:19.149Z</time></trkpt><trkpt lat="40.7428268" lon="-3.895879"><ele>1029.3333333333333</ele><time>2026-04-05T14:44:21.149Z</time></trkpt><trkpt lat="40.742898" lon="-3.8958769"><ele>1027.6666666666667</ele><time>2026-04-05T14:44:24.149Z</time></trkpt><trkpt lat="40.7429601" lon="-3.8958503"><ele>1026.0</ele><time>2026-04-05T14:44:26.149Z</time></trkpt><trkpt lat="40.7430439" lon="-3.8958371"><ele>1025.2</ele><time>2026-04-05T14:44:28.149Z</time></trkpt><trkpt lat="40.7431189" lon="-3.8957945"><ele>1024.3999999999999</ele><time>2026-04-05T14:44:30.149Z</time></trkpt><trkpt lat="40.7431974" lon="-3.8957645"><ele>1023.6</ele><time>2026-04-05T14:44:32.149Z</time></trkpt><trkpt lat="40.7433285" lon="-3.8956663"><ele>1022.8</ele><time>2026-04-05T14:44:36.149Z</time></trkpt><trkpt lat="40.7433899" lon="-3.8956058"><ele>1022.0</ele><time>2026-04-05T14:44:38.15Z</time></trkpt><trkpt lat="40.7434468" lon="-3.8955532"><ele>1022.0000000000001</ele><time>2026-04-05T14:44:40.149Z</time></trkpt><trkpt lat="40.7435095" lon="-3.8955125"><ele>1022.0</ele><time>2026-04-05T14:44:42.15Z</time></trkpt><trkpt lat="40.7435605" lon="-3.8954556"><ele>1022.0</ele><time>2026-04-05T14:44:44.149Z</time></trkpt><trkpt lat="40.7436311" lon="-3.8954164"><ele>1022.0</ele><time>2026-04-05T14:44:46.149Z</time></trkpt><trkpt lat="40.7437208" lon="-3.8953872"><ele>1022.0000000000001</ele><time>2026-04-05T14:44:48.149Z</time></trkpt><trkpt lat="40.7437998" lon="-3.8953377"><ele>1022.0</ele><time>2026-04-05T14:44:50.149Z</time></trkpt><trkpt lat="40.7438618" lon="-3.8952634"><ele>1021.3333333333334</ele><time>2026-04-05T14:44:53.15Z</time></trkpt><trkpt lat="40.7439712" lon="-3.8951676"><ele>1020.6666666666667</ele><time>2026-04-05T14:44:57.15Z</time></trkpt><trkpt lat="40.7440356" lon="-3.8951835"><ele>1020.0</ele><time>2026-04-05T14:44:59.15Z</time></trkpt><trkpt lat="40.7441136" lon="-3.8951846"><ele>1019.3333333333333</ele><time>2026-04-05T14:45:02.149Z</time></trkpt><trkpt lat="40.744185" lon="-3.8951776"><ele>1018.6666666666666</ele><time>2026-04-05T14:45:04.149Z</time></trkpt><trkpt lat="40.7442843" lon="-3.8952023"><ele>1018.0</ele><time>2026-04-05T14:45:06.149Z</time></trkpt><trkpt lat="40.7443936" lon="-3.895228"><ele>1018.0</ele><time>2026-04-05T14:45:08.15Z</time></trkpt><trkpt lat="40.7444791" lon="-3.8952543"><ele>1018.0</ele><time>2026-04-05T14:45:10.149Z</time></trkpt><trkpt lat="40.7445928" lon="-3.8952862"><ele>1018.0</ele><time>2026-04-05T14:45:12.149Z</time></trkpt><trkpt lat="40.7447" lon="-3.8952628"><ele>1018.0</ele><time>2026-04-05T14:45:14.149Z</time></trkpt><trkpt lat="40.7449059" lon="-3.895205"><ele>1017.9999999999999</ele><time>2026-04-05T14:45:18.149Z</time></trkpt><trkpt lat="40.7449712" lon="-3.8951905"><ele>1018.0</ele><time>2026-04-05T14:45:19.149Z</time></trkpt><trkpt lat="40.7450465" lon="-3.8951785"><ele>1018.0</ele><time>2026-04-05T14:45:20.15Z</time></trkpt><trkpt lat="40.7451268" lon="-3.8951697"><ele>1018.0</ele><time>2026-04-05T14:45:21.15Z</time></trkpt><trkpt lat="40.7452079" lon="-3.8951551"><ele>1017.9999999999999</ele><time>2026-04-05T14:45:22.149Z</time></trkpt><trkpt lat="40.7452878" lon="-3.8951326"><ele>1018.0</ele><time>2026-04-05T14:45:23.149Z</time></trkpt><trkpt lat="40.7453528" lon="-3.8951156"><ele>1017.2</ele><time>2026-04-05T14:45:24.149Z</time></trkpt><trkpt lat="40.7454287" lon="-3.8950544"><ele>1016.4</ele><time>2026-04-05T14:45:26.15Z</time></trkpt><trkpt lat="40.7455075" lon="-3.8949964"><ele>1015.6000000000001</ele><time>2026-04-05T14:45:28.149Z</time></trkpt><trkpt lat="40.745617" lon="-3.8949847"><ele>1014.8000000000001</ele><time>2026-04-05T14:45:30.149Z</time></trkpt><trkpt lat="40.7457446" lon="-3.8950291"><ele>1014.0</ele><time>2026-04-05T14:45:32.149Z</time></trkpt><trkpt lat="40.7458064" lon="-3.8950602"><ele>1016.2</ele><time>2026-04-05T14:45:33.149Z</time></trkpt><trkpt lat="40.7458687" lon="-3.8950945"><ele>1018.4000000000001</ele><time>2026-04-05T14:45:34.149Z</time></trkpt><trkpt lat="40.7459396" lon="-3.895118"><ele>1020.6</ele><time>2026-04-05T14:45:35.149Z</time></trkpt><trkpt lat="40.7461024" lon="-3.895125"><ele>1022.8</ele><time>2026-04-05T14:45:37.149Z</time></trkpt><trkpt lat="40.7461804" lon="-3.8951023"><ele>1025.0</ele><time>2026-04-05T14:45:38.149Z</time></trkpt><trkpt lat="40.7462594" lon="-3.8950895"><ele>1023.6666666666667</ele><time>2026-04-05T14:45:39.149Z</time></trkpt><trkpt lat="40.7463408" lon="-3.8950783"><ele>1022.3333333333334</ele><time>2026-04-05T14:45:40.149Z</time></trkpt><trkpt lat="40.7464239" lon="-3.8950721"><ele>1021.0</ele><time>2026-04-05T14:45:41.15Z</time></trkpt><trkpt lat="40.7465156" lon="-3.8950722"><ele>1019.6666666666667</ele><time>2026-04-05T14:45:42.149Z</time></trkpt><trkpt lat="40.7466038" lon="-3.8950723"><ele>1018.3333333333334</ele><time>2026-04-05T14:45:43.149Z</time></trkpt><trkpt lat="40.7466809" lon="-3.8950709"><ele>1017.0</ele><time>2026-04-05T14:45:44.149Z</time></trkpt><trkpt lat="40.7467558" lon="-3.8950705"><ele>1017.0</ele><time>2026-04-05T14:45:45.149Z</time></trkpt><trkpt lat="40.7468372" lon="-3.8950769"><ele>1016.9999999999999</ele><time>2026-04-05T14:45:46.149Z</time></trkpt><trkpt lat="40.7469178" lon="-3.8950801"><ele>1017.0</ele><time>2026-04-05T14:45:47.15Z</time></trkpt><trkpt lat="40.7469958" lon="-3.8950846"><ele>1017.0</ele><time>2026-04-05T14:45:48.149Z</time></trkpt><trkpt lat="40.7470617" lon="-3.8950907"><ele>1016.9999999999999</ele><time>2026-04-05T14:45:49.149Z</time></trkpt><trkpt lat="40.7471288" lon="-3.8951028"><ele>1017.0</ele><time>2026-04-05T14:45:50.149Z</time></trkpt><trkpt lat="40.7471927" lon="-3.8951263"><ele>1017.0</ele><time>2026-04-05T14:45:51.149Z</time></trkpt><trkpt lat="40.7472854" lon="-3.8951258"><ele>1017.25</ele><time>2026-04-05T14:45:53.149Z</time></trkpt><trkpt lat="40.7473856" lon="-3.8951047"><ele>1017.5</ele><time>2026-04-05T14:45:55.149Z</time></trkpt><trkpt lat="40.7474913" lon="-3.8950853"><ele>1017.75</ele><time>2026-04-05T14:45:57.149Z</time></trkpt><trkpt lat="40.7476743" lon="-3.8951106"><ele>1018.0</ele><time>2026-04-05T14:46:00.149Z</time></trkpt><trkpt lat="40.7477449" lon="-3.8951173"><ele>1020.2857142857142</ele><time>2026-04-05T14:46:01.149Z</time></trkpt><trkpt lat="40.7478169" lon="-3.8951259"><ele>1022.5714285714286</ele><time>2026-04-05T14:46:02.149Z</time></trkpt><trkpt lat="40.7478847" lon="-3.8951385"><ele>1024.857142857143</ele><time>2026-04-05T14:46:03.149Z</time></trkpt><trkpt lat="40.7479541" lon="-3.8951646"><ele>1027.142857142857</ele><time>2026-04-05T14:46:04.149Z</time></trkpt><trkpt lat="40.7480226" lon="-3.8951862"><ele>1029.4285714285716</ele><time>2026-04-05T14:46:05.15Z</time></trkpt><trkpt lat="40.7480878" lon="-3.8952137"><ele>1031.7142857142858</ele><time>2026-04-05T14:46:06.149Z</time></trkpt><trkpt lat="40.7481393" lon="-3.8952711"><ele>1034.0</ele><time>2026-04-05T14:46:07.15Z</time></trkpt><trkpt lat="40.7481823" lon="-3.8953372"><ele>1034.0</ele><time>2026-04-05T14:46:08.149Z</time></trkpt><trkpt lat="40.7482516" lon="-3.8954651"><ele>1034.0</ele><time>2026-04-05T14:46:10.149Z</time></trkpt><trkpt lat="40.7482973" lon="-3.8955285"><ele>1034.0</ele><time>2026-04-05T14:46:11.149Z</time></trkpt><trkpt lat="40.7483533" lon="-3.895595"><ele>1034.0</ele><time>2026-04-05T14:46:12.149Z</time></trkpt><trkpt lat="40.748408" lon="-3.895665"><ele>1034.0</ele><time>2026-04-05T14:46:13.149Z</time></trkpt><trkpt lat="40.7484504" lon="-3.8957442"><ele>1034.0</ele><time>2026-04-05T14:46:14.149Z</time></trkpt><trkpt lat="40.7484843" lon="-3.8958305"><ele>1034.0</ele><time>2026-04-05T14:46:15.149Z</time></trkpt><trkpt lat="40.7485167" lon="-3.8959104"><ele>1034.0</ele><time>2026-04-05T14:46:16.149Z</time></trkpt><trkpt lat="40.7485546" lon="-3.895986"><ele>1034.0</ele><time>2026-04-05T14:46:17.149Z</time></trkpt><trkpt lat="40.7485915" lon="-3.8960534"><ele>1034.0</ele><time>2026-04-05T14:46:18.149Z</time></trkpt><trkpt lat="40.7487371" lon="-3.8962913"><ele>1034.0</ele><time>2026-04-05T14:46:22.149Z</time></trkpt><trkpt lat="40.748803" lon="-3.8964118"><ele>1035.6666666666667</ele><time>2026-04-05T14:46:24.149Z</time></trkpt><trkpt lat="40.7488731" lon="-3.8964781"><ele>1037.3333333333335</ele><time>2026-04-05T14:46:26.149Z</time></trkpt><trkpt lat="40.7489326" lon="-3.896511"><ele>1039.0</ele><time>2026-04-05T14:46:28.149Z</time></trkpt><trkpt lat="40.7490011" lon="-3.8965468"><ele>1040.6666666666667</ele><time>2026-04-05T14:46:30.149Z</time></trkpt><trkpt lat="40.7490834" lon="-3.8966201"><ele>1042.3333333333333</ele><time>2026-04-05T14:46:32.149Z</time></trkpt><trkpt lat="40.7491686" lon="-3.8966908"><ele>1044.0</ele><time>2026-04-05T14:46:34.149Z</time></trkpt><trkpt lat="40.7492394" lon="-3.8967548"><ele>1044.2</ele><time>2026-04-05T14:46:36.149Z</time></trkpt><trkpt lat="40.7493111" lon="-3.8968057"><ele>1044.4</ele><time>2026-04-05T14:46:38.149Z</time></trkpt><trkpt lat="40.7494517" lon="-3.8968846"><ele>1044.6</ele><time>2026-04-05T14:46:42.149Z</time></trkpt><trkpt lat="40.7495209" lon="-3.8969239"><ele>1044.8</ele><time>2026-04-05T14:46:44.149Z</time></trkpt><trkpt lat="40.7495623" lon="-3.8970003"><ele>1045.0</ele><time>2026-04-05T14:46:46.149Z</time></trkpt><trkpt lat="40.7496072" lon="-3.8971406"><ele>1045.0</ele><time>2026-04-05T14:46:48.149Z</time></trkpt><trkpt lat="40.7496467" lon="-3.8972125"><ele>1045.0</ele><time>2026-04-05T14:46:49.149Z</time></trkpt><trkpt lat="40.7496939" lon="-3.8972729"><ele>1045.0</ele><time>2026-04-05T14:46:50.15Z</time></trkpt><trkpt lat="40.7497511" lon="-3.8973217"><ele>1045.0</ele><time>2026-04-05T14:46:51.15Z</time></trkpt><trkpt lat="40.7498785" lon="-3.897382"><ele>1045.0</ele><time>2026-04-05T14:46:53.149Z</time></trkpt><trkpt lat="40.749954" lon="-3.8974291"><ele>1045.0</ele><time>2026-04-05T14:46:54.149Z</time></trkpt><trkpt lat="40.7500275" lon="-3.8974944"><ele>1045.0</ele><time>2026-04-05T14:46:55.149Z</time></trkpt><trkpt lat="40.7500853" lon="-3.8975845"><ele>1045.0</ele><time>2026-04-05T14:46:56.149Z</time></trkpt><trkpt lat="40.7501326" lon="-3.8976836"><ele>1045.0</ele><time>2026-04-05T14:46:57.149Z</time></trkpt><trkpt lat="40.7501756" lon="-3.8977908"><ele>1045.0</ele><time>2026-04-05T14:46:58.149Z</time></trkpt><trkpt lat="40.7502095" lon="-3.8979086"><ele>1045.0</ele><time>2026-04-05T14:46:59.149Z</time></trkpt><trkpt lat="40.7502407" lon="-3.8981825"><ele>1044.6</ele><time>2026-04-05T14:47:01.149Z</time></trkpt><trkpt lat="40.750246" lon="-3.8983247"><ele>1044.2</ele><time>2026-04-05T14:47:02.149Z</time></trkpt><trkpt lat="40.7502662" lon="-3.8984711"><ele>1043.8</ele><time>2026-04-05T14:47:03.149Z</time></trkpt><trkpt lat="40.7503049" lon="-3.89861"><ele>1043.4</ele><time>2026-04-05T14:47:04.149Z</time></trkpt><trkpt lat="40.7503515" lon="-3.8987511"><ele>1043.0</ele><time>2026-04-05T14:47:05.149Z</time></trkpt><trkpt lat="40.7503957" lon="-3.8988955"><ele>1043.0</ele><time>2026-04-05T14:47:06.149Z</time></trkpt><trkpt lat="40.7504391" lon="-3.8990485"><ele>1043.0</ele><time>2026-04-05T14:47:07.149Z</time></trkpt><trkpt lat="40.7504951" lon="-3.8991992"><ele>1043.0</ele><time>2026-04-05T14:47:08.149Z</time></trkpt><trkpt lat="40.7505706" lon="-3.8993442"><ele>1043.0</ele><time>2026-04-05T14:47:09.15Z</time></trkpt><trkpt lat="40.7506464" lon="-3.8994932"><ele>1045.0</ele><time>2026-04-05T14:47:10.149Z</time></trkpt><trkpt lat="40.7507179" lon="-3.8996499"><ele>1047.0</ele><time>2026-04-05T14:47:11.15Z</time></trkpt><trkpt lat="40.7507871" lon="-3.8998097"><ele>1049.0</ele><time>2026-04-05T14:47:12.149Z</time></trkpt><trkpt lat="40.750849" lon="-3.8999619"><ele>1051.0</ele><time>2026-04-05T14:47:13.149Z</time></trkpt><trkpt lat="40.7509114" lon="-3.9001121"><ele>1050.75</ele><time>2026-04-05T14:47:14.149Z</time></trkpt><trkpt lat="40.7509797" lon="-3.9002465"><ele>1050.5</ele><time>2026-04-05T14:47:15.149Z</time></trkpt><trkpt lat="40.7510495" lon="-3.9003786"><ele>1050.25</ele><time>2026-04-05T14:47:16.149Z</time></trkpt><trkpt lat="40.751115" lon="-3.9005057"><ele>1050.0</ele><time>2026-04-05T14:47:17.15Z</time></trkpt><trkpt lat="40.7511869" lon="-3.9006275"><ele>1050.0</ele><time>2026-04-05T14:47:18.149Z</time></trkpt><trkpt lat="40.7512493" lon="-3.9007388"><ele>1050.0</ele><time>2026-04-05T14:47:19.149Z</time></trkpt><trkpt lat="40.7513111" lon="-3.9008465"><ele>1050.0</ele><time>2026-04-05T14:47:20.149Z</time></trkpt><trkpt lat="40.7514258" lon="-3.9010181"><ele>1050.0</ele><time>2026-04-05T14:47:22.149Z</time></trkpt><trkpt lat="40.7514702" lon="-3.9010913"><ele>1050.5</ele><time>2026-04-05T14:47:23.149Z</time></trkpt><trkpt lat="40.7515544" lon="-3.9011909"><ele>1051.0</ele><time>2026-04-05T14:47:25.149Z</time></trkpt><trkpt lat="40.7516437" lon="-3.9011906"><ele>1051.5</ele><time>2026-04-05T14:47:27.149Z</time></trkpt><trkpt lat="40.751721" lon="-3.9011994"><ele>1052.0</ele><time>2026-04-05T14:47:28.15Z</time></trkpt><trkpt lat="40.7518014" lon="-3.9012453"><ele>1052.5</ele><time>2026-04-05T14:47:29.149Z</time></trkpt><trkpt lat="40.7518637" lon="-3.9012881"><ele>1053.0</ele><time>2026-04-05T14:47:30.15Z</time></trkpt><trkpt lat="40.751939" lon="-3.9013534"><ele>1053.0</ele><time>2026-04-05T14:47:32.149Z</time></trkpt><trkpt lat="40.7520137" lon="-3.9014102"><ele>1053.0</ele><time>2026-04-05T14:47:34.15Z</time></trkpt><trkpt lat="40.7520605" lon="-3.9014658"><ele>1053.0</ele><time>2026-04-05T14:47:36.15Z</time></trkpt><trkpt lat="40.7521087" lon="-3.9015371"><ele>1053.0</ele><time>2026-04-05T14:48:22.159Z</time></trkpt><trkpt lat="40.7521697" lon="-3.9015638"><ele>1053.0</ele><time>2026-04-05T14:50:16.198Z</time></trkpt></trkseg><trkseg><trkpt lat="40.7520984" lon="-3.9014801"><ele>1053.0</ele><time>2026-04-05T15:48:16.147Z</time></trkpt><trkpt lat="40.7520635" lon="-3.9014052"><ele>1053.0</ele><time>2026-04-05T15:51:44.147Z</time></trkpt><trkpt lat="40.7519701" lon="-3.9014117"><ele>1053.0</ele><time>2026-04-05T15:51:49.268Z</time></trkpt><trkpt lat="40.7519043" lon="-3.9014143"><ele>1053.0</ele><time>2026-04-05T15:51:51.23Z</time></trkpt><trkpt lat="40.7518408" lon="-3.9013072"><ele>1053.0</ele><time>2026-04-05T15:51:53.146Z</time></trkpt><trkpt lat="40.751779" lon="-3.9012522"><ele>1053.0</ele><time>2026-04-05T15:51:56.146Z</time></trkpt><trkpt lat="40.7517125" lon="-3.9011904"><ele>1052.5</ele><time>2026-04-05T15:51:59.146Z</time></trkpt><trkpt lat="40.7516427" lon="-3.9011353"><ele>1052.0</ele><time>2026-04-05T15:52:02.146Z</time></trkpt><trkpt lat="40.7515462" lon="-3.9010816"><ele>1051.5</ele><time>2026-04-05T15:52:05.146Z</time></trkpt><trkpt lat="40.7514658" lon="-3.9010371"><ele>1051.0</ele><time>2026-04-05T15:52:08.146Z</time></trkpt><trkpt lat="40.7513972" lon="-3.9009908"><ele>1050.5</ele><time>2026-04-05T15:52:10.146Z</time></trkpt><trkpt lat="40.751331" lon="-3.9008936"><ele>1050.0</ele><time>2026-04-05T15:52:12.146Z</time></trkpt><trkpt lat="40.7512728" lon="-3.9008135"><ele>1050.0</ele><time>2026-04-05T15:52:14.146Z</time></trkpt><trkpt lat="40.7512119" lon="-3.9007165"><ele>1050.0</ele><time>2026-04-05T15:52:16.146Z</time></trkpt><trkpt lat="40.7511514" lon="-3.900615"><ele>1050.0</ele><time>2026-04-05T15:52:18.146Z</time></trkpt><trkpt lat="40.7510767" lon="-3.9004915"><ele>1050.0</ele><time>2026-04-05T15:52:20.147Z</time></trkpt><trkpt lat="40.7510355" lon="-3.9004192"><ele>1050.0</ele><time>2026-04-05T15:52:21.146Z</time></trkpt><trkpt lat="40.7509894" lon="-3.9003386"><ele>1050.142857142857</ele><time>2026-04-05T15:52:22.146Z</time></trkpt><trkpt lat="40.7509498" lon="-3.9002598"><ele>1050.2857142857142</ele><time>2026-04-05T15:52:23.147Z</time></trkpt><trkpt lat="40.7509091" lon="-3.900187"><ele>1050.4285714285716</ele><time>2026-04-05T15:52:24.147Z</time></trkpt><trkpt lat="40.7508731" lon="-3.9001165"><ele>1050.5714285714284</ele><time>2026-04-05T15:52:25.146Z</time></trkpt><trkpt lat="40.7508384" lon="-3.9000326"><ele>1050.7142857142858</ele><time>2026-04-05T15:52:26.146Z</time></trkpt><trkpt lat="40.750808" lon="-3.8999498"><ele>1050.857142857143</ele><time>2026-04-05T15:52:27.146Z</time></trkpt><trkpt lat="40.7507741" lon="-3.8998675"><ele>1051.0</ele><time>2026-04-05T15:52:28.146Z</time></trkpt><trkpt lat="40.7507434" lon="-3.8997841"><ele>1051.0</ele><time>2026-04-05T15:52:29.146Z</time></trkpt><trkpt lat="40.7507126" lon="-3.8997107"><ele>1051.0</ele><time>2026-04-05T15:52:30.146Z</time></trkpt><trkpt lat="40.7506776" lon="-3.8996382"><ele>1051.0</ele><time>2026-04-05T15:52:31.147Z</time></trkpt><trkpt lat="40.7506394" lon="-3.8995665"><ele>1051.0</ele><time>2026-04-05T15:52:32.146Z</time></trkpt><trkpt lat="40.7506039" lon="-3.8994975"><ele>1051.0</ele><time>2026-04-05T15:52:33.146Z</time></trkpt><trkpt lat="40.7505702" lon="-3.8994268"><ele>1051.0</ele><time>2026-04-05T15:52:34.146Z</time></trkpt><trkpt lat="40.7505315" lon="-3.8993557"><ele>1051.0</ele><time>2026-04-05T15:52:35.147Z</time></trkpt><trkpt lat="40.7504686" lon="-3.8992246"><ele>1049.6666666666665</ele><time>2026-04-05T15:52:37.147Z</time></trkpt><trkpt lat="40.7504335" lon="-3.8991507"><ele>1048.3333333333333</ele><time>2026-04-05T15:52:38.146Z</time></trkpt><trkpt lat="40.7504045" lon="-3.8990755"><ele>1047.0</ele><time>2026-04-05T15:52:39.146Z</time></trkpt><trkpt lat="40.7503174" lon="-3.8989464"><ele>1045.6666666666667</ele><time>2026-04-05T15:52:41.146Z</time></trkpt><trkpt lat="40.7502685" lon="-3.8988768"><ele>1044.3333333333335</ele><time>2026-04-05T15:52:42.147Z</time></trkpt><trkpt lat="40.7502286" lon="-3.898805"><ele>1043.0</ele><time>2026-04-05T15:52:43.146Z</time></trkpt><trkpt lat="40.7501702" lon="-3.8986877"><ele>1044.8333333333335</ele><time>2026-04-05T15:52:45.146Z</time></trkpt><trkpt lat="40.7501085" lon="-3.8985462"><ele>1046.6666666666667</ele><time>2026-04-05T15:52:47.146Z</time></trkpt><trkpt lat="40.750069" lon="-3.8984798"><ele>1048.5</ele><time>2026-04-05T15:52:48.146Z</time></trkpt><trkpt lat="40.7500251" lon="-3.8984072"><ele>1050.3333333333333</ele><time>2026-04-05T15:52:49.147Z</time></trkpt><trkpt lat="40.7499843" lon="-3.898329"><ele>1052.1666666666665</ele><time>2026-04-05T15:52:50.146Z</time></trkpt><trkpt lat="40.7499463" lon="-3.8981887"><ele>1054.0</ele><time>2026-04-05T15:52:52.146Z</time></trkpt><trkpt lat="40.7499212" lon="-3.89807"><ele>1054.0</ele><time>2026-04-05T15:52:54.146Z</time></trkpt><trkpt lat="40.7498951" lon="-3.8979607"><ele>1054.0</ele><time>2026-04-05T15:52:56.146Z</time></trkpt><trkpt lat="40.7498494" lon="-3.8978723"><ele>1054.0</ele><time>2026-04-05T15:52:58.147Z</time></trkpt><trkpt lat="40.7497982" lon="-3.8977793"><ele>1054.0</ele><time>2026-04-05T15:53:00.146Z</time></trkpt><trkpt lat="40.7497545" lon="-3.8976623"><ele>1054.0</ele><time>2026-04-05T15:53:02.146Z</time></trkpt><trkpt lat="40.7497244" lon="-3.8975714"><ele>1054.0</ele><time>2026-04-05T15:53:04.146Z</time></trkpt><trkpt lat="40.7497018" lon="-3.8974898"><ele>1052.7142857142858</ele><time>2026-04-05T15:53:06.146Z</time></trkpt><trkpt lat="40.749683" lon="-3.8974046"><ele>1051.4285714285716</ele><time>2026-04-05T15:53:09.146Z</time></trkpt><trkpt lat="40.7496542" lon="-3.8973085"><ele>1050.142857142857</ele><time>2026-04-05T15:53:15.146Z</time></trkpt><trkpt lat="40.7495835" lon="-3.8973061"><ele>1048.857142857143</ele><time>2026-04-05T15:53:30.146Z</time></trkpt><trkpt lat="40.7495224" lon="-3.8972665"><ele>1047.5714285714284</ele><time>2026-04-05T15:53:34.146Z</time></trkpt><trkpt lat="40.7495105" lon="-3.8971793"><ele>1046.2857142857142</ele><time>2026-04-05T15:53:38.147Z</time></trkpt><trkpt lat="40.7495456" lon="-3.8970983"><ele>1045.0</ele><time>2026-04-05T15:53:40.146Z</time></trkpt><trkpt lat="40.7495391" lon="-3.896988"><ele>1045.0</ele><time>2026-04-05T15:53:42.146Z</time></trkpt><trkpt lat="40.749525" lon="-3.8968911"><ele>1045.0</ele><time>2026-04-05T15:53:44.147Z</time></trkpt><trkpt lat="40.749496" lon="-3.8968131"><ele>1045.0</ele><time>2026-04-05T15:53:46.146Z</time></trkpt><trkpt lat="40.7494357" lon="-3.8967751"><ele>1045.0</ele><time>2026-04-05T15:53:48.146Z</time></trkpt><trkpt lat="40.7493503" lon="-3.8967416"><ele>1045.0</ele><time>2026-04-05T15:53:51.146Z</time></trkpt><trkpt lat="40.7492927" lon="-3.8967829"><ele>1045.0</ele><time>2026-04-05T15:53:53.146Z</time></trkpt><trkpt lat="40.7492237" lon="-3.8967388"><ele>1045.0</ele><time>2026-04-05T15:53:57.146Z</time></trkpt><trkpt lat="40.7491592" lon="-3.8966997"><ele>1044.857142857143</ele><time>2026-04-05T15:54:01.146Z</time></trkpt><trkpt lat="40.7490905" lon="-3.8966656"><ele>1044.7142857142856</ele><time>2026-04-05T15:54:04.146Z</time></trkpt><trkpt lat="40.7490296" lon="-3.8966211"><ele>1044.5714285714284</ele><time>2026-04-05T15:54:07.146Z</time></trkpt><trkpt lat="40.7489634" lon="-3.8965838"><ele>1044.4285714285713</ele><time>2026-04-05T15:54:10.146Z</time></trkpt><trkpt lat="40.7489065" lon="-3.8965427"><ele>1044.2857142857142</ele><time>2026-04-05T15:54:13.146Z</time></trkpt><trkpt lat="40.7488469" lon="-3.8964747"><ele>1044.142857142857</ele><time>2026-04-05T15:54:16.146Z</time></trkpt><trkpt lat="40.7487983" lon="-3.8964112"><ele>1044.0</ele><time>2026-04-05T15:54:19.146Z</time></trkpt><trkpt lat="40.7487447" lon="-3.896323"><ele>1044.0</ele><time>2026-04-05T15:54:22.146Z</time></trkpt><trkpt lat="40.7486939" lon="-3.8962678"><ele>1044.0</ele><time>2026-04-05T15:54:25.146Z</time></trkpt><trkpt lat="40.7486506" lon="-3.8961698"><ele>1044.0</ele><time>2026-04-05T15:54:28.146Z</time></trkpt><trkpt lat="40.748593" lon="-3.8961022"><ele>1044.0</ele><time>2026-04-05T15:54:30.146Z</time></trkpt><trkpt lat="40.7485374" lon="-3.8959995"><ele>1044.0</ele><time>2026-04-05T15:54:32.146Z</time></trkpt><trkpt lat="40.748485" lon="-3.8958823"><ele>1044.0</ele><time>2026-04-05T15:54:34.146Z</time></trkpt><trkpt lat="40.74844" lon="-3.8957705"><ele>1042.3333333333333</ele><time>2026-04-05T15:54:36.146Z</time></trkpt><trkpt lat="40.7484036" lon="-3.8956768"><ele>1040.6666666666667</ele><time>2026-04-05T15:54:38.146Z</time></trkpt><trkpt lat="40.7483638" lon="-3.8955987"><ele>1039.0</ele><time>2026-04-05T15:54:40.146Z</time></trkpt><trkpt lat="40.7483054" lon="-3.8955484"><ele>1037.3333333333335</ele><time>2026-04-05T15:54:43.146Z</time></trkpt><trkpt lat="40.7482079" lon="-3.8955757"><ele>1035.6666666666667</ele><time>2026-04-05T15:54:56.147Z</time></trkpt><trkpt lat="40.748133" lon="-3.8955765"><ele>1034.0</ele><time>2026-04-05T15:55:02.147Z</time></trkpt><trkpt lat="40.748038" lon="-3.8955778"><ele>1034.0</ele><time>2026-04-05T15:55:05.146Z</time></trkpt><trkpt lat="40.7479515" lon="-3.8955447"><ele>1034.0</ele><time>2026-04-05T15:55:07.146Z</time></trkpt><trkpt lat="40.747869" lon="-3.8955198"><ele>1034.0</ele><time>2026-04-05T15:55:09.147Z</time></trkpt><trkpt lat="40.7478052" lon="-3.8954912"><ele>1034.0</ele><time>2026-04-05T15:55:11.147Z</time></trkpt><trkpt lat="40.7477192" lon="-3.895497"><ele>1034.0</ele><time>2026-04-05T15:55:14.146Z</time></trkpt><trkpt lat="40.7476531" lon="-3.8955117"><ele>1034.0</ele><time>2026-04-05T15:55:16.146Z</time></trkpt><trkpt lat="40.7475677" lon="-3.8955305"><ele>1033.3333333333335</ele><time>2026-04-05T15:55:18.146Z</time></trkpt><trkpt lat="40.7474917" lon="-3.895525"><ele>1032.6666666666667</ele><time>2026-04-05T15:55:20.146Z</time></trkpt><trkpt lat="40.7474164" lon="-3.8955312"><ele>1032.0</ele><time>2026-04-05T15:55:22.147Z</time></trkpt><trkpt lat="40.7473478" lon="-3.8955663"><ele>1031.3333333333333</ele><time>2026-04-05T15:55:25.147Z</time></trkpt><trkpt lat="40.7472843" lon="-3.8955915"><ele>1030.6666666666665</ele><time>2026-04-05T15:55:27.147Z</time></trkpt><trkpt lat="40.7471976" lon="-3.8955822"><ele>1030.0</ele><time>2026-04-05T15:55:30.147Z</time></trkpt><trkpt lat="40.7471407" lon="-3.8955175"><ele>1030.0</ele><time>2026-04-05T15:55:33.146Z</time></trkpt><trkpt lat="40.7470818" lon="-3.8954301"><ele>1030.0</ele><time>2026-04-05T15:55:36.146Z</time></trkpt><trkpt lat="40.7470452" lon="-3.8953605"><ele>1030.0</ele><time>2026-04-05T15:55:38.146Z</time></trkpt><trkpt lat="40.7469743" lon="-3.8952895"><ele>1030.0</ele><time>2026-04-05T15:55:41.146Z</time></trkpt><trkpt lat="40.7469017" lon="-3.8952722"><ele>1030.0</ele><time>2026-04-05T15:55:43.146Z</time></trkpt><trkpt lat="40.7468326" lon="-3.8952759"><ele>1030.0</ele><time>2026-04-05T15:55:45.147Z</time></trkpt><trkpt lat="40.7467478" lon="-3.8952754"><ele>1029.8333333333333</ele><time>2026-04-05T15:55:48.147Z</time></trkpt><trkpt lat="40.7466629" lon="-3.8952781"><ele>1029.6666666666665</ele><time>2026-04-05T15:55:52.146Z</time></trkpt><trkpt lat="40.7465781" lon="-3.8952645"><ele>1029.5</ele><time>2026-04-05T15:55:54.146Z</time></trkpt><trkpt lat="40.7464962" lon="-3.8952549"><ele>1029.3333333333333</ele><time>2026-04-05T15:55:56.146Z</time></trkpt><trkpt lat="40.7464243" lon="-3.8952707"><ele>1029.1666666666667</ele><time>2026-04-05T15:55:58.146Z</time></trkpt><trkpt lat="40.7463417" lon="-3.8952857"><ele>1029.0</ele><time>2026-04-05T15:56:01.147Z</time></trkpt><trkpt lat="40.7462783" lon="-3.8953133"><ele>1029.0</ele><time>2026-04-05T15:56:03.146Z</time></trkpt><trkpt lat="40.7462146" lon="-3.8953362"><ele>1029.0</ele><time>2026-04-05T15:56:05.146Z</time></trkpt><trkpt lat="40.7461377" lon="-3.8953947"><ele>1029.0</ele><time>2026-04-05T15:56:07.146Z</time></trkpt><trkpt lat="40.7460502" lon="-3.8954422"><ele>1029.0</ele><time>2026-04-05T15:56:09.147Z</time></trkpt><trkpt lat="40.745984" lon="-3.8954804"><ele>1029.0</ele><time>2026-04-05T15:56:11.146Z</time></trkpt><trkpt lat="40.7459217" lon="-3.8955304"><ele>1029.0</ele><time>2026-04-05T15:56:13.147Z</time></trkpt><trkpt lat="40.7458635" lon="-3.8955719"><ele>1028.3333333333333</ele><time>2026-04-05T15:56:15.147Z</time></trkpt><trkpt lat="40.7457976" lon="-3.895624"><ele>1027.6666666666667</ele><time>2026-04-05T15:56:17.146Z</time></trkpt><trkpt lat="40.7457391" lon="-3.8956634"><ele>1027.0</ele><time>2026-04-05T15:56:19.146Z</time></trkpt><trkpt lat="40.7456666" lon="-3.8957389"><ele>1026.3333333333335</ele><time>2026-04-05T15:56:21.146Z</time></trkpt><trkpt lat="40.745596" lon="-3.8958176"><ele>1025.6666666666667</ele><time>2026-04-05T15:56:23.146Z</time></trkpt><trkpt lat="40.7455196" lon="-3.8958824"><ele>1025.0</ele><time>2026-04-05T15:56:25.146Z</time></trkpt><trkpt lat="40.7454421" lon="-3.8959332"><ele>1024.5714285714284</ele><time>2026-04-05T15:56:27.146Z</time></trkpt><trkpt lat="40.7453674" lon="-3.8959637"><ele>1024.142857142857</ele><time>2026-04-05T15:56:29.146Z</time></trkpt><trkpt lat="40.7452847" lon="-3.8959786"><ele>1023.7142857142857</ele><time>2026-04-05T15:56:32.146Z</time></trkpt><trkpt lat="40.7452179" lon="-3.8960242"><ele>1023.2857142857142</ele><time>2026-04-05T15:56:35.146Z</time></trkpt><trkpt lat="40.7451532" lon="-3.8960432"><ele>1022.8571428571429</ele><time>2026-04-05T15:56:37.146Z</time></trkpt><trkpt lat="40.7450877" lon="-3.8960699"><ele>1022.4285714285714</ele><time>2026-04-05T15:56:39.146Z</time></trkpt><trkpt lat="40.745024" lon="-3.8961098"><ele>1022.0</ele><time>2026-04-05T15:56:41.146Z</time></trkpt><trkpt lat="40.7449604" lon="-3.8961448"><ele>1022.0</ele><time>2026-04-05T15:56:43.146Z</time></trkpt><trkpt lat="40.7448943" lon="-3.8961885"><ele>1022.0</ele><time>2026-04-05T15:56:45.147Z</time></trkpt><trkpt lat="40.7448307" lon="-3.8962311"><ele>1022.0</ele><time>2026-04-05T15:56:47.146Z</time></trkpt><trkpt lat="40.7447728" lon="-3.8962742"><ele>1022.0</ele><time>2026-04-05T15:56:49.146Z</time></trkpt><trkpt lat="40.7446969" lon="-3.8962509"><ele>1022.0</ele><time>2026-04-05T15:56:51.146Z</time></trkpt><trkpt lat="40.7446332" lon="-3.8961904"><ele>1022.0</ele><time>2026-04-05T15:56:53.146Z</time></trkpt><trkpt lat="40.7445816" lon="-3.8961228"><ele>1022.0</ele><time>2026-04-05T15:56:55.146Z</time></trkpt><trkpt lat="40.7445181" lon="-3.8960756"><ele>1022.0000000000001</ele><time>2026-04-05T15:56:57.146Z</time></trkpt><trkpt lat="40.7444454" lon="-3.8960179"><ele>1022.0</ele><time>2026-04-05T15:56:59.147Z</time></trkpt><trkpt lat="40.7443788" lon="-3.8959838"><ele>1022.0</ele><time>2026-04-05T15:57:01.146Z</time></trkpt><trkpt lat="40.7443022" lon="-3.8960052"><ele>1022.0</ele><time>2026-04-05T15:57:03.146Z</time></trkpt><trkpt lat="40.7442234" lon="-3.8960186"><ele>1022.0000000000001</ele><time>2026-04-05T15:57:06.146Z</time></trkpt><trkpt lat="40.7441281" lon="-3.8960151"><ele>1022.0</ele><time>2026-04-05T15:57:09.146Z</time></trkpt><trkpt lat="40.7440535" lon="-3.8960084"><ele>1022.8333333333334</ele><time>2026-04-05T15:57:11.146Z</time></trkpt><trkpt lat="40.7439815" lon="-3.8959958"><ele>1023.6666666666667</ele><time>2026-04-05T15:57:13.147Z</time></trkpt><trkpt lat="40.7439129" lon="-3.895985"><ele>1024.5</ele><time>2026-04-05T15:57:15.146Z</time></trkpt><trkpt lat="40.7438394" lon="-3.8959905"><ele>1025.3333333333333</ele><time>2026-04-05T15:57:17.146Z</time></trkpt><trkpt lat="40.7437721" lon="-3.8960286"><ele>1026.1666666666665</ele><time>2026-04-05T15:57:19.147Z</time></trkpt><trkpt lat="40.7436827" lon="-3.8960473"><ele>1027.0</ele><time>2026-04-05T15:57:21.146Z</time></trkpt><trkpt lat="40.7435896" lon="-3.8960532"><ele>1026.1666666666665</ele><time>2026-04-05T15:57:24.147Z</time></trkpt><trkpt lat="40.7435075" lon="-3.896076"><ele>1025.3333333333333</ele><time>2026-04-05T15:57:26.146Z</time></trkpt><trkpt lat="40.7434236" lon="-3.8960695"><ele>1024.5</ele><time>2026-04-05T15:57:29.146Z</time></trkpt><trkpt lat="40.7433493" lon="-3.8960682"><ele>1023.6666666666667</ele><time>2026-04-05T15:57:31.146Z</time></trkpt><trkpt lat="40.7432819" lon="-3.8960637"><ele>1022.8333333333334</ele><time>2026-04-05T15:57:53.146Z</time></trkpt><trkpt lat="40.7432296" lon="-3.8959808"><ele>1022.0</ele><time>2026-04-05T15:58:01.147Z</time></trkpt><trkpt lat="40.7432803" lon="-3.8959181"><ele>1022.0000000000001</ele><time>2026-04-05T15:58:05.147Z</time></trkpt><trkpt lat="40.7433124" lon="-3.8958092"><ele>1022.0</ele><time>2026-04-05T15:58:08.147Z</time></trkpt><trkpt lat="40.7433524" lon="-3.8957139"><ele>1022.0</ele><time>2026-04-05T15:58:11.146Z</time></trkpt><trkpt lat="40.7433972" lon="-3.8956239"><ele>1022.0</ele><time>2026-04-05T15:58:15.147Z</time></trkpt><trkpt lat="40.7434494" lon="-3.8955656"><ele>1022.0000000000001</ele><time>2026-04-05T15:58:18.146Z</time></trkpt><trkpt lat="40.7435192" lon="-3.8955105"><ele>1022.0</ele><time>2026-04-05T15:58:22.146Z</time></trkpt><trkpt lat="40.7435692" lon="-3.8954407"><ele>1021.1428571428571</ele><time>2026-04-05T15:58:25.146Z</time></trkpt><trkpt lat="40.7436523" lon="-3.8954218"><ele>1020.2857142857142</ele><time>2026-04-05T15:58:29.146Z</time></trkpt><trkpt lat="40.7437194" lon="-3.8953878"><ele>1019.4285714285714</ele><time>2026-04-05T15:58:32.146Z</time></trkpt><trkpt lat="40.7437834" lon="-3.8953374"><ele>1018.5714285714286</ele><time>2026-04-05T15:58:35.146Z</time></trkpt><trkpt lat="40.7438237" lon="-3.8952701"><ele>1017.7142857142857</ele><time>2026-04-05T15:58:37.146Z</time></trkpt><trkpt lat="40.7438481" lon="-3.8951778"><ele>1016.8571428571429</ele><time>2026-04-05T15:58:40.146Z</time></trkpt><trkpt lat="40.7438383" lon="-3.8950813"><ele>1016.0</ele><time>2026-04-05T15:58:43.147Z</time></trkpt><trkpt lat="40.743784" lon="-3.8950144"><ele>1014.7142857142858</ele><time>2026-04-05T15:58:46.146Z</time></trkpt><trkpt lat="40.7437484" lon="-3.8949377"><ele>1013.4285714285713</ele><time>2026-04-05T15:58:50.146Z</time></trkpt><trkpt lat="40.7436908" lon="-3.8949041"><ele>1012.1428571428571</ele><time>2026-04-05T15:58:54.146Z</time></trkpt><trkpt lat="40.7436504" lon="-3.894971"><ele>1010.8571428571429</ele><time>2026-04-05T15:59:00.147Z</time></trkpt><trkpt lat="40.7436908" lon="-3.895046"><ele>1009.5714285714287</ele><time>2026-04-05T15:59:03.146Z</time></trkpt><trkpt lat="40.7437541" lon="-3.8950546"><ele>1008.2857142857142</ele><time>2026-04-05T15:59:07.147Z</time></trkpt><trkpt lat="40.7438364" lon="-3.8950507"><ele>1007.0</ele><time>2026-04-05T15:59:14.147Z</time></trkpt><trkpt lat="40.7439113" lon="-3.8950592"><ele>1008.2857142857142</ele><time>2026-04-05T15:59:21.146Z</time></trkpt><trkpt lat="40.7439766" lon="-3.8950946"><ele>1009.5714285714287</ele><time>2026-04-05T15:59:26.146Z</time></trkpt><trkpt lat="40.7440507" lon="-3.8951185"><ele>1010.8571428571429</ele><time>2026-04-05T15:59:31.146Z</time></trkpt><trkpt lat="40.7441154" lon="-3.8951363"><ele>1012.1428571428571</ele><time>2026-04-05T15:59:36.146Z</time></trkpt><trkpt lat="40.744172" lon="-3.8951759"><ele>1013.4285714285713</ele><time>2026-04-05T15:59:40.147Z</time></trkpt><trkpt lat="40.7442471" lon="-3.895162"><ele>1014.7142857142858</ele><time>2026-04-05T15:59:44.146Z</time></trkpt><trkpt lat="40.7443123" lon="-3.8951245"><ele>1016.0</ele><time>2026-04-05T15:59:47.146Z</time></trkpt><trkpt lat="40.7443799" lon="-3.8951644"><ele>1016.0000000000001</ele><time>2026-04-05T15:59:54.146Z</time></trkpt><trkpt lat="40.7443185" lon="-3.8951915"><ele>1016.0</ele><time>2026-04-05T16:00:05.146Z</time></trkpt><trkpt lat="40.7442386" lon="-3.8951779"><ele>1016.0</ele><time>2026-04-05T16:00:09.146Z</time></trkpt><trkpt lat="40.7441538" lon="-3.8951503"><ele>1016.0</ele><time>2026-04-05T16:00:12.146Z</time></trkpt><trkpt lat="40.7440836" lon="-3.895125"><ele>1016.0000000000001</ele><time>2026-04-05T16:00:14.146Z</time></trkpt><trkpt lat="40.7440089" lon="-3.8950975"><ele>1016.0</ele><time>2026-04-05T16:00:16.146Z</time></trkpt><trkpt lat="40.7439369" lon="-3.8950741"><ele>1016.0000000000001</ele><time>2026-04-05T16:00:18.146Z</time></trkpt><trkpt lat="40.7438732" lon="-3.8950558"><ele>1016.0</ele><time>2026-04-05T16:00:20.146Z</time></trkpt><trkpt lat="40.7438022" lon="-3.8950371"><ele>1016.0</ele><time>2026-04-05T16:00:23.146Z</time></trkpt><trkpt lat="40.7437371" lon="-3.8950203"><ele>1016.0</ele><time>2026-04-05T16:00:30.146Z</time></trkpt><trkpt lat="40.7436889" lon="-3.8950784"><ele>1016.0000000000001</ele><time>2026-04-05T16:00:50.146Z</time></trkpt><trkpt lat="40.7436982" lon="-3.8951668"><ele>1016.0</ele><time>2026-04-05T16:00:54.147Z</time></trkpt><trkpt lat="40.743644" lon="-3.8952994"><ele>1016.0000000000001</ele><time>2026-04-05T16:01:01.146Z</time></trkpt><trkpt lat="40.7435868" lon="-3.8953722"><ele>1016.0</ele><time>2026-04-05T16:01:03.146Z</time></trkpt><trkpt lat="40.7435364" lon="-3.8954297"><ele>1016.0</ele><time>2026-04-05T16:01:05.147Z</time></trkpt><trkpt lat="40.7434816" lon="-3.8955127"><ele>1016.0</ele><time>2026-04-05T16:01:07.146Z</time></trkpt><trkpt lat="40.7434287" lon="-3.8955711"><ele>1016.0000000000001</ele><time>2026-04-05T16:01:09.146Z</time></trkpt><trkpt lat="40.7433663" lon="-3.8956302"><ele>1016.0</ele><time>2026-04-05T16:01:11.146Z</time></trkpt><trkpt lat="40.7432978" lon="-3.8957032"><ele>1017.0000000000001</ele><time>2026-04-05T16:01:13.146Z</time></trkpt><trkpt lat="40.7432105" lon="-3.8957503"><ele>1018.0</ele><time>2026-04-05T16:01:15.146Z</time></trkpt><trkpt lat="40.743135" lon="-3.8957701"><ele>1019.0</ele><time>2026-04-05T16:01:17.146Z</time></trkpt><trkpt lat="40.7430488" lon="-3.8957991"><ele>1020.0</ele><time>2026-04-05T16:01:19.146Z</time></trkpt><trkpt lat="40.7429913" lon="-3.8958357"><ele>1021.0000000000001</ele><time>2026-04-05T16:01:21.146Z</time></trkpt><trkpt lat="40.7429079" lon="-3.8958653"><ele>1022.0</ele><time>2026-04-05T16:01:41.146Z</time></trkpt><trkpt lat="40.7428479" lon="-3.8958929"><ele>1022.0000000000001</ele><time>2026-04-05T16:01:43.146Z</time></trkpt><trkpt lat="40.7427549" lon="-3.8958865"><ele>1022.0</ele><time>2026-04-05T16:01:46.146Z</time></trkpt><trkpt lat="40.7426805" lon="-3.8958716"><ele>1022.0</ele><time>2026-04-05T16:01:48.146Z</time></trkpt><trkpt lat="40.7426043" lon="-3.8958794"><ele>1022.0</ele><time>2026-04-05T16:01:50.147Z</time></trkpt><trkpt lat="40.7425185" lon="-3.8959209"><ele>1022.0000000000001</ele><time>2026-04-05T16:01:52.146Z</time></trkpt><trkpt lat="40.742424" lon="-3.8959539"><ele>1022.0</ele><time>2026-04-05T16:01:55.146Z</time></trkpt><trkpt lat="40.7423301" lon="-3.8959878"><ele>1024.3333333333335</ele><time>2026-04-05T16:01:58.147Z</time></trkpt><trkpt lat="40.7422564" lon="-3.8960127"><ele>1026.6666666666667</ele><time>2026-04-05T16:02:00.146Z</time></trkpt><trkpt lat="40.7423584" lon="-3.8959535"><ele>1029.0</ele><time>2026-04-05T16:02:32.202Z</time></trkpt><trkpt lat="40.7424308" lon="-3.8959846"><ele>1031.3333333333333</ele><time>2026-04-05T16:02:37.218Z</time></trkpt><trkpt lat="40.7423624" lon="-3.8960562"><ele>1033.6666666666665</ele><time>2026-04-05T16:02:52.146Z</time></trkpt><trkpt lat="40.7423056" lon="-3.8961197"><ele>1036.0</ele><time>2026-04-05T16:02:56.146Z</time></trkpt><trkpt lat="40.7422257" lon="-3.8961278"><ele>1036.0</ele><time>2026-04-05T16:02:59.146Z</time></trkpt><trkpt lat="40.7421553" lon="-3.8961302"><ele>1036.0</ele><time>2026-04-05T16:03:02.146Z</time></trkpt><trkpt lat="40.7420913" lon="-3.8961277"><ele>1036.0</ele><time>2026-04-05T16:03:06.147Z</time></trkpt><trkpt lat="40.7420167" lon="-3.8961038"><ele>1036.0</ele><time>2026-04-05T16:03:18.146Z</time></trkpt><trkpt lat="40.7419288" lon="-3.8960963"><ele>1036.0</ele><time>2026-04-05T16:03:20.146Z</time></trkpt><trkpt lat="40.7418497" lon="-3.8960916"><ele>1036.0</ele><time>2026-04-05T16:03:22.146Z</time></trkpt><trkpt lat="40.7417523" lon="-3.8961069"><ele>1036.0</ele><time>2026-04-05T16:03:24.146Z</time></trkpt><trkpt lat="40.741674" lon="-3.8961291"><ele>1036.0</ele><time>2026-04-05T16:03:26.146Z</time></trkpt><trkpt lat="40.7415808" lon="-3.8961231"><ele>1036.0</ele><time>2026-04-05T16:03:28.146Z</time></trkpt><trkpt lat="40.7414848" lon="-3.8960847"><ele>1036.0</ele><time>2026-04-05T16:03:30.146Z</time></trkpt><trkpt lat="40.741437" lon="-3.8959547"><ele>1036.0</ele><time>2026-04-05T16:03:32.146Z</time></trkpt><trkpt lat="40.7414799" lon="-3.8958387"><ele>1036.0</ele><time>2026-04-05T16:03:34.146Z</time></trkpt><trkpt lat="40.7415321" lon="-3.8957167"><ele>1036.0</ele><time>2026-04-05T16:03:36.146Z</time></trkpt><trkpt lat="40.7415982" lon="-3.8955924"><ele>1036.0</ele><time>2026-04-05T16:03:38.147Z</time></trkpt><trkpt lat="40.741669" lon="-3.8955072"><ele>1036.0</ele><time>2026-04-05T16:03:40.147Z</time></trkpt><trkpt lat="40.7417499" lon="-3.8954232"><ele>1036.0</ele><time>2026-04-05T16:03:42.147Z</time></trkpt><trkpt lat="40.7418213" lon="-3.8953634"><ele>1036.0</ele><time>2026-04-05T16:03:44.147Z</time></trkpt><trkpt lat="40.7418253" lon="-3.8952359"><ele>1036.0</ele><time>2026-04-05T16:03:47.146Z</time></trkpt><trkpt lat="40.7417315" lon="-3.8951729"><ele>1036.0</ele><time>2026-04-05T16:03:49.147Z</time></trkpt><trkpt lat="40.741638" lon="-3.8952286"><ele>1036.0</ele><time>2026-04-05T16:03:51.147Z</time></trkpt><trkpt lat="40.7415787" lon="-3.8952843"><ele>1036.0</ele><time>2026-04-05T16:03:52.146Z</time></trkpt><trkpt lat="40.7415136" lon="-3.8953383"><ele>1036.0</ele><time>2026-04-05T16:03:53.146Z</time></trkpt><trkpt lat="40.7414431" lon="-3.8953734"><ele>1036.0</ele><time>2026-04-05T16:03:54.146Z</time></trkpt><trkpt lat="40.7413761" lon="-3.8954006"><ele>1036.0</ele><time>2026-04-05T16:03:55.147Z</time></trkpt><trkpt lat="40.7413045" lon="-3.8954316"><ele>1036.0</ele><time>2026-04-05T16:03:56.147Z</time></trkpt><trkpt lat="40.7412344" lon="-3.8954703"><ele>1036.0</ele><time>2026-04-05T16:03:57.146Z</time></trkpt><trkpt lat="40.7411565" lon="-3.895493"><ele>1036.0</ele><time>2026-04-05T16:03:58.147Z</time></trkpt><trkpt lat="40.7410825" lon="-3.8955323"><ele>1038.5</ele><time>2026-04-05T16:03:59.146Z</time></trkpt><trkpt lat="40.7410135" lon="-3.8955793"><ele>1041.0</ele><time>2026-04-05T16:04:00.147Z</time></trkpt><trkpt lat="40.7409688" lon="-3.8956452"><ele>1043.5</ele><time>2026-04-05T16:04:01.146Z</time></trkpt><trkpt lat="40.7408867" lon="-3.8957898"><ele>1046.0</ele><time>2026-04-05T16:04:03.146Z</time></trkpt><trkpt lat="40.7408571" lon="-3.8958746"><ele>1048.5</ele><time>2026-04-05T16:04:04.147Z</time></trkpt><trkpt lat="40.7408262" lon="-3.8959618"><ele>1051.0</ele><time>2026-04-05T16:04:05.146Z</time></trkpt><trkpt lat="40.7407957" lon="-3.8961027"><ele>1051.0</ele><time>2026-04-05T16:04:07.146Z</time></trkpt><trkpt lat="40.7408153" lon="-3.8962571"><ele>1051.0</ele><time>2026-04-05T16:04:09.146Z</time></trkpt><trkpt lat="40.7408504" lon="-3.8963386"><ele>1051.0</ele><time>2026-04-05T16:04:10.146Z</time></trkpt><trkpt lat="40.7408908" lon="-3.8964239"><ele>1051.0</ele><time>2026-04-05T16:04:11.147Z</time></trkpt><trkpt lat="40.7409245" lon="-3.8965218"><ele>1051.0</ele><time>2026-04-05T16:04:12.146Z</time></trkpt><trkpt lat="40.7409486" lon="-3.8966165"><ele>1051.0</ele><time>2026-04-05T16:04:13.146Z</time></trkpt><trkpt lat="40.7409631" lon="-3.8966988"><ele>1051.2</ele><time>2026-04-05T16:04:14.146Z</time></trkpt><trkpt lat="40.7410054" lon="-3.896848"><ele>1051.3999999999999</ele><time>2026-04-05T16:04:16.147Z</time></trkpt><trkpt lat="40.741054" lon="-3.8969823"><ele>1051.6</ele><time>2026-04-05T16:04:18.146Z</time></trkpt><trkpt lat="40.7410773" lon="-3.8970949"><ele>1051.8</ele><time>2026-04-05T16:04:20.146Z</time></trkpt><trkpt lat="40.7410716" lon="-3.8971805"><ele>1052.0</ele><time>2026-04-05T16:04:23.146Z</time></trkpt><trkpt lat="40.7409836" lon="-3.8971835"><ele>1054.8</ele><time>2026-04-05T16:04:41.145Z</time></trkpt><trkpt lat="40.7409087" lon="-3.8972037"><ele>1057.6</ele><time>2026-04-05T16:06:33.145Z</time></trkpt><trkpt lat="40.7408586" lon="-3.8971183"><ele>1060.3999999999999</ele><time>2026-04-05T16:06:35.145Z</time></trkpt><trkpt lat="40.7408125" lon="-3.8970034"><ele>1063.2</ele><time>2026-04-05T16:06:37.146Z</time></trkpt><trkpt lat="40.7407505" lon="-3.8969085"><ele>1066.0</ele><time>2026-04-05T16:06:39.146Z</time></trkpt><trkpt lat="40.7406736" lon="-3.8968135"><ele>1063.5</ele><time>2026-04-05T16:06:41.146Z</time></trkpt><trkpt lat="40.740588" lon="-3.89673"><ele>1061.0</ele><time>2026-04-05T16:06:43.145Z</time></trkpt><trkpt lat="40.7404802" lon="-3.8966489"><ele>1058.5</ele><time>2026-04-05T16:06:45.145Z</time></trkpt><trkpt lat="40.7404215" lon="-3.8966076"><ele>1056.0</ele><time>2026-04-05T16:06:46.145Z</time></trkpt><trkpt lat="40.7403562" lon="-3.8965833"><ele>1053.5</ele><time>2026-04-05T16:06:47.145Z</time></trkpt><trkpt lat="40.7402881" lon="-3.8965623"><ele>1051.0</ele><time>2026-04-05T16:06:48.146Z</time></trkpt><trkpt lat="40.7402223" lon="-3.8965534"><ele>1053.0</ele><time>2026-04-05T16:06:49.145Z</time></trkpt><trkpt lat="40.740155" lon="-3.8965481"><ele>1055.0</ele><time>2026-04-05T16:06:50.146Z</time></trkpt><trkpt lat="40.7400874" lon="-3.8965314"><ele>1057.0</ele><time>2026-04-05T16:06:51.146Z</time></trkpt><trkpt lat="40.7400204" lon="-3.8965037"><ele>1059.0</ele><time>2026-04-05T16:06:52.145Z</time></trkpt><trkpt lat="40.7399537" lon="-3.8964706"><ele>1061.0</ele><time>2026-04-05T16:06:53.145Z</time></trkpt><trkpt lat="40.7398851" lon="-3.8964263"><ele>1063.0</ele><time>2026-04-05T16:06:54.145Z</time></trkpt><trkpt lat="40.7398225" lon="-3.8963822"><ele>1065.0</ele><time>2026-04-05T16:06:55.145Z</time></trkpt><trkpt lat="40.7397665" lon="-3.8963387"><ele>1065.0</ele><time>2026-04-05T16:06:56.145Z</time></trkpt><trkpt lat="40.7396714" lon="-3.8962556"><ele>1065.0</ele><time>2026-04-05T16:06:58.146Z</time></trkpt><trkpt lat="40.7396233" lon="-3.8961534"><ele>1065.0</ele><time>2026-04-05T16:07:00.146Z</time></trkpt><trkpt lat="40.7396245" lon="-3.8960556"><ele>1065.0</ele><time>2026-04-05T16:07:02.145Z</time></trkpt><trkpt lat="40.7396706" lon="-3.895936"><ele>1065.0</ele><time>2026-04-05T16:07:04.145Z</time></trkpt><trkpt lat="40.7397245" lon="-3.8958617"><ele>1065.0</ele><time>2026-04-05T16:07:05.145Z</time></trkpt><trkpt lat="40.7397727" lon="-3.8957886"><ele>1065.0</ele><time>2026-04-05T16:07:06.145Z</time></trkpt><trkpt lat="40.7398335" lon="-3.8957096"><ele>1065.0</ele><time>2026-04-05T16:07:07.145Z</time></trkpt><trkpt lat="40.7398859" lon="-3.8956369"><ele>1065.0</ele><time>2026-04-05T16:07:08.145Z</time></trkpt><trkpt lat="40.7399376" lon="-3.8955826"><ele>1065.0</ele><time>2026-04-05T16:07:09.145Z</time></trkpt><trkpt lat="40.74" lon="-3.8955392"><ele>1065.0</ele><time>2026-04-05T16:07:10.145Z</time></trkpt><trkpt lat="40.7400654" lon="-3.8954917"><ele>1065.0</ele><time>2026-04-05T16:07:11.145Z</time></trkpt><trkpt lat="40.7401535" lon="-3.8953939"><ele>1065.0</ele><time>2026-04-05T16:07:13.145Z</time></trkpt><trkpt lat="40.7401416" lon="-3.8952692"><ele>1065.0</ele><time>2026-04-05T16:07:15.145Z</time></trkpt><trkpt lat="40.7400793" lon="-3.8952378"><ele>1065.0</ele><time>2026-04-05T16:07:16.145Z</time></trkpt><trkpt lat="40.7399865" lon="-3.8953535"><ele>1065.0</ele><time>2026-04-05T16:07:18.145Z</time></trkpt><trkpt lat="40.7399318" lon="-3.8954353"><ele>1065.0</ele><time>2026-04-05T16:07:19.145Z</time></trkpt><trkpt lat="40.7398768" lon="-3.8955006"><ele>1065.0</ele><time>2026-04-05T16:07:20.146Z</time></trkpt><trkpt lat="40.7398115" lon="-3.8955477"><ele>1065.0</ele><time>2026-04-05T16:07:21.146Z</time></trkpt><trkpt lat="40.7397393" lon="-3.8955929"><ele>1065.0</ele><time>2026-04-05T16:07:22.145Z</time></trkpt><trkpt lat="40.7396708" lon="-3.8956332"><ele>1065.0</ele><time>2026-04-05T16:07:23.145Z</time></trkpt><trkpt lat="40.7395978" lon="-3.8956753"><ele>1065.0</ele><time>2026-04-05T16:07:24.145Z</time></trkpt><trkpt lat="40.739533" lon="-3.8957174"><ele>1065.0</ele><time>2026-04-05T16:07:25.146Z</time></trkpt><trkpt lat="40.739464" lon="-3.895772"><ele>1065.0</ele><time>2026-04-05T16:07:26.145Z</time></trkpt><trkpt lat="40.7393975" lon="-3.8958275"><ele>1066.6666666666667</ele><time>2026-04-05T16:07:27.145Z</time></trkpt><trkpt lat="40.7393253" lon="-3.8958697"><ele>1068.3333333333333</ele><time>2026-04-05T16:07:28.145Z</time></trkpt><trkpt lat="40.7392628" lon="-3.8959091"><ele>1070.0</ele><time>2026-04-05T16:07:29.145Z</time></trkpt><trkpt lat="40.7391966" lon="-3.8959567"><ele>1071.6666666666665</ele><time>2026-04-05T16:07:30.145Z</time></trkpt><trkpt lat="40.739143" lon="-3.8960042"><ele>1073.3333333333333</ele><time>2026-04-05T16:07:31.146Z</time></trkpt><trkpt lat="40.7390462" lon="-3.8961112"><ele>1075.0</ele><time>2026-04-05T16:07:33.145Z</time></trkpt><trkpt lat="40.7389879" lon="-3.8961928"><ele>1075.0</ele><time>2026-04-05T16:07:34.145Z</time></trkpt><trkpt lat="40.7389297" lon="-3.8962823"><ele>1075.0</ele><time>2026-04-05T16:07:35.145Z</time></trkpt><trkpt lat="40.7388775" lon="-3.8963643"><ele>1075.0</ele><time>2026-04-05T16:07:36.145Z</time></trkpt><trkpt lat="40.7388216" lon="-3.8964342"><ele>1075.0</ele><time>2026-04-05T16:07:37.145Z</time></trkpt><trkpt lat="40.7387597" lon="-3.8965057"><ele>1075.0</ele><time>2026-04-05T16:07:38.145Z</time></trkpt><trkpt lat="40.7387053" lon="-3.8965741"><ele>1075.0</ele><time>2026-04-05T16:07:39.145Z</time></trkpt><trkpt lat="40.7386532" lon="-3.8966285"><ele>1075.0</ele><time>2026-04-05T16:07:40.145Z</time></trkpt><trkpt lat="40.7385965" lon="-3.8966759"><ele>1075.0</ele><time>2026-04-05T16:07:41.146Z</time></trkpt><trkpt lat="40.7385392" lon="-3.8967319"><ele>1075.0</ele><time>2026-04-05T16:07:42.145Z</time></trkpt><trkpt lat="40.7384796" lon="-3.8967923"><ele>1075.0</ele><time>2026-04-05T16:07:43.145Z</time></trkpt><trkpt lat="40.738424" lon="-3.8968612"><ele>1075.0</ele><time>2026-04-05T16:07:44.146Z</time></trkpt><trkpt lat="40.7383624" lon="-3.8969299"><ele>1075.0</ele><time>2026-04-05T16:07:45.145Z</time></trkpt><trkpt lat="40.7382982" lon="-3.8969925"><ele>1077.6666666666665</ele><time>2026-04-05T16:07:46.146Z</time></trkpt><trkpt lat="40.7382332" lon="-3.8970682"><ele>1080.3333333333333</ele><time>2026-04-05T16:07:47.145Z</time></trkpt><trkpt lat="40.7381702" lon="-3.897143"><ele>1083.0</ele><time>2026-04-05T16:07:48.145Z</time></trkpt><trkpt lat="40.738106" lon="-3.8972144"><ele>1085.6666666666667</ele><time>2026-04-05T16:07:49.145Z</time></trkpt><trkpt lat="40.7380485" lon="-3.8972699"><ele>1088.3333333333335</ele><time>2026-04-05T16:07:50.145Z</time></trkpt><trkpt lat="40.7379962" lon="-3.897327"><ele>1091.0</ele><time>2026-04-05T16:07:51.145Z</time></trkpt><trkpt lat="40.7379335" lon="-3.8973833"><ele>1091.0</ele><time>2026-04-05T16:07:52.146Z</time></trkpt><trkpt lat="40.7378718" lon="-3.8974457"><ele>1091.0</ele><time>2026-04-05T16:07:53.145Z</time></trkpt><trkpt lat="40.7378111" lon="-3.897497"><ele>1091.0</ele><time>2026-04-05T16:07:54.145Z</time></trkpt><trkpt lat="40.7377438" lon="-3.8975571"><ele>1091.0</ele><time>2026-04-05T16:07:55.145Z</time></trkpt><trkpt lat="40.7376771" lon="-3.8976166"><ele>1091.0</ele><time>2026-04-05T16:07:56.145Z</time></trkpt><trkpt lat="40.7376136" lon="-3.8976778"><ele>1091.0</ele><time>2026-04-05T16:07:57.145Z</time></trkpt><trkpt lat="40.7375513" lon="-3.8977343"><ele>1090.4285714285713</ele><time>2026-04-05T16:07:58.145Z</time></trkpt><trkpt lat="40.7374924" lon="-3.8977891"><ele>1089.857142857143</ele><time>2026-04-05T16:07:59.145Z</time></trkpt><trkpt lat="40.7374353" lon="-3.8978441"><ele>1089.2857142857142</ele><time>2026-04-05T16:08:00.146Z</time></trkpt><trkpt lat="40.7373766" lon="-3.8978985"><ele>1088.7142857142858</ele><time>2026-04-05T16:08:01.145Z</time></trkpt><trkpt lat="40.737315" lon="-3.8979524"><ele>1088.142857142857</ele><time>2026-04-05T16:08:02.146Z</time></trkpt><trkpt lat="40.7372538" lon="-3.8980058"><ele>1087.5714285714284</ele><time>2026-04-05T16:08:03.145Z</time></trkpt><trkpt lat="40.7371935" lon="-3.8980591"><ele>1087.0</ele><time>2026-04-05T16:08:04.146Z</time></trkpt><trkpt lat="40.7371304" lon="-3.8981096"><ele>1087.0</ele><time>2026-04-05T16:08:05.145Z</time></trkpt><trkpt lat="40.7370739" lon="-3.8981637"><ele>1087.0</ele><time>2026-04-05T16:08:06.146Z</time></trkpt><trkpt lat="40.7370123" lon="-3.8982141"><ele>1087.0</ele><time>2026-04-05T16:08:07.145Z</time></trkpt><trkpt lat="40.7369609" lon="-3.898265"><ele>1087.0</ele><time>2026-04-05T16:08:08.145Z</time></trkpt><trkpt lat="40.7369065" lon="-3.8983186"><ele>1087.0</ele><time>2026-04-05T16:08:09.145Z</time></trkpt><trkpt lat="40.7368071" lon="-3.8983947"><ele>1087.0</ele><time>2026-04-05T16:08:11.146Z</time></trkpt><trkpt lat="40.7367324" lon="-3.8983828"><ele>1082.6</ele><time>2026-04-05T16:08:13.146Z</time></trkpt><trkpt lat="40.7367207" lon="-3.8982989"><ele>1078.2</ele><time>2026-04-05T16:08:14.145Z</time></trkpt><trkpt lat="40.7367278" lon="-3.898214"><ele>1073.8</ele><time>2026-04-05T16:08:15.145Z</time></trkpt><trkpt lat="40.736823" lon="-3.8980582"><ele>1069.4</ele><time>2026-04-05T16:08:17.145Z</time></trkpt><trkpt lat="40.7368625" lon="-3.8979501"><ele>1065.0</ele><time>2026-04-05T16:08:18.146Z</time></trkpt><trkpt lat="40.7368652" lon="-3.8978218"><ele>1065.0</ele><time>2026-04-05T16:08:19.145Z</time></trkpt><trkpt lat="40.7368371" lon="-3.8976954"><ele>1065.0</ele><time>2026-04-05T16:08:20.145Z</time></trkpt><trkpt lat="40.7367845" lon="-3.8975773"><ele>1065.0</ele><time>2026-04-05T16:08:21.145Z</time></trkpt><trkpt lat="40.7367133" lon="-3.8974624"><ele>1065.0</ele><time>2026-04-05T16:08:22.146Z</time></trkpt><trkpt lat="40.7366321" lon="-3.8973727"><ele>1065.0</ele><time>2026-04-05T16:08:23.145Z</time></trkpt><trkpt lat="40.7365381" lon="-3.8973139"><ele>1064.8333333333333</ele><time>2026-04-05T16:08:24.145Z</time></trkpt><trkpt lat="40.7364429" lon="-3.8972731"><ele>1064.6666666666667</ele><time>2026-04-05T16:08:25.145Z</time></trkpt><trkpt lat="40.7363549" lon="-3.8972386"><ele>1064.5</ele><time>2026-04-05T16:08:26.146Z</time></trkpt><trkpt lat="40.7362722" lon="-3.8972132"><ele>1064.3333333333335</ele><time>2026-04-05T16:08:27.146Z</time></trkpt><trkpt lat="40.7362024" lon="-3.8971985"><ele>1064.1666666666667</ele><time>2026-04-05T16:08:28.146Z</time></trkpt><trkpt lat="40.7361291" lon="-3.8971859"><ele>1064.0</ele><time>2026-04-05T16:08:29.146Z</time></trkpt><trkpt lat="40.7360587" lon="-3.8971682"><ele>1061.142857142857</ele><time>2026-04-05T16:08:30.145Z</time></trkpt><trkpt lat="40.7359868" lon="-3.8971438"><ele>1058.2857142857142</ele><time>2026-04-05T16:08:31.145Z</time></trkpt><trkpt lat="40.7359172" lon="-3.8971176"><ele>1055.4285714285716</ele><time>2026-04-05T16:08:32.145Z</time></trkpt><trkpt lat="40.735847" lon="-3.8970938"><ele>1052.5714285714284</ele><time>2026-04-05T16:08:33.145Z</time></trkpt><trkpt lat="40.7357799" lon="-3.8970751"><ele>1049.7142857142858</ele><time>2026-04-05T16:08:34.146Z</time></trkpt><trkpt lat="40.7357116" lon="-3.8970509"><ele>1046.857142857143</ele><time>2026-04-05T16:08:35.145Z</time></trkpt><trkpt lat="40.7356411" lon="-3.8970223"><ele>1044.0</ele><time>2026-04-05T16:08:36.145Z</time></trkpt><trkpt lat="40.735574" lon="-3.8969948"><ele>1044.0</ele><time>2026-04-05T16:08:37.145Z</time></trkpt><trkpt lat="40.7355015" lon="-3.8969596"><ele>1044.0</ele><time>2026-04-05T16:08:38.145Z</time></trkpt><trkpt lat="40.7354307" lon="-3.8969132"><ele>1044.0</ele><time>2026-04-05T16:08:39.145Z</time></trkpt><trkpt lat="40.7353647" lon="-3.8968698"><ele>1044.0</ele><time>2026-04-05T16:08:40.145Z</time></trkpt><trkpt lat="40.7352895" lon="-3.8968262"><ele>1044.0</ele><time>2026-04-05T16:08:41.145Z</time></trkpt><trkpt lat="40.7352025" lon="-3.8967855"><ele>1044.0</ele><time>2026-04-05T16:08:42.145Z</time></trkpt><trkpt lat="40.7351029" lon="-3.896755"><ele>1046.0</ele><time>2026-04-05T16:08:43.145Z</time></trkpt><trkpt lat="40.7349946" lon="-3.8967387"><ele>1048.0</ele><time>2026-04-05T16:08:44.145Z</time></trkpt><trkpt lat="40.7348944" lon="-3.896738"><ele>1050.0</ele><time>2026-04-05T16:08:45.145Z</time></trkpt><trkpt lat="40.7347972" lon="-3.8967513"><ele>1052.0</ele><time>2026-04-05T16:08:46.146Z</time></trkpt><trkpt lat="40.7346979" lon="-3.8967644"><ele>1054.0</ele><time>2026-04-05T16:08:47.146Z</time></trkpt><trkpt lat="40.7345976" lon="-3.8967721"><ele>1048.8</ele><time>2026-04-05T16:08:48.145Z</time></trkpt><trkpt lat="40.7344981" lon="-3.8967795"><ele>1043.6000000000001</ele><time>2026-04-05T16:08:49.145Z</time></trkpt><trkpt lat="40.7343954" lon="-3.8967847"><ele>1038.4</ele><time>2026-04-05T16:08:50.146Z</time></trkpt><trkpt lat="40.7342916" lon="-3.8967913"><ele>1033.2</ele><time>2026-04-05T16:08:51.146Z</time></trkpt><trkpt lat="40.7341921" lon="-3.8968072"><ele>1028.0</ele><time>2026-04-05T16:08:52.145Z</time></trkpt><trkpt lat="40.7340799" lon="-3.8968397"><ele>1028.0</ele><time>2026-04-05T16:08:53.146Z</time></trkpt><trkpt lat="40.7339725" lon="-3.8969086"><ele>1028.0</ele><time>2026-04-05T16:08:54.145Z</time></trkpt><trkpt lat="40.7338812" lon="-3.8969887"><ele>1028.0</ele><time>2026-04-05T16:08:55.145Z</time></trkpt><trkpt lat="40.7338054" lon="-3.8970951"><ele>1028.0</ele><time>2026-04-05T16:08:56.146Z</time></trkpt><trkpt lat="40.7337275" lon="-3.8972054"><ele>1028.0</ele><time>2026-04-05T16:08:57.145Z</time></trkpt><trkpt lat="40.7336519" lon="-3.8973076"><ele>1028.0</ele><time>2026-04-05T16:08:58.145Z</time></trkpt><trkpt lat="40.7335644" lon="-3.8974046"><ele>1028.0</ele><time>2026-04-05T16:08:59.145Z</time></trkpt><trkpt lat="40.7334843" lon="-3.8974933"><ele>1028.0</ele><time>2026-04-05T16:09:00.145Z</time></trkpt><trkpt lat="40.7334043" lon="-3.8975867"><ele>1028.0</ele><time>2026-04-05T16:09:01.145Z</time></trkpt><trkpt lat="40.733322" lon="-3.8976731"><ele>1024.4</ele><time>2026-04-05T16:09:02.145Z</time></trkpt><trkpt lat="40.733224" lon="-3.8977562"><ele>1020.8</ele><time>2026-04-05T16:09:03.145Z</time></trkpt><trkpt lat="40.7331276" lon="-3.8978298"><ele>1017.2</ele><time>2026-04-05T16:09:04.145Z</time></trkpt><trkpt lat="40.7330333" lon="-3.897888"><ele>1013.6</ele><time>2026-04-05T16:09:05.146Z</time></trkpt><trkpt lat="40.7329432" lon="-3.8979327"><ele>1010.0</ele><time>2026-04-05T16:09:06.145Z</time></trkpt><trkpt lat="40.7328518" lon="-3.8979668"><ele>1010.0000000000001</ele><time>2026-04-05T16:09:07.145Z</time></trkpt><trkpt lat="40.7327635" lon="-3.8979916"><ele>1010.0</ele><time>2026-04-05T16:09:08.145Z</time></trkpt><trkpt lat="40.7326754" lon="-3.8980129"><ele>1010.0</ele><time>2026-04-05T16:09:09.145Z</time></trkpt><trkpt lat="40.7325862" lon="-3.898033"><ele>1010.0</ele><time>2026-04-05T16:09:10.145Z</time></trkpt><trkpt lat="40.732501" lon="-3.8980455"><ele>1010.0000000000001</ele><time>2026-04-05T16:09:11.145Z</time></trkpt><trkpt lat="40.7324172" lon="-3.8980413"><ele>1010.0</ele><time>2026-04-05T16:09:12.146Z</time></trkpt><trkpt lat="40.7323289" lon="-3.8979945"><ele>1009.0</ele><time>2026-04-05T16:09:13.145Z</time></trkpt><trkpt lat="40.7322507" lon="-3.8979234"><ele>1008.0</ele><time>2026-04-05T16:09:14.146Z</time></trkpt><trkpt lat="40.7321716" lon="-3.8978429"><ele>1007.0</ele><time>2026-04-05T16:09:15.145Z</time></trkpt><trkpt lat="40.7320978" lon="-3.897753"><ele>1006.0</ele><time>2026-04-05T16:09:16.145Z</time></trkpt><trkpt lat="40.7320268" lon="-3.8976611"><ele>1005.0</ele><time>2026-04-05T16:09:17.145Z</time></trkpt><trkpt lat="40.7319715" lon="-3.8975645"><ele>1005.0</ele><time>2026-04-05T16:09:18.146Z</time></trkpt><trkpt lat="40.7319226" lon="-3.8974701"><ele>1005.0</ele><time>2026-04-05T16:09:19.145Z</time></trkpt><trkpt lat="40.7318797" lon="-3.8973675"><ele>1005.0</ele><time>2026-04-05T16:09:20.145Z</time></trkpt><trkpt lat="40.7318516" lon="-3.8972569"><ele>1005.0</ele><time>2026-04-05T16:09:21.145Z</time></trkpt><trkpt lat="40.7318295" lon="-3.8971442"><ele>1005.0</ele><time>2026-04-05T16:09:22.146Z</time></trkpt><trkpt lat="40.7318155" lon="-3.8970303"><ele>1005.0</ele><time>2026-04-05T16:09:23.145Z</time></trkpt><trkpt lat="40.7318159" lon="-3.89692"><ele>1005.0</ele><time>2026-04-05T16:09:24.145Z</time></trkpt><trkpt lat="40.7318239" lon="-3.8968317"><ele>1005.0</ele><time>2026-04-05T16:09:25.145Z</time></trkpt><trkpt lat="40.7317668" lon="-3.8967148"><ele>1005.0</ele><time>2026-04-05T16:09:27.145Z</time></trkpt><trkpt lat="40.7316896" lon="-3.896781"><ele>1005.0</ele><time>2026-04-05T16:09:29.145Z</time></trkpt><trkpt lat="40.7316668" lon="-3.8969402"><ele>1005.0</ele><time>2026-04-05T16:09:31.146Z</time></trkpt><trkpt lat="40.731655" lon="-3.8970277"><ele>1005.0</ele><time>2026-04-05T16:09:32.145Z</time></trkpt><trkpt lat="40.7316393" lon="-3.8971087"><ele>1005.0</ele><time>2026-04-05T16:09:33.146Z</time></trkpt><trkpt lat="40.7316158" lon="-3.89719"><ele>1005.0</ele><time>2026-04-05T16:09:34.145Z</time></trkpt><trkpt lat="40.731594" lon="-3.8972728"><ele>1005.0</ele><time>2026-04-05T16:09:35.145Z</time></trkpt><trkpt lat="40.7315747" lon="-3.897353"><ele>1005.0</ele><time>2026-04-05T16:09:36.145Z</time></trkpt><trkpt lat="40.7315203" lon="-3.8974683"><ele>1005.0</ele><time>2026-04-05T16:09:38.145Z</time></trkpt><trkpt lat="40.7314458" lon="-3.8975544"><ele>1003.8333333333334</ele><time>2026-04-05T16:09:40.145Z</time></trkpt><trkpt lat="40.7313729" lon="-3.8976221"><ele>1002.6666666666667</ele><time>2026-04-05T16:09:42.145Z</time></trkpt><trkpt lat="40.7313052" lon="-3.8976638"><ele>1001.5</ele><time>2026-04-05T16:09:44.145Z</time></trkpt><trkpt lat="40.7312317" lon="-3.8977257"><ele>1000.3333333333334</ele><time>2026-04-05T16:09:47.145Z</time></trkpt><trkpt lat="40.7311722" lon="-3.8977749"><ele>999.1666666666667</ele><time>2026-04-05T16:09:49.146Z</time></trkpt><trkpt lat="40.7310949" lon="-3.8977768"><ele>998.0</ele><time>2026-04-05T16:09:51.146Z</time></trkpt><trkpt lat="40.7310332" lon="-3.8977555"><ele>996.8</ele><time>2026-04-05T16:09:53.145Z</time></trkpt><trkpt lat="40.7309551" lon="-3.8977573"><ele>995.5999999999999</ele><time>2026-04-05T16:09:55.145Z</time></trkpt><trkpt lat="40.7308535" lon="-3.89777"><ele>994.4000000000001</ele><time>2026-04-05T16:09:57.145Z</time></trkpt><trkpt lat="40.7307627" lon="-3.897801"><ele>993.2</ele><time>2026-04-05T16:09:59.145Z</time></trkpt><trkpt lat="40.7306718" lon="-3.8978499"><ele>992.0</ele><time>2026-04-05T16:10:01.146Z</time></trkpt><trkpt lat="40.7305635" lon="-3.8979259"><ele>992.0000000000001</ele><time>2026-04-05T16:10:03.145Z</time></trkpt><trkpt lat="40.7304721" lon="-3.8979823"><ele>992.0</ele><time>2026-04-05T16:10:05.145Z</time></trkpt><trkpt lat="40.7303609" lon="-3.8980087"><ele>992.0</ele><time>2026-04-05T16:10:07.145Z</time></trkpt><trkpt lat="40.7302767" lon="-3.8979969"><ele>992.0</ele><time>2026-04-05T16:10:09.145Z</time></trkpt><trkpt lat="40.7301992" lon="-3.8979504"><ele>992.0000000000001</ele><time>2026-04-05T16:10:12.146Z</time></trkpt><trkpt lat="40.7301369" lon="-3.8979633"><ele>992.0</ele><time>2026-04-05T16:10:15.145Z</time></trkpt><trkpt lat="40.7300504" lon="-3.8979194"><ele>991.6666666666667</ele><time>2026-04-05T16:10:18.145Z</time></trkpt><trkpt lat="40.7299914" lon="-3.8978881"><ele>991.3333333333334</ele><time>2026-04-05T16:10:20.145Z</time></trkpt><trkpt lat="40.7299287" lon="-3.8978567"><ele>991.0</ele><time>2026-04-05T16:10:22.145Z</time></trkpt><trkpt lat="40.7298426" lon="-3.8978421"><ele>990.6666666666667</ele><time>2026-04-05T16:10:25.145Z</time></trkpt><trkpt lat="40.7297663" lon="-3.8978047"><ele>990.3333333333334</ele><time>2026-04-05T16:10:28.146Z</time></trkpt><trkpt lat="40.7296764" lon="-3.8977906"><ele>990.0</ele><time>2026-04-05T16:10:31.145Z</time></trkpt><trkpt lat="40.7296028" lon="-3.8977641"><ele>989.9999999999999</ele><time>2026-04-05T16:10:33.145Z</time></trkpt><trkpt lat="40.7295373" lon="-3.8977536"><ele>990.0</ele><time>2026-04-05T16:10:35.145Z</time></trkpt><trkpt lat="40.7294568" lon="-3.8977254"><ele>989.9999999999999</ele><time>2026-04-05T16:10:37.145Z</time></trkpt><trkpt lat="40.7293945" lon="-3.8976856"><ele>989.9999999999999</ele><time>2026-04-05T16:10:39.145Z</time></trkpt><trkpt lat="40.7293304" lon="-3.897646"><ele>990.0</ele><time>2026-04-05T16:10:41.145Z</time></trkpt><trkpt lat="40.7292544" lon="-3.8976048"><ele>989.9999999999999</ele><time>2026-04-05T16:10:43.145Z</time></trkpt><trkpt lat="40.7291853" lon="-3.8975738"><ele>989.9999999999999</ele><time>2026-04-05T16:10:45.145Z</time></trkpt><trkpt lat="40.7291402" lon="-3.8975061"><ele>991.1666666666666</ele><time>2026-04-05T16:10:47.145Z</time></trkpt><trkpt lat="40.7290646" lon="-3.8974258"><ele>992.3333333333333</ele><time>2026-04-05T16:10:49.146Z</time></trkpt><trkpt lat="40.7289981" lon="-3.8973575"><ele>993.5</ele><time>2026-04-05T16:10:51.146Z</time></trkpt><trkpt lat="40.72895" lon="-3.8973007"><ele>994.6666666666666</ele><time>2026-04-05T16:10:53.145Z</time></trkpt><trkpt lat="40.7288794" lon="-3.8972153"><ele>995.8333333333333</ele><time>2026-04-05T16:10:56.145Z</time></trkpt><trkpt lat="40.7288254" lon="-3.8971613"><ele>997.0</ele><time>2026-04-05T16:10:58.146Z</time></trkpt><trkpt lat="40.7287538" lon="-3.8971204"><ele>996.9999999999999</ele><time>2026-04-05T16:11:01.146Z</time></trkpt><trkpt lat="40.7286672" lon="-3.8970652"><ele>997.0</ele><time>2026-04-05T16:11:04.145Z</time></trkpt><trkpt lat="40.7286283" lon="-3.8969858"><ele>997.0</ele><time>2026-04-05T16:11:06.146Z</time></trkpt><trkpt lat="40.7285826" lon="-3.8969031"><ele>997.0</ele><time>2026-04-05T16:11:08.146Z</time></trkpt><trkpt lat="40.7285626" lon="-3.8968216"><ele>996.9999999999999</ele><time>2026-04-05T16:11:10.145Z</time></trkpt><trkpt lat="40.7285194" lon="-3.8967397"><ele>997.0</ele><time>2026-04-05T16:11:12.145Z</time></trkpt><trkpt lat="40.7284774" lon="-3.8966739"><ele>997.9999999999999</ele><time>2026-04-05T16:11:14.145Z</time></trkpt><trkpt lat="40.7284816" lon="-3.8965524"><ele>999.0</ele><time>2026-04-05T16:11:17.145Z</time></trkpt><trkpt lat="40.7284798" lon="-3.8964447"><ele>1000.0</ele><time>2026-04-05T16:11:19.145Z</time></trkpt><trkpt lat="40.7284658" lon="-3.896339"><ele>1001.0</ele><time>2026-04-05T16:11:22.145Z</time></trkpt><trkpt lat="40.728395" lon="-3.8962629"><ele>1001.9999999999999</ele><time>2026-04-05T16:11:25.146Z</time></trkpt><trkpt lat="40.728356" lon="-3.8961961"><ele>1003.0</ele><time>2026-04-05T16:11:27.146Z</time></trkpt><trkpt lat="40.7283044" lon="-3.8961071"><ele>1003.0</ele><time>2026-04-05T16:11:30.145Z</time></trkpt><trkpt lat="40.7282621" lon="-3.8960371"><ele>1002.9999999999999</ele><time>2026-04-05T16:11:32.145Z</time></trkpt><trkpt lat="40.7281997" lon="-3.8959814"><ele>1003.0</ele><time>2026-04-05T16:11:35.146Z</time></trkpt><trkpt lat="40.728145" lon="-3.8959249"><ele>1003.0</ele><time>2026-04-05T16:11:38.145Z</time></trkpt><trkpt lat="40.7281027" lon="-3.895842"><ele>1002.9999999999999</ele><time>2026-04-05T16:11:42.146Z</time></trkpt><trkpt lat="40.7280443" lon="-3.895799"><ele>1003.0</ele><time>2026-04-05T16:11:46.145Z</time></trkpt><trkpt lat="40.7279825" lon="-3.8957712"><ele>1003.0</ele><time>2026-04-05T16:11:52.145Z</time></trkpt><trkpt lat="40.7279235" lon="-3.8957183"><ele>1002.9999999999999</ele><time>2026-04-05T16:11:56.145Z</time></trkpt><trkpt lat="40.7278475" lon="-3.8956808"><ele>1003.0</ele><time>2026-04-05T16:11:59.145Z</time></trkpt><trkpt lat="40.7277606" lon="-3.8956558"><ele>1003.0</ele><time>2026-04-05T16:12:02.145Z</time></trkpt><trkpt lat="40.7276853" lon="-3.8956602"><ele>1003.0</ele><time>2026-04-05T16:12:04.146Z</time></trkpt><trkpt lat="40.7276066" lon="-3.8956325"><ele>1002.9999999999999</ele><time>2026-04-05T16:12:06.145Z</time></trkpt><trkpt lat="40.7275367" lon="-3.8955942"><ele>1003.0</ele><time>2026-04-05T16:12:08.145Z</time></trkpt><trkpt lat="40.7274588" lon="-3.8955328"><ele>1002.4999999999999</ele><time>2026-04-05T16:12:10.145Z</time></trkpt><trkpt lat="40.727393" lon="-3.8955432"><ele>1002.0</ele><time>2026-04-05T16:12:12.146Z</time></trkpt><trkpt lat="40.7273146" lon="-3.8955895"><ele>1001.5</ele><time>2026-04-05T16:12:14.145Z</time></trkpt><trkpt lat="40.7272489" lon="-3.8956198"><ele>1001.0</ele><time>2026-04-05T16:12:16.145Z</time></trkpt><trkpt lat="40.7271717" lon="-3.8955688"><ele>1000.4999999999999</ele><time>2026-04-05T16:12:19.145Z</time></trkpt><trkpt lat="40.7271096" lon="-3.8955358"><ele>1000.0</ele><time>2026-04-05T16:12:21.145Z</time></trkpt><trkpt lat="40.7270331" lon="-3.8955151"><ele>999.9999999999999</ele><time>2026-04-05T16:12:23.146Z</time></trkpt><trkpt lat="40.7269712" lon="-3.895421"><ele>1000.0</ele><time>2026-04-05T16:12:25.145Z</time></trkpt><trkpt lat="40.7269102" lon="-3.895331"><ele>1000.0</ele><time>2026-04-05T16:12:27.146Z</time></trkpt><trkpt lat="40.7268553" lon="-3.8952612"><ele>1000.0</ele><time>2026-04-05T16:12:29.145Z</time></trkpt><trkpt lat="40.7267916" lon="-3.895221"><ele>999.9999999999999</ele><time>2026-04-05T16:12:31.145Z</time></trkpt><trkpt lat="40.7267362" lon="-3.8951732"><ele>1000.0</ele><time>2026-04-05T16:12:33.145Z</time></trkpt><trkpt lat="40.7266733" lon="-3.8951077"><ele>998.9999999999999</ele><time>2026-04-05T16:12:36.145Z</time></trkpt><trkpt lat="40.7266197" lon="-3.895014"><ele>998.0</ele><time>2026-04-05T16:12:39.145Z</time></trkpt><trkpt lat="40.726559" lon="-3.8949422"><ele>997.0</ele><time>2026-04-05T16:12:42.145Z</time></trkpt><trkpt lat="40.7264783" lon="-3.894884"><ele>996.0</ele><time>2026-04-05T16:12:45.145Z</time></trkpt><trkpt lat="40.7264018" lon="-3.8948246"><ele>994.9999999999999</ele><time>2026-04-05T16:12:48.145Z</time></trkpt><trkpt lat="40.7263092" lon="-3.894806"><ele>994.0</ele><time>2026-04-05T16:12:51.145Z</time></trkpt><trkpt lat="40.7262494" lon="-3.8947495"><ele>993.9999999999999</ele><time>2026-04-05T16:12:53.145Z</time></trkpt><trkpt lat="40.7261987" lon="-3.8946977"><ele>994.0</ele><time>2026-04-05T16:12:55.145Z</time></trkpt><trkpt lat="40.7261476" lon="-3.8946248"><ele>994.0</ele><time>2026-04-05T16:12:59.145Z</time></trkpt><trkpt lat="40.726097" lon="-3.8945632"><ele>994.0</ele><time>2026-04-05T16:13:02.146Z</time></trkpt><trkpt lat="40.7260689" lon="-3.8944707"><ele>993.9999999999999</ele><time>2026-04-05T16:13:05.146Z</time></trkpt><trkpt lat="40.7259857" lon="-3.8943247"><ele>994.0</ele><time>2026-04-05T16:13:16.145Z</time></trkpt><trkpt lat="40.7259454" lon="-3.8942422"><ele>993.1666666666666</ele><time>2026-04-05T16:13:20.145Z</time></trkpt><trkpt lat="40.7259832" lon="-3.894165"><ele>992.3333333333333</ele><time>2026-04-05T16:13:23.146Z</time></trkpt><trkpt lat="40.7260266" lon="-3.8940768"><ele>991.5</ele><time>2026-04-05T16:13:26.145Z</time></trkpt><trkpt lat="40.7260586" lon="-3.8939892"><ele>990.6666666666667</ele><time>2026-04-05T16:13:28.146Z</time></trkpt><trkpt lat="40.7260904" lon="-3.8938806"><ele>989.8333333333334</ele><time>2026-04-05T16:13:30.146Z</time></trkpt><trkpt lat="40.7261185" lon="-3.8937707"><ele>989.0</ele><time>2026-04-05T16:13:32.146Z</time></trkpt><trkpt lat="40.7261484" lon="-3.8936764"><ele>989.0000000000001</ele><time>2026-04-05T16:13:34.145Z</time></trkpt><trkpt lat="40.7260843" lon="-3.8936094"><ele>989.0</ele><time>2026-04-05T16:13:37.146Z</time></trkpt><trkpt lat="40.7260298" lon="-3.893504"><ele>989.0</ele><time>2026-04-05T16:13:40.145Z</time></trkpt><trkpt lat="40.7260152" lon="-3.8934156"><ele>989.0</ele><time>2026-04-05T16:13:42.145Z</time></trkpt><trkpt lat="40.7260023" lon="-3.8933276"><ele>989.0000000000001</ele><time>2026-04-05T16:13:44.145Z</time></trkpt><trkpt lat="40.7259891" lon="-3.8932428"><ele>989.0</ele><time>2026-04-05T16:13:46.145Z</time></trkpt><trkpt lat="40.7259822" lon="-3.8931357"><ele>987.5714285714286</ele><time>2026-04-05T16:13:49.146Z</time></trkpt><trkpt lat="40.7259973" lon="-3.89303"><ele>986.1428571428571</ele><time>2026-04-05T16:13:52.146Z</time></trkpt><trkpt lat="40.7260128" lon="-3.8929431"><ele>984.7142857142857</ele><time>2026-04-05T16:13:54.145Z</time></trkpt><trkpt lat="40.7260193" lon="-3.8928547"><ele>983.2857142857142</ele><time>2026-04-05T16:13:56.145Z</time></trkpt><trkpt lat="40.7260335" lon="-3.8927592"><ele>981.8571428571429</ele><time>2026-04-05T16:13:58.145Z</time></trkpt><trkpt lat="40.7260505" lon="-3.8926729"><ele>980.4285714285713</ele><time>2026-04-05T16:14:00.145Z</time></trkpt><trkpt lat="40.726093" lon="-3.8925781"><ele>979.0</ele><time>2026-04-05T16:14:03.146Z</time></trkpt><trkpt lat="40.7261379" lon="-3.8924827"><ele>975.3333333333333</ele><time>2026-04-05T16:14:06.145Z</time></trkpt><trkpt lat="40.7261739" lon="-3.8923711"><ele>971.6666666666666</ele><time>2026-04-05T16:14:23.145Z</time></trkpt><trkpt lat="40.7262096" lon="-3.8922827"><ele>968.0</ele><time>2026-04-05T16:14:28.146Z</time></trkpt><trkpt lat="40.7262232" lon="-3.8921838"><ele>964.3333333333333</ele><time>2026-04-05T16:14:32.145Z</time></trkpt><trkpt lat="40.7262144" lon="-3.8920388"><ele>960.6666666666666</ele><time>2026-04-05T16:16:08.145Z</time></trkpt><trkpt lat="40.7262439" lon="-3.8919629"><ele>957.0</ele><time>2026-04-05T16:16:12.145Z</time></trkpt><trkpt lat="40.7262358" lon="-3.8918689"><ele>957.0</ele><time>2026-04-05T16:16:17.145Z</time></trkpt><trkpt lat="40.7262585" lon="-3.8917798"><ele>957.0</ele><time>2026-04-05T16:16:33.145Z</time></trkpt><trkpt lat="40.7263162" lon="-3.8917355"><ele>957.0</ele><time>2026-04-05T16:16:42.145Z</time></trkpt><trkpt lat="40.7263033" lon="-3.8916516"><ele>957.0</ele><time>2026-04-05T16:17:05.145Z</time></trkpt><trkpt lat="40.7263555" lon="-3.8915977"><ele>957.0</ele><time>2026-04-05T16:17:21.177Z</time></trkpt><trkpt lat="40.7264699" lon="-3.8916262"><ele>957.0</ele><time>2026-04-05T16:17:24.146Z</time></trkpt><trkpt lat="40.726543" lon="-3.8916442"><ele>955.7142857142858</ele><time>2026-04-05T16:17:28.145Z</time></trkpt><trkpt lat="40.7266176" lon="-3.8916481"><ele>954.4285714285716</ele><time>2026-04-05T16:17:32.146Z</time></trkpt><trkpt lat="40.7266996" lon="-3.8916305"><ele>953.1428571428571</ele><time>2026-04-05T16:17:35.145Z</time></trkpt><trkpt lat="40.7267747" lon="-3.8916129"><ele>951.8571428571429</ele><time>2026-04-05T16:17:39.145Z</time></trkpt><trkpt lat="40.7268346" lon="-3.89157"><ele>950.5714285714286</ele><time>2026-04-05T16:17:43.145Z</time></trkpt><trkpt lat="40.7269015" lon="-3.8915471"><ele>949.2857142857142</ele><time>2026-04-05T16:17:53.145Z</time></trkpt><trkpt lat="40.7269705" lon="-3.8915175"><ele>947.9999999999999</ele><time>2026-04-05T16:17:59.146Z</time></trkpt><trkpt lat="40.7269789" lon="-3.8914218"><ele>948.0</ele><time>2026-04-05T16:18:09.145Z</time></trkpt><trkpt lat="40.7269579" lon="-3.891328"><ele>948.0</ele><time>2026-04-05T16:18:14.145Z</time></trkpt><trkpt lat="40.7269328" lon="-3.8912485"><ele>948.0</ele><time>2026-04-05T16:18:18.145Z</time></trkpt><trkpt lat="40.7269276" lon="-3.8911655"><ele>948.0</ele><time>2026-04-05T16:18:22.145Z</time></trkpt><trkpt lat="40.7268821" lon="-3.8909983"><ele>948.0</ele><time>2026-04-05T16:18:25.146Z</time></trkpt><trkpt lat="40.7268102" lon="-3.8908024"><ele>946.75</ele><time>2026-04-05T16:18:26.145Z</time></trkpt><trkpt lat="40.7267067" lon="-3.8905482"><ele>945.5</ele><time>2026-04-05T16:18:27.145Z</time></trkpt><trkpt lat="40.7266516" lon="-3.8904629"><ele>944.25</ele><time>2026-04-05T16:18:28.145Z</time></trkpt><trkpt lat="40.7265982" lon="-3.890377"><ele>943.0</ele><time>2026-04-05T16:18:29.145Z</time></trkpt><trkpt lat="40.7265361" lon="-3.8902838"><ele>943.0</ele><time>2026-04-05T16:18:30.145Z</time></trkpt><trkpt lat="40.7264707" lon="-3.8901931"><ele>943.0</ele><time>2026-04-05T16:18:31.145Z</time></trkpt><trkpt lat="40.726405" lon="-3.8900923"><ele>943.0</ele><time>2026-04-05T16:18:32.146Z</time></trkpt><trkpt lat="40.7263385" lon="-3.8899943"><ele>943.0</ele><time>2026-04-05T16:18:33.145Z</time></trkpt><trkpt lat="40.7262744" lon="-3.8898962"><ele>943.0</ele><time>2026-04-05T16:18:34.145Z</time></trkpt><trkpt lat="40.7262125" lon="-3.8898004"><ele>941.5999999999999</ele><time>2026-04-05T16:18:35.145Z</time></trkpt><trkpt lat="40.7261466" lon="-3.8897099"><ele>940.1999999999999</ele><time>2026-04-05T16:18:36.145Z</time></trkpt><trkpt lat="40.7260862" lon="-3.8896093"><ele>938.8</ele><time>2026-04-05T16:18:37.145Z</time></trkpt><trkpt lat="40.7260231" lon="-3.8895074"><ele>937.4</ele><time>2026-04-05T16:18:38.145Z</time></trkpt><trkpt lat="40.7259602" lon="-3.8894034"><ele>936.0</ele><time>2026-04-05T16:18:39.145Z</time></trkpt><trkpt lat="40.7258975" lon="-3.8893036"><ele>935.0</ele><time>2026-04-05T16:18:40.145Z</time></trkpt><trkpt lat="40.7258325" lon="-3.8892035"><ele>933.9999999999999</ele><time>2026-04-05T16:18:41.145Z</time></trkpt><trkpt lat="40.7257661" lon="-3.8891053"><ele>932.9999999999999</ele><time>2026-04-05T16:18:42.145Z</time></trkpt><trkpt lat="40.7256977" lon="-3.8890087"><ele>932.0</ele><time>2026-04-05T16:18:43.145Z</time></trkpt><trkpt lat="40.7256328" lon="-3.8889167"><ele>931.0</ele><time>2026-04-05T16:18:44.145Z</time></trkpt><trkpt lat="40.7255681" lon="-3.888822"><ele>930.9999999999999</ele><time>2026-04-05T16:18:45.145Z</time></trkpt><trkpt lat="40.725505" lon="-3.888729"><ele>931.0</ele><time>2026-04-05T16:18:46.146Z</time></trkpt><trkpt lat="40.7254516" lon="-3.88864"><ele>931.0</ele><time>2026-04-05T16:18:47.145Z</time></trkpt><trkpt lat="40.7254062" lon="-3.8885531"><ele>931.0</ele><time>2026-04-05T16:18:48.145Z</time></trkpt><trkpt lat="40.7253637" lon="-3.888477"><ele>930.9999999999999</ele><time>2026-04-05T16:18:49.146Z</time></trkpt><trkpt lat="40.7253289" lon="-3.8883977"><ele>931.0</ele><time>2026-04-05T16:18:50.145Z</time></trkpt><trkpt lat="40.725296" lon="-3.8883221"><ele>931.1999999999999</ele><time>2026-04-05T16:18:51.145Z</time></trkpt><trkpt lat="40.7252479" lon="-3.8881728"><ele>931.3999999999999</ele><time>2026-04-05T16:18:53.145Z</time></trkpt><trkpt lat="40.7252002" lon="-3.8880252"><ele>931.6</ele><time>2026-04-05T16:18:55.145Z</time></trkpt><trkpt lat="40.725169" lon="-3.8879094"><ele>931.8</ele><time>2026-04-05T16:18:57.145Z</time></trkpt><trkpt lat="40.7251257" lon="-3.887839"><ele>932.0</ele><time>2026-04-05T16:19:00.145Z</time></trkpt><trkpt lat="40.7250457" lon="-3.887735"><ele>931.1666666666667</ele><time>2026-04-05T16:20:20.145Z</time></trkpt><trkpt lat="40.7249754" lon="-3.8877125"><ele>930.3333333333334</ele><time>2026-04-05T16:20:22.145Z</time></trkpt><trkpt lat="40.7249007" lon="-3.8877507"><ele>929.5</ele><time>2026-04-05T16:20:24.145Z</time></trkpt><trkpt lat="40.7248609" lon="-3.8878605"><ele>928.6666666666667</ele><time>2026-04-05T16:20:26.145Z</time></trkpt><trkpt lat="40.7248083" lon="-3.8879249"><ele>927.8333333333334</ele><time>2026-04-05T16:20:28.145Z</time></trkpt><trkpt lat="40.7247339" lon="-3.8880176"><ele>927.0</ele><time>2026-04-05T16:20:30.145Z</time></trkpt><trkpt lat="40.7246746" lon="-3.8881133"><ele>927.0</ele><time>2026-04-05T16:20:32.145Z</time></trkpt><trkpt lat="40.7246321" lon="-3.8882107"><ele>927.0</ele><time>2026-04-05T16:20:34.145Z</time></trkpt><trkpt lat="40.7245964" lon="-3.8883091"><ele>927.0</ele><time>2026-04-05T16:20:36.145Z</time></trkpt><trkpt lat="40.7245459" lon="-3.8884101"><ele>927.0</ele><time>2026-04-05T16:20:38.145Z</time></trkpt><trkpt lat="40.7244778" lon="-3.8885279"><ele>927.0</ele><time>2026-04-05T16:20:40.145Z</time></trkpt><trkpt lat="40.7244272" lon="-3.8886437"><ele>927.6666666666666</ele><time>2026-04-05T16:20:42.145Z</time></trkpt><trkpt lat="40.7243761" lon="-3.8887548"><ele>928.3333333333333</ele><time>2026-04-05T16:20:44.145Z</time></trkpt><trkpt lat="40.7243366" lon="-3.8888499"><ele>929.0</ele><time>2026-04-05T16:20:46.145Z</time></trkpt><trkpt lat="40.7242946" lon="-3.8889466"><ele>929.6666666666666</ele><time>2026-04-05T16:20:48.145Z</time></trkpt><trkpt lat="40.7242562" lon="-3.8890271"><ele>930.3333333333333</ele><time>2026-04-05T16:20:50.145Z</time></trkpt><trkpt lat="40.724227" lon="-3.8891018"><ele>931.0</ele><time>2026-04-05T16:20:53.146Z</time></trkpt><trkpt lat="40.7242602" lon="-3.8890234"><ele>931.0</ele><time>2026-04-05T16:21:43.146Z</time></trkpt><trkpt lat="40.7242347" lon="-3.8891214"><ele>930.9999999999999</ele><time>2026-04-05T16:23:00.145Z</time></trkpt><trkpt lat="40.7241783" lon="-3.889248"><ele>930.9999999999999</ele><time>2026-04-05T16:23:02.146Z</time></trkpt><trkpt lat="40.7241343" lon="-3.8893585"><ele>931.0</ele><time>2026-04-05T16:23:04.145Z</time></trkpt><trkpt lat="40.7240956" lon="-3.8894609"><ele>931.0</ele><time>2026-04-05T16:23:06.145Z</time></trkpt><trkpt lat="40.7240544" lon="-3.8895782"><ele>933.0</ele><time>2026-04-05T16:23:08.146Z</time></trkpt><trkpt lat="40.7240149" lon="-3.8897051"><ele>934.9999999999999</ele><time>2026-04-05T16:23:10.145Z</time></trkpt><trkpt lat="40.7239807" lon="-3.8898308"><ele>936.9999999999999</ele><time>2026-04-05T16:23:12.145Z</time></trkpt><trkpt lat="40.7239532" lon="-3.8899697"><ele>939.0</ele><time>2026-04-05T16:23:14.145Z</time></trkpt><trkpt lat="40.723938" lon="-3.8901164"><ele>941.0</ele><time>2026-04-05T16:23:16.145Z</time></trkpt><trkpt lat="40.7239216" lon="-3.8902935"><ele>941.4</ele><time>2026-04-05T16:23:18.146Z</time></trkpt><trkpt lat="40.7239252" lon="-3.8904171"><ele>941.8</ele><time>2026-04-05T16:23:19.145Z</time></trkpt><trkpt lat="40.7239278" lon="-3.8905472"><ele>942.1999999999999</ele><time>2026-04-05T16:23:20.145Z</time></trkpt><trkpt lat="40.7239388" lon="-3.8906787"><ele>942.5999999999999</ele><time>2026-04-05T16:23:21.145Z</time></trkpt><trkpt lat="40.7239529" lon="-3.8908217"><ele>943.0</ele><time>2026-04-05T16:23:22.145Z</time></trkpt><trkpt lat="40.7239659" lon="-3.8909562"><ele>943.4999999999999</ele><time>2026-04-05T16:23:23.145Z</time></trkpt><trkpt lat="40.7239752" lon="-3.8910851"><ele>944.0</ele><time>2026-04-05T16:23:24.145Z</time></trkpt><trkpt lat="40.7239694" lon="-3.8911985"><ele>944.5</ele><time>2026-04-05T16:23:25.145Z</time></trkpt><trkpt lat="40.7239574" lon="-3.8913016"><ele>945.0</ele><time>2026-04-05T16:23:26.145Z</time></trkpt><trkpt lat="40.7239465" lon="-3.891399"><ele>945.4999999999999</ele><time>2026-04-05T16:23:27.145Z</time></trkpt><trkpt lat="40.7239356" lon="-3.8914898"><ele>946.0</ele><time>2026-04-05T16:23:28.145Z</time></trkpt><trkpt lat="40.7239234" lon="-3.8915824"><ele>946.0</ele><time>2026-04-05T16:23:29.145Z</time></trkpt><trkpt lat="40.723912" lon="-3.8916712"><ele>946.0</ele><time>2026-04-05T16:23:30.146Z</time></trkpt><trkpt lat="40.723896" lon="-3.8917624"><ele>946.0</ele><time>2026-04-05T16:23:31.146Z</time></trkpt><trkpt lat="40.7238759" lon="-3.8918509"><ele>946.0</ele><time>2026-04-05T16:23:32.146Z</time></trkpt><trkpt lat="40.7238545" lon="-3.8919424"><ele>946.0</ele><time>2026-04-05T16:23:33.145Z</time></trkpt><trkpt lat="40.7238349" lon="-3.8920338"><ele>946.0</ele><time>2026-04-05T16:23:34.146Z</time></trkpt><trkpt lat="40.7238115" lon="-3.8921254"><ele>946.0</ele><time>2026-04-05T16:23:35.146Z</time></trkpt><trkpt lat="40.7237949" lon="-3.8922116"><ele>947.0</ele><time>2026-04-05T16:23:36.145Z</time></trkpt><trkpt lat="40.723764" lon="-3.8923545"><ele>947.9999999999999</ele><time>2026-04-05T16:23:38.145Z</time></trkpt><trkpt lat="40.7237369" lon="-3.8924927"><ele>948.9999999999999</ele><time>2026-04-05T16:23:40.145Z</time></trkpt><trkpt lat="40.723708" lon="-3.8926125"><ele>950.0</ele><time>2026-04-05T16:23:42.145Z</time></trkpt><trkpt lat="40.7236802" lon="-3.8927222"><ele>951.0</ele><time>2026-04-05T16:23:44.145Z</time></trkpt><trkpt lat="40.72365" lon="-3.8928184"><ele>951.4</ele><time>2026-04-05T16:23:46.145Z</time></trkpt><trkpt lat="40.723619" lon="-3.8929501"><ele>951.8</ele><time>2026-04-05T16:23:48.145Z</time></trkpt><trkpt lat="40.7235862" lon="-3.8930967"><ele>952.1999999999999</ele><time>2026-04-05T16:23:50.146Z</time></trkpt><trkpt lat="40.7235732" lon="-3.8932261"><ele>952.5999999999999</ele><time>2026-04-05T16:23:52.145Z</time></trkpt><trkpt lat="40.7235647" lon="-3.8933479"><ele>953.0</ele><time>2026-04-05T16:23:54.146Z</time></trkpt><trkpt lat="40.723562" lon="-3.8934736"><ele>953.0</ele><time>2026-04-05T16:23:56.145Z</time></trkpt><trkpt lat="40.7235444" lon="-3.8936032"><ele>953.0</ele><time>2026-04-05T16:23:58.145Z</time></trkpt><trkpt lat="40.7235398" lon="-3.8937417"><ele>953.0</ele><time>2026-04-05T16:24:00.145Z</time></trkpt><trkpt lat="40.7235388" lon="-3.8938893"><ele>953.0</ele><time>2026-04-05T16:24:02.146Z</time></trkpt><trkpt lat="40.7235388" lon="-3.893977"><ele>953.0</ele><time>2026-04-05T16:24:03.145Z</time></trkpt><trkpt lat="40.7235258" lon="-3.8941281"><ele>952.8333333333334</ele><time>2026-04-05T16:24:05.145Z</time></trkpt><trkpt lat="40.7235031" lon="-3.8942817"><ele>952.6666666666667</ele><time>2026-04-05T16:24:07.145Z</time></trkpt><trkpt lat="40.7234888" lon="-3.8943785"><ele>952.5</ele><time>2026-04-05T16:24:08.145Z</time></trkpt><trkpt lat="40.7234738" lon="-3.8944817"><ele>952.3333333333333</ele><time>2026-04-05T16:24:09.145Z</time></trkpt><trkpt lat="40.7234607" lon="-3.8945867"><ele>952.1666666666666</ele><time>2026-04-05T16:24:10.145Z</time></trkpt><trkpt lat="40.723451" lon="-3.8947086"><ele>952.0</ele><time>2026-04-05T16:24:11.146Z</time></trkpt><trkpt lat="40.7234406" lon="-3.8948238"><ele>951.9999999999999</ele><time>2026-04-05T16:24:12.145Z</time></trkpt><trkpt lat="40.7234305" lon="-3.89494"><ele>952.0</ele><time>2026-04-05T16:24:13.145Z</time></trkpt><trkpt lat="40.72343" lon="-3.8950417"><ele>952.0</ele><time>2026-04-05T16:24:14.145Z</time></trkpt><trkpt lat="40.7234262" lon="-3.8951442"><ele>952.0</ele><time>2026-04-05T16:24:15.146Z</time></trkpt><trkpt lat="40.7234206" lon="-3.8952462"><ele>951.9999999999999</ele><time>2026-04-05T16:24:16.145Z</time></trkpt><trkpt lat="40.7234194" lon="-3.8953444"><ele>952.0</ele><time>2026-04-05T16:24:17.145Z</time></trkpt><trkpt lat="40.7234141" lon="-3.8954343"><ele>951.8333333333333</ele><time>2026-04-05T16:24:18.145Z</time></trkpt><trkpt lat="40.7234068" lon="-3.8955239"><ele>951.6666666666666</ele><time>2026-04-05T16:24:19.145Z</time></trkpt><trkpt lat="40.7233891" lon="-3.8956726"><ele>951.5</ele><time>2026-04-05T16:24:21.145Z</time></trkpt><trkpt lat="40.7233788" lon="-3.8958187"><ele>951.3333333333333</ele><time>2026-04-05T16:24:23.145Z</time></trkpt><trkpt lat="40.7233775" lon="-3.8959042"><ele>951.1666666666666</ele><time>2026-04-05T16:24:24.145Z</time></trkpt><trkpt lat="40.7233752" lon="-3.8959914"><ele>951.0</ele><time>2026-04-05T16:24:25.145Z</time></trkpt><trkpt lat="40.723373" lon="-3.8960834"><ele>950.3333333333334</ele><time>2026-04-05T16:24:26.146Z</time></trkpt><trkpt lat="40.7233699" lon="-3.8961798"><ele>949.6666666666667</ele><time>2026-04-05T16:24:27.145Z</time></trkpt><trkpt lat="40.7233669" lon="-3.8962837"><ele>949.0</ele><time>2026-04-05T16:24:28.145Z</time></trkpt><trkpt lat="40.7233635" lon="-3.8963935"><ele>948.3333333333334</ele><time>2026-04-05T16:24:29.145Z</time></trkpt><trkpt lat="40.7233618" lon="-3.8965037"><ele>947.6666666666667</ele><time>2026-04-05T16:24:30.145Z</time></trkpt><trkpt lat="40.72336" lon="-3.8966132"><ele>947.0</ele><time>2026-04-05T16:24:31.145Z</time></trkpt><trkpt lat="40.7233539" lon="-3.896733"><ele>947.0000000000001</ele><time>2026-04-05T16:24:32.146Z</time></trkpt><trkpt lat="40.7233516" lon="-3.8968514"><ele>947.0</ele><time>2026-04-05T16:24:33.145Z</time></trkpt><trkpt lat="40.7233474" lon="-3.8969681"><ele>947.0</ele><time>2026-04-05T16:24:34.145Z</time></trkpt><trkpt lat="40.723341" lon="-3.8970734"><ele>947.0</ele><time>2026-04-05T16:24:35.145Z</time></trkpt><trkpt lat="40.723336" lon="-3.8971768"><ele>947.0000000000001</ele><time>2026-04-05T16:24:36.145Z</time></trkpt><trkpt lat="40.7233316" lon="-3.8972764"><ele>947.0</ele><time>2026-04-05T16:24:37.145Z</time></trkpt><trkpt lat="40.7233267" lon="-3.8973802"><ele>947.0000000000001</ele><time>2026-04-05T16:24:38.145Z</time></trkpt><trkpt lat="40.7233281" lon="-3.8974841"><ele>947.0</ele><time>2026-04-05T16:24:39.145Z</time></trkpt><trkpt lat="40.7233271" lon="-3.8976009"><ele>947.0</ele><time>2026-04-05T16:24:40.145Z</time></trkpt><trkpt lat="40.7233383" lon="-3.8977162"><ele>947.0</ele><time>2026-04-05T16:24:41.145Z</time></trkpt><trkpt lat="40.7233609" lon="-3.8978223"><ele>947.0000000000001</ele><time>2026-04-05T16:24:42.146Z</time></trkpt><trkpt lat="40.7233823" lon="-3.8979237"><ele>947.0</ele><time>2026-04-05T16:24:43.145Z</time></trkpt><trkpt lat="40.7233965" lon="-3.8980213"><ele>945.6</ele><time>2026-04-05T16:24:44.145Z</time></trkpt><trkpt lat="40.7234188" lon="-3.8981135"><ele>944.2</ele><time>2026-04-05T16:24:45.145Z</time></trkpt><trkpt lat="40.7234389" lon="-3.8981965"><ele>942.8</ele><time>2026-04-05T16:24:46.145Z</time></trkpt><trkpt lat="40.723457" lon="-3.8983543"><ele>941.4</ele><time>2026-04-05T16:24:48.146Z</time></trkpt><trkpt lat="40.7234493" lon="-3.8985089"><ele>940.0</ele><time>2026-04-05T16:24:50.145Z</time></trkpt><trkpt lat="40.723395" lon="-3.8986385"><ele>939.8</ele><time>2026-04-05T16:24:52.145Z</time></trkpt><trkpt lat="40.723291" lon="-3.8986879"><ele>939.6</ele><time>2026-04-05T16:24:54.145Z</time></trkpt><trkpt lat="40.7231723" lon="-3.8986372"><ele>939.4000000000001</ele><time>2026-04-05T16:24:56.146Z</time></trkpt><trkpt lat="40.7231007" lon="-3.8986056"><ele>939.2</ele><time>2026-04-05T16:24:57.145Z</time></trkpt><trkpt lat="40.7230208" lon="-3.898584"><ele>939.0</ele><time>2026-04-05T16:24:58.145Z</time></trkpt><trkpt lat="40.7229526" lon="-3.8985667"><ele>939.0</ele><time>2026-04-05T16:24:59.145Z</time></trkpt><trkpt lat="40.7228892" lon="-3.8985577"><ele>939.0000000000001</ele><time>2026-04-05T16:25:00.145Z</time></trkpt><trkpt lat="40.7227775" lon="-3.898538"><ele>939.0000000000001</ele><time>2026-04-05T16:25:02.145Z</time></trkpt><trkpt lat="40.7226742" lon="-3.8985091"><ele>939.0</ele><time>2026-04-05T16:25:04.145Z</time></trkpt><trkpt lat="40.7225952" lon="-3.8984384"><ele>939.0</ele><time>2026-04-05T16:25:06.145Z</time></trkpt><trkpt lat="40.7225255" lon="-3.8983755"><ele>939.0</ele><time>2026-04-05T16:25:08.145Z</time></trkpt><trkpt lat="40.7224357" lon="-3.8983256"><ele>939.0000000000001</ele><time>2026-04-05T16:25:10.145Z</time></trkpt><trkpt lat="40.7223326" lon="-3.8982556"><ele>939.0000000000001</ele><time>2026-04-05T16:25:12.145Z</time></trkpt><trkpt lat="40.7222482" lon="-3.8982025"><ele>939.0</ele><time>2026-04-05T16:25:14.146Z</time></trkpt><trkpt lat="40.7221583" lon="-3.8981759"><ele>939.0</ele><time>2026-04-05T16:25:16.146Z</time></trkpt><trkpt lat="40.7220491" lon="-3.8981681"><ele>939.0</ele><time>2026-04-05T16:25:18.145Z</time></trkpt><trkpt lat="40.7219246" lon="-3.8981657"><ele>939.0</ele><time>2026-04-05T16:25:20.145Z</time></trkpt><trkpt lat="40.7218571" lon="-3.898166"><ele>939.0</ele><time>2026-04-05T16:25:21.145Z</time></trkpt><trkpt lat="40.721789" lon="-3.8981601"><ele>939.0</ele><time>2026-04-05T16:25:22.145Z</time></trkpt><trkpt lat="40.721716" lon="-3.8981559"><ele>939.0</ele><time>2026-04-05T16:25:23.145Z</time></trkpt><trkpt lat="40.721639" lon="-3.8981517"><ele>939.0</ele><time>2026-04-05T16:25:24.145Z</time></trkpt><trkpt lat="40.7215564" lon="-3.898139"><ele>938.0</ele><time>2026-04-05T16:25:25.145Z</time></trkpt><trkpt lat="40.7214726" lon="-3.8981229"><ele>937.0</ele><time>2026-04-05T16:25:26.145Z</time></trkpt><trkpt lat="40.7213938" lon="-3.8980999"><ele>936.0</ele><time>2026-04-05T16:25:27.145Z</time></trkpt><trkpt lat="40.7213156" lon="-3.8980808"><ele>935.0</ele><time>2026-04-05T16:25:28.146Z</time></trkpt><trkpt lat="40.7212407" lon="-3.8980627"><ele>934.0</ele><time>2026-04-05T16:25:29.145Z</time></trkpt><trkpt lat="40.7211669" lon="-3.8980499"><ele>933.0</ele><time>2026-04-05T16:25:30.145Z</time></trkpt><trkpt lat="40.7210938" lon="-3.898039"><ele>932.5</ele><time>2026-04-05T16:25:31.145Z</time></trkpt><trkpt lat="40.7210217" lon="-3.8980244"><ele>932.0</ele><time>2026-04-05T16:25:32.145Z</time></trkpt><trkpt lat="40.7209464" lon="-3.8980094"><ele>931.5</ele><time>2026-04-05T16:25:33.145Z</time></trkpt><trkpt lat="40.720871" lon="-3.8979811"><ele>931.0</ele><time>2026-04-05T16:25:34.145Z</time></trkpt><trkpt lat="40.7207963" lon="-3.8979526"><ele>930.5</ele><time>2026-04-05T16:25:35.145Z</time></trkpt><trkpt lat="40.7207209" lon="-3.8979174"><ele>930.0</ele><time>2026-04-05T16:25:36.145Z</time></trkpt><trkpt lat="40.7206447" lon="-3.8978677"><ele>930.0</ele><time>2026-04-05T16:25:37.145Z</time></trkpt><trkpt lat="40.7205731" lon="-3.8978265"><ele>930.0</ele><time>2026-04-05T16:25:38.146Z</time></trkpt><trkpt lat="40.7205017" lon="-3.897797"><ele>930.0</ele><time>2026-04-05T16:25:39.146Z</time></trkpt><trkpt lat="40.7204328" lon="-3.8977749"><ele>930.0</ele><time>2026-04-05T16:25:40.145Z</time></trkpt><trkpt lat="40.7203688" lon="-3.8977679"><ele>930.0</ele><time>2026-04-05T16:25:41.145Z</time></trkpt><trkpt lat="40.7203056" lon="-3.8977819"><ele>930.0</ele><time>2026-04-05T16:25:42.145Z</time></trkpt><trkpt lat="40.7201972" lon="-3.8977887"><ele>929.4285714285713</ele><time>2026-04-05T16:25:44.145Z</time></trkpt><trkpt lat="40.7201316" lon="-3.8977848"><ele>928.8571428571429</ele><time>2026-04-05T16:25:45.145Z</time></trkpt><trkpt lat="40.7200602" lon="-3.8977552"><ele>928.2857142857142</ele><time>2026-04-05T16:25:46.145Z</time></trkpt><trkpt lat="40.7199819" lon="-3.8977165"><ele>927.7142857142857</ele><time>2026-04-05T16:25:47.146Z</time></trkpt><trkpt lat="40.7199062" lon="-3.8976835"><ele>927.1428571428571</ele><time>2026-04-05T16:25:48.146Z</time></trkpt><trkpt lat="40.7198333" lon="-3.8976596"><ele>926.5714285714286</ele><time>2026-04-05T16:25:49.145Z</time></trkpt><trkpt lat="40.7197674" lon="-3.8976358"><ele>926.0</ele><time>2026-04-05T16:25:50.145Z</time></trkpt><trkpt lat="40.719705" lon="-3.8976138"><ele>926.0</ele><time>2026-04-05T16:25:51.145Z</time></trkpt><trkpt lat="40.7196379" lon="-3.8976046"><ele>925.9999999999999</ele><time>2026-04-05T16:25:52.145Z</time></trkpt><trkpt lat="40.7195691" lon="-3.8975871"><ele>926.0</ele><time>2026-04-05T16:25:53.145Z</time></trkpt><trkpt lat="40.7195017" lon="-3.8975707"><ele>926.0</ele><time>2026-04-05T16:25:54.145Z</time></trkpt><trkpt lat="40.7194326" lon="-3.8975613"><ele>925.9999999999999</ele><time>2026-04-05T16:25:55.145Z</time></trkpt><trkpt lat="40.7193629" lon="-3.8975525"><ele>926.0</ele><time>2026-04-05T16:25:56.145Z</time></trkpt><trkpt lat="40.7192942" lon="-3.8975478"><ele>926.0</ele><time>2026-04-05T16:25:57.145Z</time></trkpt><trkpt lat="40.7191774" lon="-3.89756"><ele>925.8333333333334</ele><time>2026-04-05T16:25:59.145Z</time></trkpt><trkpt lat="40.7190751" lon="-3.8975957"><ele>925.6666666666667</ele><time>2026-04-05T16:26:01.145Z</time></trkpt><trkpt lat="40.7189852" lon="-3.897613"><ele>925.5</ele><time>2026-04-05T16:26:03.145Z</time></trkpt><trkpt lat="40.7188822" lon="-3.897592"><ele>925.3333333333333</ele><time>2026-04-05T16:26:05.145Z</time></trkpt><trkpt lat="40.7188195" lon="-3.8975843"><ele>925.1666666666666</ele><time>2026-04-05T16:26:06.145Z</time></trkpt><trkpt lat="40.7187551" lon="-3.897587"><ele>925.0</ele><time>2026-04-05T16:26:07.145Z</time></trkpt><trkpt lat="40.7186271" lon="-3.8975908"><ele>924.8333333333333</ele><time>2026-04-05T16:26:09.146Z</time></trkpt><trkpt lat="40.7185609" lon="-3.8975929"><ele>924.6666666666666</ele><time>2026-04-05T16:26:10.145Z</time></trkpt><trkpt lat="40.718459" lon="-3.8975803"><ele>924.5</ele><time>2026-04-05T16:26:12.145Z</time></trkpt><trkpt lat="40.7183781" lon="-3.8975554"><ele>924.3333333333333</ele><time>2026-04-05T16:26:14.146Z</time></trkpt><trkpt lat="40.7183181" lon="-3.8975013"><ele>924.1666666666666</ele><time>2026-04-05T16:26:16.145Z</time></trkpt><trkpt lat="40.7182717" lon="-3.8974338"><ele>924.0</ele><time>2026-04-05T16:26:18.145Z</time></trkpt><trkpt lat="40.7182444" lon="-3.8973135"><ele>923.6</ele><time>2026-04-05T16:26:21.146Z</time></trkpt><trkpt lat="40.7182323" lon="-3.8972081"><ele>923.2</ele><time>2026-04-05T16:26:23.145Z</time></trkpt><trkpt lat="40.7182202" lon="-3.8971017"><ele>922.8000000000001</ele><time>2026-04-05T16:26:25.145Z</time></trkpt><trkpt lat="40.7181791" lon="-3.8969755"><ele>922.4000000000001</ele><time>2026-04-05T16:26:27.145Z</time></trkpt><trkpt lat="40.7181156" lon="-3.8968263"><ele>922.0</ele><time>2026-04-05T16:26:29.145Z</time></trkpt><trkpt lat="40.7180698" lon="-3.8967597"><ele>922.0</ele><time>2026-04-05T16:26:30.145Z</time></trkpt><trkpt lat="40.7180264" lon="-3.8966913"><ele>922.0</ele><time>2026-04-05T16:26:31.145Z</time></trkpt><trkpt lat="40.7179797" lon="-3.8965502"><ele>922.0</ele><time>2026-04-05T16:26:33.146Z</time></trkpt><trkpt lat="40.7179518" lon="-3.8964195"><ele>922.0</ele><time>2026-04-05T16:26:35.145Z</time></trkpt><trkpt lat="40.7178914" lon="-3.896281"><ele>922.0</ele><time>2026-04-05T16:26:37.145Z</time></trkpt><trkpt lat="40.7178617" lon="-3.8962001"><ele>922.0</ele><time>2026-04-05T16:26:38.145Z</time></trkpt><trkpt lat="40.7178266" lon="-3.8961218"><ele>922.0000000000001</ele><time>2026-04-05T16:26:39.145Z</time></trkpt><trkpt lat="40.717789" lon="-3.8960466"><ele>922.0</ele><time>2026-04-05T16:26:40.146Z</time></trkpt><trkpt lat="40.7177423" lon="-3.8959751"><ele>922.0</ele><time>2026-04-05T16:26:41.145Z</time></trkpt><trkpt lat="40.7176904" lon="-3.8959107"><ele>922.0000000000001</ele><time>2026-04-05T16:26:42.145Z</time></trkpt><trkpt lat="40.7176332" lon="-3.895852"><ele>922.0</ele><time>2026-04-05T16:26:43.146Z</time></trkpt><trkpt lat="40.7175676" lon="-3.8958091"><ele>922.0</ele><time>2026-04-05T16:26:44.145Z</time></trkpt><trkpt lat="40.7174997" lon="-3.8957812"><ele>921.1666666666666</ele><time>2026-04-05T16:26:45.145Z</time></trkpt><trkpt lat="40.7174348" lon="-3.8957663"><ele>920.3333333333333</ele><time>2026-04-05T16:26:46.145Z</time></trkpt><trkpt lat="40.7173711" lon="-3.8957563"><ele>919.5</ele><time>2026-04-05T16:26:47.146Z</time></trkpt><trkpt lat="40.717252" lon="-3.8957261"><ele>918.6666666666667</ele><time>2026-04-05T16:26:49.146Z</time></trkpt><trkpt lat="40.7171895" lon="-3.8957132"><ele>917.8333333333334</ele><time>2026-04-05T16:26:50.145Z</time></trkpt><trkpt lat="40.7170717" lon="-3.8956453"><ele>917.0</ele><time>2026-04-05T16:26:52.145Z</time></trkpt><trkpt lat="40.717019" lon="-3.8955928"><ele>917.0</ele><time>2026-04-05T16:26:53.145Z</time></trkpt><trkpt lat="40.7169559" lon="-3.8955345"><ele>917.0</ele><time>2026-04-05T16:26:54.145Z</time></trkpt><trkpt lat="40.7168916" lon="-3.8954846"><ele>917.0</ele><time>2026-04-05T16:26:55.146Z</time></trkpt><trkpt lat="40.7168218" lon="-3.8954444"><ele>917.0</ele><time>2026-04-05T16:26:56.145Z</time></trkpt><trkpt lat="40.716762" lon="-3.8954002"><ele>917.0</ele><time>2026-04-05T16:26:57.146Z</time></trkpt><trkpt lat="40.7167061" lon="-3.8953512"><ele>917.0</ele><time>2026-04-05T16:26:58.145Z</time></trkpt><trkpt lat="40.716658" lon="-3.8952961"><ele>917.0</ele><time>2026-04-05T16:26:59.145Z</time></trkpt><trkpt lat="40.7166049" lon="-3.8952356"><ele>916.8571428571429</ele><time>2026-04-05T16:27:00.145Z</time></trkpt><trkpt lat="40.7165528" lon="-3.8951705"><ele>916.7142857142858</ele><time>2026-04-05T16:27:01.145Z</time></trkpt><trkpt lat="40.7165001" lon="-3.8951035"><ele>916.5714285714286</ele><time>2026-04-05T16:27:02.146Z</time></trkpt><trkpt lat="40.7164486" lon="-3.8950405"><ele>916.4285714285714</ele><time>2026-04-05T16:27:03.146Z</time></trkpt><trkpt lat="40.7163993" lon="-3.8949774"><ele>916.2857142857143</ele><time>2026-04-05T16:27:04.145Z</time></trkpt><trkpt lat="40.7163503" lon="-3.8949198"><ele>916.1428571428571</ele><time>2026-04-05T16:27:05.145Z</time></trkpt><trkpt lat="40.7163015" lon="-3.8948632"><ele>916.0</ele><time>2026-04-05T16:27:06.145Z</time></trkpt><trkpt lat="40.716249" lon="-3.8948079"><ele>916.0</ele><time>2026-04-05T16:27:07.145Z</time></trkpt><trkpt lat="40.7161942" lon="-3.8947628"><ele>915.9999999999999</ele><time>2026-04-05T16:27:08.145Z</time></trkpt><trkpt lat="40.7160949" lon="-3.8946801"><ele>915.9999999999999</ele><time>2026-04-05T16:27:10.145Z</time></trkpt><trkpt lat="40.7160097" lon="-3.8945609"><ele>916.0</ele><time>2026-04-05T16:27:12.145Z</time></trkpt><trkpt lat="40.7159665" lon="-3.8944922"><ele>916.0</ele><time>2026-04-05T16:27:13.146Z</time></trkpt><trkpt lat="40.7158903" lon="-3.8943807"><ele>914.8</ele><time>2026-04-05T16:27:15.145Z</time></trkpt><trkpt lat="40.7158182" lon="-3.8942818"><ele>913.5999999999999</ele><time>2026-04-05T16:27:17.145Z</time></trkpt><trkpt lat="40.7157489" lon="-3.8942082"><ele>912.4</ele><time>2026-04-05T16:27:19.146Z</time></trkpt><trkpt lat="40.7156666" lon="-3.8941285"><ele>911.2</ele><time>2026-04-05T16:27:21.145Z</time></trkpt><trkpt lat="40.7155913" lon="-3.8940568"><ele>910.0</ele><time>2026-04-05T16:27:23.145Z</time></trkpt><trkpt lat="40.7155193" lon="-3.8939974"><ele>909.4999999999999</ele><time>2026-04-05T16:27:25.145Z</time></trkpt><trkpt lat="40.7154573" lon="-3.8939488"><ele>909.0</ele><time>2026-04-05T16:27:27.145Z</time></trkpt><trkpt lat="40.7153937" lon="-3.8938953"><ele>908.5</ele><time>2026-04-05T16:27:30.145Z</time></trkpt><trkpt lat="40.7153076" lon="-3.8938389"><ele>908.0</ele><time>2026-04-05T16:27:45.145Z</time></trkpt><trkpt lat="40.7152502" lon="-3.8937637"><ele>907.4999999999999</ele><time>2026-04-05T16:27:47.145Z</time></trkpt><trkpt lat="40.7152107" lon="-3.8936914"><ele>907.0</ele><time>2026-04-05T16:27:49.145Z</time></trkpt><trkpt lat="40.7151436" lon="-3.8935985"><ele>906.6666666666666</ele><time>2026-04-05T16:27:52.146Z</time></trkpt><trkpt lat="40.715086" lon="-3.8935303"><ele>906.3333333333333</ele><time>2026-04-05T16:27:54.146Z</time></trkpt><trkpt lat="40.7150238" lon="-3.8934535"><ele>906.0</ele><time>2026-04-05T16:27:56.146Z</time></trkpt><trkpt lat="40.71496" lon="-3.8933861"><ele>905.6666666666667</ele><time>2026-04-05T16:27:58.145Z</time></trkpt><trkpt lat="40.7149048" lon="-3.8933099"><ele>905.3333333333334</ele><time>2026-04-05T16:28:00.145Z</time></trkpt><trkpt lat="40.7148733" lon="-3.8932265"><ele>905.0</ele><time>2026-04-05T16:28:02.145Z</time></trkpt><trkpt lat="40.714849" lon="-3.8931464"><ele>904.7142857142857</ele><time>2026-04-05T16:28:04.146Z</time></trkpt><trkpt lat="40.7148099" lon="-3.8930467"><ele>904.4285714285713</ele><time>2026-04-05T16:28:07.145Z</time></trkpt><trkpt lat="40.7148058" lon="-3.8929368"><ele>904.1428571428571</ele><time>2026-04-05T16:28:10.145Z</time></trkpt><trkpt lat="40.7148284" lon="-3.8928577"><ele>903.8571428571429</ele><time>2026-04-05T16:28:12.145Z</time></trkpt><trkpt lat="40.7148043" lon="-3.892779"><ele>903.5714285714286</ele><time>2026-04-05T16:28:14.145Z</time></trkpt><trkpt lat="40.7147651" lon="-3.8926923"><ele>903.2857142857142</ele><time>2026-04-05T16:28:16.146Z</time></trkpt><trkpt lat="40.7147684" lon="-3.8926036"><ele>903.0</ele><time>2026-04-05T16:28:18.145Z</time></trkpt><trkpt lat="40.7147914" lon="-3.8925131"><ele>903.0</ele><time>2026-04-05T16:28:20.145Z</time></trkpt><trkpt lat="40.7148127" lon="-3.8924273"><ele>903.0</ele><time>2026-04-05T16:28:22.145Z</time></trkpt><trkpt lat="40.7148278" lon="-3.8923396"><ele>903.0</ele><time>2026-04-05T16:28:24.145Z</time></trkpt><trkpt lat="40.7148617" lon="-3.8922693"><ele>903.0</ele><time>2026-04-05T16:28:26.145Z</time></trkpt><trkpt lat="40.7149049" lon="-3.8921551"><ele>903.0</ele><time>2026-04-05T16:28:29.145Z</time></trkpt><trkpt lat="40.7149548" lon="-3.8920351"><ele>903.0</ele><time>2026-04-05T16:28:32.146Z</time></trkpt><trkpt lat="40.7149807" lon="-3.8919575"><ele>903.0</ele><time>2026-04-05T16:28:34.145Z</time></trkpt><trkpt lat="40.715004" lon="-3.8918699"><ele>903.0</ele><time>2026-04-05T16:28:36.145Z</time></trkpt><trkpt lat="40.7150408" lon="-3.8917714"><ele>903.0</ele><time>2026-04-05T16:28:38.146Z</time></trkpt><trkpt lat="40.7150733" lon="-3.891679"><ele>903.0</ele><time>2026-04-05T16:28:40.145Z</time></trkpt><trkpt lat="40.7151047" lon="-3.8915923"><ele>903.0</ele><time>2026-04-05T16:28:42.145Z</time></trkpt><trkpt lat="40.7151405" lon="-3.8915093"><ele>903.0</ele><time>2026-04-05T16:28:44.145Z</time></trkpt><trkpt lat="40.7151809" lon="-3.8914091"><ele>903.1666666666666</ele><time>2026-04-05T16:28:46.146Z</time></trkpt><trkpt lat="40.7152163" lon="-3.8913168"><ele>903.3333333333333</ele><time>2026-04-05T16:28:48.145Z</time></trkpt><trkpt lat="40.715248" lon="-3.8912265"><ele>903.5</ele><time>2026-04-05T16:28:50.145Z</time></trkpt><trkpt lat="40.7152868" lon="-3.8911317"><ele>903.6666666666666</ele><time>2026-04-05T16:28:52.146Z</time></trkpt><trkpt lat="40.7153352" lon="-3.891028"><ele>903.8333333333333</ele><time>2026-04-05T16:28:54.145Z</time></trkpt><trkpt lat="40.7153868" lon="-3.8909049"><ele>904.0</ele><time>2026-04-05T16:28:56.145Z</time></trkpt><trkpt lat="40.7154203" lon="-3.8907737"><ele>904.0</ele><time>2026-04-05T16:28:58.145Z</time></trkpt><trkpt lat="40.7154502" lon="-3.8906386"><ele>904.0000000000001</ele><time>2026-04-05T16:29:00.145Z</time></trkpt><trkpt lat="40.7154917" lon="-3.8904962"><ele>904.0000000000001</ele><time>2026-04-05T16:29:02.145Z</time></trkpt><trkpt lat="40.7155264" lon="-3.8903682"><ele>904.0</ele><time>2026-04-05T16:29:04.145Z</time></trkpt><trkpt lat="40.7155573" lon="-3.8902667"><ele>904.0</ele><time>2026-04-05T16:29:06.145Z</time></trkpt><trkpt lat="40.7155969" lon="-3.8901593"><ele>903.4000000000001</ele><time>2026-04-05T16:29:08.145Z</time></trkpt><trkpt lat="40.7156462" lon="-3.8900465"><ele>902.8000000000001</ele><time>2026-04-05T16:29:10.145Z</time></trkpt><trkpt lat="40.7156962" lon="-3.889925"><ele>902.1999999999999</ele><time>2026-04-05T16:29:12.145Z</time></trkpt><trkpt lat="40.7157315" lon="-3.889801"><ele>901.5999999999999</ele><time>2026-04-05T16:29:14.146Z</time></trkpt><trkpt lat="40.7157763" lon="-3.8896666"><ele>901.0</ele><time>2026-04-05T16:29:16.145Z</time></trkpt><trkpt lat="40.7158273" lon="-3.8895289"><ele>901.0</ele><time>2026-04-05T16:29:18.145Z</time></trkpt><trkpt lat="40.7158777" lon="-3.8893883"><ele>900.9999999999999</ele><time>2026-04-05T16:29:20.146Z</time></trkpt><trkpt lat="40.7159325" lon="-3.8892248"><ele>900.9999999999999</ele><time>2026-04-05T16:29:22.145Z</time></trkpt><trkpt lat="40.7159577" lon="-3.8891278"><ele>901.0</ele><time>2026-04-05T16:29:23.145Z</time></trkpt><trkpt lat="40.7159857" lon="-3.8890179"><ele>901.0</ele><time>2026-04-05T16:29:24.145Z</time></trkpt><trkpt lat="40.7160171" lon="-3.8888961"><ele>901.1999999999999</ele><time>2026-04-05T16:29:25.145Z</time></trkpt><trkpt lat="40.7160559" lon="-3.8887792"><ele>901.3999999999999</ele><time>2026-04-05T16:29:26.146Z</time></trkpt><trkpt lat="40.7160951" lon="-3.8886666"><ele>901.6</ele><time>2026-04-05T16:29:27.145Z</time></trkpt><trkpt lat="40.7161358" lon="-3.8885542"><ele>901.8</ele><time>2026-04-05T16:29:28.145Z</time></trkpt><trkpt lat="40.71618" lon="-3.8884466"><ele>902.0</ele><time>2026-04-05T16:29:29.146Z</time></trkpt><trkpt lat="40.7162272" lon="-3.8883411"><ele>902.1666666666667</ele><time>2026-04-05T16:29:30.145Z</time></trkpt><trkpt lat="40.7162697" lon="-3.888243"><ele>902.3333333333334</ele><time>2026-04-05T16:29:31.146Z</time></trkpt><trkpt lat="40.7163119" lon="-3.8881525"><ele>902.5</ele><time>2026-04-05T16:29:32.145Z</time></trkpt><trkpt lat="40.7163535" lon="-3.8880584"><ele>902.6666666666667</ele><time>2026-04-05T16:29:33.146Z</time></trkpt><trkpt lat="40.7163902" lon="-3.8879668"><ele>902.8333333333334</ele><time>2026-04-05T16:29:34.145Z</time></trkpt><trkpt lat="40.7164223" lon="-3.8878837"><ele>903.0</ele><time>2026-04-05T16:29:35.145Z</time></trkpt><trkpt lat="40.7164967" lon="-3.8877866"><ele>903.0</ele><time>2026-04-05T16:29:37.145Z</time></trkpt><trkpt lat="40.7165928" lon="-3.8877255"><ele>903.0</ele><time>2026-04-05T16:29:39.146Z</time></trkpt><trkpt lat="40.7166886" lon="-3.8876176"><ele>903.0</ele><time>2026-04-05T16:29:41.145Z</time></trkpt><trkpt lat="40.7167844" lon="-3.8875461"><ele>903.0</ele><time>2026-04-05T16:29:43.145Z</time></trkpt><trkpt lat="40.7169178" lon="-3.8874906"><ele>904.0</ele><time>2026-04-05T16:29:45.146Z</time></trkpt><trkpt lat="40.7170057" lon="-3.8874652"><ele>905.0</ele><time>2026-04-05T16:29:46.145Z</time></trkpt><trkpt lat="40.717088" lon="-3.8874364"><ele>906.0</ele><time>2026-04-05T16:29:47.145Z</time></trkpt><trkpt lat="40.7171577" lon="-3.8873881"><ele>907.0</ele><time>2026-04-05T16:29:48.145Z</time></trkpt><trkpt lat="40.7172162" lon="-3.8873236"><ele>908.0</ele><time>2026-04-05T16:29:49.145Z</time></trkpt><trkpt lat="40.7172562" lon="-3.8872436"><ele>909.0</ele><time>2026-04-05T16:29:50.145Z</time></trkpt><trkpt lat="40.717293" lon="-3.8871519"><ele>909.0</ele><time>2026-04-05T16:29:51.145Z</time></trkpt><trkpt lat="40.7173247" lon="-3.8870608"><ele>909.0</ele><time>2026-04-05T16:29:52.145Z</time></trkpt><trkpt lat="40.7173581" lon="-3.8869758"><ele>909.0</ele><time>2026-04-05T16:29:53.145Z</time></trkpt><trkpt lat="40.71739" lon="-3.8869014"><ele>909.0</ele><time>2026-04-05T16:29:54.145Z</time></trkpt><trkpt lat="40.7174321" lon="-3.8867981"><ele>909.0</ele><time>2026-04-05T16:29:55.145Z</time></trkpt><trkpt lat="40.7174792" lon="-3.8867016"><ele>909.0</ele><time>2026-04-05T16:29:56.145Z</time></trkpt><trkpt lat="40.7175263" lon="-3.8865923"><ele>909.0</ele><time>2026-04-05T16:29:57.145Z</time></trkpt><trkpt lat="40.7175738" lon="-3.8864826"><ele>909.0</ele><time>2026-04-05T16:29:58.145Z</time></trkpt><trkpt lat="40.7176219" lon="-3.8863856"><ele>909.0</ele><time>2026-04-05T16:29:59.145Z</time></trkpt><trkpt lat="40.7176743" lon="-3.8863034"><ele>909.0</ele><time>2026-04-05T16:30:00.145Z</time></trkpt><trkpt lat="40.7177332" lon="-3.8862266"><ele>909.0</ele><time>2026-04-05T16:30:01.146Z</time></trkpt><trkpt lat="40.7177984" lon="-3.8861384"><ele>909.0</ele><time>2026-04-05T16:30:02.145Z</time></trkpt><trkpt lat="40.7178617" lon="-3.886045"><ele>909.0</ele><time>2026-04-05T16:30:03.145Z</time></trkpt><trkpt lat="40.7179205" lon="-3.885949"><ele>909.0</ele><time>2026-04-05T16:30:04.145Z</time></trkpt><trkpt lat="40.7179671" lon="-3.8858504"><ele>909.0</ele><time>2026-04-05T16:30:05.145Z</time></trkpt><trkpt lat="40.7180137" lon="-3.8857566"><ele>909.0</ele><time>2026-04-05T16:30:06.145Z</time></trkpt><trkpt lat="40.7180595" lon="-3.8856644"><ele>909.0</ele><time>2026-04-05T16:30:07.146Z</time></trkpt><trkpt lat="40.7181014" lon="-3.8855621"><ele>909.0</ele><time>2026-04-05T16:30:08.146Z</time></trkpt><trkpt lat="40.7181292" lon="-3.8854511"><ele>908.2</ele><time>2026-04-05T16:30:09.145Z</time></trkpt><trkpt lat="40.7181594" lon="-3.8853348"><ele>907.4000000000001</ele><time>2026-04-05T16:30:10.145Z</time></trkpt><trkpt lat="40.7181967" lon="-3.8852233"><ele>906.6</ele><time>2026-04-05T16:30:11.145Z</time></trkpt><trkpt lat="40.7182424" lon="-3.8851103"><ele>905.8</ele><time>2026-04-05T16:30:12.146Z</time></trkpt><trkpt lat="40.7182959" lon="-3.8849938"><ele>905.0</ele><time>2026-04-05T16:30:13.145Z</time></trkpt><trkpt lat="40.7183384" lon="-3.8848821"><ele>904.8333333333334</ele><time>2026-04-05T16:30:14.145Z</time></trkpt><trkpt lat="40.7183768" lon="-3.884775"><ele>904.6666666666667</ele><time>2026-04-05T16:30:15.145Z</time></trkpt><trkpt lat="40.7184192" lon="-3.8846682"><ele>904.5</ele><time>2026-04-05T16:30:16.146Z</time></trkpt><trkpt lat="40.7184643" lon="-3.8845616"><ele>904.3333333333333</ele><time>2026-04-05T16:30:17.146Z</time></trkpt><trkpt lat="40.7185125" lon="-3.8844595"><ele>904.1666666666666</ele><time>2026-04-05T16:30:18.145Z</time></trkpt><trkpt lat="40.7185596" lon="-3.8843722"><ele>904.0</ele><time>2026-04-05T16:30:19.145Z</time></trkpt><trkpt lat="40.7185896" lon="-3.8842779"><ele>904.1666666666666</ele><time>2026-04-05T16:30:20.145Z</time></trkpt><trkpt lat="40.7186119" lon="-3.8841929"><ele>904.3333333333333</ele><time>2026-04-05T16:30:21.145Z</time></trkpt><trkpt lat="40.718639" lon="-3.884095"><ele>904.5</ele><time>2026-04-05T16:30:22.145Z</time></trkpt><trkpt lat="40.7186738" lon="-3.8839809"><ele>904.6666666666667</ele><time>2026-04-05T16:30:23.145Z</time></trkpt><trkpt lat="40.7187186" lon="-3.8838718"><ele>904.8333333333334</ele><time>2026-04-05T16:30:24.145Z</time></trkpt><trkpt lat="40.7187632" lon="-3.8837744"><ele>905.0</ele><time>2026-04-05T16:30:25.145Z</time></trkpt><trkpt lat="40.7188117" lon="-3.8836828"><ele>905.0000000000001</ele><time>2026-04-05T16:30:26.145Z</time></trkpt><trkpt lat="40.7188663" lon="-3.88361"><ele>905.0</ele><time>2026-04-05T16:30:27.146Z</time></trkpt><trkpt lat="40.7189217" lon="-3.8835465"><ele>905.0</ele><time>2026-04-05T16:30:28.145Z</time></trkpt><trkpt lat="40.7189856" lon="-3.8835087"><ele>905.0</ele><time>2026-04-05T16:30:29.145Z</time></trkpt><trkpt lat="40.7190679" lon="-3.8834273"><ele>905.0000000000001</ele><time>2026-04-05T16:30:31.145Z</time></trkpt><trkpt lat="40.7191083" lon="-3.8832987"><ele>905.0</ele><time>2026-04-05T16:30:33.146Z</time></trkpt><trkpt lat="40.7191853" lon="-3.8831628"><ele>904.5000000000001</ele><time>2026-04-05T16:30:35.146Z</time></trkpt><trkpt lat="40.7192259" lon="-3.8830917"><ele>904.0</ele><time>2026-04-05T16:30:36.145Z</time></trkpt><trkpt lat="40.7193082" lon="-3.8829748"><ele>903.5</ele><time>2026-04-05T16:30:38.145Z</time></trkpt><trkpt lat="40.7193538" lon="-3.8829131"><ele>903.0</ele><time>2026-04-05T16:30:39.145Z</time></trkpt><trkpt lat="40.7193939" lon="-3.8828435"><ele>902.5000000000001</ele><time>2026-04-05T16:30:40.145Z</time></trkpt><trkpt lat="40.7194457" lon="-3.8827151"><ele>902.0</ele><time>2026-04-05T16:30:42.145Z</time></trkpt><trkpt lat="40.7195111" lon="-3.8825781"><ele>903.1666666666667</ele><time>2026-04-05T16:30:44.145Z</time></trkpt><trkpt lat="40.7195621" lon="-3.8824845"><ele>904.3333333333334</ele><time>2026-04-05T16:30:45.146Z</time></trkpt><trkpt lat="40.7196099" lon="-3.8824052"><ele>905.5</ele><time>2026-04-05T16:30:46.145Z</time></trkpt><trkpt lat="40.7196453" lon="-3.8823282"><ele>906.6666666666667</ele><time>2026-04-05T16:30:47.146Z</time></trkpt><trkpt lat="40.7197285" lon="-3.8822123"><ele>907.8333333333334</ele><time>2026-04-05T16:30:49.145Z</time></trkpt><trkpt lat="40.7197652" lon="-3.8821358"><ele>909.0</ele><time>2026-04-05T16:30:50.146Z</time></trkpt><trkpt lat="40.7197923" lon="-3.8820511"><ele>909.0</ele><time>2026-04-05T16:30:51.145Z</time></trkpt><trkpt lat="40.7198679" lon="-3.8819246"><ele>909.0</ele><time>2026-04-05T16:30:53.145Z</time></trkpt><trkpt lat="40.7199139" lon="-3.8818544"><ele>909.0</ele><time>2026-04-05T16:30:54.146Z</time></trkpt><trkpt lat="40.7199557" lon="-3.8817873"><ele>909.0</ele><time>2026-04-05T16:30:55.146Z</time></trkpt><trkpt lat="40.7199944" lon="-3.8817151"><ele>909.0</ele><time>2026-04-05T16:30:56.145Z</time></trkpt><trkpt lat="40.7200719" lon="-3.8815893"><ele>909.0</ele><time>2026-04-05T16:30:58.145Z</time></trkpt><trkpt lat="40.7201079" lon="-3.8815154"><ele>909.1666666666666</ele><time>2026-04-05T16:30:59.145Z</time></trkpt><trkpt lat="40.7201491" lon="-3.8814333"><ele>909.3333333333333</ele><time>2026-04-05T16:31:00.145Z</time></trkpt><trkpt lat="40.7201922" lon="-3.8813548"><ele>909.5</ele><time>2026-04-05T16:31:01.145Z</time></trkpt><trkpt lat="40.7202397" lon="-3.8812865"><ele>909.6666666666666</ele><time>2026-04-05T16:31:02.146Z</time></trkpt><trkpt lat="40.7202836" lon="-3.8812257"><ele>909.8333333333333</ele><time>2026-04-05T16:31:03.145Z</time></trkpt><trkpt lat="40.7203443" lon="-3.8810994"><ele>910.0</ele><time>2026-04-05T16:31:05.145Z</time></trkpt><trkpt lat="40.7203418" lon="-3.880994"><ele>909.8333333333333</ele><time>2026-04-05T16:31:07.145Z</time></trkpt><trkpt lat="40.7203813" lon="-3.8808534"><ele>909.6666666666666</ele><time>2026-04-05T16:31:09.146Z</time></trkpt><trkpt lat="40.7204189" lon="-3.8807689"><ele>909.5</ele><time>2026-04-05T16:31:10.145Z</time></trkpt><trkpt lat="40.720457" lon="-3.8806741"><ele>909.3333333333333</ele><time>2026-04-05T16:31:11.145Z</time></trkpt><trkpt lat="40.7205004" lon="-3.8805851"><ele>909.1666666666666</ele><time>2026-04-05T16:31:12.145Z</time></trkpt><trkpt lat="40.7205444" lon="-3.8804839"><ele>909.0</ele><time>2026-04-05T16:31:13.145Z</time></trkpt><trkpt lat="40.7205961" lon="-3.8803827"><ele>909.0</ele><time>2026-04-05T16:31:14.145Z</time></trkpt><trkpt lat="40.7206566" lon="-3.8802815"><ele>909.0000000000001</ele><time>2026-04-05T16:31:15.145Z</time></trkpt><trkpt lat="40.7207187" lon="-3.8801919"><ele>909.0000000000001</ele><time>2026-04-05T16:31:16.145Z</time></trkpt><trkpt lat="40.7207797" lon="-3.8801014"><ele>909.0</ele><time>2026-04-05T16:31:17.145Z</time></trkpt><trkpt lat="40.7208397" lon="-3.8800154"><ele>909.0</ele><time>2026-04-05T16:31:18.145Z</time></trkpt><trkpt lat="40.7208981" lon="-3.8799174"><ele>908.3333333333334</ele><time>2026-04-05T16:31:19.145Z</time></trkpt><trkpt lat="40.7209535" lon="-3.8798266"><ele>907.6666666666667</ele><time>2026-04-05T16:31:20.145Z</time></trkpt><trkpt lat="40.7210101" lon="-3.8797428"><ele>907.0</ele><time>2026-04-05T16:31:21.145Z</time></trkpt><trkpt lat="40.7210678" lon="-3.8796599"><ele>906.3333333333334</ele><time>2026-04-05T16:31:22.146Z</time></trkpt><trkpt lat="40.7211254" lon="-3.8795784"><ele>905.6666666666667</ele><time>2026-04-05T16:31:23.145Z</time></trkpt><trkpt lat="40.7211831" lon="-3.8795019"><ele>905.0</ele><time>2026-04-05T16:31:24.145Z</time></trkpt><trkpt lat="40.721254" lon="-3.8794419"><ele>904.6</ele><time>2026-04-05T16:31:25.145Z</time></trkpt><trkpt lat="40.7213345" lon="-3.8793876"><ele>904.2</ele><time>2026-04-05T16:31:26.145Z</time></trkpt><trkpt lat="40.7214142" lon="-3.8793348"><ele>903.8</ele><time>2026-04-05T16:31:27.146Z</time></trkpt><trkpt lat="40.7214976" lon="-3.8792807"><ele>903.4</ele><time>2026-04-05T16:31:28.146Z</time></trkpt><trkpt lat="40.7215762" lon="-3.8792199"><ele>903.0</ele><time>2026-04-05T16:31:29.145Z</time></trkpt><trkpt lat="40.7216548" lon="-3.8791601"><ele>903.0</ele><time>2026-04-05T16:31:30.145Z</time></trkpt><trkpt lat="40.7217422" lon="-3.8790962"><ele>903.0</ele><time>2026-04-05T16:31:31.145Z</time></trkpt><trkpt lat="40.7218296" lon="-3.879033"><ele>903.0</ele><time>2026-04-05T16:31:32.145Z</time></trkpt><trkpt lat="40.7219157" lon="-3.8789821"><ele>903.0</ele><time>2026-04-05T16:31:33.145Z</time></trkpt><trkpt lat="40.7219933" lon="-3.878931"><ele>903.0</ele><time>2026-04-05T16:31:34.145Z</time></trkpt><trkpt lat="40.7220638" lon="-3.8788886"><ele>902.8333333333334</ele><time>2026-04-05T16:31:35.145Z</time></trkpt><trkpt lat="40.7221267" lon="-3.8788482"><ele>902.6666666666667</ele><time>2026-04-05T16:31:36.145Z</time></trkpt><trkpt lat="40.7222127" lon="-3.8787428"><ele>902.5</ele><time>2026-04-05T16:31:38.145Z</time></trkpt><trkpt lat="40.722261" lon="-3.8786361"><ele>902.3333333333334</ele><time>2026-04-05T16:31:40.145Z</time></trkpt><trkpt lat="40.7223014" lon="-3.8785698"><ele>902.1666666666667</ele><time>2026-04-05T16:31:42.145Z</time></trkpt><trkpt lat="40.7223613" lon="-3.8785432"><ele>902.0</ele><time>2026-04-05T16:31:44.145Z</time></trkpt><trkpt lat="40.7224675" lon="-3.8785161"><ele>902.0000000000001</ele><time>2026-04-05T16:31:46.145Z</time></trkpt><trkpt lat="40.7225739" lon="-3.8784162"><ele>902.0</ele><time>2026-04-05T16:31:48.145Z</time></trkpt><trkpt lat="40.7226299" lon="-3.8783579"><ele>902.0</ele><time>2026-04-05T16:31:49.145Z</time></trkpt><trkpt lat="40.7226952" lon="-3.8783068"><ele>902.0</ele><time>2026-04-05T16:31:50.146Z</time></trkpt><trkpt lat="40.7227605" lon="-3.8782588"><ele>902.0000000000001</ele><time>2026-04-05T16:31:51.145Z</time></trkpt><trkpt lat="40.7228289" lon="-3.878203"><ele>902.0</ele><time>2026-04-05T16:31:52.145Z</time></trkpt><trkpt lat="40.7229019" lon="-3.878147"><ele>902.1666666666667</ele><time>2026-04-05T16:31:53.146Z</time></trkpt><trkpt lat="40.7229709" lon="-3.8780951"><ele>902.3333333333334</ele><time>2026-04-05T16:31:54.145Z</time></trkpt><trkpt lat="40.7230398" lon="-3.8780391"><ele>902.5</ele><time>2026-04-05T16:31:55.145Z</time></trkpt><trkpt lat="40.7231081" lon="-3.8779731"><ele>902.6666666666667</ele><time>2026-04-05T16:31:56.145Z</time></trkpt><trkpt lat="40.7231816" lon="-3.8779035"><ele>902.8333333333334</ele><time>2026-04-05T16:31:57.145Z</time></trkpt><trkpt lat="40.7232569" lon="-3.8778437"><ele>903.0</ele><time>2026-04-05T16:31:58.146Z</time></trkpt><trkpt lat="40.7233268" lon="-3.8777778"><ele>903.0</ele><time>2026-04-05T16:31:59.146Z</time></trkpt><trkpt lat="40.7233691" lon="-3.8776983"><ele>903.0</ele><time>2026-04-05T16:32:00.146Z</time></trkpt><trkpt lat="40.7234027" lon="-3.8776257"><ele>903.0</ele><time>2026-04-05T16:32:01.145Z</time></trkpt><trkpt lat="40.7234686" lon="-3.8775158"><ele>903.0</ele><time>2026-04-05T16:32:03.145Z</time></trkpt><trkpt lat="40.723531" lon="-3.877415"><ele>903.0</ele><time>2026-04-05T16:32:05.145Z</time></trkpt><trkpt lat="40.7235867" lon="-3.8773169"><ele>903.0</ele><time>2026-04-05T16:32:07.145Z</time></trkpt><trkpt lat="40.7236436" lon="-3.8772148"><ele>904.1666666666666</ele><time>2026-04-05T16:32:09.146Z</time></trkpt><trkpt lat="40.7237062" lon="-3.8770931"><ele>905.3333333333333</ele><time>2026-04-05T16:32:11.146Z</time></trkpt><trkpt lat="40.723742" lon="-3.8770128"><ele>906.5</ele><time>2026-04-05T16:32:12.145Z</time></trkpt><trkpt lat="40.7237718" lon="-3.8769295"><ele>907.6666666666666</ele><time>2026-04-05T16:32:13.145Z</time></trkpt><trkpt lat="40.7238039" lon="-3.8768362"><ele>908.8333333333333</ele><time>2026-04-05T16:32:14.145Z</time></trkpt><trkpt lat="40.7238253" lon="-3.8767378"><ele>910.0</ele><time>2026-04-05T16:32:15.145Z</time></trkpt><trkpt lat="40.7238462" lon="-3.8766392"><ele>909.9999999999999</ele><time>2026-04-05T16:32:16.145Z</time></trkpt><trkpt lat="40.7238602" lon="-3.8765456"><ele>910.0</ele><time>2026-04-05T16:32:17.146Z</time></trkpt><trkpt lat="40.7238753" lon="-3.8764632"><ele>910.0</ele><time>2026-04-05T16:32:18.145Z</time></trkpt><trkpt lat="40.7238833" lon="-3.8763727"><ele>910.0</ele><time>2026-04-05T16:32:19.145Z</time></trkpt><trkpt lat="40.7238951" lon="-3.876282"><ele>909.9999999999999</ele><time>2026-04-05T16:32:20.145Z</time></trkpt><trkpt lat="40.7239033" lon="-3.8761969"><ele>910.0</ele><time>2026-04-05T16:32:21.145Z</time></trkpt><trkpt lat="40.7239113" lon="-3.8760512"><ele>909.8333333333333</ele><time>2026-04-05T16:32:23.145Z</time></trkpt><trkpt lat="40.7239247" lon="-3.8759323"><ele>909.6666666666666</ele><time>2026-04-05T16:32:25.145Z</time></trkpt><trkpt lat="40.7239271" lon="-3.875829"><ele>909.5</ele><time>2026-04-05T16:32:27.145Z</time></trkpt><trkpt lat="40.7239234" lon="-3.8757409"><ele>909.3333333333333</ele><time>2026-04-05T16:32:29.145Z</time></trkpt><trkpt lat="40.7239189" lon="-3.8756401"><ele>909.1666666666666</ele><time>2026-04-05T16:32:31.146Z</time></trkpt><trkpt lat="40.7239231" lon="-3.87553"><ele>909.0</ele><time>2026-04-05T16:32:33.145Z</time></trkpt><trkpt lat="40.7239121" lon="-3.8754343"><ele>909.0</ele><time>2026-04-05T16:32:35.145Z</time></trkpt><trkpt lat="40.7238965" lon="-3.8752889"><ele>909.0000000000001</ele><time>2026-04-05T16:32:38.145Z</time></trkpt><trkpt lat="40.7238968" lon="-3.8751637"><ele>909.0000000000001</ele><time>2026-04-05T16:32:40.146Z</time></trkpt><trkpt lat="40.7238967" lon="-3.8750257"><ele>909.0</ele><time>2026-04-05T16:32:42.145Z</time></trkpt><trkpt lat="40.7239006" lon="-3.8749037"><ele>909.0</ele><time>2026-04-05T16:32:44.145Z</time></trkpt><trkpt lat="40.7238934" lon="-3.8747663"><ele>909.6</ele><time>2026-04-05T16:32:46.145Z</time></trkpt><trkpt lat="40.7238988" lon="-3.8746297"><ele>910.2</ele><time>2026-04-05T16:32:48.145Z</time></trkpt><trkpt lat="40.7238975" lon="-3.8744812"><ele>910.8000000000001</ele><time>2026-04-05T16:32:50.145Z</time></trkpt><trkpt lat="40.723881" lon="-3.8743511"><ele>911.4000000000001</ele><time>2026-04-05T16:32:52.145Z</time></trkpt><trkpt lat="40.7238552" lon="-3.8742128"><ele>912.0</ele><time>2026-04-05T16:32:54.146Z</time></trkpt><trkpt lat="40.7238334" lon="-3.8740882"><ele>912.6</ele><time>2026-04-05T16:32:56.145Z</time></trkpt><trkpt lat="40.7238005" lon="-3.8739429"><ele>913.2</ele><time>2026-04-05T16:32:58.145Z</time></trkpt><trkpt lat="40.7237673" lon="-3.8738075"><ele>913.8</ele><time>2026-04-05T16:33:00.145Z</time></trkpt><trkpt lat="40.7237543" lon="-3.8736812"><ele>914.4</ele><time>2026-04-05T16:33:02.146Z</time></trkpt><trkpt lat="40.7237664" lon="-3.8735216"><ele>915.0</ele><time>2026-04-05T16:33:04.145Z</time></trkpt><trkpt lat="40.723804" lon="-3.8733614"><ele>915.2857142857143</ele><time>2026-04-05T16:33:06.145Z</time></trkpt><trkpt lat="40.7238177" lon="-3.8732692"><ele>915.5714285714287</ele><time>2026-04-05T16:33:07.146Z</time></trkpt><trkpt lat="40.7238311" lon="-3.8731802"><ele>915.8571428571429</ele><time>2026-04-05T16:33:08.145Z</time></trkpt><trkpt lat="40.7238443" lon="-3.8730921"><ele>916.1428571428571</ele><time>2026-04-05T16:33:09.145Z</time></trkpt><trkpt lat="40.7238599" lon="-3.8730035"><ele>916.4285714285714</ele><time>2026-04-05T16:33:10.145Z</time></trkpt><trkpt lat="40.7238721" lon="-3.872913"><ele>916.7142857142858</ele><time>2026-04-05T16:33:11.145Z</time></trkpt><trkpt lat="40.7238786" lon="-3.8728268"><ele>917.0</ele><time>2026-04-05T16:33:12.146Z</time></trkpt><trkpt lat="40.7238928" lon="-3.8726871"><ele>917.0000000000001</ele><time>2026-04-05T16:33:14.146Z</time></trkpt><trkpt lat="40.7239179" lon="-3.8725707"><ele>917.0</ele><time>2026-04-05T16:33:16.145Z</time></trkpt><trkpt lat="40.7239426" lon="-3.8724432"><ele>917.0</ele><time>2026-04-05T16:33:18.146Z</time></trkpt><trkpt lat="40.7239504" lon="-3.8723595"><ele>917.0</ele><time>2026-04-05T16:33:19.145Z</time></trkpt><trkpt lat="40.7239572" lon="-3.8722604"><ele>917.0000000000001</ele><time>2026-04-05T16:33:20.146Z</time></trkpt><trkpt lat="40.7239762" lon="-3.8721427"><ele>917.0</ele><time>2026-04-05T16:33:21.145Z</time></trkpt><trkpt lat="40.7240025" lon="-3.8720208"><ele>917.0</ele><time>2026-04-05T16:33:22.146Z</time></trkpt><trkpt lat="40.724026" lon="-3.8719141"><ele>917.0</ele><time>2026-04-05T16:33:23.145Z</time></trkpt><trkpt lat="40.7240629" lon="-3.8718065"><ele>917.0</ele><time>2026-04-05T16:33:24.145Z</time></trkpt><trkpt lat="40.7241037" lon="-3.8716882"><ele>917.0</ele><time>2026-04-05T16:33:25.145Z</time></trkpt><trkpt lat="40.7241412" lon="-3.8715649"><ele>917.0</ele><time>2026-04-05T16:33:26.145Z</time></trkpt><trkpt lat="40.7241762" lon="-3.8714421"><ele>916.8333333333334</ele><time>2026-04-05T16:33:27.145Z</time></trkpt><trkpt lat="40.7242181" lon="-3.8713463"><ele>916.6666666666667</ele><time>2026-04-05T16:33:28.146Z</time></trkpt><trkpt lat="40.7242594" lon="-3.8712444"><ele>916.5</ele><time>2026-04-05T16:33:29.145Z</time></trkpt><trkpt lat="40.7242914" lon="-3.8711498"><ele>916.3333333333333</ele><time>2026-04-05T16:33:30.145Z</time></trkpt><trkpt lat="40.7243236" lon="-3.8710569"><ele>916.1666666666666</ele><time>2026-04-05T16:33:31.146Z</time></trkpt><trkpt lat="40.7243595" lon="-3.870957"><ele>916.0</ele><time>2026-04-05T16:33:32.145Z</time></trkpt><trkpt lat="40.724402" lon="-3.8708521"><ele>915.9999999999999</ele><time>2026-04-05T16:33:33.145Z</time></trkpt><trkpt lat="40.7244416" lon="-3.8707439"><ele>916.0</ele><time>2026-04-05T16:33:34.145Z</time></trkpt><trkpt lat="40.7244793" lon="-3.8706449"><ele>916.0</ele><time>2026-04-05T16:33:35.145Z</time></trkpt><trkpt lat="40.7245162" lon="-3.87056"><ele>916.0</ele><time>2026-04-05T16:33:36.145Z</time></trkpt><trkpt lat="40.724553" lon="-3.8704775"><ele>915.9999999999999</ele><time>2026-04-05T16:33:37.146Z</time></trkpt><trkpt lat="40.7245815" lon="-3.8704001"><ele>916.0</ele><time>2026-04-05T16:33:38.145Z</time></trkpt><trkpt lat="40.7246325" lon="-3.8702537"><ele>916.0</ele><time>2026-04-05T16:33:40.145Z</time></trkpt><trkpt lat="40.7246826" lon="-3.8701166"><ele>915.9999999999999</ele><time>2026-04-05T16:33:42.145Z</time></trkpt><trkpt lat="40.7247349" lon="-3.8700104"><ele>915.9999999999999</ele><time>2026-04-05T16:33:44.145Z</time></trkpt><trkpt lat="40.72478" lon="-3.8698732"><ele>916.0</ele><time>2026-04-05T16:33:46.145Z</time></trkpt><trkpt lat="40.7247885" lon="-3.869778"><ele>916.0</ele><time>2026-04-05T16:33:47.145Z</time></trkpt><trkpt lat="40.7248078" lon="-3.8696949"><ele>915.8</ele><time>2026-04-05T16:33:48.145Z</time></trkpt><trkpt lat="40.72484" lon="-3.8695488"><ele>915.5999999999999</ele><time>2026-04-05T16:33:50.146Z</time></trkpt><trkpt lat="40.7248555" lon="-3.8694193"><ele>915.4</ele><time>2026-04-05T16:33:52.146Z</time></trkpt><trkpt lat="40.7248594" lon="-3.8693178"><ele>915.2</ele><time>2026-04-05T16:33:54.145Z</time></trkpt><trkpt lat="40.7248907" lon="-3.8692293"><ele>915.0</ele><time>2026-04-05T16:33:56.145Z</time></trkpt><trkpt lat="40.7249396" lon="-3.8691337"><ele>914.2</ele><time>2026-04-05T16:33:58.146Z</time></trkpt><trkpt lat="40.724962" lon="-3.8690069"><ele>913.4</ele><time>2026-04-05T16:34:00.146Z</time></trkpt><trkpt lat="40.7249676" lon="-3.8688677"><ele>912.5999999999999</ele><time>2026-04-05T16:34:02.145Z</time></trkpt><trkpt lat="40.7249814" lon="-3.8687655"><ele>911.8</ele><time>2026-04-05T16:34:04.146Z</time></trkpt><trkpt lat="40.7250216" lon="-3.868692"><ele>911.0</ele><time>2026-04-05T16:34:13.146Z</time></trkpt><trkpt lat="40.7249889" lon="-3.8685482"><ele>910.5000000000001</ele><time>2026-04-05T16:34:16.145Z</time></trkpt><trkpt lat="40.7249197" lon="-3.868415"><ele>910.0</ele><time>2026-04-05T16:34:18.145Z</time></trkpt><trkpt lat="40.7249069" lon="-3.868333"><ele>909.5</ele><time>2026-04-05T16:34:19.146Z</time></trkpt><trkpt lat="40.7249091" lon="-3.8682421"><ele>909.0</ele><time>2026-04-05T16:34:20.145Z</time></trkpt><trkpt lat="40.7249315" lon="-3.8681408"><ele>908.5000000000001</ele><time>2026-04-05T16:34:21.145Z</time></trkpt><trkpt lat="40.7249748" lon="-3.868028"><ele>908.0</ele><time>2026-04-05T16:34:22.145Z</time></trkpt><trkpt lat="40.7250252" lon="-3.8679145"><ele>908.0</ele><time>2026-04-05T16:34:23.145Z</time></trkpt><trkpt lat="40.7250599" lon="-3.8677966"><ele>908.0</ele><time>2026-04-05T16:34:24.145Z</time></trkpt><trkpt lat="40.7250829" lon="-3.8676651"><ele>908.0</ele><time>2026-04-05T16:34:25.145Z</time></trkpt><trkpt lat="40.7250964" lon="-3.8675256"><ele>908.0</ele><time>2026-04-05T16:34:26.145Z</time></trkpt><trkpt lat="40.7251078" lon="-3.8673905"><ele>908.0</ele><time>2026-04-05T16:34:27.146Z</time></trkpt><trkpt lat="40.7251126" lon="-3.8672507"><ele>907.4</ele><time>2026-04-05T16:34:28.146Z</time></trkpt><trkpt lat="40.7251166" lon="-3.8671129"><ele>906.8</ele><time>2026-04-05T16:34:29.145Z</time></trkpt><trkpt lat="40.7251175" lon="-3.8669685"><ele>906.2</ele><time>2026-04-05T16:34:30.146Z</time></trkpt><trkpt lat="40.7251227" lon="-3.8668262"><ele>905.6</ele><time>2026-04-05T16:34:31.145Z</time></trkpt><trkpt lat="40.7251276" lon="-3.8666812"><ele>905.0</ele><time>2026-04-05T16:34:32.146Z</time></trkpt><trkpt lat="40.7251265" lon="-3.8665309"><ele>904.5</ele><time>2026-04-05T16:34:33.146Z</time></trkpt><trkpt lat="40.7251243" lon="-3.866377"><ele>904.0</ele><time>2026-04-05T16:34:34.145Z</time></trkpt><trkpt lat="40.7251208" lon="-3.8662191"><ele>903.5</ele><time>2026-04-05T16:34:35.145Z</time></trkpt><trkpt lat="40.7251198" lon="-3.8660672"><ele>903.0</ele><time>2026-04-05T16:34:36.146Z</time></trkpt><trkpt lat="40.72512" lon="-3.8659126"><ele>902.75</ele><time>2026-04-05T16:34:37.145Z</time></trkpt><trkpt lat="40.7251209" lon="-3.8657612"><ele>902.5</ele><time>2026-04-05T16:34:38.145Z</time></trkpt><trkpt lat="40.7251179" lon="-3.8656147"><ele>902.25</ele><time>2026-04-05T16:34:39.145Z</time></trkpt><trkpt lat="40.7251187" lon="-3.8654651"><ele>902.0</ele><time>2026-04-05T16:34:40.145Z</time></trkpt><trkpt lat="40.7251218" lon="-3.8653123"><ele>902.0</ele><time>2026-04-05T16:34:41.145Z</time></trkpt><trkpt lat="40.7251238" lon="-3.8651496"><ele>902.0</ele><time>2026-04-05T16:34:42.145Z</time></trkpt><trkpt lat="40.7251252" lon="-3.864991"><ele>902.0</ele><time>2026-04-05T16:34:43.146Z</time></trkpt><trkpt lat="40.725127" lon="-3.8648322"><ele>902.0</ele><time>2026-04-05T16:34:44.145Z</time></trkpt><trkpt lat="40.7251283" lon="-3.8646691"><ele>902.0</ele><time>2026-04-05T16:34:45.145Z</time></trkpt><trkpt lat="40.7251299" lon="-3.86451"><ele>902.0</ele><time>2026-04-05T16:34:46.145Z</time></trkpt><trkpt lat="40.7251317" lon="-3.8643511"><ele>902.0</ele><time>2026-04-05T16:34:47.146Z</time></trkpt><trkpt lat="40.7251323" lon="-3.8641921"><ele>902.0</ele><time>2026-04-05T16:34:48.146Z</time></trkpt><trkpt lat="40.7251336" lon="-3.864034"><ele>901.75</ele><time>2026-04-05T16:34:49.146Z</time></trkpt><trkpt lat="40.7251352" lon="-3.8638772"><ele>901.5</ele><time>2026-04-05T16:34:50.145Z</time></trkpt><trkpt lat="40.7251456" lon="-3.8637316"><ele>901.25</ele><time>2026-04-05T16:34:51.145Z</time></trkpt><trkpt lat="40.7251585" lon="-3.8635804"><ele>901.0</ele><time>2026-04-05T16:34:52.145Z</time></trkpt><trkpt lat="40.7251777" lon="-3.8634239"><ele>901.0</ele><time>2026-04-05T16:34:53.145Z</time></trkpt><trkpt lat="40.7252021" lon="-3.863269"><ele>901.0</ele><time>2026-04-05T16:34:54.145Z</time></trkpt><trkpt lat="40.7252351" lon="-3.8631165"><ele>901.0</ele><time>2026-04-05T16:34:55.145Z</time></trkpt><trkpt lat="40.7252681" lon="-3.8629595"><ele>901.0</ele><time>2026-04-05T16:34:56.146Z</time></trkpt><trkpt lat="40.7253074" lon="-3.8628134"><ele>901.25</ele><time>2026-04-05T16:34:57.145Z</time></trkpt><trkpt lat="40.7253532" lon="-3.8626738"><ele>901.5</ele><time>2026-04-05T16:34:58.145Z</time></trkpt><trkpt lat="40.7254024" lon="-3.8625322"><ele>901.75</ele><time>2026-04-05T16:34:59.146Z</time></trkpt><trkpt lat="40.7254552" lon="-3.8623911"><ele>902.0</ele><time>2026-04-05T16:35:00.145Z</time></trkpt><trkpt lat="40.7255107" lon="-3.8622458"><ele>902.0</ele><time>2026-04-05T16:35:01.145Z</time></trkpt><trkpt lat="40.7255714" lon="-3.8621107"><ele>902.0</ele><time>2026-04-05T16:35:02.145Z</time></trkpt><trkpt lat="40.7256425" lon="-3.8619832"><ele>902.0</ele><time>2026-04-05T16:35:03.146Z</time></trkpt><trkpt lat="40.7257191" lon="-3.8618609"><ele>902.0</ele><time>2026-04-05T16:35:04.145Z</time></trkpt><trkpt lat="40.7257959" lon="-3.8617422"><ele>902.2</ele><time>2026-04-05T16:35:05.145Z</time></trkpt><trkpt lat="40.7258741" lon="-3.8616366"><ele>902.4000000000001</ele><time>2026-04-05T16:35:06.145Z</time></trkpt><trkpt lat="40.7259422" lon="-3.8615381"><ele>902.5999999999999</ele><time>2026-04-05T16:35:07.146Z</time></trkpt><trkpt lat="40.7260123" lon="-3.8614544"><ele>902.8</ele><time>2026-04-05T16:35:08.145Z</time></trkpt><trkpt lat="40.7260791" lon="-3.8613761"><ele>903.0</ele><time>2026-04-05T16:35:09.145Z</time></trkpt><trkpt lat="40.726153" lon="-3.8613076"><ele>903.2</ele><time>2026-04-05T16:35:10.145Z</time></trkpt><trkpt lat="40.7262288" lon="-3.861232"><ele>903.4</ele><time>2026-04-05T16:35:11.146Z</time></trkpt><trkpt lat="40.7263132" lon="-3.86115"><ele>903.6000000000001</ele><time>2026-04-05T16:35:12.145Z</time></trkpt><trkpt lat="40.7264062" lon="-3.8610666"><ele>903.8000000000001</ele><time>2026-04-05T16:35:13.145Z</time></trkpt><trkpt lat="40.7264999" lon="-3.8609846"><ele>904.0</ele><time>2026-04-05T16:35:14.145Z</time></trkpt><trkpt lat="40.7266001" lon="-3.860902"><ele>904.0</ele><time>2026-04-05T16:35:15.145Z</time></trkpt><trkpt lat="40.7267045" lon="-3.8608269"><ele>904.0</ele><time>2026-04-05T16:35:16.145Z</time></trkpt><trkpt lat="40.7268112" lon="-3.8607424"><ele>904.0</ele><time>2026-04-05T16:35:17.145Z</time></trkpt><trkpt lat="40.7269114" lon="-3.8606533"><ele>904.0</ele><time>2026-04-05T16:35:18.145Z</time></trkpt><trkpt lat="40.7270108" lon="-3.8605656"><ele>905.75</ele><time>2026-04-05T16:35:19.145Z</time></trkpt><trkpt lat="40.7271044" lon="-3.860472"><ele>907.5</ele><time>2026-04-05T16:35:20.145Z</time></trkpt><trkpt lat="40.7271928" lon="-3.8603692"><ele>909.25</ele><time>2026-04-05T16:35:21.145Z</time></trkpt><trkpt lat="40.7272821" lon="-3.860257"><ele>911.0</ele><time>2026-04-05T16:35:22.145Z</time></trkpt><trkpt lat="40.7273612" lon="-3.8601455"><ele>910.5999999999999</ele><time>2026-04-05T16:35:23.145Z</time></trkpt><trkpt lat="40.7274304" lon="-3.8600325"><ele>910.1999999999999</ele><time>2026-04-05T16:35:24.145Z</time></trkpt><trkpt lat="40.7275047" lon="-3.8599249"><ele>909.8000000000001</ele><time>2026-04-05T16:35:25.145Z</time></trkpt><trkpt lat="40.7275828" lon="-3.8598149"><ele>909.4000000000001</ele><time>2026-04-05T16:35:26.145Z</time></trkpt><trkpt lat="40.72766" lon="-3.8597036"><ele>909.0</ele><time>2026-04-05T16:35:27.145Z</time></trkpt><trkpt lat="40.7277369" lon="-3.859588"><ele>909.0</ele><time>2026-04-05T16:35:28.145Z</time></trkpt><trkpt lat="40.7278177" lon="-3.8594701"><ele>909.0</ele><time>2026-04-05T16:35:29.146Z</time></trkpt><trkpt lat="40.7278971" lon="-3.8593497"><ele>909.0</ele><time>2026-04-05T16:35:30.146Z</time></trkpt><trkpt lat="40.727971" lon="-3.8592285"><ele>909.0</ele><time>2026-04-05T16:35:31.146Z</time></trkpt><trkpt lat="40.728042" lon="-3.8591065"><ele>907.8000000000001</ele><time>2026-04-05T16:35:32.146Z</time></trkpt><trkpt lat="40.7281111" lon="-3.8589927"><ele>906.6000000000001</ele><time>2026-04-05T16:35:33.145Z</time></trkpt><trkpt lat="40.7281799" lon="-3.8588753"><ele>905.4</ele><time>2026-04-05T16:35:34.146Z</time></trkpt><trkpt lat="40.728249" lon="-3.8587558"><ele>904.2</ele><time>2026-04-05T16:35:35.145Z</time></trkpt><trkpt lat="40.7283028" lon="-3.8586269"><ele>903.0</ele><time>2026-04-05T16:35:36.145Z</time></trkpt><trkpt lat="40.7283501" lon="-3.8584909"><ele>902.8333333333334</ele><time>2026-04-05T16:35:37.145Z</time></trkpt><trkpt lat="40.7283951" lon="-3.8583505"><ele>902.6666666666667</ele><time>2026-04-05T16:35:38.145Z</time></trkpt><trkpt lat="40.7284297" lon="-3.8582358"><ele>902.5</ele><time>2026-04-05T16:35:39.146Z</time></trkpt><trkpt lat="40.7284503" lon="-3.8581316"><ele>902.3333333333334</ele><time>2026-04-05T16:35:40.145Z</time></trkpt><trkpt lat="40.7284577" lon="-3.8580405"><ele>902.1666666666667</ele><time>2026-04-05T16:35:41.145Z</time></trkpt><trkpt lat="40.7284478" lon="-3.8579521"><ele>902.0</ele><time>2026-04-05T16:35:42.146Z</time></trkpt><trkpt lat="40.7284194" lon="-3.8578703"><ele>902.0000000000001</ele><time>2026-04-05T16:35:43.145Z</time></trkpt><trkpt lat="40.7283866" lon="-3.8577869"><ele>902.0</ele><time>2026-04-05T16:35:44.145Z</time></trkpt><trkpt lat="40.7283604" lon="-3.8576942"><ele>902.0</ele><time>2026-04-05T16:35:45.145Z</time></trkpt><trkpt lat="40.7283514" lon="-3.8576056"><ele>902.0</ele><time>2026-04-05T16:35:46.145Z</time></trkpt><trkpt lat="40.7283458" lon="-3.8574387"><ele>902.0000000000001</ele><time>2026-04-05T16:35:48.145Z</time></trkpt><trkpt lat="40.7283535" lon="-3.8573388"><ele>902.0</ele><time>2026-04-05T16:35:49.145Z</time></trkpt><trkpt lat="40.7283745" lon="-3.8572403"><ele>901.6</ele><time>2026-04-05T16:35:50.145Z</time></trkpt><trkpt lat="40.7284082" lon="-3.857123"><ele>901.2</ele><time>2026-04-05T16:35:51.145Z</time></trkpt><trkpt lat="40.7284504" lon="-3.8570301"><ele>900.8</ele><time>2026-04-05T16:35:52.146Z</time></trkpt><trkpt lat="40.728486" lon="-3.8569488"><ele>900.4</ele><time>2026-04-05T16:35:53.145Z</time></trkpt><trkpt lat="40.7285426" lon="-3.8568087"><ele>900.0</ele><time>2026-04-05T16:35:55.145Z</time></trkpt><trkpt lat="40.7285785" lon="-3.8566945"><ele>901.6</ele><time>2026-04-05T16:35:57.145Z</time></trkpt><trkpt lat="40.7286086" lon="-3.8565856"><ele>903.2</ele><time>2026-04-05T16:35:59.145Z</time></trkpt><trkpt lat="40.7286498" lon="-3.8564868"><ele>904.8</ele><time>2026-04-05T16:36:01.145Z</time></trkpt><trkpt lat="40.7286577" lon="-3.8563998"><ele>906.4</ele><time>2026-04-05T16:36:04.145Z</time></trkpt><trkpt lat="40.7287122" lon="-3.8562577"><ele>908.0</ele><time>2026-04-05T16:36:53.145Z</time></trkpt><trkpt lat="40.7287523" lon="-3.856139"><ele>908.0000000000001</ele><time>2026-04-05T16:37:26.145Z</time></trkpt><trkpt lat="40.7288139" lon="-3.8560137"><ele>908.0</ele><time>2026-04-05T16:37:28.145Z</time></trkpt><trkpt lat="40.7288458" lon="-3.8559324"><ele>908.0</ele><time>2026-04-05T16:37:29.145Z</time></trkpt><trkpt lat="40.7288712" lon="-3.8558397"><ele>908.0</ele><time>2026-04-05T16:37:30.145Z</time></trkpt><trkpt lat="40.728885" lon="-3.8557387"><ele>908.0000000000001</ele><time>2026-04-05T16:37:31.146Z</time></trkpt><trkpt lat="40.7289015" lon="-3.8556436"><ele>908.0</ele><time>2026-04-05T16:37:32.146Z</time></trkpt><trkpt lat="40.7289199" lon="-3.8555527"><ele>907.1666666666667</ele><time>2026-04-05T16:37:33.145Z</time></trkpt><trkpt lat="40.7289496" lon="-3.8554552"><ele>906.3333333333334</ele><time>2026-04-05T16:37:34.146Z</time></trkpt><trkpt lat="40.7289854" lon="-3.855357"><ele>905.5</ele><time>2026-04-05T16:37:35.145Z</time></trkpt><trkpt lat="40.7290321" lon="-3.8552505"><ele>904.6666666666667</ele><time>2026-04-05T16:37:36.146Z</time></trkpt><trkpt lat="40.72908" lon="-3.8551588"><ele>903.8333333333334</ele><time>2026-04-05T16:37:37.145Z</time></trkpt><trkpt lat="40.729125" lon="-3.8550755"><ele>903.0</ele><time>2026-04-05T16:37:38.145Z</time></trkpt><trkpt lat="40.7291682" lon="-3.8549864"><ele>902.5714285714286</ele><time>2026-04-05T16:37:39.145Z</time></trkpt><trkpt lat="40.7292144" lon="-3.854897"><ele>902.1428571428571</ele><time>2026-04-05T16:37:40.145Z</time></trkpt><trkpt lat="40.7292592" lon="-3.8548081"><ele>901.7142857142858</ele><time>2026-04-05T16:37:41.145Z</time></trkpt><trkpt lat="40.7293019" lon="-3.8547342"><ele>901.2857142857143</ele><time>2026-04-05T16:37:42.145Z</time></trkpt><trkpt lat="40.7293401" lon="-3.8546614"><ele>900.8571428571429</ele><time>2026-04-05T16:37:43.145Z</time></trkpt><trkpt lat="40.7293692" lon="-3.8545791"><ele>900.4285714285716</ele><time>2026-04-05T16:37:44.146Z</time></trkpt><trkpt lat="40.7294045" lon="-3.8544958"><ele>900.0000000000001</ele><time>2026-04-05T16:37:45.146Z</time></trkpt><trkpt lat="40.7294426" lon="-3.8544088"><ele>900.5714285714287</ele><time>2026-04-05T16:37:46.145Z</time></trkpt><trkpt lat="40.7294843" lon="-3.8543242"><ele>901.1428571428571</ele><time>2026-04-05T16:37:47.145Z</time></trkpt><trkpt lat="40.7295285" lon="-3.8542437"><ele>901.7142857142858</ele><time>2026-04-05T16:37:48.145Z</time></trkpt><trkpt lat="40.7295781" lon="-3.8541696"><ele>902.2857142857143</ele><time>2026-04-05T16:37:49.145Z</time></trkpt><trkpt lat="40.7296285" lon="-3.8540971"><ele>902.8571428571429</ele><time>2026-04-05T16:37:50.145Z</time></trkpt><trkpt lat="40.7296772" lon="-3.854022"><ele>903.4285714285714</ele><time>2026-04-05T16:37:51.145Z</time></trkpt><trkpt lat="40.7297181" lon="-3.8539482"><ele>904.0</ele><time>2026-04-05T16:37:52.145Z</time></trkpt><trkpt lat="40.7297616" lon="-3.8538785"><ele>904.0</ele><time>2026-04-05T16:37:53.146Z</time></trkpt><trkpt lat="40.7298021" lon="-3.853808"><ele>904.0000000000001</ele><time>2026-04-05T16:37:54.146Z</time></trkpt><trkpt lat="40.7298809" lon="-3.8536917"><ele>904.0000000000001</ele><time>2026-04-05T16:37:56.146Z</time></trkpt><trkpt lat="40.7299494" lon="-3.8535776"><ele>904.0</ele><time>2026-04-05T16:37:58.145Z</time></trkpt><trkpt lat="40.7300081" lon="-3.8534807"><ele>904.0</ele><time>2026-04-05T16:38:00.145Z</time></trkpt><trkpt lat="40.7300567" lon="-3.8534164"><ele>903.8333333333333</ele><time>2026-04-05T16:38:02.145Z</time></trkpt><trkpt lat="40.730098" lon="-3.8533529"><ele>903.6666666666666</ele><time>2026-04-05T16:38:04.145Z</time></trkpt><trkpt lat="40.7301443" lon="-3.8532828"><ele>903.5</ele><time>2026-04-05T16:38:06.145Z</time></trkpt><trkpt lat="40.7302276" lon="-3.8531915"><ele>903.3333333333333</ele><time>2026-04-05T16:38:08.145Z</time></trkpt><trkpt lat="40.7302843" lon="-3.8531476"><ele>903.1666666666666</ele><time>2026-04-05T16:38:09.145Z</time></trkpt><trkpt lat="40.7304034" lon="-3.8531031"><ele>903.0</ele><time>2026-04-05T16:38:11.145Z</time></trkpt><trkpt lat="40.7304629" lon="-3.8530704"><ele>903.0</ele><time>2026-04-05T16:38:12.145Z</time></trkpt><trkpt lat="40.7305164" lon="-3.8530041"><ele>903.0</ele><time>2026-04-05T16:38:13.145Z</time></trkpt><trkpt lat="40.7305714" lon="-3.8529168"><ele>903.0</ele><time>2026-04-05T16:38:14.145Z</time></trkpt><trkpt lat="40.7306283" lon="-3.8528289"><ele>903.0</ele><time>2026-04-05T16:38:15.146Z</time></trkpt><trkpt lat="40.7306861" lon="-3.8527513"><ele>903.0</ele><time>2026-04-05T16:38:16.146Z</time></trkpt><trkpt lat="40.7307418" lon="-3.8526807"><ele>903.0</ele><time>2026-04-05T16:38:17.145Z</time></trkpt><trkpt lat="40.7308012" lon="-3.8526042"><ele>903.8333333333334</ele><time>2026-04-05T16:38:18.145Z</time></trkpt><trkpt lat="40.7308622" lon="-3.8525131"><ele>904.6666666666667</ele><time>2026-04-05T16:38:19.145Z</time></trkpt><trkpt lat="40.7309201" lon="-3.8524234"><ele>905.5</ele><time>2026-04-05T16:38:20.145Z</time></trkpt><trkpt lat="40.7309777" lon="-3.85234"><ele>906.3333333333334</ele><time>2026-04-05T16:38:21.145Z</time></trkpt><trkpt lat="40.7310384" lon="-3.8522551"><ele>907.1666666666667</ele><time>2026-04-05T16:38:22.146Z</time></trkpt><trkpt lat="40.7311014" lon="-3.852165"><ele>908.0</ele><time>2026-04-05T16:38:23.145Z</time></trkpt><trkpt lat="40.7311655" lon="-3.8520809"><ele>908.0</ele><time>2026-04-05T16:38:24.146Z</time></trkpt><trkpt lat="40.7312346" lon="-3.8519925"><ele>908.0</ele><time>2026-04-05T16:38:25.145Z</time></trkpt><trkpt lat="40.7313039" lon="-3.8519094"><ele>908.0</ele><time>2026-04-05T16:38:26.145Z</time></trkpt><trkpt lat="40.731376" lon="-3.8518323"><ele>908.0</ele><time>2026-04-05T16:38:27.146Z</time></trkpt><trkpt lat="40.7314486" lon="-3.8517501"><ele>908.0</ele><time>2026-04-05T16:38:28.145Z</time></trkpt><trkpt lat="40.7315146" lon="-3.8516785"><ele>906.5000000000001</ele><time>2026-04-05T16:38:29.145Z</time></trkpt><trkpt lat="40.7315739" lon="-3.8516109"><ele>905.0</ele><time>2026-04-05T16:38:30.145Z</time></trkpt><trkpt lat="40.7316375" lon="-3.85154"><ele>903.5</ele><time>2026-04-05T16:38:31.146Z</time></trkpt><trkpt lat="40.7317052" lon="-3.8514744"><ele>902.0</ele><time>2026-04-05T16:38:32.145Z</time></trkpt><trkpt lat="40.7317694" lon="-3.8514148"><ele>900.5000000000001</ele><time>2026-04-05T16:38:33.145Z</time></trkpt><trkpt lat="40.7318278" lon="-3.851333"><ele>899.0</ele><time>2026-04-05T16:38:34.145Z</time></trkpt><trkpt lat="40.7318739" lon="-3.8512598"><ele>899.5000000000001</ele><time>2026-04-05T16:38:35.145Z</time></trkpt><trkpt lat="40.731917" lon="-3.8511946"><ele>900.0</ele><time>2026-04-05T16:38:36.146Z</time></trkpt><trkpt lat="40.7320125" lon="-3.851097"><ele>900.5</ele><time>2026-04-05T16:38:38.146Z</time></trkpt><trkpt lat="40.7321081" lon="-3.8510095"><ele>901.0</ele><time>2026-04-05T16:38:40.145Z</time></trkpt><trkpt lat="40.7321464" lon="-3.8509403"><ele>901.5000000000001</ele><time>2026-04-05T16:38:41.146Z</time></trkpt><trkpt lat="40.7321765" lon="-3.8508642"><ele>902.0</ele><time>2026-04-05T16:38:42.145Z</time></trkpt><trkpt lat="40.7322023" lon="-3.8507281"><ele>902.0000000000001</ele><time>2026-04-05T16:38:44.146Z</time></trkpt><trkpt lat="40.7322465" lon="-3.8506363"><ele>902.0</ele><time>2026-04-05T16:38:46.145Z</time></trkpt><trkpt lat="40.7323255" lon="-3.850529"><ele>902.0</ele><time>2026-04-05T16:38:48.145Z</time></trkpt><trkpt lat="40.7323688" lon="-3.850467"><ele>902.0</ele><time>2026-04-05T16:38:49.145Z</time></trkpt><trkpt lat="40.7324064" lon="-3.8503981"><ele>902.0000000000001</ele><time>2026-04-05T16:38:50.145Z</time></trkpt><trkpt lat="40.7324479" lon="-3.8503271"><ele>902.0</ele><time>2026-04-05T16:38:51.145Z</time></trkpt><trkpt lat="40.7324896" lon="-3.8502448"><ele>902.0</ele><time>2026-04-05T16:38:52.145Z</time></trkpt><trkpt lat="40.7325319" lon="-3.8501663"><ele>902.0</ele><time>2026-04-05T16:38:53.145Z</time></trkpt><trkpt lat="40.7325627" lon="-3.8500905"><ele>902.0</ele><time>2026-04-05T16:38:54.145Z</time></trkpt><trkpt lat="40.7326295" lon="-3.8500123"><ele>902.0</ele><time>2026-04-05T16:38:56.145Z</time></trkpt><trkpt lat="40.7326893" lon="-3.8499791"><ele>902.0</ele><time>2026-04-05T16:38:58.146Z</time></trkpt><trkpt lat="40.7327388" lon="-3.8499191"><ele>902.0</ele><time>2026-04-05T16:39:00.145Z</time></trkpt><trkpt lat="40.7327827" lon="-3.8498503"><ele>902.0</ele><time>2026-04-05T16:39:03.146Z</time></trkpt><trkpt lat="40.7328443" lon="-3.8498041"><ele>902.8333333333334</ele><time>2026-04-05T16:39:06.145Z</time></trkpt><trkpt lat="40.7329057" lon="-3.8497572"><ele>903.6666666666667</ele><time>2026-04-05T16:39:09.145Z</time></trkpt><trkpt lat="40.7329733" lon="-3.8497281"><ele>904.5</ele><time>2026-04-05T16:39:12.145Z</time></trkpt><trkpt lat="40.7330618" lon="-3.849674"><ele>905.3333333333333</ele><time>2026-04-05T16:39:15.146Z</time></trkpt><trkpt lat="40.7331519" lon="-3.8496232"><ele>906.1666666666666</ele><time>2026-04-05T16:39:17.145Z</time></trkpt><trkpt lat="40.7332226" lon="-3.8495786"><ele>907.0</ele><time>2026-04-05T16:39:19.145Z</time></trkpt><trkpt lat="40.7332881" lon="-3.84954"><ele>907.0000000000001</ele><time>2026-04-05T16:39:21.146Z</time></trkpt><trkpt lat="40.7333543" lon="-3.8495185"><ele>907.0</ele><time>2026-04-05T16:39:23.145Z</time></trkpt><trkpt lat="40.7334302" lon="-3.8494594"><ele>907.0000000000001</ele><time>2026-04-05T16:39:26.146Z</time></trkpt><trkpt lat="40.7334951" lon="-3.8494458"><ele>907.0000000000001</ele><time>2026-04-05T16:39:28.145Z</time></trkpt><trkpt lat="40.7335585" lon="-3.8494141"><ele>907.0</ele><time>2026-04-05T16:39:30.145Z</time></trkpt><trkpt lat="40.733633" lon="-3.8493639"><ele>907.0000000000001</ele><time>2026-04-05T16:39:33.145Z</time></trkpt><trkpt lat="40.7336911" lon="-3.8493202"><ele>907.0000000000001</ele><time>2026-04-05T16:39:35.145Z</time></trkpt><trkpt lat="40.7337803" lon="-3.8492465"><ele>905.4000000000001</ele><time>2026-04-05T16:39:37.145Z</time></trkpt><trkpt lat="40.7338526" lon="-3.849145"><ele>903.8000000000001</ele><time>2026-04-05T16:39:39.145Z</time></trkpt><trkpt lat="40.7339187" lon="-3.8490353"><ele>902.2</ele><time>2026-04-05T16:39:41.145Z</time></trkpt><trkpt lat="40.7339816" lon="-3.8489093"><ele>900.6</ele><time>2026-04-05T16:39:43.145Z</time></trkpt><trkpt lat="40.7340634" lon="-3.8487927"><ele>899.0</ele><time>2026-04-05T16:39:45.145Z</time></trkpt><trkpt lat="40.7341368" lon="-3.848716"><ele>898.9999999999999</ele><time>2026-04-05T16:39:47.145Z</time></trkpt><trkpt lat="40.7341864" lon="-3.8486452"><ele>899.0</ele><time>2026-04-05T16:39:49.145Z</time></trkpt><trkpt lat="40.734238" lon="-3.8485696"><ele>898.9999999999999</ele><time>2026-04-05T16:39:52.145Z</time></trkpt><trkpt lat="40.7342923" lon="-3.8485194"><ele>898.9999999999999</ele><time>2026-04-05T16:40:11.145Z</time></trkpt><trkpt lat="40.734359" lon="-3.8484979"><ele>899.0</ele><time>2026-04-05T16:40:13.146Z</time></trkpt><trkpt lat="40.7344339" lon="-3.8484985"><ele>898.9999999999999</ele><time>2026-04-05T16:40:15.145Z</time></trkpt><trkpt lat="40.7344933" lon="-3.8485264"><ele>898.9999999999999</ele><time>2026-04-05T16:40:17.145Z</time></trkpt><trkpt lat="40.7345703" lon="-3.8485389"><ele>898.6666666666667</ele><time>2026-04-05T16:40:20.145Z</time></trkpt><trkpt lat="40.734646" lon="-3.8485255"><ele>898.3333333333334</ele><time>2026-04-05T16:40:22.145Z</time></trkpt><trkpt lat="40.7347092" lon="-3.8485158"><ele>898.0</ele><time>2026-04-05T16:40:24.145Z</time></trkpt><trkpt lat="40.7347884" lon="-3.8484966"><ele>897.6666666666667</ele><time>2026-04-05T16:40:26.145Z</time></trkpt><trkpt lat="40.7348657" lon="-3.8484686"><ele>897.3333333333334</ele><time>2026-04-05T16:40:29.146Z</time></trkpt><trkpt lat="40.7349316" lon="-3.8484244"><ele>897.0</ele><time>2026-04-05T16:40:31.145Z</time></trkpt><trkpt lat="40.7350112" lon="-3.8483782"><ele>897.0</ele><time>2026-04-05T16:40:33.145Z</time></trkpt><trkpt lat="40.7350689" lon="-3.8483199"><ele>897.0</ele><time>2026-04-05T16:40:35.146Z</time></trkpt><trkpt lat="40.7351231" lon="-3.848252"><ele>897.0</ele><time>2026-04-05T16:40:37.145Z</time></trkpt><trkpt lat="40.7351749" lon="-3.8481857"><ele>897.0</ele><time>2026-04-05T16:40:41.146Z</time></trkpt><trkpt lat="40.7351351" lon="-3.8480764"><ele>897.0</ele><time>2026-04-05T16:40:55.146Z</time></trkpt><trkpt lat="40.7350707" lon="-3.8480233"><ele>897.0</ele><time>2026-04-05T16:40:58.145Z</time></trkpt><trkpt lat="40.7350129" lon="-3.8480608"><ele>897.0</ele><time>2026-04-05T16:41:01.145Z</time></trkpt><trkpt lat="40.7349892" lon="-3.848141"><ele>897.0</ele><time>2026-04-05T16:41:03.146Z</time></trkpt><trkpt lat="40.734991" lon="-3.8482318"><ele>897.0</ele><time>2026-04-05T16:41:05.145Z</time></trkpt><trkpt lat="40.7349757" lon="-3.848334"><ele>897.0</ele><time>2026-04-05T16:41:08.146Z</time></trkpt><trkpt lat="40.7349413" lon="-3.8484078"><ele>897.0</ele><time>2026-04-05T16:41:11.145Z</time></trkpt><trkpt lat="40.7348706" lon="-3.8484558"><ele>897.0</ele><time>2026-04-05T16:41:16.145Z</time></trkpt><trkpt lat="40.7348113" lon="-3.8484866"><ele>897.0</ele><time>2026-04-05T16:41:20.145Z</time></trkpt><trkpt lat="40.7347409" lon="-3.8485184"><ele>897.3333333333334</ele><time>2026-04-05T16:41:23.146Z</time></trkpt><trkpt lat="40.7346479" lon="-3.8485363"><ele>897.6666666666667</ele><time>2026-04-05T16:41:26.145Z</time></trkpt><trkpt lat="40.7345595" lon="-3.8485299"><ele>898.0</ele><time>2026-04-05T16:41:28.145Z</time></trkpt><trkpt lat="40.7344868" lon="-3.8485159"><ele>898.3333333333334</ele><time>2026-04-05T16:41:30.145Z</time></trkpt><trkpt lat="40.7344188" lon="-3.8485014"><ele>898.6666666666667</ele><time>2026-04-05T16:41:32.146Z</time></trkpt><trkpt lat="40.7343354" lon="-3.8485057"><ele>899.0</ele><time>2026-04-05T16:41:35.145Z</time></trkpt><trkpt lat="40.7342774" lon="-3.8485385"><ele>899.0</ele><time>2026-04-05T16:41:38.146Z</time></trkpt><trkpt lat="40.734217" lon="-3.8485796"><ele>899.0000000000001</ele><time>2026-04-05T16:41:42.145Z</time></trkpt><trkpt lat="40.7343277" lon="-3.8485363"><ele>899.0000000000001</ele><time>2026-04-05T16:45:12.145Z</time></trkpt><trkpt lat="40.7344067" lon="-3.8485218"><ele>899.0</ele><time>2026-04-05T16:45:14.146Z</time></trkpt><trkpt lat="40.7345108" lon="-3.8485415"><ele>899.0</ele><time>2026-04-05T16:45:16.146Z</time></trkpt><trkpt lat="40.734618" lon="-3.8485564"><ele>898.6</ele><time>2026-04-05T16:45:18.145Z</time></trkpt><trkpt lat="40.734733" lon="-3.8485381"><ele>898.2</ele><time>2026-04-05T16:45:20.145Z</time></trkpt><trkpt lat="40.7347962" lon="-3.8485223"><ele>897.8000000000001</ele><time>2026-04-05T16:45:21.145Z</time></trkpt><trkpt lat="40.734904" lon="-3.8484779"><ele>897.4000000000001</ele><time>2026-04-05T16:45:23.145Z</time></trkpt><trkpt lat="40.7350091" lon="-3.8484078"><ele>897.0</ele><time>2026-04-05T16:45:25.145Z</time></trkpt><trkpt lat="40.7350601" lon="-3.8483552"><ele>897.0</ele><time>2026-04-05T16:45:26.145Z</time></trkpt><trkpt lat="40.7351049" lon="-3.8482854"><ele>897.0</ele><time>2026-04-05T16:45:27.145Z</time></trkpt><trkpt lat="40.735152" lon="-3.8482189"><ele>897.0</ele><time>2026-04-05T16:45:28.146Z</time></trkpt><trkpt lat="40.7351977" lon="-3.8481544"><ele>897.0</ele><time>2026-04-05T16:45:29.145Z</time></trkpt><trkpt lat="40.7352342" lon="-3.8480772"><ele>897.0</ele><time>2026-04-05T16:45:30.145Z</time></trkpt><trkpt lat="40.7352627" lon="-3.8479957"><ele>897.0</ele><time>2026-04-05T16:45:31.145Z</time></trkpt><trkpt lat="40.7353028" lon="-3.8479152"><ele>897.0</ele><time>2026-04-05T16:45:32.146Z</time></trkpt><trkpt lat="40.7353445" lon="-3.847839"><ele>898.0</ele><time>2026-04-05T16:45:33.146Z</time></trkpt><trkpt lat="40.735381" lon="-3.8477639"><ele>899.0</ele><time>2026-04-05T16:45:34.146Z</time></trkpt><trkpt lat="40.7354466" lon="-3.8476218"><ele>900.0</ele><time>2026-04-05T16:45:36.145Z</time></trkpt><trkpt lat="40.735483" lon="-3.8475409"><ele>901.0</ele><time>2026-04-05T16:45:37.145Z</time></trkpt><trkpt lat="40.7355217" lon="-3.8474518"><ele>902.0</ele><time>2026-04-05T16:45:38.145Z</time></trkpt><trkpt lat="40.7355671" lon="-3.8473682"><ele>903.0</ele><time>2026-04-05T16:45:39.146Z</time></trkpt><trkpt lat="40.7356105" lon="-3.8472868"><ele>903.0</ele><time>2026-04-05T16:45:40.146Z</time></trkpt><trkpt lat="40.735647" lon="-3.8472076"><ele>903.0</ele><time>2026-04-05T16:45:41.145Z</time></trkpt><trkpt lat="40.735724" lon="-3.8470977"><ele>903.0</ele><time>2026-04-05T16:45:43.145Z</time></trkpt><trkpt lat="40.7358243" lon="-3.8470098"><ele>903.0</ele><time>2026-04-05T16:45:45.145Z</time></trkpt><trkpt lat="40.7358784" lon="-3.8469332"><ele>903.0</ele><time>2026-04-05T16:45:46.145Z</time></trkpt><trkpt lat="40.7359231" lon="-3.846855"><ele>903.0</ele><time>2026-04-05T16:45:47.145Z</time></trkpt><trkpt lat="40.735964" lon="-3.8467806"><ele>903.0</ele><time>2026-04-05T16:45:48.146Z</time></trkpt><trkpt lat="40.7360122" lon="-3.8467051"><ele>903.0</ele><time>2026-04-05T16:45:49.145Z</time></trkpt><trkpt lat="40.7360639" lon="-3.8466265"><ele>903.0</ele><time>2026-04-05T16:45:50.146Z</time></trkpt><trkpt lat="40.7361067" lon="-3.8465459"><ele>903.0</ele><time>2026-04-05T16:45:51.146Z</time></trkpt><trkpt lat="40.7361455" lon="-3.8464736"><ele>903.0</ele><time>2026-04-05T16:45:52.145Z</time></trkpt><trkpt lat="40.7361834" lon="-3.8464052"><ele>903.0</ele><time>2026-04-05T16:45:53.146Z</time></trkpt><trkpt lat="40.7362688" lon="-3.8463154"><ele>903.0</ele><time>2026-04-05T16:45:55.145Z</time></trkpt><trkpt lat="40.736336" lon="-3.8462356"><ele>903.0</ele><time>2026-04-05T16:45:57.146Z</time></trkpt><trkpt lat="40.7363821" lon="-3.8461512"><ele>903.0</ele><time>2026-04-05T16:45:59.145Z</time></trkpt><trkpt lat="40.7364168" lon="-3.8460625"><ele>903.0</ele><time>2026-04-05T16:46:01.145Z</time></trkpt><trkpt lat="40.7364572" lon="-3.8459402"><ele>903.0</ele><time>2026-04-05T16:46:03.145Z</time></trkpt><trkpt lat="40.7365211" lon="-3.8458221"><ele>902.2857142857142</ele><time>2026-04-05T16:46:05.145Z</time></trkpt><trkpt lat="40.7365632" lon="-3.8457561"><ele>901.5714285714286</ele><time>2026-04-05T16:46:06.145Z</time></trkpt><trkpt lat="40.7366095" lon="-3.8456935"><ele>900.8571428571429</ele><time>2026-04-05T16:46:07.145Z</time></trkpt><trkpt lat="40.7366585" lon="-3.8456285"><ele>900.1428571428571</ele><time>2026-04-05T16:46:08.146Z</time></trkpt><trkpt lat="40.7367135" lon="-3.8455595"><ele>899.4285714285713</ele><time>2026-04-05T16:46:09.145Z</time></trkpt><trkpt lat="40.7367706" lon="-3.8454847"><ele>898.7142857142857</ele><time>2026-04-05T16:46:10.145Z</time></trkpt><trkpt lat="40.7368257" lon="-3.8454062"><ele>898.0</ele><time>2026-04-05T16:46:11.145Z</time></trkpt><trkpt lat="40.7368765" lon="-3.8453257"><ele>898.3333333333333</ele><time>2026-04-05T16:46:12.145Z</time></trkpt><trkpt lat="40.7369228" lon="-3.845241"><ele>898.6666666666666</ele><time>2026-04-05T16:46:13.145Z</time></trkpt><trkpt lat="40.7369687" lon="-3.8451595"><ele>899.0</ele><time>2026-04-05T16:46:14.146Z</time></trkpt><trkpt lat="40.7370019" lon="-3.8450754"><ele>899.3333333333333</ele><time>2026-04-05T16:46:15.145Z</time></trkpt><trkpt lat="40.7370308" lon="-3.8449988"><ele>899.6666666666666</ele><time>2026-04-05T16:46:16.145Z</time></trkpt><trkpt lat="40.7371265" lon="-3.8448803"><ele>900.0</ele><time>2026-04-05T16:46:18.146Z</time></trkpt><trkpt lat="40.737183" lon="-3.8448113"><ele>900.0000000000001</ele><time>2026-04-05T16:46:19.145Z</time></trkpt><trkpt lat="40.7372389" lon="-3.8447416"><ele>900.0</ele><time>2026-04-05T16:46:20.145Z</time></trkpt><trkpt lat="40.7372834" lon="-3.8446659"><ele>900.0000000000001</ele><time>2026-04-05T16:46:21.146Z</time></trkpt><trkpt lat="40.7373285" lon="-3.8446037"><ele>900.0000000000001</ele><time>2026-04-05T16:46:22.145Z</time></trkpt><trkpt lat="40.7373811" lon="-3.844549"><ele>900.0</ele><time>2026-04-05T16:46:23.145Z</time></trkpt><trkpt lat="40.7374349" lon="-3.8444923"><ele>900.0000000000001</ele><time>2026-04-05T16:46:24.145Z</time></trkpt><trkpt lat="40.7374804" lon="-3.8444315"><ele>900.0000000000001</ele><time>2026-04-05T16:46:25.145Z</time></trkpt><trkpt lat="40.7375302" lon="-3.844372"><ele>900.0000000000001</ele><time>2026-04-05T16:46:26.145Z</time></trkpt><trkpt lat="40.7375834" lon="-3.8443151"><ele>900.0</ele><time>2026-04-05T16:46:27.145Z</time></trkpt><trkpt lat="40.7376422" lon="-3.844261"><ele>900.0000000000001</ele><time>2026-04-05T16:46:28.145Z</time></trkpt><trkpt lat="40.7377021" lon="-3.844211"><ele>900.0000000000001</ele><time>2026-04-05T16:46:29.146Z</time></trkpt><trkpt lat="40.7377597" lon="-3.8441539"><ele>900.0</ele><time>2026-04-05T16:46:30.145Z</time></trkpt><trkpt lat="40.7378188" lon="-3.8440923"><ele>900.0000000000001</ele><time>2026-04-05T16:46:31.145Z</time></trkpt><trkpt lat="40.7378798" lon="-3.8440477"><ele>900.0000000000001</ele><time>2026-04-05T16:46:32.145Z</time></trkpt><trkpt lat="40.7379418" lon="-3.8439977"><ele>900.0000000000001</ele><time>2026-04-05T16:46:33.145Z</time></trkpt><trkpt lat="40.7379978" lon="-3.8439464"><ele>900.0</ele><time>2026-04-05T16:46:34.145Z</time></trkpt><trkpt lat="40.7380523" lon="-3.843898"><ele>900.0000000000001</ele><time>2026-04-05T16:46:35.145Z</time></trkpt><trkpt lat="40.7381117" lon="-3.8438576"><ele>900.0000000000001</ele><time>2026-04-05T16:46:36.145Z</time></trkpt><trkpt lat="40.7381757" lon="-3.8438188"><ele>900.0</ele><time>2026-04-05T16:46:37.145Z</time></trkpt><trkpt lat="40.7382411" lon="-3.8437618"><ele>900.0000000000001</ele><time>2026-04-05T16:46:38.145Z</time></trkpt><trkpt lat="40.7383109" lon="-3.8437066"><ele>900.0000000000001</ele><time>2026-04-05T16:46:39.145Z</time></trkpt><trkpt lat="40.7383707" lon="-3.8436532"><ele>900.0</ele><time>2026-04-05T16:46:40.146Z</time></trkpt><trkpt lat="40.738428" lon="-3.843604"><ele>900.0</ele><time>2026-04-05T16:46:41.145Z</time></trkpt><trkpt lat="40.7385126" lon="-3.8434976"><ele>900.0</ele><time>2026-04-05T16:46:43.145Z</time></trkpt><trkpt lat="40.7385834" lon="-3.8434076"><ele>900.0</ele><time>2026-04-05T16:46:45.145Z</time></trkpt><trkpt lat="40.7386342" lon="-3.8433219"><ele>900.0</ele><time>2026-04-05T16:46:47.145Z</time></trkpt><trkpt lat="40.7387045" lon="-3.8432826"><ele>900.0</ele><time>2026-04-05T16:46:49.145Z</time></trkpt><trkpt lat="40.7387939" lon="-3.8432609"><ele>899.6666666666666</ele><time>2026-04-05T16:46:52.145Z</time></trkpt><trkpt lat="40.7388752" lon="-3.8432026"><ele>899.3333333333333</ele><time>2026-04-05T16:46:54.146Z</time></trkpt><trkpt lat="40.738948" lon="-3.8431461"><ele>899.0</ele><time>2026-04-05T16:46:56.145Z</time></trkpt><trkpt lat="40.7390154" lon="-3.843076"><ele>898.6666666666666</ele><time>2026-04-05T16:46:58.145Z</time></trkpt><trkpt lat="40.7390817" lon="-3.8429976"><ele>898.3333333333333</ele><time>2026-04-05T16:47:00.145Z</time></trkpt><trkpt lat="40.7391691" lon="-3.8429532"><ele>898.0</ele><time>2026-04-05T16:47:02.145Z</time></trkpt><trkpt lat="40.7392466" lon="-3.8428952"><ele>897.9999999999999</ele><time>2026-04-05T16:47:04.146Z</time></trkpt><trkpt lat="40.7393169" lon="-3.8428563"><ele>898.0</ele><time>2026-04-05T16:47:06.145Z</time></trkpt><trkpt lat="40.7393941" lon="-3.8428009"><ele>898.0</ele><time>2026-04-05T16:47:08.145Z</time></trkpt><trkpt lat="40.7394464" lon="-3.842742"><ele>898.0</ele><time>2026-04-05T16:47:10.145Z</time></trkpt><trkpt lat="40.7395325" lon="-3.8426308"><ele>897.9999999999999</ele><time>2026-04-05T16:47:12.145Z</time></trkpt><trkpt lat="40.7395814" lon="-3.8425607"><ele>898.0</ele><time>2026-04-05T16:47:13.145Z</time></trkpt><trkpt lat="40.7396276" lon="-3.8424902"><ele>899.0</ele><time>2026-04-05T16:47:14.145Z</time></trkpt><trkpt lat="40.739673" lon="-3.8424324"><ele>900.0</ele><time>2026-04-05T16:47:15.145Z</time></trkpt><trkpt lat="40.7397468" lon="-3.8423321"><ele>901.0</ele><time>2026-04-05T16:47:17.145Z</time></trkpt><trkpt lat="40.7398034" lon="-3.8422086"><ele>902.0</ele><time>2026-04-05T16:47:19.145Z</time></trkpt><trkpt lat="40.7398587" lon="-3.8421109"><ele>903.0</ele><time>2026-04-05T16:47:21.146Z</time></trkpt><trkpt lat="40.7399115" lon="-3.8419714"><ele>903.0</ele><time>2026-04-05T16:47:23.145Z</time></trkpt><trkpt lat="40.7399331" lon="-3.8418714"><ele>903.0</ele><time>2026-04-05T16:47:24.145Z</time></trkpt><trkpt lat="40.7399555" lon="-3.8417681"><ele>903.0</ele><time>2026-04-05T16:47:25.145Z</time></trkpt><trkpt lat="40.7399842" lon="-3.8416604"><ele>903.0</ele><time>2026-04-05T16:47:26.145Z</time></trkpt><trkpt lat="40.7400223" lon="-3.8415608"><ele>903.0</ele><time>2026-04-05T16:47:27.146Z</time></trkpt><trkpt lat="40.7400642" lon="-3.8414692"><ele>903.0</ele><time>2026-04-05T16:47:28.145Z</time></trkpt><trkpt lat="40.7401055" lon="-3.8413799"><ele>903.0</ele><time>2026-04-05T16:47:29.145Z</time></trkpt><trkpt lat="40.740147" lon="-3.8412844"><ele>903.0</ele><time>2026-04-05T16:47:30.146Z</time></trkpt><trkpt lat="40.7401867" lon="-3.8411817"><ele>903.0</ele><time>2026-04-05T16:47:31.145Z</time></trkpt><trkpt lat="40.7402243" lon="-3.8410728"><ele>903.0</ele><time>2026-04-05T16:47:32.145Z</time></trkpt><trkpt lat="40.7402635" lon="-3.8409599"><ele>903.0</ele><time>2026-04-05T16:47:33.146Z</time></trkpt><trkpt lat="40.7403109" lon="-3.8408591"><ele>903.0</ele><time>2026-04-05T16:47:34.146Z</time></trkpt><trkpt lat="40.7403593" lon="-3.8407729"><ele>903.0</ele><time>2026-04-05T16:47:35.145Z</time></trkpt><trkpt lat="40.7403988" lon="-3.8406917"><ele>903.0</ele><time>2026-04-05T16:47:36.146Z</time></trkpt><trkpt lat="40.7404395" lon="-3.8406111"><ele>903.0</ele><time>2026-04-05T16:47:37.145Z</time></trkpt><trkpt lat="40.7404805" lon="-3.8405425"><ele>903.0</ele><time>2026-04-05T16:47:38.145Z</time></trkpt><trkpt lat="40.740564" lon="-3.8404421"><ele>903.0</ele><time>2026-04-05T16:47:40.145Z</time></trkpt><trkpt lat="40.7406594" lon="-3.8403406"><ele>903.0</ele><time>2026-04-05T16:47:42.145Z</time></trkpt><trkpt lat="40.7407223" lon="-3.8402254"><ele>902.5</ele><time>2026-04-05T16:47:44.145Z</time></trkpt><trkpt lat="40.7407515" lon="-3.8400834"><ele>902.0</ele><time>2026-04-05T16:47:46.145Z</time></trkpt><trkpt lat="40.7407786" lon="-3.8399648"><ele>901.5</ele><time>2026-04-05T16:47:48.145Z</time></trkpt><trkpt lat="40.7408038" lon="-3.8398775"><ele>901.0</ele><time>2026-04-05T16:47:50.145Z</time></trkpt><trkpt lat="40.7408411" lon="-3.8397837"><ele>900.5</ele><time>2026-04-05T16:47:53.145Z</time></trkpt><trkpt lat="40.740884" lon="-3.8397068"><ele>900.0</ele><time>2026-04-05T16:47:58.145Z</time></trkpt><trkpt lat="40.7409833" lon="-3.8395478"><ele>900.0</ele><time>2026-04-05T16:48:06.146Z</time></trkpt><trkpt lat="40.7410229" lon="-3.8394531"><ele>900.0</ele><time>2026-04-05T16:48:08.145Z</time></trkpt><trkpt lat="40.7410538" lon="-3.8393667"><ele>900.0</ele><time>2026-04-05T16:48:09.145Z</time></trkpt><trkpt lat="40.7410902" lon="-3.8392311"><ele>900.0</ele><time>2026-04-05T16:48:11.145Z</time></trkpt><trkpt lat="40.7411455" lon="-3.8390922"><ele>900.0</ele><time>2026-04-05T16:48:13.146Z</time></trkpt><trkpt lat="40.7412139" lon="-3.8389748"><ele>900.0</ele><time>2026-04-05T16:48:15.145Z</time></trkpt><trkpt lat="40.7412592" lon="-3.8388331"><ele>900.0</ele><time>2026-04-05T16:48:17.145Z</time></trkpt><trkpt lat="40.7413065" lon="-3.838721"><ele>900.0</ele><time>2026-04-05T16:48:19.145Z</time></trkpt><trkpt lat="40.7413512" lon="-3.8385996"><ele>900.0</ele><time>2026-04-05T16:48:21.145Z</time></trkpt><trkpt lat="40.7414034" lon="-3.8384835"><ele>900.0</ele><time>2026-04-05T16:48:23.146Z</time></trkpt><trkpt lat="40.7414433" lon="-3.838345"><ele>900.0</ele><time>2026-04-05T16:48:25.146Z</time></trkpt><trkpt lat="40.7414692" lon="-3.8381939"><ele>900.0</ele><time>2026-04-05T16:48:27.145Z</time></trkpt><trkpt lat="40.7414888" lon="-3.8380707"><ele>900.0</ele><time>2026-04-05T16:48:29.145Z</time></trkpt><trkpt lat="40.7415141" lon="-3.8379645"><ele>900.0</ele><time>2026-04-05T16:48:31.145Z</time></trkpt><trkpt lat="40.7415453" lon="-3.8378663"><ele>900.0</ele><time>2026-04-05T16:48:33.145Z</time></trkpt><trkpt lat="40.7415617" lon="-3.8377674"><ele>900.0</ele><time>2026-04-05T16:48:35.145Z</time></trkpt><trkpt lat="40.7415856" lon="-3.8376867"><ele>900.0</ele><time>2026-04-05T16:48:37.145Z</time></trkpt><trkpt lat="40.7416146" lon="-3.8375992"><ele>900.0</ele><time>2026-04-05T16:48:39.145Z</time></trkpt><trkpt lat="40.7416163" lon="-3.8375053"><ele>900.0</ele><time>2026-04-05T16:48:42.145Z</time></trkpt><trkpt lat="40.7416038" lon="-3.8374146"><ele>900.0</ele><time>2026-04-05T16:48:45.145Z</time></trkpt><trkpt lat="40.7415735" lon="-3.8372945"><ele>900.0</ele><time>2026-04-05T16:48:48.145Z</time></trkpt><trkpt lat="40.7415514" lon="-3.8371682"><ele>899.4</ele><time>2026-04-05T16:48:50.145Z</time></trkpt><trkpt lat="40.741554" lon="-3.8370265"><ele>898.8</ele><time>2026-04-05T16:48:52.146Z</time></trkpt><trkpt lat="40.741558" lon="-3.8368982"><ele>898.2</ele><time>2026-04-05T16:48:54.145Z</time></trkpt><trkpt lat="40.7415753" lon="-3.8367639"><ele>897.6</ele><time>2026-04-05T16:48:56.145Z</time></trkpt><trkpt lat="40.7415901" lon="-3.8366189"><ele>897.0</ele><time>2026-04-05T16:48:58.146Z</time></trkpt><trkpt lat="40.7415949" lon="-3.8364847"><ele>897.0</ele><time>2026-04-05T16:49:00.145Z</time></trkpt><trkpt lat="40.7415778" lon="-3.8363265"><ele>897.0</ele><time>2026-04-05T16:49:02.145Z</time></trkpt><trkpt lat="40.7415701" lon="-3.8362411"><ele>897.0</ele><time>2026-04-05T16:49:03.145Z</time></trkpt><trkpt lat="40.7415572" lon="-3.8361541"><ele>897.0</ele><time>2026-04-05T16:49:04.145Z</time></trkpt><trkpt lat="40.7415292" lon="-3.8360017"><ele>897.0</ele><time>2026-04-05T16:49:06.145Z</time></trkpt><trkpt lat="40.7414966" lon="-3.8358917"><ele>897.6</ele><time>2026-04-05T16:49:08.145Z</time></trkpt><trkpt lat="40.7414324" lon="-3.8358107"><ele>898.2</ele><time>2026-04-05T16:49:10.146Z</time></trkpt><trkpt lat="40.7413347" lon="-3.8357823"><ele>898.8</ele><time>2026-04-05T16:49:12.145Z</time></trkpt><trkpt lat="40.7412483" lon="-3.8357207"><ele>899.4</ele><time>2026-04-05T16:49:14.145Z</time></trkpt><trkpt lat="40.7411873" lon="-3.8356001"><ele>900.0</ele><time>2026-04-05T16:49:16.146Z</time></trkpt><trkpt lat="40.7411412" lon="-3.8355023"><ele>900.0</ele><time>2026-04-05T16:49:18.145Z</time></trkpt><trkpt lat="40.7410908" lon="-3.8354297"><ele>900.0</ele><time>2026-04-05T16:49:20.145Z</time></trkpt><trkpt lat="40.7410559" lon="-3.835306"><ele>900.0</ele><time>2026-04-05T16:49:23.145Z</time></trkpt><trkpt lat="40.741054" lon="-3.8351665"><ele>900.0</ele><time>2026-04-05T16:49:25.145Z</time></trkpt><trkpt lat="40.7410875" lon="-3.8350224"><ele>900.0</ele><time>2026-04-05T16:49:27.145Z</time></trkpt><trkpt lat="40.7411432" lon="-3.8348673"><ele>900.6</ele><time>2026-04-05T16:49:29.145Z</time></trkpt><trkpt lat="40.741166" lon="-3.83478"><ele>901.2</ele><time>2026-04-05T16:49:30.145Z</time></trkpt><trkpt lat="40.7412077" lon="-3.834631"><ele>901.8</ele><time>2026-04-05T16:49:32.145Z</time></trkpt><trkpt lat="40.7412245" lon="-3.834482"><ele>902.4</ele><time>2026-04-05T16:49:34.146Z</time></trkpt><trkpt lat="40.7412265" lon="-3.8343344"><ele>903.0</ele><time>2026-04-05T16:49:36.145Z</time></trkpt><trkpt lat="40.7412102" lon="-3.8341838"><ele>903.0</ele><time>2026-04-05T16:49:38.145Z</time></trkpt><trkpt lat="40.7411954" lon="-3.834103"><ele>903.0</ele><time>2026-04-05T16:49:39.145Z</time></trkpt><trkpt lat="40.7411826" lon="-3.8340174"><ele>903.0</ele><time>2026-04-05T16:49:40.145Z</time></trkpt><trkpt lat="40.7411699" lon="-3.8339267"><ele>903.0</ele><time>2026-04-05T16:49:41.145Z</time></trkpt><trkpt lat="40.7411634" lon="-3.833831"><ele>903.0</ele><time>2026-04-05T16:49:42.145Z</time></trkpt><trkpt lat="40.7411626" lon="-3.8337331"><ele>903.0</ele><time>2026-04-05T16:49:43.145Z</time></trkpt><trkpt lat="40.741162" lon="-3.8336462"><ele>903.0</ele><time>2026-04-05T16:49:44.145Z</time></trkpt><trkpt lat="40.7411511" lon="-3.8334837"><ele>903.0</ele><time>2026-04-05T16:49:46.145Z</time></trkpt><trkpt lat="40.741137" lon="-3.8333322"><ele>903.0</ele><time>2026-04-05T16:49:48.146Z</time></trkpt><trkpt lat="40.7411514" lon="-3.8331692"><ele>903.0</ele><time>2026-04-05T16:49:50.145Z</time></trkpt><trkpt lat="40.7411872" lon="-3.8330129"><ele>903.0</ele><time>2026-04-05T16:49:52.145Z</time></trkpt><trkpt lat="40.7412037" lon="-3.8328755"><ele>903.0</ele><time>2026-04-05T16:49:54.146Z</time></trkpt><trkpt lat="40.7411853" lon="-3.8327862"><ele>903.0</ele><time>2026-04-05T16:49:55.145Z</time></trkpt><trkpt lat="40.7411735" lon="-3.8326902"><ele>903.0</ele><time>2026-04-05T16:49:56.145Z</time></trkpt><trkpt lat="40.7411755" lon="-3.8326001"><ele>903.0</ele><time>2026-04-05T16:49:57.145Z</time></trkpt><trkpt lat="40.7411872" lon="-3.8325026"><ele>903.0</ele><time>2026-04-05T16:49:58.145Z</time></trkpt><trkpt lat="40.7412104" lon="-3.8324002"><ele>903.0</ele><time>2026-04-05T16:49:59.145Z</time></trkpt><trkpt lat="40.7412365" lon="-3.8322978"><ele>902.5</ele><time>2026-04-05T16:50:00.146Z</time></trkpt><trkpt lat="40.741267" lon="-3.8321944"><ele>902.0</ele><time>2026-04-05T16:50:01.145Z</time></trkpt><trkpt lat="40.7412863" lon="-3.8320845"><ele>901.5</ele><time>2026-04-05T16:50:02.145Z</time></trkpt><trkpt lat="40.7412937" lon="-3.8319755"><ele>901.0</ele><time>2026-04-05T16:50:03.145Z</time></trkpt><trkpt lat="40.7412997" lon="-3.8318621"><ele>900.5</ele><time>2026-04-05T16:50:04.145Z</time></trkpt><trkpt lat="40.7413148" lon="-3.8317455"><ele>900.0</ele><time>2026-04-05T16:50:05.145Z</time></trkpt><trkpt lat="40.741337" lon="-3.8316347"><ele>899.6666666666666</ele><time>2026-04-05T16:50:06.145Z</time></trkpt><trkpt lat="40.7413559" lon="-3.8315236"><ele>899.3333333333333</ele><time>2026-04-05T16:50:07.146Z</time></trkpt><trkpt lat="40.741375" lon="-3.83143"><ele>899.0</ele><time>2026-04-05T16:50:08.145Z</time></trkpt><trkpt lat="40.741399" lon="-3.8313316"><ele>898.6666666666666</ele><time>2026-04-05T16:50:09.145Z</time></trkpt><trkpt lat="40.7414195" lon="-3.8312284"><ele>898.3333333333333</ele><time>2026-04-05T16:50:10.145Z</time></trkpt><trkpt lat="40.741437" lon="-3.8311213"><ele>898.0</ele><time>2026-04-05T16:50:11.145Z</time></trkpt><trkpt lat="40.7414508" lon="-3.8310107"><ele>897.6666666666666</ele><time>2026-04-05T16:50:12.145Z</time></trkpt><trkpt lat="40.741468" lon="-3.8308947"><ele>897.3333333333333</ele><time>2026-04-05T16:50:13.145Z</time></trkpt><trkpt lat="40.7414833" lon="-3.8307915"><ele>897.0</ele><time>2026-04-05T16:50:14.145Z</time></trkpt><trkpt lat="40.7414957" lon="-3.8306857"><ele>896.6666666666667</ele><time>2026-04-05T16:50:15.145Z</time></trkpt><trkpt lat="40.7415097" lon="-3.8305774"><ele>896.3333333333334</ele><time>2026-04-05T16:50:16.146Z</time></trkpt><trkpt lat="40.7415259" lon="-3.8304712"><ele>896.0</ele><time>2026-04-05T16:50:17.145Z</time></trkpt><trkpt lat="40.741544" lon="-3.8303649"><ele>896.0000000000001</ele><time>2026-04-05T16:50:18.145Z</time></trkpt><trkpt lat="40.7415627" lon="-3.8302625"><ele>896.0</ele><time>2026-04-05T16:50:19.145Z</time></trkpt><trkpt lat="40.7415852" lon="-3.8301713"><ele>896.0</ele><time>2026-04-05T16:50:20.145Z</time></trkpt><trkpt lat="40.7416127" lon="-3.8300795"><ele>896.0</ele><time>2026-04-05T16:50:21.145Z</time></trkpt><trkpt lat="40.7416414" lon="-3.8299837"><ele>896.0000000000001</ele><time>2026-04-05T16:50:22.145Z</time></trkpt><trkpt lat="40.741659" lon="-3.829885"><ele>896.0</ele><time>2026-04-05T16:50:23.145Z</time></trkpt><trkpt lat="40.7416679" lon="-3.8297882"><ele>896.0</ele><time>2026-04-05T16:50:24.146Z</time></trkpt><trkpt lat="40.7416708" lon="-3.8296248"><ele>895.9999999999999</ele><time>2026-04-05T16:50:26.146Z</time></trkpt><trkpt lat="40.7416839" lon="-3.8294641"><ele>895.9999999999999</ele><time>2026-04-05T16:50:28.145Z</time></trkpt><trkpt lat="40.7416985" lon="-3.8293761"><ele>896.0</ele><time>2026-04-05T16:50:29.145Z</time></trkpt><trkpt lat="40.7417154" lon="-3.8292893"><ele>896.0</ele><time>2026-04-05T16:50:30.145Z</time></trkpt><trkpt lat="40.7417101" lon="-3.8291554"><ele>895.8</ele><time>2026-04-05T16:50:32.145Z</time></trkpt><trkpt lat="40.7417167" lon="-3.8290361"><ele>895.5999999999999</ele><time>2026-04-05T16:50:34.145Z</time></trkpt><trkpt lat="40.7417618" lon="-3.8289147"><ele>895.4</ele><time>2026-04-05T16:50:36.146Z</time></trkpt><trkpt lat="40.7417858" lon="-3.8288038"><ele>895.2</ele><time>2026-04-05T16:50:38.146Z</time></trkpt><trkpt lat="40.7417443" lon="-3.8286753"><ele>895.0</ele><time>2026-04-05T16:50:40.145Z</time></trkpt><trkpt lat="40.7417023" lon="-3.8285188"><ele>895.3333333333333</ele><time>2026-04-05T16:50:42.145Z</time></trkpt><trkpt lat="40.7416829" lon="-3.8284209"><ele>895.6666666666666</ele><time>2026-04-05T16:50:43.145Z</time></trkpt><trkpt lat="40.7416602" lon="-3.828319"><ele>896.0</ele><time>2026-04-05T16:50:44.146Z</time></trkpt><trkpt lat="40.7416425" lon="-3.8282101"><ele>896.3333333333333</ele><time>2026-04-05T16:50:45.145Z</time></trkpt><trkpt lat="40.7416272" lon="-3.8281009"><ele>896.6666666666666</ele><time>2026-04-05T16:50:46.145Z</time></trkpt><trkpt lat="40.7416035" lon="-3.8280097"><ele>897.0</ele><time>2026-04-05T16:50:47.145Z</time></trkpt><trkpt lat="40.741572" lon="-3.8279221"><ele>897.0</ele><time>2026-04-05T16:50:48.145Z</time></trkpt><trkpt lat="40.7415467" lon="-3.827832"><ele>897.0</ele><time>2026-04-05T16:50:49.145Z</time></trkpt><trkpt lat="40.7415282" lon="-3.8277467"><ele>897.0</ele><time>2026-04-05T16:50:50.145Z</time></trkpt><trkpt lat="40.7415308" lon="-3.8275755"><ele>897.0</ele><time>2026-04-05T16:50:52.145Z</time></trkpt><trkpt lat="40.7415302" lon="-3.8274192"><ele>897.0</ele><time>2026-04-05T16:50:54.145Z</time></trkpt><trkpt lat="40.7414806" lon="-3.8272954"><ele>897.0</ele><time>2026-04-05T16:50:56.145Z</time></trkpt><trkpt lat="40.7413901" lon="-3.8272149"><ele>897.0</ele><time>2026-04-05T16:50:58.145Z</time></trkpt><trkpt lat="40.7413242" lon="-3.8270921"><ele>897.0</ele><time>2026-04-05T16:51:00.146Z</time></trkpt><trkpt lat="40.7413034" lon="-3.8269565"><ele>897.0</ele><time>2026-04-05T16:51:02.146Z</time></trkpt><trkpt lat="40.741235" lon="-3.8268666"><ele>897.0</ele><time>2026-04-05T16:51:04.145Z</time></trkpt><trkpt lat="40.7411778" lon="-3.8268108"><ele>896.8</ele><time>2026-04-05T16:51:05.145Z</time></trkpt><trkpt lat="40.7411197" lon="-3.8267525"><ele>896.6</ele><time>2026-04-05T16:51:06.145Z</time></trkpt><trkpt lat="40.741061" lon="-3.8266625"><ele>896.3999999999999</ele><time>2026-04-05T16:51:08.145Z</time></trkpt><trkpt lat="40.7409988" lon="-3.8266104"><ele>896.1999999999999</ele><time>2026-04-05T16:51:11.145Z</time></trkpt><trkpt lat="40.740972" lon="-3.8265261"><ele>896.0</ele><time>2026-04-05T16:51:30.145Z</time></trkpt><trkpt lat="40.7409834" lon="-3.8263209"><ele>896.0</ele><time>2026-04-05T16:51:42.145Z</time></trkpt><trkpt lat="40.7409299" lon="-3.8262044"><ele>895.9999999999999</ele><time>2026-04-05T16:51:44.145Z</time></trkpt><trkpt lat="40.7408406" lon="-3.8261225"><ele>895.9999999999999</ele><time>2026-04-05T16:51:46.145Z</time></trkpt><trkpt lat="40.7407404" lon="-3.8260427"><ele>896.0</ele><time>2026-04-05T16:51:48.145Z</time></trkpt><trkpt lat="40.7406807" lon="-3.8260047"><ele>896.0</ele><time>2026-04-05T16:51:49.145Z</time></trkpt><trkpt lat="40.7406218" lon="-3.8259693"><ele>896.1666666666667</ele><time>2026-04-05T16:51:50.145Z</time></trkpt><trkpt lat="40.7405074" lon="-3.8259013"><ele>896.3333333333334</ele><time>2026-04-05T16:51:52.146Z</time></trkpt><trkpt lat="40.7404449" lon="-3.8258614"><ele>896.5</ele><time>2026-04-05T16:51:53.145Z</time></trkpt><trkpt lat="40.7403872" lon="-3.8258043"><ele>896.6666666666667</ele><time>2026-04-05T16:51:54.145Z</time></trkpt><trkpt lat="40.7403387" lon="-3.8257361"><ele>896.8333333333334</ele><time>2026-04-05T16:51:55.145Z</time></trkpt><trkpt lat="40.7402913" lon="-3.825669"><ele>897.0</ele><time>2026-04-05T16:51:56.145Z</time></trkpt><trkpt lat="40.7402432" lon="-3.8255878"><ele>896.8</ele><time>2026-04-05T16:51:57.145Z</time></trkpt><trkpt lat="40.7401866" lon="-3.8255086"><ele>896.6</ele><time>2026-04-05T16:51:58.145Z</time></trkpt><trkpt lat="40.7401396" lon="-3.8254368"><ele>896.3999999999999</ele><time>2026-04-05T16:51:59.145Z</time></trkpt><trkpt lat="40.7400594" lon="-3.8253258"><ele>896.1999999999999</ele><time>2026-04-05T16:52:01.146Z</time></trkpt><trkpt lat="40.7399647" lon="-3.8252209"><ele>896.0</ele><time>2026-04-05T16:52:03.145Z</time></trkpt><trkpt lat="40.7399112" lon="-3.8251728"><ele>896.1666666666667</ele><time>2026-04-05T16:52:04.145Z</time></trkpt><trkpt lat="40.7398575" lon="-3.8251253"><ele>896.3333333333334</ele><time>2026-04-05T16:52:05.145Z</time></trkpt><trkpt lat="40.7397994" lon="-3.8250746"><ele>896.5</ele><time>2026-04-05T16:52:06.145Z</time></trkpt><trkpt lat="40.739743" lon="-3.825023"><ele>896.6666666666667</ele><time>2026-04-05T16:52:07.145Z</time></trkpt><trkpt lat="40.7396857" lon="-3.8249857"><ele>896.8333333333334</ele><time>2026-04-05T16:52:08.145Z</time></trkpt><trkpt lat="40.7395696" lon="-3.8249476"><ele>897.0</ele><time>2026-04-05T16:52:10.145Z</time></trkpt><trkpt lat="40.7394684" lon="-3.824863"><ele>897.0</ele><time>2026-04-05T16:52:12.146Z</time></trkpt><trkpt lat="40.7394198" lon="-3.8248029"><ele>897.0</ele><time>2026-04-05T16:52:13.145Z</time></trkpt><trkpt lat="40.7393595" lon="-3.8247414"><ele>897.0</ele><time>2026-04-05T16:52:14.145Z</time></trkpt><trkpt lat="40.7392948" lon="-3.8246851"><ele>897.0</ele><time>2026-04-05T16:52:15.145Z</time></trkpt><trkpt lat="40.7392327" lon="-3.8246208"><ele>897.0</ele><time>2026-04-05T16:52:16.145Z</time></trkpt><trkpt lat="40.7391712" lon="-3.8245496"><ele>897.0</ele><time>2026-04-05T16:52:17.145Z</time></trkpt><trkpt lat="40.7391115" lon="-3.8244723"><ele>897.1666666666666</ele><time>2026-04-05T16:52:18.145Z</time></trkpt><trkpt lat="40.7390542" lon="-3.8243902"><ele>897.3333333333333</ele><time>2026-04-05T16:52:19.145Z</time></trkpt><trkpt lat="40.738996" lon="-3.8243138"><ele>897.5</ele><time>2026-04-05T16:52:20.146Z</time></trkpt><trkpt lat="40.7389479" lon="-3.8242463"><ele>897.6666666666666</ele><time>2026-04-05T16:52:21.145Z</time></trkpt><trkpt lat="40.7389031" lon="-3.8241789"><ele>897.8333333333333</ele><time>2026-04-05T16:52:22.145Z</time></trkpt><trkpt lat="40.7388646" lon="-3.8240981"><ele>898.0</ele><time>2026-04-05T16:52:23.145Z</time></trkpt><trkpt lat="40.7388374" lon="-3.8240089"><ele>897.6666666666666</ele><time>2026-04-05T16:52:24.146Z</time></trkpt><trkpt lat="40.738806" lon="-3.8239137"><ele>897.3333333333333</ele><time>2026-04-05T16:52:25.145Z</time></trkpt><trkpt lat="40.7387617" lon="-3.8238227"><ele>897.0</ele><time>2026-04-05T16:52:26.146Z</time></trkpt><trkpt lat="40.7387091" lon="-3.823735"><ele>896.6666666666667</ele><time>2026-04-05T16:52:27.145Z</time></trkpt><trkpt lat="40.738654" lon="-3.8236649"><ele>896.3333333333334</ele><time>2026-04-05T16:52:28.146Z</time></trkpt><trkpt lat="40.7385834" lon="-3.823531"><ele>896.0</ele><time>2026-04-05T16:52:30.145Z</time></trkpt><trkpt lat="40.7385432" lon="-3.8233781"><ele>895.5999999999999</ele><time>2026-04-05T16:52:32.146Z</time></trkpt><trkpt lat="40.7385059" lon="-3.8232219"><ele>895.1999999999999</ele><time>2026-04-05T16:52:34.146Z</time></trkpt><trkpt lat="40.7384231" lon="-3.823123"><ele>894.8000000000001</ele><time>2026-04-05T16:52:36.145Z</time></trkpt><trkpt lat="40.7383625" lon="-3.8230847"><ele>894.4000000000001</ele><time>2026-04-05T16:52:37.146Z</time></trkpt><trkpt lat="40.7383014" lon="-3.8230255"><ele>894.0</ele><time>2026-04-05T16:52:38.145Z</time></trkpt><trkpt lat="40.7382458" lon="-3.8229519"><ele>894.0</ele><time>2026-04-05T16:52:39.145Z</time></trkpt><trkpt lat="40.7381998" lon="-3.8228669"><ele>894.0</ele><time>2026-04-05T16:52:40.145Z</time></trkpt><trkpt lat="40.738152" lon="-3.8227767"><ele>894.0</ele><time>2026-04-05T16:52:41.145Z</time></trkpt><trkpt lat="40.7380997" lon="-3.8226976"><ele>894.0</ele><time>2026-04-05T16:52:42.145Z</time></trkpt><trkpt lat="40.7380357" lon="-3.8226134"><ele>894.0</ele><time>2026-04-05T16:52:43.146Z</time></trkpt><trkpt lat="40.7379729" lon="-3.8225304"><ele>894.0</ele><time>2026-04-05T16:52:44.146Z</time></trkpt><trkpt lat="40.73792" lon="-3.822442"><ele>894.1666666666666</ele><time>2026-04-05T16:52:45.145Z</time></trkpt><trkpt lat="40.7378778" lon="-3.8223525"><ele>894.3333333333333</ele><time>2026-04-05T16:52:46.145Z</time></trkpt><trkpt lat="40.7378445" lon="-3.822268"><ele>894.5</ele><time>2026-04-05T16:52:47.145Z</time></trkpt><trkpt lat="40.7378123" lon="-3.8221914"><ele>894.6666666666666</ele><time>2026-04-05T16:52:48.145Z</time></trkpt><trkpt lat="40.7377912" lon="-3.8221117"><ele>894.8333333333333</ele><time>2026-04-05T16:52:49.145Z</time></trkpt><trkpt lat="40.7377775" lon="-3.8219569"><ele>895.0</ele><time>2026-04-05T16:52:51.145Z</time></trkpt><trkpt lat="40.7377604" lon="-3.8218621"><ele>894.8333333333333</ele><time>2026-04-05T16:52:52.145Z</time></trkpt><trkpt lat="40.737744" lon="-3.8217577"><ele>894.6666666666666</ele><time>2026-04-05T16:52:53.145Z</time></trkpt><trkpt lat="40.7377231" lon="-3.8216505"><ele>894.5</ele><time>2026-04-05T16:52:54.146Z</time></trkpt><trkpt lat="40.7377089" lon="-3.8215468"><ele>894.3333333333333</ele><time>2026-04-05T16:52:55.145Z</time></trkpt><trkpt lat="40.7376965" lon="-3.8214483"><ele>894.1666666666666</ele><time>2026-04-05T16:52:56.145Z</time></trkpt><trkpt lat="40.737681" lon="-3.8213577"><ele>894.0</ele><time>2026-04-05T16:52:57.145Z</time></trkpt><trkpt lat="40.7376662" lon="-3.8212708"><ele>894.1666666666666</ele><time>2026-04-05T16:52:58.145Z</time></trkpt><trkpt lat="40.7376418" lon="-3.8211813"><ele>894.3333333333333</ele><time>2026-04-05T16:52:59.146Z</time></trkpt><trkpt lat="40.7376189" lon="-3.8210947"><ele>894.5</ele><time>2026-04-05T16:53:00.146Z</time></trkpt><trkpt lat="40.7376074" lon="-3.8210008"><ele>894.6666666666666</ele><time>2026-04-05T16:53:01.145Z</time></trkpt><trkpt lat="40.7375964" lon="-3.8209177"><ele>894.8333333333333</ele><time>2026-04-05T16:53:02.146Z</time></trkpt><trkpt lat="40.7375872" lon="-3.8208261"><ele>895.0</ele><time>2026-04-05T16:53:03.145Z</time></trkpt><trkpt lat="40.7375566" lon="-3.8206935"><ele>895.0</ele><time>2026-04-05T16:53:05.145Z</time></trkpt><trkpt lat="40.7375666" lon="-3.8205394"><ele>895.0</ele><time>2026-04-05T16:53:07.145Z</time></trkpt><trkpt lat="40.7375656" lon="-3.8203715"><ele>895.0</ele><time>2026-04-05T16:53:09.145Z</time></trkpt><trkpt lat="40.7375509" lon="-3.8202762"><ele>895.0</ele><time>2026-04-05T16:53:10.146Z</time></trkpt><trkpt lat="40.7375466" lon="-3.8201908"><ele>895.0</ele><time>2026-04-05T16:53:11.145Z</time></trkpt><trkpt lat="40.7375204" lon="-3.8200696"><ele>895.2</ele><time>2026-04-05T16:53:13.146Z</time></trkpt><trkpt lat="40.7375172" lon="-3.8199551"><ele>895.4</ele><time>2026-04-05T16:53:15.145Z</time></trkpt><trkpt lat="40.7375478" lon="-3.8198399"><ele>895.5999999999999</ele><time>2026-04-05T16:53:17.145Z</time></trkpt><trkpt lat="40.7375987" lon="-3.8197192"><ele>895.8</ele><time>2026-04-05T16:53:19.145Z</time></trkpt><trkpt lat="40.7376295" lon="-3.8196422"><ele>896.0</ele><time>2026-04-05T16:53:20.145Z</time></trkpt><trkpt lat="40.7376872" lon="-3.8195055"><ele>896.1999999999999</ele><time>2026-04-05T16:53:22.146Z</time></trkpt><trkpt lat="40.7377424" lon="-3.8193585"><ele>896.3999999999999</ele><time>2026-04-05T16:53:24.145Z</time></trkpt><trkpt lat="40.7377827" lon="-3.8192323"><ele>896.6</ele><time>2026-04-05T16:53:26.145Z</time></trkpt><trkpt lat="40.7378126" lon="-3.819139"><ele>896.8</ele><time>2026-04-05T16:53:28.145Z</time></trkpt><trkpt lat="40.7378529" lon="-3.8190228"><ele>897.0</ele><time>2026-04-05T16:53:31.145Z</time></trkpt><trkpt lat="40.7378808" lon="-3.8189273"><ele>897.0</ele><time>2026-04-05T16:53:34.146Z</time></trkpt><trkpt lat="40.7378973" lon="-3.8188044"><ele>897.0</ele><time>2026-04-05T16:53:36.145Z</time></trkpt><trkpt lat="40.737916" lon="-3.8186513"><ele>897.0</ele><time>2026-04-05T16:53:38.145Z</time></trkpt><trkpt lat="40.7379268" lon="-3.8185673"><ele>897.0</ele><time>2026-04-05T16:53:39.145Z</time></trkpt><trkpt lat="40.737932" lon="-3.8184716"><ele>897.0</ele><time>2026-04-05T16:53:40.145Z</time></trkpt><trkpt lat="40.7379412" lon="-3.8183707"><ele>897.0</ele><time>2026-04-05T16:53:41.145Z</time></trkpt><trkpt lat="40.7379519" lon="-3.8182624"><ele>897.0</ele><time>2026-04-05T16:53:42.145Z</time></trkpt><trkpt lat="40.7379606" lon="-3.8181542"><ele>897.0</ele><time>2026-04-05T16:53:43.145Z</time></trkpt><trkpt lat="40.7379786" lon="-3.8180512"><ele>897.0</ele><time>2026-04-05T16:53:44.145Z</time></trkpt><trkpt lat="40.7380136" lon="-3.8179426"><ele>897.0</ele><time>2026-04-05T16:53:45.145Z</time></trkpt><trkpt lat="40.7380559" lon="-3.8178351"><ele>897.0</ele><time>2026-04-05T16:53:46.146Z</time></trkpt><trkpt lat="40.738098" lon="-3.817731"><ele>897.0</ele><time>2026-04-05T16:53:47.145Z</time></trkpt><trkpt lat="40.7381419" lon="-3.8176289"><ele>897.0</ele><time>2026-04-05T16:53:48.145Z</time></trkpt><trkpt lat="40.7381833" lon="-3.8175321"><ele>897.0</ele><time>2026-04-05T16:53:49.145Z</time></trkpt><trkpt lat="40.7382234" lon="-3.8174389"><ele>897.0</ele><time>2026-04-05T16:53:50.146Z</time></trkpt><trkpt lat="40.7382673" lon="-3.8173453"><ele>897.0</ele><time>2026-04-05T16:53:51.145Z</time></trkpt><trkpt lat="40.7383036" lon="-3.8172548"><ele>897.0</ele><time>2026-04-05T16:53:52.145Z</time></trkpt><trkpt lat="40.7383438" lon="-3.8171647"><ele>897.0</ele><time>2026-04-05T16:53:53.145Z</time></trkpt><trkpt lat="40.7383808" lon="-3.8170729"><ele>897.0</ele><time>2026-04-05T16:53:54.145Z</time></trkpt><trkpt lat="40.7384188" lon="-3.816981"><ele>897.0</ele><time>2026-04-05T16:53:55.145Z</time></trkpt><trkpt lat="40.7384535" lon="-3.8168817"><ele>897.0</ele><time>2026-04-05T16:53:56.145Z</time></trkpt><trkpt lat="40.7384895" lon="-3.8167792"><ele>897.0</ele><time>2026-04-05T16:53:57.145Z</time></trkpt><trkpt lat="40.7385262" lon="-3.8166795"><ele>897.0</ele><time>2026-04-05T16:53:58.145Z</time></trkpt><trkpt lat="40.7385643" lon="-3.816586"><ele>897.0</ele><time>2026-04-05T16:53:59.146Z</time></trkpt><trkpt lat="40.7386041" lon="-3.816492"><ele>897.0</ele><time>2026-04-05T16:54:00.145Z</time></trkpt><trkpt lat="40.7386455" lon="-3.8163995"><ele>897.0</ele><time>2026-04-05T16:54:01.145Z</time></trkpt><trkpt lat="40.7386835" lon="-3.816313"><ele>897.0</ele><time>2026-04-05T16:54:02.146Z</time></trkpt><trkpt lat="40.7387154" lon="-3.8162347"><ele>897.0</ele><time>2026-04-05T16:54:03.146Z</time></trkpt><trkpt lat="40.7387415" lon="-3.816157"><ele>897.0</ele><time>2026-04-05T16:54:04.145Z</time></trkpt><trkpt lat="40.7387908" lon="-3.8160207"><ele>897.0</ele><time>2026-04-05T16:54:06.145Z</time></trkpt><trkpt lat="40.7388314" lon="-3.8159133"><ele>897.0</ele><time>2026-04-05T16:54:08.145Z</time></trkpt><trkpt lat="40.7388779" lon="-3.8158386"><ele>897.0</ele><time>2026-04-05T16:54:10.145Z</time></trkpt><trkpt lat="40.738928" lon="-3.8157453"><ele>897.0</ele><time>2026-04-05T16:54:13.145Z</time></trkpt><trkpt lat="40.739016" lon="-3.8156315"><ele>897.0</ele><time>2026-04-05T16:54:16.145Z</time></trkpt><trkpt lat="40.7391048" lon="-3.8155744"><ele>897.0</ele><time>2026-04-05T16:54:18.145Z</time></trkpt><trkpt lat="40.7391623" lon="-3.8155009"><ele>897.0</ele><time>2026-04-05T16:54:32.145Z</time></trkpt><trkpt lat="40.7391972" lon="-3.8154311"><ele>897.0</ele><time>2026-04-05T16:54:33.145Z</time></trkpt><trkpt lat="40.7392247" lon="-3.8153515"><ele>897.0</ele><time>2026-04-05T16:54:34.145Z</time></trkpt><trkpt lat="40.7392725" lon="-3.815211"><ele>897.0</ele><time>2026-04-05T16:54:36.145Z</time></trkpt><trkpt lat="40.7393127" lon="-3.8150684"><ele>897.0</ele><time>2026-04-05T16:54:38.145Z</time></trkpt><trkpt lat="40.739333" lon="-3.8149851"><ele>897.0</ele><time>2026-04-05T16:54:39.145Z</time></trkpt><trkpt lat="40.7393437" lon="-3.8148168"><ele>897.0</ele><time>2026-04-05T16:54:41.146Z</time></trkpt><trkpt lat="40.7393369" lon="-3.8147144"><ele>897.0</ele><time>2026-04-05T16:54:42.146Z</time></trkpt><trkpt lat="40.7393382" lon="-3.8146091"><ele>897.0</ele><time>2026-04-05T16:54:43.145Z</time></trkpt><trkpt lat="40.7393529" lon="-3.8145101"><ele>897.0</ele><time>2026-04-05T16:54:44.146Z</time></trkpt><trkpt lat="40.7394023" lon="-3.8144223"><ele>897.0</ele><time>2026-04-05T16:54:45.146Z</time></trkpt><trkpt lat="40.7394713" lon="-3.814328"><ele>897.0</ele><time>2026-04-05T16:54:46.145Z</time></trkpt><trkpt lat="40.7395454" lon="-3.8142311"><ele>897.0</ele><time>2026-04-05T16:54:47.145Z</time></trkpt><trkpt lat="40.7396258" lon="-3.8141247"><ele>897.0</ele><time>2026-04-05T16:54:48.145Z</time></trkpt><trkpt lat="40.7397013" lon="-3.8140145"><ele>897.0</ele><time>2026-04-05T16:54:49.145Z</time></trkpt><trkpt lat="40.7397603" lon="-3.8138866"><ele>897.0</ele><time>2026-04-05T16:54:50.146Z</time></trkpt><trkpt lat="40.7398133" lon="-3.8137525"><ele>897.0</ele><time>2026-04-05T16:54:51.145Z</time></trkpt><trkpt lat="40.7398615" lon="-3.8136153"><ele>897.0</ele><time>2026-04-05T16:54:52.145Z</time></trkpt><trkpt lat="40.7399153" lon="-3.8134737"><ele>897.0</ele><time>2026-04-05T16:54:53.146Z</time></trkpt><trkpt lat="40.7399721" lon="-3.8133314"><ele>897.0</ele><time>2026-04-05T16:54:54.146Z</time></trkpt><trkpt lat="40.740033" lon="-3.8131888"><ele>897.25</ele><time>2026-04-05T16:54:55.145Z</time></trkpt><trkpt lat="40.7400894" lon="-3.8130548"><ele>897.5</ele><time>2026-04-05T16:54:56.145Z</time></trkpt><trkpt lat="40.7401433" lon="-3.812925"><ele>897.75</ele><time>2026-04-05T16:54:57.145Z</time></trkpt><trkpt lat="40.7402008" lon="-3.8127921"><ele>898.0</ele><time>2026-04-05T16:54:58.145Z</time></trkpt><trkpt lat="40.7402583" lon="-3.8126641"><ele>898.75</ele><time>2026-04-05T16:54:59.145Z</time></trkpt><trkpt lat="40.7403203" lon="-3.812535"><ele>899.5</ele><time>2026-04-05T16:55:00.145Z</time></trkpt><trkpt lat="40.7403805" lon="-3.8124058"><ele>900.25</ele><time>2026-04-05T16:55:01.146Z</time></trkpt><trkpt lat="40.7404427" lon="-3.8122779"><ele>901.0</ele><time>2026-04-05T16:55:02.145Z</time></trkpt><trkpt lat="40.7405083" lon="-3.8121523"><ele>901.0</ele><time>2026-04-05T16:55:03.145Z</time></trkpt><trkpt lat="40.7405739" lon="-3.8120276"><ele>901.0</ele><time>2026-04-05T16:55:04.145Z</time></trkpt><trkpt lat="40.7406366" lon="-3.8119031"><ele>901.0</ele><time>2026-04-05T16:55:05.146Z</time></trkpt><trkpt lat="40.7406997" lon="-3.8117802"><ele>901.0</ele><time>2026-04-05T16:55:06.145Z</time></trkpt><trkpt lat="40.7407603" lon="-3.8116552"><ele>901.4</ele><time>2026-04-05T16:55:07.145Z</time></trkpt><trkpt lat="40.7408184" lon="-3.811535"><ele>901.8</ele><time>2026-04-05T16:55:08.145Z</time></trkpt><trkpt lat="40.7408816" lon="-3.8114203"><ele>902.1999999999999</ele><time>2026-04-05T16:55:09.145Z</time></trkpt><trkpt lat="40.740942" lon="-3.8112989"><ele>902.5999999999999</ele><time>2026-04-05T16:55:10.146Z</time></trkpt><trkpt lat="40.7410002" lon="-3.8111794"><ele>903.0</ele><time>2026-04-05T16:55:11.145Z</time></trkpt><trkpt lat="40.7410632" lon="-3.811059"><ele>904.0</ele><time>2026-04-05T16:55:12.145Z</time></trkpt><trkpt lat="40.7411264" lon="-3.8109383"><ele>905.0</ele><time>2026-04-05T16:55:13.145Z</time></trkpt><trkpt lat="40.7411881" lon="-3.8108167"><ele>906.0</ele><time>2026-04-05T16:55:14.145Z</time></trkpt><trkpt lat="40.7412508" lon="-3.8106919"><ele>907.0</ele><time>2026-04-05T16:55:15.145Z</time></trkpt><trkpt lat="40.7413184" lon="-3.8105649"><ele>907.0</ele><time>2026-04-05T16:55:16.145Z</time></trkpt><trkpt lat="40.741389" lon="-3.8104395"><ele>907.0</ele><time>2026-04-05T16:55:17.145Z</time></trkpt><trkpt lat="40.741456" lon="-3.8103145"><ele>907.0</ele><time>2026-04-05T16:55:18.145Z</time></trkpt><trkpt lat="40.7415299" lon="-3.8101828"><ele>907.0</ele><time>2026-04-05T16:55:19.145Z</time></trkpt><trkpt lat="40.7416018" lon="-3.81005"><ele>907.0</ele><time>2026-04-05T16:55:20.145Z</time></trkpt><trkpt lat="40.7416709" lon="-3.8099112"><ele>907.0</ele><time>2026-04-05T16:55:21.145Z</time></trkpt><trkpt lat="40.741743" lon="-3.8097705"><ele>907.0</ele><time>2026-04-05T16:55:22.145Z</time></trkpt><trkpt lat="40.7418114" lon="-3.8096403"><ele>907.0</ele><time>2026-04-05T16:55:23.146Z</time></trkpt><trkpt lat="40.7418812" lon="-3.8095136"><ele>907.0</ele><time>2026-04-05T16:55:24.145Z</time></trkpt><trkpt lat="40.7419498" lon="-3.8093845"><ele>907.0</ele><time>2026-04-05T16:55:25.145Z</time></trkpt><trkpt lat="40.7420198" lon="-3.8092483"><ele>907.0</ele><time>2026-04-05T16:55:26.145Z</time></trkpt><trkpt lat="40.7420862" lon="-3.8091098"><ele>907.0</ele><time>2026-04-05T16:55:27.145Z</time></trkpt><trkpt lat="40.7421543" lon="-3.80897"><ele>907.0</ele><time>2026-04-05T16:55:28.145Z</time></trkpt><trkpt lat="40.7422273" lon="-3.808837"><ele>907.0</ele><time>2026-04-05T16:55:29.145Z</time></trkpt><trkpt lat="40.7423" lon="-3.8087013"><ele>907.0</ele><time>2026-04-05T16:55:30.145Z</time></trkpt><trkpt lat="40.7423745" lon="-3.8085641"><ele>907.0</ele><time>2026-04-05T16:55:31.145Z</time></trkpt><trkpt lat="40.74245" lon="-3.8084236"><ele>906.5</ele><time>2026-04-05T16:55:32.146Z</time></trkpt><trkpt lat="40.7425219" lon="-3.8082776"><ele>906.0</ele><time>2026-04-05T16:55:33.146Z</time></trkpt><trkpt lat="40.7425926" lon="-3.8081313"><ele>905.5</ele><time>2026-04-05T16:55:34.146Z</time></trkpt><trkpt lat="40.7426653" lon="-3.8079873"><ele>905.0</ele><time>2026-04-05T16:55:35.146Z</time></trkpt><trkpt lat="40.742738" lon="-3.8078449"><ele>905.0</ele><time>2026-04-05T16:55:36.145Z</time></trkpt><trkpt lat="40.7428119" lon="-3.8077021"><ele>905.0</ele><time>2026-04-05T16:55:37.145Z</time></trkpt><trkpt lat="40.7428895" lon="-3.807556"><ele>905.0</ele><time>2026-04-05T16:55:38.146Z</time></trkpt><trkpt lat="40.7429688" lon="-3.8074128"><ele>905.0</ele><time>2026-04-05T16:55:39.145Z</time></trkpt><trkpt lat="40.7430457" lon="-3.8072705"><ele>905.25</ele><time>2026-04-05T16:55:40.145Z</time></trkpt><trkpt lat="40.7431231" lon="-3.8071262"><ele>905.5</ele><time>2026-04-05T16:55:41.145Z</time></trkpt><trkpt lat="40.7431999" lon="-3.8069824"><ele>905.75</ele><time>2026-04-05T16:55:42.146Z</time></trkpt><trkpt lat="40.7432741" lon="-3.8068407"><ele>906.0</ele><time>2026-04-05T16:55:43.145Z</time></trkpt><trkpt lat="40.7433533" lon="-3.8066938"><ele>906.25</ele><time>2026-04-05T16:55:44.146Z</time></trkpt><trkpt lat="40.7434286" lon="-3.8065536"><ele>906.5</ele><time>2026-04-05T16:55:45.146Z</time></trkpt><trkpt lat="40.7435023" lon="-3.8064049"><ele>906.75</ele><time>2026-04-05T16:55:46.145Z</time></trkpt><trkpt lat="40.7435754" lon="-3.8062565"><ele>907.0</ele><time>2026-04-05T16:55:47.145Z</time></trkpt><trkpt lat="40.7436501" lon="-3.8061082"><ele>907.5</ele><time>2026-04-05T16:55:48.145Z</time></trkpt><trkpt lat="40.7437263" lon="-3.8059557"><ele>908.0</ele><time>2026-04-05T16:55:49.145Z</time></trkpt><trkpt lat="40.7438028" lon="-3.8058051"><ele>908.5</ele><time>2026-04-05T16:55:50.145Z</time></trkpt><trkpt lat="40.7438782" lon="-3.8056542"><ele>909.0</ele><time>2026-04-05T16:55:51.145Z</time></trkpt><trkpt lat="40.7439533" lon="-3.8055052"><ele>909.0</ele><time>2026-04-05T16:55:52.145Z</time></trkpt><trkpt lat="40.7440248" lon="-3.8053585"><ele>909.0</ele><time>2026-04-05T16:55:53.145Z</time></trkpt><trkpt lat="40.7441006" lon="-3.805219"><ele>909.0</ele><time>2026-04-05T16:55:54.146Z</time></trkpt><trkpt lat="40.7441775" lon="-3.8050798"><ele>909.0</ele><time>2026-04-05T16:55:55.145Z</time></trkpt><trkpt lat="40.7442534" lon="-3.8049404"><ele>909.0</ele><time>2026-04-05T16:55:56.145Z</time></trkpt><trkpt lat="40.7443256" lon="-3.8048028"><ele>909.0</ele><time>2026-04-05T16:55:57.145Z</time></trkpt><trkpt lat="40.7443961" lon="-3.8046742"><ele>909.0</ele><time>2026-04-05T16:55:58.145Z</time></trkpt><trkpt lat="40.7444661" lon="-3.8045396"><ele>909.0</ele><time>2026-04-05T16:55:59.145Z</time></trkpt><trkpt lat="40.7445374" lon="-3.8044065"><ele>908.5</ele><time>2026-04-05T16:56:00.145Z</time></trkpt><trkpt lat="40.7446068" lon="-3.8042701"><ele>908.0</ele><time>2026-04-05T16:56:01.145Z</time></trkpt><trkpt lat="40.7446749" lon="-3.8041369"><ele>907.5</ele><time>2026-04-05T16:56:02.145Z</time></trkpt><trkpt lat="40.7447418" lon="-3.8040019"><ele>907.0</ele><time>2026-04-05T16:56:03.145Z</time></trkpt><trkpt lat="40.744811" lon="-3.8038717"><ele>907.0</ele><time>2026-04-05T16:56:04.145Z</time></trkpt><trkpt lat="40.744882" lon="-3.8037455"><ele>907.0</ele><time>2026-04-05T16:56:05.146Z</time></trkpt><trkpt lat="40.7449482" lon="-3.8036162"><ele>907.0</ele><time>2026-04-05T16:56:06.145Z</time></trkpt><trkpt lat="40.7450149" lon="-3.8034904"><ele>907.0</ele><time>2026-04-05T16:56:07.145Z</time></trkpt><trkpt lat="40.7450819" lon="-3.8033518"><ele>907.75</ele><time>2026-04-05T16:56:08.145Z</time></trkpt><trkpt lat="40.7451514" lon="-3.8032105"><ele>908.5</ele><time>2026-04-05T16:56:09.145Z</time></trkpt><trkpt lat="40.7452252" lon="-3.803062"><ele>909.25</ele><time>2026-04-05T16:56:10.145Z</time></trkpt><trkpt lat="40.7453046" lon="-3.802907"><ele>910.0</ele><time>2026-04-05T16:56:11.145Z</time></trkpt><trkpt lat="40.7453845" lon="-3.8027517"><ele>910.5</ele><time>2026-04-05T16:56:12.146Z</time></trkpt><trkpt lat="40.7454583" lon="-3.8026069"><ele>911.0</ele><time>2026-04-05T16:56:13.145Z</time></trkpt><trkpt lat="40.7455287" lon="-3.8024712"><ele>911.5</ele><time>2026-04-05T16:56:14.145Z</time></trkpt><trkpt lat="40.7456011" lon="-3.8023349"><ele>912.0</ele><time>2026-04-05T16:56:15.146Z</time></trkpt><trkpt lat="40.745671" lon="-3.8021949"><ele>912.0</ele><time>2026-04-05T16:56:16.145Z</time></trkpt><trkpt lat="40.7457436" lon="-3.8020518"><ele>912.0</ele><time>2026-04-05T16:56:17.145Z</time></trkpt><trkpt lat="40.7458226" lon="-3.8019093"><ele>912.0</ele><time>2026-04-05T16:56:18.145Z</time></trkpt><trkpt lat="40.745899" lon="-3.8017617"><ele>912.0</ele><time>2026-04-05T16:56:19.145Z</time></trkpt><trkpt lat="40.7459805" lon="-3.8016113"><ele>912.5</ele><time>2026-04-05T16:56:20.146Z</time></trkpt><trkpt lat="40.7460645" lon="-3.8014606"><ele>913.0</ele><time>2026-04-05T16:56:21.145Z</time></trkpt><trkpt lat="40.7461481" lon="-3.801302"><ele>913.5</ele><time>2026-04-05T16:56:22.145Z</time></trkpt><trkpt lat="40.7462306" lon="-3.8011465"><ele>914.0</ele><time>2026-04-05T16:56:23.145Z</time></trkpt><trkpt lat="40.7463126" lon="-3.8009878"><ele>914.0</ele><time>2026-04-05T16:56:24.145Z</time></trkpt><trkpt lat="40.7463929" lon="-3.8008259"><ele>914.0</ele><time>2026-04-05T16:56:25.145Z</time></trkpt><trkpt lat="40.7464742" lon="-3.8006644"><ele>914.0</ele><time>2026-04-05T16:56:26.145Z</time></trkpt><trkpt lat="40.7465573" lon="-3.8005041"><ele>914.0</ele><time>2026-04-05T16:56:27.145Z</time></trkpt><trkpt lat="40.7466414" lon="-3.8003423"><ele>914.0</ele><time>2026-04-05T16:56:28.145Z</time></trkpt><trkpt lat="40.746725" lon="-3.8001847"><ele>914.0</ele><time>2026-04-05T16:56:29.145Z</time></trkpt><trkpt lat="40.7468093" lon="-3.8000237"><ele>914.0</ele><time>2026-04-05T16:56:30.145Z</time></trkpt><trkpt lat="40.7468901" lon="-3.7998696"><ele>914.0</ele><time>2026-04-05T16:56:31.145Z</time></trkpt><trkpt lat="40.7469651" lon="-3.7997244"><ele>914.0</ele><time>2026-04-05T16:56:32.146Z</time></trkpt><trkpt lat="40.7470362" lon="-3.7995916"><ele>914.0</ele><time>2026-04-05T16:56:33.145Z</time></trkpt><trkpt lat="40.7471092" lon="-3.7994598"><ele>914.0</ele><time>2026-04-05T16:56:34.146Z</time></trkpt><trkpt lat="40.7471792" lon="-3.7993202"><ele>914.0</ele><time>2026-04-05T16:56:35.145Z</time></trkpt><trkpt lat="40.7472524" lon="-3.7991776"><ele>914.0</ele><time>2026-04-05T16:56:36.145Z</time></trkpt><trkpt lat="40.7473266" lon="-3.7990371"><ele>914.0</ele><time>2026-04-05T16:56:37.146Z</time></trkpt><trkpt lat="40.747402" lon="-3.7988933"><ele>914.0</ele><time>2026-04-05T16:56:38.146Z</time></trkpt><trkpt lat="40.7474743" lon="-3.7987498"><ele>914.0</ele><time>2026-04-05T16:56:39.145Z</time></trkpt><trkpt lat="40.7475467" lon="-3.7986069"><ele>913.75</ele><time>2026-04-05T16:56:40.145Z</time></trkpt><trkpt lat="40.7476244" lon="-3.7984658"><ele>913.5</ele><time>2026-04-05T16:56:41.145Z</time></trkpt><trkpt lat="40.7476947" lon="-3.7983291"><ele>913.25</ele><time>2026-04-05T16:56:42.145Z</time></trkpt><trkpt lat="40.7477672" lon="-3.798192"><ele>913.0</ele><time>2026-04-05T16:56:43.146Z</time></trkpt><trkpt lat="40.7478368" lon="-3.7980528"><ele>913.25</ele><time>2026-04-05T16:56:44.145Z</time></trkpt><trkpt lat="40.7479099" lon="-3.7979143"><ele>913.5</ele><time>2026-04-05T16:56:45.146Z</time></trkpt><trkpt lat="40.7479847" lon="-3.7977755"><ele>913.75</ele><time>2026-04-05T16:56:46.146Z</time></trkpt><trkpt lat="40.7480573" lon="-3.7976289"><ele>914.0</ele><time>2026-04-05T16:56:47.146Z</time></trkpt><trkpt lat="40.7481315" lon="-3.7974799"><ele>914.0</ele><time>2026-04-05T16:56:48.145Z</time></trkpt><trkpt lat="40.7482101" lon="-3.7973291"><ele>914.0</ele><time>2026-04-05T16:56:49.145Z</time></trkpt><trkpt lat="40.7482851" lon="-3.7971773"><ele>914.0</ele><time>2026-04-05T16:56:50.146Z</time></trkpt><trkpt lat="40.7483585" lon="-3.797029"><ele>914.0</ele><time>2026-04-05T16:56:51.145Z</time></trkpt><trkpt lat="40.748432" lon="-3.7968902"><ele>914.25</ele><time>2026-04-05T16:56:52.145Z</time></trkpt><trkpt lat="40.7485041" lon="-3.796754"><ele>914.5</ele><time>2026-04-05T16:56:53.145Z</time></trkpt><trkpt lat="40.7485777" lon="-3.7966202"><ele>914.75</ele><time>2026-04-05T16:56:54.145Z</time></trkpt><trkpt lat="40.7486502" lon="-3.7964845"><ele>915.0</ele><time>2026-04-05T16:56:55.145Z</time></trkpt><trkpt lat="40.7487231" lon="-3.7963407"><ele>915.25</ele><time>2026-04-05T16:56:56.145Z</time></trkpt><trkpt lat="40.7488008" lon="-3.7961981"><ele>915.5</ele><time>2026-04-05T16:56:57.146Z</time></trkpt><trkpt lat="40.7488756" lon="-3.7960524"><ele>915.75</ele><time>2026-04-05T16:56:58.146Z</time></trkpt><trkpt lat="40.7489467" lon="-3.7959084"><ele>916.0</ele><time>2026-04-05T16:56:59.145Z</time></trkpt><trkpt lat="40.7490169" lon="-3.7957708"><ele>916.0</ele><time>2026-04-05T16:57:00.146Z</time></trkpt><trkpt lat="40.7490899" lon="-3.795638"><ele>916.0</ele><time>2026-04-05T16:57:01.145Z</time></trkpt><trkpt lat="40.7491603" lon="-3.795508"><ele>916.0</ele><time>2026-04-05T16:57:02.145Z</time></trkpt><trkpt lat="40.74923" lon="-3.7953792"><ele>916.0</ele><time>2026-04-05T16:57:03.145Z</time></trkpt><trkpt lat="40.7492968" lon="-3.7952518"><ele>916.0</ele><time>2026-04-05T16:57:04.145Z</time></trkpt><trkpt lat="40.7493645" lon="-3.7951242"><ele>916.0</ele><time>2026-04-05T16:57:05.145Z</time></trkpt><trkpt lat="40.7494328" lon="-3.7949951"><ele>916.0</ele><time>2026-04-05T16:57:06.145Z</time></trkpt><trkpt lat="40.7495007" lon="-3.7948631"><ele>916.0</ele><time>2026-04-05T16:57:07.146Z</time></trkpt><trkpt lat="40.7495692" lon="-3.7947279"><ele>917.25</ele><time>2026-04-05T16:57:08.145Z</time></trkpt><trkpt lat="40.7496361" lon="-3.7945842"><ele>918.5</ele><time>2026-04-05T16:57:09.145Z</time></trkpt><trkpt lat="40.7496966" lon="-3.7944474"><ele>919.75</ele><time>2026-04-05T16:57:10.145Z</time></trkpt><trkpt lat="40.7497503" lon="-3.7943091"><ele>921.0</ele><time>2026-04-05T16:57:11.145Z</time></trkpt><trkpt lat="40.7498061" lon="-3.79417"><ele>921.0</ele><time>2026-04-05T16:57:12.145Z</time></trkpt><trkpt lat="40.74986" lon="-3.7940304"><ele>921.0</ele><time>2026-04-05T16:57:13.145Z</time></trkpt><trkpt lat="40.7499185" lon="-3.7938863"><ele>921.0</ele><time>2026-04-05T16:57:14.146Z</time></trkpt><trkpt lat="40.7499805" lon="-3.7937425"><ele>921.0</ele><time>2026-04-05T16:57:15.145Z</time></trkpt><trkpt lat="40.7500492" lon="-3.7935888"><ele>920.25</ele><time>2026-04-05T16:57:16.145Z</time></trkpt><trkpt lat="40.7501202" lon="-3.7934217"><ele>919.5</ele><time>2026-04-05T16:57:17.145Z</time></trkpt><trkpt lat="40.7501907" lon="-3.7932459"><ele>918.75</ele><time>2026-04-05T16:57:18.145Z</time></trkpt><trkpt lat="40.7502621" lon="-3.7930723"><ele>918.0</ele><time>2026-04-05T16:57:19.145Z</time></trkpt><trkpt lat="40.7503302" lon="-3.7929051"><ele>918.0</ele><time>2026-04-05T16:57:20.146Z</time></trkpt><trkpt lat="40.750399" lon="-3.7927356"><ele>918.0</ele><time>2026-04-05T16:57:21.146Z</time></trkpt><trkpt lat="40.7504635" lon="-3.7925662"><ele>918.0</ele><time>2026-04-05T16:57:22.145Z</time></trkpt><trkpt lat="40.7505284" lon="-3.7923953"><ele>918.0</ele><time>2026-04-05T16:57:23.146Z</time></trkpt><trkpt lat="40.7505908" lon="-3.7922197"><ele>918.0</ele><time>2026-04-05T16:57:24.145Z</time></trkpt><trkpt lat="40.7506475" lon="-3.7920394"><ele>918.0</ele><time>2026-04-05T16:57:25.146Z</time></trkpt><trkpt lat="40.7506959" lon="-3.7918506"><ele>918.0</ele><time>2026-04-05T16:57:26.145Z</time></trkpt><trkpt lat="40.750733" lon="-3.7916484"><ele>918.0</ele><time>2026-04-05T16:57:27.146Z</time></trkpt><trkpt lat="40.7507605" lon="-3.7914512"><ele>918.0</ele><time>2026-04-05T16:57:28.145Z</time></trkpt><trkpt lat="40.7507865" lon="-3.791262"><ele>918.0</ele><time>2026-04-05T16:57:29.145Z</time></trkpt><trkpt lat="40.7508071" lon="-3.7910709"><ele>918.0</ele><time>2026-04-05T16:57:30.145Z</time></trkpt><trkpt lat="40.7508267" lon="-3.7908891"><ele>918.0</ele><time>2026-04-05T16:57:31.146Z</time></trkpt><trkpt lat="40.7508475" lon="-3.7907067"><ele>918.0</ele><time>2026-04-05T16:57:32.145Z</time></trkpt><trkpt lat="40.750868" lon="-3.7905223"><ele>918.0</ele><time>2026-04-05T16:57:33.146Z</time></trkpt><trkpt lat="40.750891" lon="-3.7903359"><ele>918.0</ele><time>2026-04-05T16:57:34.145Z</time></trkpt><trkpt lat="40.7509104" lon="-3.7901561"><ele>918.25</ele><time>2026-04-05T16:57:35.146Z</time></trkpt><trkpt lat="40.7509319" lon="-3.7899815"><ele>918.5</ele><time>2026-04-05T16:57:36.145Z</time></trkpt><trkpt lat="40.7509509" lon="-3.7898123"><ele>918.75</ele><time>2026-04-05T16:57:37.145Z</time></trkpt><trkpt lat="40.750965" lon="-3.7896417"><ele>919.0</ele><time>2026-04-05T16:57:38.145Z</time></trkpt><trkpt lat="40.7509821" lon="-3.789479"><ele>918.75</ele><time>2026-04-05T16:57:39.145Z</time></trkpt><trkpt lat="40.750998" lon="-3.7893231"><ele>918.5</ele><time>2026-04-05T16:57:40.146Z</time></trkpt><trkpt lat="40.7510154" lon="-3.7891724"><ele>918.25</ele><time>2026-04-05T16:57:41.146Z</time></trkpt><trkpt lat="40.7510371" lon="-3.7890259"><ele>918.0</ele><time>2026-04-05T16:57:42.146Z</time></trkpt><trkpt lat="40.7510612" lon="-3.7888792"><ele>918.0</ele><time>2026-04-05T16:57:43.145Z</time></trkpt><trkpt lat="40.7510918" lon="-3.788733"><ele>918.0</ele><time>2026-04-05T16:57:44.145Z</time></trkpt><trkpt lat="40.7511435" lon="-3.7886006"><ele>918.0</ele><time>2026-04-05T16:57:45.145Z</time></trkpt><trkpt lat="40.7512082" lon="-3.7884731"><ele>918.0</ele><time>2026-04-05T16:57:46.145Z</time></trkpt><trkpt lat="40.7512864" lon="-3.7883481"><ele>918.0</ele><time>2026-04-05T16:57:47.146Z</time></trkpt><trkpt lat="40.7513675" lon="-3.7882213"><ele>918.0</ele><time>2026-04-05T16:57:48.145Z</time></trkpt><trkpt lat="40.7514405" lon="-3.7880959"><ele>918.0</ele><time>2026-04-05T16:57:49.145Z</time></trkpt><trkpt lat="40.7515122" lon="-3.787979"><ele>918.0</ele><time>2026-04-05T16:57:50.145Z</time></trkpt><trkpt lat="40.7515775" lon="-3.7878649"><ele>918.0</ele><time>2026-04-05T16:57:51.145Z</time></trkpt><trkpt lat="40.7516447" lon="-3.7877544"><ele>918.0</ele><time>2026-04-05T16:57:52.145Z</time></trkpt><trkpt lat="40.7517107" lon="-3.7876502"><ele>918.0</ele><time>2026-04-05T16:57:53.145Z</time></trkpt><trkpt lat="40.7517698" lon="-3.787552"><ele>918.0</ele><time>2026-04-05T16:57:54.145Z</time></trkpt><trkpt lat="40.751831" lon="-3.7874515"><ele>918.0</ele><time>2026-04-05T16:57:55.145Z</time></trkpt><trkpt lat="40.7518916" lon="-3.7873513"><ele>918.2</ele><time>2026-04-05T16:57:56.145Z</time></trkpt><trkpt lat="40.7519475" lon="-3.787255"><ele>918.4</ele><time>2026-04-05T16:57:57.145Z</time></trkpt><trkpt lat="40.7520085" lon="-3.7871572"><ele>918.6000000000001</ele><time>2026-04-05T16:57:58.145Z</time></trkpt><trkpt lat="40.7520664" lon="-3.7870565"><ele>918.8000000000001</ele><time>2026-04-05T16:57:59.145Z</time></trkpt><trkpt lat="40.7521235" lon="-3.7869566"><ele>919.0</ele><time>2026-04-05T16:58:00.145Z</time></trkpt><trkpt lat="40.7521851" lon="-3.786855"><ele>919.0</ele><time>2026-04-05T16:58:01.145Z</time></trkpt><trkpt lat="40.7522472" lon="-3.7867514"><ele>919.0000000000001</ele><time>2026-04-05T16:58:02.145Z</time></trkpt><trkpt lat="40.7523088" lon="-3.7866469"><ele>919.0000000000001</ele><time>2026-04-05T16:58:03.145Z</time></trkpt><trkpt lat="40.7523698" lon="-3.7865502"><ele>919.0</ele><time>2026-04-05T16:58:04.145Z</time></trkpt><trkpt lat="40.7524212" lon="-3.786457"><ele>919.0</ele><time>2026-04-05T16:58:05.145Z</time></trkpt><trkpt lat="40.7524703" lon="-3.7863759"><ele>919.0</ele><time>2026-04-05T16:58:06.145Z</time></trkpt><trkpt lat="40.7525144" lon="-3.7862931"><ele>919.0000000000001</ele><time>2026-04-05T16:58:07.146Z</time></trkpt><trkpt lat="40.7525847" lon="-3.7861568"><ele>919.0000000000001</ele><time>2026-04-05T16:58:09.146Z</time></trkpt><trkpt lat="40.7525679" lon="-3.786021"><ele>919.0</ele><time>2026-04-05T16:58:11.145Z</time></trkpt><trkpt lat="40.7524875" lon="-3.7859139"><ele>919.0</ele><time>2026-04-05T16:58:13.145Z</time></trkpt><trkpt lat="40.7524116" lon="-3.785825"><ele>918.8000000000001</ele><time>2026-04-05T16:58:15.146Z</time></trkpt><trkpt lat="40.7523335" lon="-3.7857274"><ele>918.6000000000001</ele><time>2026-04-05T16:58:17.145Z</time></trkpt><trkpt lat="40.7522696" lon="-3.7856391"><ele>918.4</ele><time>2026-04-05T16:58:19.146Z</time></trkpt><trkpt lat="40.7522042" lon="-3.785572"><ele>918.2</ele><time>2026-04-05T16:58:21.145Z</time></trkpt><trkpt lat="40.7521907" lon="-3.785446"><ele>918.0</ele><time>2026-04-05T16:58:29.145Z</time></trkpt><trkpt lat="40.7522414" lon="-3.7853659"><ele>918.0</ele><time>2026-04-05T16:58:31.145Z</time></trkpt><trkpt lat="40.7522849" lon="-3.7852931"><ele>918.0</ele><time>2026-04-05T16:58:34.145Z</time></trkpt><trkpt lat="40.7523398" lon="-3.7852186"><ele>918.0</ele><time>2026-04-05T16:58:37.146Z</time></trkpt><trkpt lat="40.7524085" lon="-3.7850824"><ele>918.0</ele><time>2026-04-05T16:58:39.145Z</time></trkpt><trkpt lat="40.752472" lon="-3.7849656"><ele>918.0</ele><time>2026-04-05T16:58:41.146Z</time></trkpt><trkpt lat="40.7525429" lon="-3.7848592"><ele>918.0</ele><time>2026-04-05T16:58:43.145Z</time></trkpt><trkpt lat="40.7526152" lon="-3.7847458"><ele>918.0</ele><time>2026-04-05T16:58:45.145Z</time></trkpt><trkpt lat="40.7526919" lon="-3.7846175"><ele>918.0</ele><time>2026-04-05T16:58:47.146Z</time></trkpt><trkpt lat="40.7527556" lon="-3.7845148"><ele>918.0</ele><time>2026-04-05T16:58:49.145Z</time></trkpt><trkpt lat="40.7527786" lon="-3.7843948"><ele>918.0</ele><time>2026-04-05T16:58:51.145Z</time></trkpt><trkpt lat="40.7527943" lon="-3.7842711"><ele>921.0</ele><time>2026-04-05T16:58:53.145Z</time></trkpt><trkpt lat="40.7528034" lon="-3.7841746"><ele>921.0</ele><time>2026-04-05T16:58:55.145Z</time></trkpt><trkpt lat="40.7528794" lon="-3.7841387"><ele>921.0</ele><time>2026-04-05T16:59:55.145Z</time></trkpt><trkpt lat="40.7528864" lon="-3.7842854"><ele>921.0</ele><time>2026-04-05T17:00:30.145Z</time></trkpt><trkpt lat="40.7528876" lon="-3.7842004"><ele>921.0</ele><time>2026-04-05T17:01:24.145Z</time></trkpt></trkseg></trk></gpx>